<?xml version='1.0' encoding='UTF-8'?><gpx version="1.1" creator="JPX - https://github.com/jenetics/jpx" xmlns="http://www.topografix.com/GPX/1/1"><trk><trkseg><trkpt lat="43.4933089" lon="11.255657"><ele>582.8333333333333</ele><time>2026-03-22T09:24:28.657Z</time></trkpt><trkpt lat="43.4932878" lon="11.2555611"><ele>581.6666666666666</ele><time>2026-03-22T09:24:30.666Z</time></trkpt><trkpt lat="43.4932897" lon="11.2554539"><ele>580.5</ele><time>2026-03-22T09:24:32.667Z</time></trkpt><trkpt lat="43.4932875" lon="11.2553445"><ele>579.3333333333334</ele><time>2026-03-22T09:24:34.665Z</time></trkpt><trkpt lat="43.4932742" lon="11.2552456"><ele>578.1666666666667</ele><time>2026-03-22T09:24:36.665Z</time></trkpt><trkpt lat="43.4932262" lon="11.2551522"><ele>577.0</ele><time>2026-03-22T09:24:38.665Z</time></trkpt><trkpt lat="43.4931422" lon="11.2550769"><ele>577.0</ele><time>2026-03-22T09:24:40.671Z</time></trkpt><trkpt lat="43.4930872" lon="11.2549721"><ele>577.0</ele><time>2026-03-22T09:24:42.665Z</time></trkpt><trkpt lat="43.4930773" lon="11.254866"><ele>577.0</ele><time>2026-03-22T09:24:44.669Z</time></trkpt><trkpt lat="43.4930538" lon="11.2547546"><ele>577.0</ele><time>2026-03-22T09:24:46.667Z</time></trkpt><trkpt lat="43.4929888" lon="11.2546945"><ele>577.0</ele><time>2026-03-22T09:24:48.669Z</time></trkpt><trkpt lat="43.4928982" lon="11.2546612"><ele>577.0</ele><time>2026-03-22T09:24:50.682Z</time></trkpt><trkpt lat="43.4928614" lon="11.2545466"><ele>575.0</ele><time>2026-03-22T09:24:53.662Z</time></trkpt><trkpt lat="43.4928859" lon="11.254458"><ele>573.0</ele><time>2026-03-22T09:24:55.669Z</time></trkpt><trkpt lat="43.4928656" lon="11.2543301"><ele>571.0</ele><time>2026-03-22T09:24:58.669Z</time></trkpt><trkpt lat="43.4928306" lon="11.2542527"><ele>569.0</ele><time>2026-03-22T09:25:00.664Z</time></trkpt><trkpt lat="43.4927912" lon="11.2541675"><ele>567.0</ele><time>2026-03-22T09:25:03.666Z</time></trkpt><trkpt lat="43.4927477" lon="11.2540808"><ele>565.0</ele><time>2026-03-22T09:25:07.672Z</time></trkpt><trkpt lat="43.4927026" lon="11.2540194"><ele>563.0</ele><time>2026-03-22T09:25:09.685Z</time></trkpt><trkpt lat="43.4926427" lon="11.253952"><ele>562.0</ele><time>2026-03-22T09:25:11.675Z</time></trkpt><trkpt lat="43.4925844" lon="11.2538782"><ele>561.0</ele><time>2026-03-22T09:25:13.667Z</time></trkpt><trkpt lat="43.4925212" lon="11.2538636"><ele>560.0</ele><time>2026-03-22T09:25:15.667Z</time></trkpt><trkpt lat="43.4924327" lon="11.2538886"><ele>559.0</ele><time>2026-03-22T09:25:18.668Z</time></trkpt><trkpt lat="43.4923991" lon="11.2537945"><ele>558.0</ele><time>2026-03-22T09:25:21.665Z</time></trkpt><trkpt lat="43.4924253" lon="11.2537122"><ele>557.0</ele><time>2026-03-22T09:25:24.672Z</time></trkpt><trkpt lat="43.4924092" lon="11.2536236"><ele>556.0</ele><time>2026-03-22T09:25:27.669Z</time></trkpt><trkpt lat="43.4923899" lon="11.2535172"><ele>556.0</ele><time>2026-03-22T09:25:30.672Z</time></trkpt><trkpt lat="43.4923939" lon="11.2534"><ele>556.0</ele><time>2026-03-22T09:25:33.673Z</time></trkpt><trkpt lat="43.4923972" lon="11.2533045"><ele>556.0</ele><time>2026-03-22T09:25:36.663Z</time></trkpt><trkpt lat="43.4923872" lon="11.2532111"><ele>556.0</ele><time>2026-03-22T09:25:39.664Z</time></trkpt><trkpt lat="43.4923416" lon="11.2531133"><ele>556.0</ele><time>2026-03-22T09:25:42.669Z</time></trkpt><trkpt lat="43.4922727" lon="11.2530424"><ele>556.0</ele><time>2026-03-22T09:25:45.661Z</time></trkpt><trkpt lat="43.4921846" lon="11.2530284"><ele>553.3333333333334</ele><time>2026-03-22T09:25:48.663Z</time></trkpt><trkpt lat="43.4920974" lon="11.2530527"><ele>550.6666666666667</ele><time>2026-03-22T09:25:51.669Z</time></trkpt><trkpt lat="43.4920215" lon="11.2530332"><ele>548.0</ele><time>2026-03-22T09:25:55.671Z</time></trkpt><trkpt lat="43.4920095" lon="11.2529261"><ele>545.3333333333334</ele><time>2026-03-22T09:25:59.675Z</time></trkpt><trkpt lat="43.4920061" lon="11.2528192"><ele>542.6666666666666</ele><time>2026-03-22T09:26:02.664Z</time></trkpt><trkpt lat="43.4919997" lon="11.2527278"><ele>540.0</ele><time>2026-03-22T09:26:05.682Z</time></trkpt><trkpt lat="43.4919695" lon="11.2526204"><ele>539.6666666666666</ele><time>2026-03-22T09:26:09.661Z</time></trkpt><trkpt lat="43.4919302" lon="11.2525299"><ele>539.3333333333334</ele><time>2026-03-22T09:26:12.673Z</time></trkpt><trkpt lat="43.4918714" lon="11.2524469"><ele>539.0</ele><time>2026-03-22T09:26:15.674Z</time></trkpt><trkpt lat="43.4918276" lon="11.2523789"><ele>538.6666666666667</ele><time>2026-03-22T09:26:17.671Z</time></trkpt><trkpt lat="43.4917777" lon="11.2522705"><ele>538.3333333333334</ele><time>2026-03-22T09:26:20.675Z</time></trkpt><trkpt lat="43.4917337" lon="11.252171"><ele>538.0</ele><time>2026-03-22T09:26:23.663Z</time></trkpt><trkpt lat="43.491696" lon="11.2521008"><ele>536.1666666666667</ele><time>2026-03-22T09:26:25.658Z</time></trkpt><trkpt lat="43.491616" lon="11.2520454"><ele>534.3333333333334</ele><time>2026-03-22T09:26:28.668Z</time></trkpt><trkpt lat="43.4915359" lon="11.2520014"><ele>532.5</ele><time>2026-03-22T09:26:31.666Z</time></trkpt><trkpt lat="43.4914754" lon="11.2519467"><ele>530.6666666666666</ele><time>2026-03-22T09:26:33.679Z</time></trkpt><trkpt lat="43.4914039" lon="11.2518333"><ele>528.8333333333333</ele><time>2026-03-22T09:26:35.682Z</time></trkpt><trkpt lat="43.4913581" lon="11.2517715"><ele>527.0</ele><time>2026-03-22T09:26:36.67Z</time></trkpt><trkpt lat="43.4912641" lon="11.251635"><ele>526.3333333333333</ele><time>2026-03-22T09:26:38.666Z</time></trkpt><trkpt lat="43.4912011" lon="11.2515678"><ele>525.6666666666666</ele><time>2026-03-22T09:26:39.669Z</time></trkpt><trkpt lat="43.4911378" lon="11.2515054"><ele>525.0</ele><time>2026-03-22T09:26:40.669Z</time></trkpt><trkpt lat="43.4910865" lon="11.2514359"><ele>524.3333333333334</ele><time>2026-03-22T09:26:41.662Z</time></trkpt><trkpt lat="43.4910398" lon="11.25137"><ele>523.6666666666667</ele><time>2026-03-22T09:26:42.674Z</time></trkpt><trkpt lat="43.4909408" lon="11.2512905"><ele>523.0</ele><time>2026-03-22T09:26:44.662Z</time></trkpt><trkpt lat="43.4908459" lon="11.25122"><ele>523.0</ele><time>2026-03-22T09:26:46.666Z</time></trkpt><trkpt lat="43.4907511" lon="11.2511339"><ele>523.0</ele><time>2026-03-22T09:26:48.66Z</time></trkpt><trkpt lat="43.4906753" lon="11.2510345"><ele>523.0</ele><time>2026-03-22T09:26:50.671Z</time></trkpt><trkpt lat="43.490597" lon="11.2509472"><ele>523.0</ele><time>2026-03-22T09:26:52.667Z</time></trkpt><trkpt lat="43.490488" lon="11.250886"><ele>523.0</ele><time>2026-03-22T09:26:54.668Z</time></trkpt><trkpt lat="43.4903678" lon="11.2508488"><ele>522.1428571428571</ele><time>2026-03-22T09:26:56.668Z</time></trkpt><trkpt lat="43.4903018" lon="11.2508298"><ele>521.2857142857142</ele><time>2026-03-22T09:26:57.667Z</time></trkpt><trkpt lat="43.4902363" lon="11.2507928"><ele>520.4285714285714</ele><time>2026-03-22T09:26:58.67Z</time></trkpt><trkpt lat="43.4901698" lon="11.2507515"><ele>519.5714285714286</ele><time>2026-03-22T09:26:59.671Z</time></trkpt><trkpt lat="43.4900986" lon="11.2507078"><ele>518.7142857142858</ele><time>2026-03-22T09:27:00.674Z</time></trkpt><trkpt lat="43.4900329" lon="11.2506711"><ele>517.8571428571429</ele><time>2026-03-22T09:27:01.668Z</time></trkpt><trkpt lat="43.4899725" lon="11.2506202"><ele>517.0</ele><time>2026-03-22T09:27:02.696Z</time></trkpt><trkpt lat="43.48991" lon="11.2505801"><ele>516.1666666666667</ele><time>2026-03-22T09:27:03.663Z</time></trkpt><trkpt lat="43.4898466" lon="11.2505447"><ele>515.3333333333334</ele><time>2026-03-22T09:27:04.665Z</time></trkpt><trkpt lat="43.4897271" lon="11.2504766"><ele>514.5</ele><time>2026-03-22T09:27:06.667Z</time></trkpt><trkpt lat="43.4896612" lon="11.2504488"><ele>513.6666666666666</ele><time>2026-03-22T09:27:07.693Z</time></trkpt><trkpt lat="43.4895896" lon="11.250411"><ele>512.8333333333333</ele><time>2026-03-22T09:27:08.668Z</time></trkpt><trkpt lat="43.4895194" lon="11.2503701"><ele>512.0</ele><time>2026-03-22T09:27:09.666Z</time></trkpt><trkpt lat="43.4894473" lon="11.2503299"><ele>509.66666666666663</ele><time>2026-03-22T09:27:10.666Z</time></trkpt><trkpt lat="43.489386" lon="11.2502837"><ele>507.3333333333333</ele><time>2026-03-22T09:27:11.673Z</time></trkpt><trkpt lat="43.4893311" lon="11.2502344"><ele>505.0</ele><time>2026-03-22T09:27:12.661Z</time></trkpt><trkpt lat="43.4892476" lon="11.2501334"><ele>502.66666666666663</ele><time>2026-03-22T09:27:14.668Z</time></trkpt><trkpt lat="43.489181" lon="11.2500728"><ele>500.3333333333333</ele><time>2026-03-22T09:27:16.671Z</time></trkpt><trkpt lat="43.4891169" lon="11.2500263"><ele>498.0</ele><time>2026-03-22T09:27:18.67Z</time></trkpt><trkpt lat="43.4890624" lon="11.2499818"><ele>498.0</ele><time>2026-03-22T09:27:20.671Z</time></trkpt><trkpt lat="43.4889986" lon="11.2499578"><ele>498.0</ele><time>2026-03-22T09:27:23.665Z</time></trkpt><trkpt lat="43.488955" lon="11.2498718"><ele>498.0</ele><time>2026-03-22T09:27:28.668Z</time></trkpt><trkpt lat="43.4888696" lon="11.2497535"><ele>498.0</ele><time>2026-03-22T09:27:30.669Z</time></trkpt><trkpt lat="43.4888202" lon="11.2496719"><ele>498.0</ele><time>2026-03-22T09:27:31.654Z</time></trkpt><trkpt lat="43.4887798" lon="11.2495937"><ele>498.0</ele><time>2026-03-22T09:27:32.663Z</time></trkpt><trkpt lat="43.4887354" lon="11.2495204"><ele>494.3333333333333</ele><time>2026-03-22T09:27:33.666Z</time></trkpt><trkpt lat="43.4886886" lon="11.2494346"><ele>490.66666666666663</ele><time>2026-03-22T09:27:34.663Z</time></trkpt><trkpt lat="43.4886375" lon="11.249363"><ele>487.0</ele><time>2026-03-22T09:27:35.658Z</time></trkpt><trkpt lat="43.4885851" lon="11.2492862"><ele>483.3333333333333</ele><time>2026-03-22T09:27:36.657Z</time></trkpt><trkpt lat="43.4885427" lon="11.2492141"><ele>479.66666666666663</ele><time>2026-03-22T09:27:37.665Z</time></trkpt><trkpt lat="43.4884673" lon="11.2490857"><ele>476.0</ele><time>2026-03-22T09:27:39.666Z</time></trkpt><trkpt lat="43.4883991" lon="11.2489607"><ele>474.6</ele><time>2026-03-22T09:27:41.663Z</time></trkpt><trkpt lat="43.4883321" lon="11.2488467"><ele>473.20000000000005</ele><time>2026-03-22T09:27:43.659Z</time></trkpt><trkpt lat="43.4882542" lon="11.2487608"><ele>471.79999999999995</ele><time>2026-03-22T09:27:45.663Z</time></trkpt><trkpt lat="43.4881565" lon="11.2487047"><ele>470.4</ele><time>2026-03-22T09:27:47.662Z</time></trkpt><trkpt lat="43.4880546" lon="11.248667"><ele>469.0</ele><time>2026-03-22T09:27:49.667Z</time></trkpt><trkpt lat="43.4879511" lon="11.2486318"><ele>466.83333333333337</ele><time>2026-03-22T09:27:51.667Z</time></trkpt><trkpt lat="43.4878527" lon="11.2486255"><ele>464.6666666666667</ele><time>2026-03-22T09:27:53.669Z</time></trkpt><trkpt lat="43.4877767" lon="11.2486601"><ele>462.5</ele><time>2026-03-22T09:27:55.667Z</time></trkpt><trkpt lat="43.4877238" lon="11.2487543"><ele>460.33333333333337</ele><time>2026-03-22T09:27:57.665Z</time></trkpt><trkpt lat="43.4876926" lon="11.2488363"><ele>458.1666666666667</ele><time>2026-03-22T09:28:01.665Z</time></trkpt><trkpt lat="43.4876799" lon="11.2489476"><ele>456.0</ele><time>2026-03-22T09:28:03.666Z</time></trkpt><trkpt lat="43.487675" lon="11.2490592"><ele>456.0</ele><time>2026-03-22T09:28:04.67Z</time></trkpt><trkpt lat="43.4876687" lon="11.2491885"><ele>456.0</ele><time>2026-03-22T09:28:05.664Z</time></trkpt><trkpt lat="43.4876707" lon="11.2493072"><ele>456.0</ele><time>2026-03-22T09:28:06.666Z</time></trkpt><trkpt lat="43.4876788" lon="11.2494281"><ele>456.0</ele><time>2026-03-22T09:28:07.666Z</time></trkpt><trkpt lat="43.4876928" lon="11.2495398"><ele>456.0</ele><time>2026-03-22T09:28:08.672Z</time></trkpt><trkpt lat="43.4877059" lon="11.2496524"><ele>456.0</ele><time>2026-03-22T09:28:09.662Z</time></trkpt><trkpt lat="43.4877085" lon="11.2497743"><ele>456.20000000000005</ele><time>2026-03-22T09:28:10.662Z</time></trkpt><trkpt lat="43.4877107" lon="11.2498909"><ele>456.40000000000003</ele><time>2026-03-22T09:28:11.664Z</time></trkpt><trkpt lat="43.4877207" lon="11.2500139"><ele>456.6</ele><time>2026-03-22T09:28:12.658Z</time></trkpt><trkpt lat="43.4877467" lon="11.2501534"><ele>456.8</ele><time>2026-03-22T09:28:13.663Z</time></trkpt><trkpt lat="43.4877787" lon="11.250309"><ele>457.0</ele><time>2026-03-22T09:28:14.672Z</time></trkpt><trkpt lat="43.4878232" lon="11.2504765"><ele>458.20000000000005</ele><time>2026-03-22T09:28:15.657Z</time></trkpt><trkpt lat="43.4878696" lon="11.2506474"><ele>459.40000000000003</ele><time>2026-03-22T09:28:16.694Z</time></trkpt><trkpt lat="43.4879212" lon="11.2508036"><ele>460.59999999999997</ele><time>2026-03-22T09:28:17.657Z</time></trkpt><trkpt lat="43.4879609" lon="11.2509332"><ele>461.79999999999995</ele><time>2026-03-22T09:28:18.663Z</time></trkpt><trkpt lat="43.4879782" lon="11.2510399"><ele>463.0</ele><time>2026-03-22T09:28:19.671Z</time></trkpt><trkpt lat="43.4879633" lon="11.2511513"><ele>463.0</ele><time>2026-03-22T09:28:20.665Z</time></trkpt><trkpt lat="43.4879254" lon="11.2512539"><ele>462.99999999999994</ele><time>2026-03-22T09:28:21.663Z</time></trkpt><trkpt lat="43.4878603" lon="11.2513502"><ele>462.99999999999994</ele><time>2026-03-22T09:28:22.661Z</time></trkpt><trkpt lat="43.4877635" lon="11.2514331"><ele>463.0</ele><time>2026-03-22T09:28:23.662Z</time></trkpt><trkpt lat="43.4876579" lon="11.2514911"><ele>463.0</ele><time>2026-03-22T09:28:24.667Z</time></trkpt><trkpt lat="43.4875219" lon="11.2515135"><ele>466.33333333333337</ele><time>2026-03-22T09:28:25.665Z</time></trkpt><trkpt lat="43.4873655" lon="11.2515228"><ele>469.66666666666663</ele><time>2026-03-22T09:28:26.665Z</time></trkpt><trkpt lat="43.4872013" lon="11.251534"><ele>473.0</ele><time>2026-03-22T09:28:27.666Z</time></trkpt><trkpt lat="43.48705" lon="11.2515386"><ele>473.2</ele><time>2026-03-22T09:28:28.668Z</time></trkpt><trkpt lat="43.4869204" lon="11.2515524"><ele>473.4</ele><time>2026-03-22T09:28:29.667Z</time></trkpt><trkpt lat="43.486804" lon="11.2515648"><ele>473.59999999999997</ele><time>2026-03-22T09:28:30.667Z</time></trkpt><trkpt lat="43.4866994" lon="11.2515809"><ele>473.79999999999995</ele><time>2026-03-22T09:28:31.685Z</time></trkpt><trkpt lat="43.4866216" lon="11.2516049"><ele>474.0</ele><time>2026-03-22T09:28:32.666Z</time></trkpt><trkpt lat="43.4865369" lon="11.2516751"><ele>474.0</ele><time>2026-03-22T09:28:34.663Z</time></trkpt><trkpt lat="43.4864751" lon="11.2517412"><ele>474.0</ele><time>2026-03-22T09:28:43.664Z</time></trkpt><trkpt lat="43.4864225" lon="11.2518922"><ele>474.0</ele><time>2026-03-22T09:28:45.663Z</time></trkpt><trkpt lat="43.4864067" lon="11.2520138"><ele>474.0</ele><time>2026-03-22T09:28:46.671Z</time></trkpt><trkpt lat="43.4863956" lon="11.2521757"><ele>474.0</ele><time>2026-03-22T09:28:47.665Z</time></trkpt><trkpt lat="43.486405" lon="11.2523713"><ele>475.75</ele><time>2026-03-22T09:28:48.668Z</time></trkpt><trkpt lat="43.4864212" lon="11.2525668"><ele>477.5</ele><time>2026-03-22T09:28:49.662Z</time></trkpt><trkpt lat="43.4864355" lon="11.2527653"><ele>479.25</ele><time>2026-03-22T09:28:50.663Z</time></trkpt><trkpt lat="43.4864358" lon="11.2529161"><ele>481.0</ele><time>2026-03-22T09:28:51.667Z</time></trkpt><trkpt lat="43.486408" lon="11.253043"><ele>482.6</ele><time>2026-03-22T09:28:52.669Z</time></trkpt><trkpt lat="43.486355" lon="11.2531475"><ele>484.20000000000005</ele><time>2026-03-22T09:28:53.664Z</time></trkpt><trkpt lat="43.4862864" lon="11.2532245"><ele>485.79999999999995</ele><time>2026-03-22T09:28:54.667Z</time></trkpt><trkpt lat="43.4862091" lon="11.2532738"><ele>487.4</ele><time>2026-03-22T09:28:55.667Z</time></trkpt><trkpt lat="43.4861065" lon="11.2532793"><ele>489.0</ele><time>2026-03-22T09:28:56.664Z</time></trkpt><trkpt lat="43.4859939" lon="11.2532637"><ele>489.75</ele><time>2026-03-22T09:28:57.658Z</time></trkpt><trkpt lat="43.4858805" lon="11.2532056"><ele>490.5</ele><time>2026-03-22T09:28:58.689Z</time></trkpt><trkpt lat="43.4857746" lon="11.2531104"><ele>491.25</ele><time>2026-03-22T09:28:59.663Z</time></trkpt><trkpt lat="43.4856618" lon="11.2529851"><ele>492.0</ele><time>2026-03-22T09:29:00.664Z</time></trkpt><trkpt lat="43.4855514" lon="11.2528498"><ele>489.75</ele><time>2026-03-22T09:29:01.669Z</time></trkpt><trkpt lat="43.4854331" lon="11.2527412"><ele>487.5</ele><time>2026-03-22T09:29:02.664Z</time></trkpt><trkpt lat="43.4853094" lon="11.2526454"><ele>485.25</ele><time>2026-03-22T09:29:03.665Z</time></trkpt><trkpt lat="43.4851753" lon="11.2525557"><ele>483.0</ele><time>2026-03-22T09:29:04.679Z</time></trkpt><trkpt lat="43.4850257" lon="11.252496"><ele>483.0</ele><time>2026-03-22T09:29:05.662Z</time></trkpt><trkpt lat="43.4848863" lon="11.2524479"><ele>483.0</ele><time>2026-03-22T09:29:06.67Z</time></trkpt><trkpt lat="43.4847558" lon="11.2524167"><ele>483.0</ele><time>2026-03-22T09:29:07.662Z</time></trkpt><trkpt lat="43.4846316" lon="11.2523971"><ele>483.0</ele><time>2026-03-22T09:29:08.662Z</time></trkpt><trkpt lat="43.4845315" lon="11.2524051"><ele>482.4</ele><time>2026-03-22T09:29:09.661Z</time></trkpt><trkpt lat="43.4844222" lon="11.2524342"><ele>481.79999999999995</ele><time>2026-03-22T09:29:10.664Z</time></trkpt><trkpt lat="43.4843298" lon="11.2524736"><ele>481.2</ele><time>2026-03-22T09:29:11.666Z</time></trkpt><trkpt lat="43.4842479" lon="11.2525276"><ele>480.6</ele><time>2026-03-22T09:29:12.661Z</time></trkpt><trkpt lat="43.4841875" lon="11.2526009"><ele>480.0</ele><time>2026-03-22T09:29:13.662Z</time></trkpt><trkpt lat="43.4841255" lon="11.2526919"><ele>480.0</ele><time>2026-03-22T09:29:14.668Z</time></trkpt><trkpt lat="43.484074" lon="11.2527774"><ele>480.0</ele><time>2026-03-22T09:29:15.658Z</time></trkpt><trkpt lat="43.4840484" lon="11.2529068"><ele>480.0</ele><time>2026-03-22T09:29:16.664Z</time></trkpt><trkpt lat="43.4840355" lon="11.2530702"><ele>480.0</ele><time>2026-03-22T09:29:17.662Z</time></trkpt><trkpt lat="43.4840272" lon="11.2532425"><ele>480.0</ele><time>2026-03-22T09:29:18.663Z</time></trkpt><trkpt lat="43.4840461" lon="11.2534471"><ele>481.33333333333337</ele><time>2026-03-22T09:29:19.658Z</time></trkpt><trkpt lat="43.484082" lon="11.253654"><ele>482.6666666666667</ele><time>2026-03-22T09:29:20.668Z</time></trkpt><trkpt lat="43.484132" lon="11.2538843"><ele>484.0</ele><time>2026-03-22T09:29:21.665Z</time></trkpt><trkpt lat="43.4841867" lon="11.2541003"><ele>484.0</ele><time>2026-03-22T09:29:22.665Z</time></trkpt><trkpt lat="43.4842345" lon="11.2543069"><ele>484.0</ele><time>2026-03-22T09:29:23.699Z</time></trkpt><trkpt lat="43.4842779" lon="11.2544809"><ele>484.0</ele><time>2026-03-22T09:29:24.671Z</time></trkpt><trkpt lat="43.4843045" lon="11.2546533"><ele>484.0</ele><time>2026-03-22T09:29:25.665Z</time></trkpt><trkpt lat="43.4843115" lon="11.2548102"><ele>484.75</ele><time>2026-03-22T09:29:26.667Z</time></trkpt><trkpt lat="43.4842831" lon="11.2549631"><ele>485.5</ele><time>2026-03-22T09:29:27.667Z</time></trkpt><trkpt lat="43.4842227" lon="11.2551224"><ele>486.25</ele><time>2026-03-22T09:29:28.659Z</time></trkpt><trkpt lat="43.4841517" lon="11.255305"><ele>487.0</ele><time>2026-03-22T09:29:29.665Z</time></trkpt><trkpt lat="43.4840972" lon="11.2555004"><ele>489.0</ele><time>2026-03-22T09:29:30.667Z</time></trkpt><trkpt lat="43.4840627" lon="11.2557098"><ele>491.0</ele><time>2026-03-22T09:29:31.657Z</time></trkpt><trkpt lat="43.4840282" lon="11.2558999"><ele>493.0</ele><time>2026-03-22T09:29:32.685Z</time></trkpt><trkpt lat="43.4839889" lon="11.2560735"><ele>495.0</ele><time>2026-03-22T09:29:33.662Z</time></trkpt><trkpt lat="43.4839152" lon="11.2562313"><ele>495.0</ele><time>2026-03-22T09:29:34.655Z</time></trkpt><trkpt lat="43.483827" lon="11.2563478"><ele>495.0</ele><time>2026-03-22T09:29:35.662Z</time></trkpt><trkpt lat="43.4837515" lon="11.2564636"><ele>495.0</ele><time>2026-03-22T09:29:36.658Z</time></trkpt><trkpt lat="43.4837056" lon="11.2565914"><ele>495.0</ele><time>2026-03-22T09:29:37.667Z</time></trkpt><trkpt lat="43.4836651" lon="11.2567228"><ele>495.0</ele><time>2026-03-22T09:29:38.663Z</time></trkpt><trkpt lat="43.4836326" lon="11.256867"><ele>494.4</ele><time>2026-03-22T09:29:39.662Z</time></trkpt><trkpt lat="43.4835814" lon="11.2569892"><ele>493.8</ele><time>2026-03-22T09:29:40.656Z</time></trkpt><trkpt lat="43.483505" lon="11.2570583"><ele>493.20000000000005</ele><time>2026-03-22T09:29:41.663Z</time></trkpt><trkpt lat="43.483401" lon="11.2570788"><ele>492.6</ele><time>2026-03-22T09:29:42.66Z</time></trkpt><trkpt lat="43.4833013" lon="11.2570509"><ele>492.0</ele><time>2026-03-22T09:29:43.662Z</time></trkpt><trkpt lat="43.4831886" lon="11.2569823"><ele>492.0</ele><time>2026-03-22T09:29:44.66Z</time></trkpt><trkpt lat="43.4830724" lon="11.2568763"><ele>492.0</ele><time>2026-03-22T09:29:45.659Z</time></trkpt><trkpt lat="43.4829449" lon="11.2567458"><ele>492.0</ele><time>2026-03-22T09:29:46.665Z</time></trkpt><trkpt lat="43.4828148" lon="11.2565956"><ele>493.0</ele><time>2026-03-22T09:29:47.663Z</time></trkpt><trkpt lat="43.4826861" lon="11.2564333"><ele>494.0</ele><time>2026-03-22T09:29:48.664Z</time></trkpt><trkpt lat="43.4825704" lon="11.2562598"><ele>495.0</ele><time>2026-03-22T09:29:49.687Z</time></trkpt><trkpt lat="43.482472" lon="11.2560642"><ele>495.0</ele><time>2026-03-22T09:29:50.663Z</time></trkpt><trkpt lat="43.482383" lon="11.255862"><ele>495.0</ele><time>2026-03-22T09:29:51.666Z</time></trkpt><trkpt lat="43.4822966" lon="11.2556829"><ele>495.0</ele><time>2026-03-22T09:29:52.662Z</time></trkpt><trkpt lat="43.4821939" lon="11.2555176"><ele>494.75</ele><time>2026-03-22T09:29:53.662Z</time></trkpt><trkpt lat="43.4820821" lon="11.2553797"><ele>494.5</ele><time>2026-03-22T09:29:54.667Z</time></trkpt><trkpt lat="43.4819601" lon="11.2552565"><ele>494.25</ele><time>2026-03-22T09:29:55.666Z</time></trkpt><trkpt lat="43.4818539" lon="11.2551508"><ele>494.0</ele><time>2026-03-22T09:29:56.681Z</time></trkpt><trkpt lat="43.4817559" lon="11.2550798"><ele>494.0</ele><time>2026-03-22T09:29:57.66Z</time></trkpt><trkpt lat="43.4816482" lon="11.2550388"><ele>494.0</ele><time>2026-03-22T09:29:58.661Z</time></trkpt><trkpt lat="43.481541" lon="11.2550283"><ele>494.0</ele><time>2026-03-22T09:29:59.659Z</time></trkpt><trkpt lat="43.4814351" lon="11.2550854"><ele>494.0</ele><time>2026-03-22T09:30:00.668Z</time></trkpt><trkpt lat="43.4813254" lon="11.2551682"><ele>491.66666666666663</ele><time>2026-03-22T09:30:01.664Z</time></trkpt><trkpt lat="43.4812079" lon="11.255279"><ele>489.33333333333337</ele><time>2026-03-22T09:30:02.68Z</time></trkpt><trkpt lat="43.481073" lon="11.2554129"><ele>487.0</ele><time>2026-03-22T09:30:03.662Z</time></trkpt><trkpt lat="43.4809467" lon="11.2555396"><ele>490.75</ele><time>2026-03-22T09:30:04.663Z</time></trkpt><trkpt lat="43.4808243" lon="11.2556759"><ele>494.5</ele><time>2026-03-22T09:30:05.662Z</time></trkpt><trkpt lat="43.4807207" lon="11.2557863"><ele>498.25</ele><time>2026-03-22T09:30:06.667Z</time></trkpt><trkpt lat="43.4806324" lon="11.2558962"><ele>502.0</ele><time>2026-03-22T09:30:07.668Z</time></trkpt><trkpt lat="43.480568" lon="11.2560216"><ele>502.0</ele><time>2026-03-22T09:30:08.664Z</time></trkpt><trkpt lat="43.4805202" lon="11.2561664"><ele>502.0</ele><time>2026-03-22T09:30:09.665Z</time></trkpt><trkpt lat="43.4805059" lon="11.2563306"><ele>502.0</ele><time>2026-03-22T09:30:10.665Z</time></trkpt><trkpt lat="43.4805157" lon="11.2565147"><ele>502.0</ele><time>2026-03-22T09:30:11.659Z</time></trkpt><trkpt lat="43.4805365" lon="11.2566933"><ele>503.40000000000003</ele><time>2026-03-22T09:30:12.662Z</time></trkpt><trkpt lat="43.4805677" lon="11.2568517"><ele>504.80000000000007</ele><time>2026-03-22T09:30:13.664Z</time></trkpt><trkpt lat="43.4806085" lon="11.2569867"><ele>506.2</ele><time>2026-03-22T09:30:14.673Z</time></trkpt><trkpt lat="43.4806404" lon="11.2571074"><ele>507.6</ele><time>2026-03-22T09:30:15.667Z</time></trkpt><trkpt lat="43.4806754" lon="11.2571954"><ele>509.0</ele><time>2026-03-22T09:30:16.668Z</time></trkpt><trkpt lat="43.4807075" lon="11.2572709"><ele>508.99999999999994</ele><time>2026-03-22T09:30:17.69Z</time></trkpt><trkpt lat="43.4806516" lon="11.2573263"><ele>509.0</ele><time>2026-03-22T09:30:21.664Z</time></trkpt><trkpt lat="43.4806136" lon="11.2572386"><ele>509.0</ele><time>2026-03-22T09:30:23.682Z</time></trkpt><trkpt lat="43.4806003" lon="11.2571375"><ele>509.0</ele><time>2026-03-22T09:30:24.665Z</time></trkpt><trkpt lat="43.4805741" lon="11.2570193"><ele>508.99999999999994</ele><time>2026-03-22T09:30:25.666Z</time></trkpt><trkpt lat="43.480535" lon="11.2568886"><ele>509.0</ele><time>2026-03-22T09:30:26.701Z</time></trkpt><trkpt lat="43.4804879" lon="11.2567697"><ele>509.0</ele><time>2026-03-22T09:30:27.662Z</time></trkpt><trkpt lat="43.4804358" lon="11.2566535"><ele>509.0</ele><time>2026-03-22T09:30:28.667Z</time></trkpt><trkpt lat="43.4803818" lon="11.2565401"><ele>509.0</ele><time>2026-03-22T09:30:29.669Z</time></trkpt><trkpt lat="43.4803281" lon="11.2564324"><ele>509.0</ele><time>2026-03-22T09:30:30.668Z</time></trkpt><trkpt lat="43.4802816" lon="11.2563171"><ele>509.0</ele><time>2026-03-22T09:30:31.665Z</time></trkpt><trkpt lat="43.4802436" lon="11.2562015"><ele>504.8571428571428</ele><time>2026-03-22T09:30:32.696Z</time></trkpt><trkpt lat="43.4802127" lon="11.2560938"><ele>500.71428571428567</ele><time>2026-03-22T09:30:33.663Z</time></trkpt><trkpt lat="43.4801934" lon="11.2559988"><ele>496.57142857142856</ele><time>2026-03-22T09:30:34.662Z</time></trkpt><trkpt lat="43.4801762" lon="11.2559048"><ele>492.4285714285714</ele><time>2026-03-22T09:30:35.663Z</time></trkpt><trkpt lat="43.4801654" lon="11.255814"><ele>488.2857142857142</ele><time>2026-03-22T09:30:36.666Z</time></trkpt><trkpt lat="43.4801479" lon="11.2557218"><ele>484.14285714285717</ele><time>2026-03-22T09:30:37.664Z</time></trkpt><trkpt lat="43.4801166" lon="11.25564"><ele>480.0</ele><time>2026-03-22T09:30:38.665Z</time></trkpt><trkpt lat="43.4800763" lon="11.2555575"><ele>478.6</ele><time>2026-03-22T09:30:39.671Z</time></trkpt><trkpt lat="43.4800336" lon="11.2554858"><ele>477.2</ele><time>2026-03-22T09:30:40.681Z</time></trkpt><trkpt lat="43.4799688" lon="11.2553543"><ele>475.79999999999995</ele><time>2026-03-22T09:30:42.666Z</time></trkpt><trkpt lat="43.4799018" lon="11.2552237"><ele>474.4</ele><time>2026-03-22T09:30:44.661Z</time></trkpt><trkpt lat="43.4798847" lon="11.2550666"><ele>473.0</ele><time>2026-03-22T09:30:46.66Z</time></trkpt><trkpt lat="43.4799007" lon="11.2549227"><ele>473.0</ele><time>2026-03-22T09:30:48.667Z</time></trkpt><trkpt lat="43.4798865" lon="11.254788"><ele>472.99999999999994</ele><time>2026-03-22T09:30:50.698Z</time></trkpt><trkpt lat="43.4797727" lon="11.2547191"><ele>472.99999999999994</ele><time>2026-03-22T09:30:52.667Z</time></trkpt><trkpt lat="43.4796863" lon="11.2547069"><ele>473.0</ele><time>2026-03-22T09:30:53.663Z</time></trkpt><trkpt lat="43.4796042" lon="11.2546852"><ele>473.0</ele><time>2026-03-22T09:30:54.662Z</time></trkpt><trkpt lat="43.4795391" lon="11.2546514"><ele>469.66666666666663</ele><time>2026-03-22T09:30:55.681Z</time></trkpt><trkpt lat="43.4794823" lon="11.2546037"><ele>466.3333333333333</ele><time>2026-03-22T09:30:56.668Z</time></trkpt><trkpt lat="43.4794263" lon="11.2545371"><ele>463.0</ele><time>2026-03-22T09:30:57.667Z</time></trkpt><trkpt lat="43.47937" lon="11.2544564"><ele>459.66666666666663</ele><time>2026-03-22T09:30:58.661Z</time></trkpt><trkpt lat="43.4793132" lon="11.2543834"><ele>456.3333333333333</ele><time>2026-03-22T09:30:59.667Z</time></trkpt><trkpt lat="43.4792578" lon="11.2542947"><ele>453.0</ele><time>2026-03-22T09:31:00.668Z</time></trkpt><trkpt lat="43.479216" lon="11.2542029"><ele>453.0</ele><time>2026-03-22T09:31:01.701Z</time></trkpt><trkpt lat="43.4791862" lon="11.2541016"><ele>452.99999999999994</ele><time>2026-03-22T09:31:02.675Z</time></trkpt><trkpt lat="43.4791615" lon="11.2539421"><ele>452.99999999999994</ele><time>2026-03-22T09:31:04.665Z</time></trkpt><trkpt lat="43.4792202" lon="11.2538385"><ele>453.0</ele><time>2026-03-22T09:31:06.665Z</time></trkpt><trkpt lat="43.4792939" lon="11.2538232"><ele>453.0</ele><time>2026-03-22T09:31:07.666Z</time></trkpt><trkpt lat="43.4793814" lon="11.2537843"><ele>451.3333333333333</ele><time>2026-03-22T09:31:08.698Z</time></trkpt><trkpt lat="43.4794577" lon="11.2537715"><ele>449.66666666666663</ele><time>2026-03-22T09:31:09.664Z</time></trkpt><trkpt lat="43.4795293" lon="11.2537747"><ele>448.0</ele><time>2026-03-22T09:31:10.666Z</time></trkpt><trkpt lat="43.4796003" lon="11.2537768"><ele>446.3333333333333</ele><time>2026-03-22T09:31:11.661Z</time></trkpt><trkpt lat="43.4796689" lon="11.2537904"><ele>444.66666666666663</ele><time>2026-03-22T09:31:12.668Z</time></trkpt><trkpt lat="43.4797354" lon="11.2537978"><ele>443.0</ele><time>2026-03-22T09:31:13.666Z</time></trkpt><trkpt lat="43.4798515" lon="11.2537879"><ele>442.99999999999994</ele><time>2026-03-22T09:31:15.661Z</time></trkpt><trkpt lat="43.4799126" lon="11.2537529"><ele>443.0</ele><time>2026-03-22T09:31:16.665Z</time></trkpt><trkpt lat="43.4799727" lon="11.2536812"><ele>443.0</ele><time>2026-03-22T09:31:17.674Z</time></trkpt><trkpt lat="43.4800192" lon="11.2535937"><ele>443.0</ele><time>2026-03-22T09:31:18.658Z</time></trkpt><trkpt lat="43.4800595" lon="11.2534939"><ele>442.99999999999994</ele><time>2026-03-22T09:31:19.669Z</time></trkpt><trkpt lat="43.480091" lon="11.2533925"><ele>443.0</ele><time>2026-03-22T09:31:20.667Z</time></trkpt><trkpt lat="43.4801091" lon="11.2532645"><ele>440.25</ele><time>2026-03-22T09:31:21.663Z</time></trkpt><trkpt lat="43.4801125" lon="11.2530819"><ele>437.5</ele><time>2026-03-22T09:31:22.693Z</time></trkpt><trkpt lat="43.4801074" lon="11.2528762"><ele>434.75</ele><time>2026-03-22T09:31:23.661Z</time></trkpt><trkpt lat="43.4801118" lon="11.25268"><ele>432.0</ele><time>2026-03-22T09:31:24.672Z</time></trkpt><trkpt lat="43.4801222" lon="11.2525155"><ele>432.0</ele><time>2026-03-22T09:31:25.665Z</time></trkpt><trkpt lat="43.4801296" lon="11.252381"><ele>432.00000000000006</ele><time>2026-03-22T09:31:26.667Z</time></trkpt><trkpt lat="43.4801393" lon="11.2522614"><ele>432.00000000000006</ele><time>2026-03-22T09:31:27.664Z</time></trkpt><trkpt lat="43.4801395" lon="11.2521639"><ele>432.0</ele><time>2026-03-22T09:31:28.657Z</time></trkpt><trkpt lat="43.4801393" lon="11.2520099"><ele>432.0</ele><time>2026-03-22T09:31:30.666Z</time></trkpt><trkpt lat="43.4800867" lon="11.2518593"><ele>431.0</ele><time>2026-03-22T09:31:32.668Z</time></trkpt><trkpt lat="43.4800447" lon="11.2517773"><ele>430.0</ele><time>2026-03-22T09:31:33.683Z</time></trkpt><trkpt lat="43.4800082" lon="11.2516993"><ele>429.0</ele><time>2026-03-22T09:31:34.662Z</time></trkpt><trkpt lat="43.4799878" lon="11.2515174"><ele>428.0</ele><time>2026-03-22T09:31:36.664Z</time></trkpt><trkpt lat="43.479974" lon="11.2513987"><ele>427.0</ele><time>2026-03-22T09:31:37.661Z</time></trkpt><trkpt lat="43.4799641" lon="11.2512854"><ele>426.0</ele><time>2026-03-22T09:31:38.661Z</time></trkpt><trkpt lat="43.4799563" lon="11.2511801"><ele>424.8333333333333</ele><time>2026-03-22T09:31:39.664Z</time></trkpt><trkpt lat="43.479942" lon="11.2510912"><ele>423.66666666666663</ele><time>2026-03-22T09:31:40.665Z</time></trkpt><trkpt lat="43.4799206" lon="11.251002"><ele>422.5</ele><time>2026-03-22T09:31:41.668Z</time></trkpt><trkpt lat="43.4798927" lon="11.2509061"><ele>421.3333333333333</ele><time>2026-03-22T09:31:42.666Z</time></trkpt><trkpt lat="43.4798491" lon="11.2507982"><ele>420.16666666666663</ele><time>2026-03-22T09:31:43.689Z</time></trkpt><trkpt lat="43.4798013" lon="11.2506768"><ele>419.0</ele><time>2026-03-22T09:31:44.664Z</time></trkpt><trkpt lat="43.4797529" lon="11.2505742"><ele>417.49999999999994</ele><time>2026-03-22T09:31:45.663Z</time></trkpt><trkpt lat="43.4797043" lon="11.2504711"><ele>416.0</ele><time>2026-03-22T09:31:46.661Z</time></trkpt><trkpt lat="43.4796519" lon="11.2503699"><ele>414.5</ele><time>2026-03-22T09:31:47.659Z</time></trkpt><trkpt lat="43.4796066" lon="11.2502747"><ele>413.0</ele><time>2026-03-22T09:31:48.666Z</time></trkpt><trkpt lat="43.4795628" lon="11.2501925"><ele>411.49999999999994</ele><time>2026-03-22T09:31:49.668Z</time></trkpt><trkpt lat="43.4795113" lon="11.2501108"><ele>410.0</ele><time>2026-03-22T09:31:50.681Z</time></trkpt><trkpt lat="43.4794351" lon="11.2500334"><ele>410.0</ele><time>2026-03-22T09:31:51.667Z</time></trkpt><trkpt lat="43.4793347" lon="11.249955"><ele>410.0</ele><time>2026-03-22T09:31:52.672Z</time></trkpt><trkpt lat="43.4792119" lon="11.2498754"><ele>410.0</ele><time>2026-03-22T09:31:53.666Z</time></trkpt><trkpt lat="43.4790982" lon="11.2498153"><ele>410.0</ele><time>2026-03-22T09:31:54.668Z</time></trkpt><trkpt lat="43.4789854" lon="11.2497685"><ele>410.4</ele><time>2026-03-22T09:31:55.69Z</time></trkpt><trkpt lat="43.4788972" lon="11.2497067"><ele>410.8</ele><time>2026-03-22T09:31:56.668Z</time></trkpt><trkpt lat="43.4788053" lon="11.2496169"><ele>411.20000000000005</ele><time>2026-03-22T09:31:57.667Z</time></trkpt><trkpt lat="43.4787204" lon="11.2495247"><ele>411.6</ele><time>2026-03-22T09:31:58.66Z</time></trkpt><trkpt lat="43.4786355" lon="11.2494074"><ele>412.0</ele><time>2026-03-22T09:31:59.666Z</time></trkpt><trkpt lat="43.4785708" lon="11.2492864"><ele>412.0</ele><time>2026-03-22T09:32:00.669Z</time></trkpt><trkpt lat="43.478524" lon="11.249136"><ele>412.0</ele><time>2026-03-22T09:32:01.676Z</time></trkpt><trkpt lat="43.4784894" lon="11.2489779"><ele>412.0</ele><time>2026-03-22T09:32:02.67Z</time></trkpt><trkpt lat="43.4784549" lon="11.2488022"><ele>412.0</ele><time>2026-03-22T09:32:03.692Z</time></trkpt><trkpt lat="43.4784071" lon="11.2486306"><ele>412.25</ele><time>2026-03-22T09:32:04.666Z</time></trkpt><trkpt lat="43.4783568" lon="11.2484582"><ele>412.5</ele><time>2026-03-22T09:32:05.668Z</time></trkpt><trkpt lat="43.4782942" lon="11.2482862"><ele>412.75</ele><time>2026-03-22T09:32:06.679Z</time></trkpt><trkpt lat="43.4782356" lon="11.2481283"><ele>413.0</ele><time>2026-03-22T09:32:07.664Z</time></trkpt><trkpt lat="43.4781762" lon="11.2479655"><ele>413.0</ele><time>2026-03-22T09:32:08.679Z</time></trkpt><trkpt lat="43.4781038" lon="11.2477996"><ele>413.0</ele><time>2026-03-22T09:32:09.662Z</time></trkpt><trkpt lat="43.478018" lon="11.2476235"><ele>413.0</ele><time>2026-03-22T09:32:10.67Z</time></trkpt><trkpt lat="43.4779516" lon="11.2474594"><ele>413.0</ele><time>2026-03-22T09:32:11.665Z</time></trkpt><trkpt lat="43.4779026" lon="11.2473265"><ele>415.99999999999994</ele><time>2026-03-22T09:32:12.666Z</time></trkpt><trkpt lat="43.4778594" lon="11.2472187"><ele>419.0</ele><time>2026-03-22T09:32:13.669Z</time></trkpt><trkpt lat="43.4778207" lon="11.2471212"><ele>422.0</ele><time>2026-03-22T09:32:14.664Z</time></trkpt><trkpt lat="43.4777714" lon="11.2470383"><ele>425.0</ele><time>2026-03-22T09:32:15.691Z</time></trkpt><trkpt lat="43.4777163" lon="11.2469544"><ele>427.99999999999994</ele><time>2026-03-22T09:32:16.665Z</time></trkpt><trkpt lat="43.4776607" lon="11.2468525"><ele>431.0</ele><time>2026-03-22T09:32:17.666Z</time></trkpt><trkpt lat="43.4776031" lon="11.2467285"><ele>430.99999999999994</ele><time>2026-03-22T09:32:18.668Z</time></trkpt><trkpt lat="43.4775627" lon="11.246603"><ele>431.0</ele><time>2026-03-22T09:32:19.667Z</time></trkpt><trkpt lat="43.4775314" lon="11.2464884"><ele>431.0</ele><time>2026-03-22T09:32:20.688Z</time></trkpt><trkpt lat="43.4775061" lon="11.2463968"><ele>431.0</ele><time>2026-03-22T09:32:21.68Z</time></trkpt><trkpt lat="43.4774651" lon="11.2462603"><ele>430.99999999999994</ele><time>2026-03-22T09:32:23.652Z</time></trkpt><trkpt lat="43.477398" lon="11.2463069"><ele>431.0</ele><time>2026-03-22T09:32:26.66Z</time></trkpt><trkpt lat="43.4773345" lon="11.2464894"><ele>430.99999999999994</ele><time>2026-03-22T09:32:28.656Z</time></trkpt><trkpt lat="43.477286" lon="11.2465923"><ele>431.0</ele><time>2026-03-22T09:32:29.663Z</time></trkpt><trkpt lat="43.4772401" lon="11.2466755"><ele>431.0</ele><time>2026-03-22T09:32:30.661Z</time></trkpt><trkpt lat="43.4771932" lon="11.2467393"><ele>431.0</ele><time>2026-03-22T09:32:31.675Z</time></trkpt><trkpt lat="43.4771286" lon="11.2467835"><ele>430.99999999999994</ele><time>2026-03-22T09:32:32.667Z</time></trkpt><trkpt lat="43.4770318" lon="11.2468167"><ele>431.0</ele><time>2026-03-22T09:32:33.658Z</time></trkpt><trkpt lat="43.4769156" lon="11.2468464"><ele>432.3333333333333</ele><time>2026-03-22T09:32:34.672Z</time></trkpt><trkpt lat="43.4767897" lon="11.2468859"><ele>433.66666666666663</ele><time>2026-03-22T09:32:35.671Z</time></trkpt><trkpt lat="43.4766373" lon="11.2469424"><ele>435.0</ele><time>2026-03-22T09:32:36.666Z</time></trkpt><trkpt lat="43.476451" lon="11.2470031"><ele>435.0</ele><time>2026-03-22T09:32:37.66Z</time></trkpt><trkpt lat="43.4762798" lon="11.2470693"><ele>435.0</ele><time>2026-03-22T09:32:38.667Z</time></trkpt><trkpt lat="43.476152" lon="11.2471162"><ele>435.0</ele><time>2026-03-22T09:32:39.663Z</time></trkpt><trkpt lat="43.476029" lon="11.2471579"><ele>435.0</ele><time>2026-03-22T09:32:40.661Z</time></trkpt><trkpt lat="43.4759323" lon="11.2471884"><ele>433.6</ele><time>2026-03-22T09:32:41.681Z</time></trkpt><trkpt lat="43.4758436" lon="11.2472032"><ele>432.2</ele><time>2026-03-22T09:32:42.667Z</time></trkpt><trkpt lat="43.4757523" lon="11.2472189"><ele>430.79999999999995</ele><time>2026-03-22T09:32:43.661Z</time></trkpt><trkpt lat="43.4756833" lon="11.2472063"><ele>429.4</ele><time>2026-03-22T09:32:44.665Z</time></trkpt><trkpt lat="43.4756187" lon="11.2471889"><ele>428.0</ele><time>2026-03-22T09:32:45.663Z</time></trkpt><trkpt lat="43.4754918" lon="11.2471295"><ele>427.16666666666663</ele><time>2026-03-22T09:32:47.663Z</time></trkpt><trkpt lat="43.4754233" lon="11.2470723"><ele>426.3333333333333</ele><time>2026-03-22T09:32:48.666Z</time></trkpt><trkpt lat="43.4753588" lon="11.2470184"><ele>425.5</ele><time>2026-03-22T09:32:49.667Z</time></trkpt><trkpt lat="43.4752934" lon="11.24697"><ele>424.66666666666663</ele><time>2026-03-22T09:32:50.665Z</time></trkpt><trkpt lat="43.4752338" lon="11.246928"><ele>423.8333333333333</ele><time>2026-03-22T09:32:51.659Z</time></trkpt><trkpt lat="43.4751533" lon="11.2468947"><ele>423.0</ele><time>2026-03-22T09:32:52.669Z</time></trkpt><trkpt lat="43.4750535" lon="11.2468594"><ele>423.0</ele><time>2026-03-22T09:32:53.663Z</time></trkpt><trkpt lat="43.4749482" lon="11.2468324"><ele>423.0</ele><time>2026-03-22T09:32:54.664Z</time></trkpt><trkpt lat="43.4748493" lon="11.2468104"><ele>423.0</ele><time>2026-03-22T09:32:55.665Z</time></trkpt><trkpt lat="43.4747499" lon="11.246789"><ele>423.0</ele><time>2026-03-22T09:32:56.669Z</time></trkpt><trkpt lat="43.4746598" lon="11.2467582"><ele>423.0</ele><time>2026-03-22T09:32:57.674Z</time></trkpt><trkpt lat="43.4745727" lon="11.2467286"><ele>422.2</ele><time>2026-03-22T09:32:58.699Z</time></trkpt><trkpt lat="43.4744849" lon="11.2467026"><ele>421.4</ele><time>2026-03-22T09:32:59.675Z</time></trkpt><trkpt lat="43.4743948" lon="11.2466776"><ele>420.59999999999997</ele><time>2026-03-22T09:33:00.663Z</time></trkpt><trkpt lat="43.474293" lon="11.2466441"><ele>419.79999999999995</ele><time>2026-03-22T09:33:01.667Z</time></trkpt><trkpt lat="43.4742012" lon="11.2466208"><ele>419.0</ele><time>2026-03-22T09:33:02.669Z</time></trkpt><trkpt lat="43.4741216" lon="11.2466073"><ele>418.99999999999994</ele><time>2026-03-22T09:33:03.667Z</time></trkpt><trkpt lat="43.4740508" lon="11.2465847"><ele>419.0</ele><time>2026-03-22T09:33:04.663Z</time></trkpt><trkpt lat="43.4739791" lon="11.2465541"><ele>419.0</ele><time>2026-03-22T09:33:05.697Z</time></trkpt><trkpt lat="43.4739011" lon="11.2465218"><ele>419.0</ele><time>2026-03-22T09:33:06.664Z</time></trkpt><trkpt lat="43.4738333" lon="11.2464912"><ele>419.0</ele><time>2026-03-22T09:33:07.672Z</time></trkpt><trkpt lat="43.4737717" lon="11.2464594"><ele>418.99999999999994</ele><time>2026-03-22T09:33:08.667Z</time></trkpt><trkpt lat="43.4737101" lon="11.2464275"><ele>419.0</ele><time>2026-03-22T09:33:09.672Z</time></trkpt><trkpt lat="43.4735795" lon="11.2463678"><ele>416.49999999999994</ele><time>2026-03-22T09:33:11.668Z</time></trkpt><trkpt lat="43.473507" lon="11.2463462"><ele>414.0</ele><time>2026-03-22T09:33:12.664Z</time></trkpt><trkpt lat="43.4734374" lon="11.2463252"><ele>411.5</ele><time>2026-03-22T09:33:13.663Z</time></trkpt><trkpt lat="43.4733748" lon="11.2463074"><ele>409.0</ele><time>2026-03-22T09:33:14.675Z</time></trkpt><trkpt lat="43.4732555" lon="11.2462864"><ele>406.49999999999994</ele><time>2026-03-22T09:33:16.671Z</time></trkpt><trkpt lat="43.4731915" lon="11.2462939"><ele>404.0</ele><time>2026-03-22T09:33:17.666Z</time></trkpt><trkpt lat="43.473117" lon="11.246294"><ele>403.99999999999994</ele><time>2026-03-22T09:33:19.667Z</time></trkpt><trkpt lat="43.4730357" lon="11.2462703"><ele>404.0</ele><time>2026-03-22T09:34:32.66Z</time></trkpt><trkpt lat="43.4729144" lon="11.2462696"><ele>404.0</ele><time>2026-03-22T09:34:34.67Z</time></trkpt><trkpt lat="43.4728383" lon="11.2462641"><ele>404.0</ele><time>2026-03-22T09:34:35.67Z</time></trkpt><trkpt lat="43.4727641" lon="11.2462575"><ele>403.99999999999994</ele><time>2026-03-22T09:34:36.661Z</time></trkpt><trkpt lat="43.4726872" lon="11.2462399"><ele>404.0</ele><time>2026-03-22T09:34:37.666Z</time></trkpt><trkpt lat="43.4726015" lon="11.246218"><ele>404.6</ele><time>2026-03-22T09:34:38.67Z</time></trkpt><trkpt lat="43.4725048" lon="11.2461753"><ele>405.2</ele><time>2026-03-22T09:34:39.67Z</time></trkpt><trkpt lat="43.4724131" lon="11.2461363"><ele>405.8</ele><time>2026-03-22T09:34:40.662Z</time></trkpt><trkpt lat="43.4723289" lon="11.2461053"><ele>406.40000000000003</ele><time>2026-03-22T09:34:41.665Z</time></trkpt><trkpt lat="43.4722449" lon="11.2460553"><ele>407.0</ele><time>2026-03-22T09:34:42.659Z</time></trkpt><trkpt lat="43.4721745" lon="11.2459994"><ele>406.99999999999994</ele><time>2026-03-22T09:34:43.666Z</time></trkpt><trkpt lat="43.4721214" lon="11.245936"><ele>407.0</ele><time>2026-03-22T09:34:44.68Z</time></trkpt><trkpt lat="43.4720638" lon="11.2458676"><ele>407.0</ele><time>2026-03-22T09:34:45.664Z</time></trkpt><trkpt lat="43.4719979" lon="11.2457925"><ele>407.0</ele><time>2026-03-22T09:34:46.67Z</time></trkpt><trkpt lat="43.4719316" lon="11.2457425"><ele>406.99999999999994</ele><time>2026-03-22T09:34:47.671Z</time></trkpt><trkpt lat="43.4718665" lon="11.2456791"><ele>407.0</ele><time>2026-03-22T09:34:49.667Z</time></trkpt><trkpt lat="43.4717943" lon="11.2456406"><ele>405.3333333333333</ele><time>2026-03-22T09:34:51.674Z</time></trkpt><trkpt lat="43.4716715" lon="11.2456189"><ele>403.66666666666663</ele><time>2026-03-22T09:34:53.668Z</time></trkpt><trkpt lat="43.4715995" lon="11.2455978"><ele>402.0</ele><time>2026-03-22T09:34:54.686Z</time></trkpt><trkpt lat="43.4715282" lon="11.2455648"><ele>400.33333333333337</ele><time>2026-03-22T09:34:55.664Z</time></trkpt><trkpt lat="43.4714605" lon="11.2455376"><ele>398.6666666666667</ele><time>2026-03-22T09:34:56.669Z</time></trkpt><trkpt lat="43.4713984" lon="11.2454889"><ele>397.0</ele><time>2026-03-22T09:34:57.668Z</time></trkpt><trkpt lat="43.4713344" lon="11.2454352"><ele>397.33333333333337</ele><time>2026-03-22T09:34:58.67Z</time></trkpt><trkpt lat="43.4712675" lon="11.2453971"><ele>397.6666666666667</ele><time>2026-03-22T09:34:59.671Z</time></trkpt><trkpt lat="43.4711892" lon="11.2453754"><ele>398.0</ele><time>2026-03-22T09:35:00.682Z</time></trkpt><trkpt lat="43.4711172" lon="11.2453511"><ele>398.33333333333337</ele><time>2026-03-22T09:35:01.667Z</time></trkpt><trkpt lat="43.4709917" lon="11.2452563"><ele>398.6666666666667</ele><time>2026-03-22T09:35:03.664Z</time></trkpt><trkpt lat="43.4709249" lon="11.245196"><ele>399.0</ele><time>2026-03-22T09:35:04.665Z</time></trkpt><trkpt lat="43.4708564" lon="11.2451324"><ele>399.0</ele><time>2026-03-22T09:35:05.661Z</time></trkpt><trkpt lat="43.4707814" lon="11.2450734"><ele>399.0</ele><time>2026-03-22T09:35:06.665Z</time></trkpt><trkpt lat="43.4707158" lon="11.2450074"><ele>399.0</ele><time>2026-03-22T09:35:07.676Z</time></trkpt><trkpt lat="43.4706498" lon="11.2449441"><ele>399.0</ele><time>2026-03-22T09:35:08.658Z</time></trkpt><trkpt lat="43.4705556" lon="11.2448337"><ele>399.0</ele><time>2026-03-22T09:35:10.664Z</time></trkpt><trkpt lat="43.4704487" lon="11.2447211"><ele>396.0</ele><time>2026-03-22T09:35:12.66Z</time></trkpt><trkpt lat="43.4703652" lon="11.2446408"><ele>393.0</ele><time>2026-03-22T09:35:13.665Z</time></trkpt><trkpt lat="43.4702762" lon="11.2445611"><ele>390.0</ele><time>2026-03-22T09:35:14.666Z</time></trkpt><trkpt lat="43.4702108" lon="11.244498"><ele>387.0</ele><time>2026-03-22T09:35:15.66Z</time></trkpt><trkpt lat="43.470154" lon="11.2444137"><ele>384.0</ele><time>2026-03-22T09:35:16.692Z</time></trkpt><trkpt lat="43.470093" lon="11.2443303"><ele>384.0</ele><time>2026-03-22T09:35:17.663Z</time></trkpt><trkpt lat="43.4700374" lon="11.2442543"><ele>384.0</ele><time>2026-03-22T09:35:18.666Z</time></trkpt><trkpt lat="43.4699778" lon="11.2442009"><ele>384.0</ele><time>2026-03-22T09:35:19.66Z</time></trkpt><trkpt lat="43.4698573" lon="11.244125"><ele>384.0</ele><time>2026-03-22T09:35:21.665Z</time></trkpt><trkpt lat="43.469784" lon="11.2440846"><ele>384.0</ele><time>2026-03-22T09:35:22.658Z</time></trkpt><trkpt lat="43.4696682" lon="11.2440612"><ele>382.3333333333333</ele><time>2026-03-22T09:35:24.669Z</time></trkpt><trkpt lat="43.4695835" lon="11.2440331"><ele>380.6666666666667</ele><time>2026-03-22T09:35:26.667Z</time></trkpt><trkpt lat="43.4694874" lon="11.2439428"><ele>379.0</ele><time>2026-03-22T09:35:28.664Z</time></trkpt><trkpt lat="43.4694308" lon="11.2438877"><ele>377.33333333333337</ele><time>2026-03-22T09:35:29.666Z</time></trkpt><trkpt lat="43.4693709" lon="11.2438292"><ele>375.6666666666667</ele><time>2026-03-22T09:35:30.695Z</time></trkpt><trkpt lat="43.4693427" lon="11.2436984"><ele>374.0</ele><time>2026-03-22T09:35:32.66Z</time></trkpt><trkpt lat="43.4693888" lon="11.2436111"><ele>374.0</ele><time>2026-03-22T09:35:34.665Z</time></trkpt><trkpt lat="43.4694617" lon="11.2435565"><ele>374.0</ele><time>2026-03-22T09:35:36.662Z</time></trkpt><trkpt lat="43.469507" lon="11.243435"><ele>374.0</ele><time>2026-03-22T09:35:38.67Z</time></trkpt><trkpt lat="43.4694578" lon="11.2433102"><ele>374.0</ele><time>2026-03-22T09:35:40.663Z</time></trkpt><trkpt lat="43.4694037" lon="11.243257"><ele>374.0</ele><time>2026-03-22T09:35:41.664Z</time></trkpt><trkpt lat="43.4693517" lon="11.243195"><ele>374.0</ele><time>2026-03-22T09:35:42.671Z</time></trkpt><trkpt lat="43.4692893" lon="11.2431234"><ele>372.0</ele><time>2026-03-22T09:35:43.666Z</time></trkpt><trkpt lat="43.4692054" lon="11.2430385"><ele>370.0</ele><time>2026-03-22T09:35:44.666Z</time></trkpt><trkpt lat="43.4691334" lon="11.2429581"><ele>368.0</ele><time>2026-03-22T09:35:45.663Z</time></trkpt><trkpt lat="43.4690654" lon="11.2428768"><ele>366.0</ele><time>2026-03-22T09:35:46.656Z</time></trkpt><trkpt lat="43.4690098" lon="11.2427407"><ele>364.0</ele><time>2026-03-22T09:35:47.668Z</time></trkpt><trkpt lat="43.4689533" lon="11.242558"><ele>364.0</ele><time>2026-03-22T09:35:48.669Z</time></trkpt><trkpt lat="43.4689019" lon="11.2424021"><ele>364.0</ele><time>2026-03-22T09:35:49.657Z</time></trkpt><trkpt lat="43.4688682" lon="11.2422648"><ele>364.0</ele><time>2026-03-22T09:35:50.672Z</time></trkpt><trkpt lat="43.4688137" lon="11.2421162"><ele>364.0</ele><time>2026-03-22T09:35:51.67Z</time></trkpt><trkpt lat="43.4687384" lon="11.2419752"><ele>365.0</ele><time>2026-03-22T09:35:52.668Z</time></trkpt><trkpt lat="43.468655" lon="11.2418476"><ele>366.0</ele><time>2026-03-22T09:35:53.69Z</time></trkpt><trkpt lat="43.4685786" lon="11.2417199"><ele>367.0</ele><time>2026-03-22T09:35:54.668Z</time></trkpt><trkpt lat="43.4685148" lon="11.2416117"><ele>368.0</ele><time>2026-03-22T09:35:55.669Z</time></trkpt><trkpt lat="43.468454" lon="11.2415009"><ele>369.0</ele><time>2026-03-22T09:35:56.667Z</time></trkpt><trkpt lat="43.4683935" lon="11.2413802"><ele>365.6</ele><time>2026-03-22T09:35:57.666Z</time></trkpt><trkpt lat="43.4683283" lon="11.2412575"><ele>362.2</ele><time>2026-03-22T09:35:58.67Z</time></trkpt><trkpt lat="43.4682765" lon="11.2411449"><ele>358.8</ele><time>2026-03-22T09:35:59.668Z</time></trkpt><trkpt lat="43.4682269" lon="11.2410285"><ele>355.40000000000003</ele><time>2026-03-22T09:36:00.694Z</time></trkpt><trkpt lat="43.4681832" lon="11.240911"><ele>352.0</ele><time>2026-03-22T09:36:01.661Z</time></trkpt><trkpt lat="43.4681437" lon="11.2408079"><ele>352.0</ele><time>2026-03-22T09:36:02.659Z</time></trkpt><trkpt lat="43.4680992" lon="11.2406985"><ele>352.0</ele><time>2026-03-22T09:36:03.666Z</time></trkpt><trkpt lat="43.4680606" lon="11.2405979"><ele>352.0</ele><time>2026-03-22T09:36:04.666Z</time></trkpt><trkpt lat="43.4680056" lon="11.2405124"><ele>352.0</ele><time>2026-03-22T09:36:05.667Z</time></trkpt><trkpt lat="43.4679376" lon="11.2404394"><ele>352.0</ele><time>2026-03-22T09:36:06.689Z</time></trkpt><trkpt lat="43.4678474" lon="11.2403731"><ele>352.0</ele><time>2026-03-22T09:36:07.664Z</time></trkpt><trkpt lat="43.4677247" lon="11.2403065"><ele>350.25</ele><time>2026-03-22T09:36:08.667Z</time></trkpt><trkpt lat="43.4676002" lon="11.2402317"><ele>348.5</ele><time>2026-03-22T09:36:09.665Z</time></trkpt><trkpt lat="43.4674961" lon="11.2401679"><ele>346.75</ele><time>2026-03-22T09:36:10.668Z</time></trkpt><trkpt lat="43.467407" lon="11.2400895"><ele>345.0</ele><time>2026-03-22T09:36:11.665Z</time></trkpt><trkpt lat="43.4673244" lon="11.2400271"><ele>345.0</ele><time>2026-03-22T09:36:12.662Z</time></trkpt><trkpt lat="43.4672439" lon="11.2400071"><ele>345.0</ele><time>2026-03-22T09:36:13.667Z</time></trkpt><trkpt lat="43.4671691" lon="11.2399902"><ele>345.0</ele><time>2026-03-22T09:36:14.674Z</time></trkpt><trkpt lat="43.4670896" lon="11.2399647"><ele>345.0</ele><time>2026-03-22T09:36:15.663Z</time></trkpt><trkpt lat="43.4670179" lon="11.2399281"><ele>345.0</ele><time>2026-03-22T09:36:16.667Z</time></trkpt><trkpt lat="43.4669422" lon="11.2398669"><ele>345.0</ele><time>2026-03-22T09:36:17.668Z</time></trkpt><trkpt lat="43.4668643" lon="11.239789"><ele>341.6</ele><time>2026-03-22T09:36:18.664Z</time></trkpt><trkpt lat="43.4667867" lon="11.2396964"><ele>338.2</ele><time>2026-03-22T09:36:19.682Z</time></trkpt><trkpt lat="43.4667029" lon="11.2396031"><ele>334.79999999999995</ele><time>2026-03-22T09:36:20.659Z</time></trkpt><trkpt lat="43.4666153" lon="11.2395313"><ele>331.4</ele><time>2026-03-22T09:36:21.66Z</time></trkpt><trkpt lat="43.4665279" lon="11.2394666"><ele>328.0</ele><time>2026-03-22T09:36:22.664Z</time></trkpt><trkpt lat="43.4664493" lon="11.2394044"><ele>328.0</ele><time>2026-03-22T09:36:23.667Z</time></trkpt><trkpt lat="43.4663771" lon="11.2393329"><ele>328.0</ele><time>2026-03-22T09:36:24.676Z</time></trkpt><trkpt lat="43.4663051" lon="11.2392583"><ele>328.0</ele><time>2026-03-22T09:36:25.659Z</time></trkpt><trkpt lat="43.4662287" lon="11.239198"><ele>328.0</ele><time>2026-03-22T09:36:26.663Z</time></trkpt><trkpt lat="43.4661373" lon="11.2391822"><ele>328.0</ele><time>2026-03-22T09:36:27.663Z</time></trkpt><trkpt lat="43.4660308" lon="11.2391761"><ele>327.79999999999995</ele><time>2026-03-22T09:36:28.666Z</time></trkpt><trkpt lat="43.4659274" lon="11.2391791"><ele>327.6</ele><time>2026-03-22T09:36:29.678Z</time></trkpt><trkpt lat="43.4658443" lon="11.2391638"><ele>327.4</ele><time>2026-03-22T09:36:30.661Z</time></trkpt><trkpt lat="43.4657727" lon="11.2391371"><ele>327.20000000000005</ele><time>2026-03-22T09:36:31.667Z</time></trkpt><trkpt lat="43.4656742" lon="11.2390618"><ele>327.0</ele><time>2026-03-22T09:36:32.669Z</time></trkpt><trkpt lat="43.4655376" lon="11.2389499"><ele>323.25</ele><time>2026-03-22T09:36:33.66Z</time></trkpt><trkpt lat="43.4654181" lon="11.2388554"><ele>319.5</ele><time>2026-03-22T09:36:34.666Z</time></trkpt><trkpt lat="43.4652913" lon="11.2387692"><ele>315.75</ele><time>2026-03-22T09:36:35.664Z</time></trkpt><trkpt lat="43.4651801" lon="11.2386855"><ele>312.0</ele><time>2026-03-22T09:36:36.668Z</time></trkpt><trkpt lat="43.4650866" lon="11.2386028"><ele>312.0</ele><time>2026-03-22T09:36:37.671Z</time></trkpt><trkpt lat="43.4649991" lon="11.2385352"><ele>312.0</ele><time>2026-03-22T09:36:38.668Z</time></trkpt><trkpt lat="43.4649132" lon="11.2384811"><ele>312.0</ele><time>2026-03-22T09:36:39.694Z</time></trkpt><trkpt lat="43.4648228" lon="11.238425"><ele>312.0</ele><time>2026-03-22T09:36:40.671Z</time></trkpt><trkpt lat="43.4647256" lon="11.2383987"><ele>312.0</ele><time>2026-03-22T09:36:41.663Z</time></trkpt><trkpt lat="43.4646098" lon="11.2383958"><ele>308.6666666666667</ele><time>2026-03-22T09:36:42.669Z</time></trkpt><trkpt lat="43.4644581" lon="11.2383722"><ele>305.33333333333337</ele><time>2026-03-22T09:36:43.669Z</time></trkpt><trkpt lat="43.4642672" lon="11.2383442"><ele>302.0</ele><time>2026-03-22T09:36:44.668Z</time></trkpt><trkpt lat="43.4640801" lon="11.2383051"><ele>302.0</ele><time>2026-03-22T09:36:45.683Z</time></trkpt><trkpt lat="43.4639212" lon="11.2382622"><ele>302.0</ele><time>2026-03-22T09:36:46.664Z</time></trkpt><trkpt lat="43.463781" lon="11.238229"><ele>302.0</ele><time>2026-03-22T09:36:47.672Z</time></trkpt><trkpt lat="43.4636578" lon="11.2381912"><ele>302.0</ele><time>2026-03-22T09:36:48.667Z</time></trkpt><trkpt lat="43.4635484" lon="11.2381283"><ele>301.6</ele><time>2026-03-22T09:36:49.671Z</time></trkpt><trkpt lat="43.4634757" lon="11.2380719"><ele>301.2</ele><time>2026-03-22T09:36:50.665Z</time></trkpt><trkpt lat="43.4634159" lon="11.2379885"><ele>300.8</ele><time>2026-03-22T09:36:51.662Z</time></trkpt><trkpt lat="43.4633829" lon="11.237828"><ele>300.4</ele><time>2026-03-22T09:36:53.668Z</time></trkpt><trkpt lat="43.463398" lon="11.2377377"><ele>300.0</ele><time>2026-03-22T09:36:54.669Z</time></trkpt><trkpt lat="43.4634165" lon="11.2375718"><ele>300.0</ele><time>2026-03-22T09:36:56.667Z</time></trkpt><trkpt lat="43.4633594" lon="11.2374188"><ele>300.0</ele><time>2026-03-22T09:36:58.67Z</time></trkpt><trkpt lat="43.4633131" lon="11.2373095"><ele>300.0</ele><time>2026-03-22T09:36:59.673Z</time></trkpt><trkpt lat="43.4632472" lon="11.237167"><ele>300.0</ele><time>2026-03-22T09:37:00.669Z</time></trkpt><trkpt lat="43.463184" lon="11.2370058"><ele>298.5</ele><time>2026-03-22T09:37:01.669Z</time></trkpt><trkpt lat="43.4631188" lon="11.2368353"><ele>297.0</ele><time>2026-03-22T09:37:02.668Z</time></trkpt><trkpt lat="43.4630474" lon="11.2366867"><ele>295.5</ele><time>2026-03-22T09:37:03.668Z</time></trkpt><trkpt lat="43.4629884" lon="11.2365467"><ele>294.0</ele><time>2026-03-22T09:37:04.68Z</time></trkpt><trkpt lat="43.462936" lon="11.2364116"><ele>296.8</ele><time>2026-03-22T09:37:05.662Z</time></trkpt><trkpt lat="43.4628925" lon="11.2362709"><ele>299.59999999999997</ele><time>2026-03-22T09:37:06.666Z</time></trkpt><trkpt lat="43.4628481" lon="11.2361358"><ele>302.4</ele><time>2026-03-22T09:37:07.673Z</time></trkpt><trkpt lat="43.4628046" lon="11.2360151"><ele>305.2</ele><time>2026-03-22T09:37:08.665Z</time></trkpt><trkpt lat="43.4627569" lon="11.2359013"><ele>308.0</ele><time>2026-03-22T09:37:09.7Z</time></trkpt><trkpt lat="43.462702" lon="11.2357904"><ele>308.0</ele><time>2026-03-22T09:37:10.668Z</time></trkpt><trkpt lat="43.4626421" lon="11.2356728"><ele>308.0</ele><time>2026-03-22T09:37:11.671Z</time></trkpt><trkpt lat="43.4625721" lon="11.2355581"><ele>308.0</ele><time>2026-03-22T09:37:12.672Z</time></trkpt><trkpt lat="43.4624956" lon="11.2354488"><ele>308.0</ele><time>2026-03-22T09:37:13.667Z</time></trkpt><trkpt lat="43.4624211" lon="11.2353277"><ele>308.0</ele><time>2026-03-22T09:37:14.665Z</time></trkpt><trkpt lat="43.4623585" lon="11.2352106"><ele>305.6</ele><time>2026-03-22T09:37:15.67Z</time></trkpt><trkpt lat="43.4622886" lon="11.2350718"><ele>303.20000000000005</ele><time>2026-03-22T09:37:16.669Z</time></trkpt><trkpt lat="43.4622294" lon="11.2349545"><ele>300.8</ele><time>2026-03-22T09:37:17.666Z</time></trkpt><trkpt lat="43.4621758" lon="11.2348648"><ele>298.40000000000003</ele><time>2026-03-22T09:37:18.661Z</time></trkpt><trkpt lat="43.4621042" lon="11.234766"><ele>296.0</ele><time>2026-03-22T09:37:20.666Z</time></trkpt><trkpt lat="43.4620403" lon="11.2346894"><ele>294.5</ele><time>2026-03-22T09:37:22.66Z</time></trkpt><trkpt lat="43.4619082" lon="11.2345726"><ele>293.0</ele><time>2026-03-22T09:37:24.665Z</time></trkpt><trkpt lat="43.4618" lon="11.2344863"><ele>291.5</ele><time>2026-03-22T09:37:25.697Z</time></trkpt><trkpt lat="43.4616963" lon="11.2343823"><ele>290.0</ele><time>2026-03-22T09:37:26.671Z</time></trkpt><trkpt lat="43.4616136" lon="11.2342542"><ele>290.0</ele><time>2026-03-22T09:37:27.665Z</time></trkpt><trkpt lat="43.4615273" lon="11.234102"><ele>290.0</ele><time>2026-03-22T09:37:28.664Z</time></trkpt><trkpt lat="43.4614577" lon="11.2339494"><ele>290.0</ele><time>2026-03-22T09:37:29.67Z</time></trkpt><trkpt lat="43.4613888" lon="11.2338126"><ele>290.0</ele><time>2026-03-22T09:37:30.664Z</time></trkpt><trkpt lat="43.4613371" lon="11.2336844"><ele>288.75</ele><time>2026-03-22T09:37:31.667Z</time></trkpt><trkpt lat="43.461284" lon="11.2335521"><ele>287.5</ele><time>2026-03-22T09:37:32.668Z</time></trkpt><trkpt lat="43.4612345" lon="11.2333934"><ele>286.25</ele><time>2026-03-22T09:37:33.67Z</time></trkpt><trkpt lat="43.4611926" lon="11.2332375"><ele>285.0</ele><time>2026-03-22T09:37:34.665Z</time></trkpt><trkpt lat="43.4611596" lon="11.2330899"><ele>283.75</ele><time>2026-03-22T09:37:35.669Z</time></trkpt><trkpt lat="43.461117" lon="11.232914"><ele>282.5</ele><time>2026-03-22T09:37:36.675Z</time></trkpt><trkpt lat="43.4610757" lon="11.2327397"><ele>281.25</ele><time>2026-03-22T09:37:37.668Z</time></trkpt><trkpt lat="43.4610342" lon="11.2325905"><ele>280.0</ele><time>2026-03-22T09:37:38.674Z</time></trkpt><trkpt lat="43.4609986" lon="11.2324432"><ele>278.8</ele><time>2026-03-22T09:37:39.666Z</time></trkpt><trkpt lat="43.4609665" lon="11.2323055"><ele>277.6</ele><time>2026-03-22T09:37:40.669Z</time></trkpt><trkpt lat="43.4609379" lon="11.2321652"><ele>276.4</ele><time>2026-03-22T09:37:41.672Z</time></trkpt><trkpt lat="43.4609123" lon="11.2320336"><ele>275.2</ele><time>2026-03-22T09:37:42.664Z</time></trkpt><trkpt lat="43.460883" lon="11.2319081"><ele>274.0</ele><time>2026-03-22T09:37:43.692Z</time></trkpt><trkpt lat="43.46086" lon="11.2318005"><ele>274.0</ele><time>2026-03-22T09:37:44.662Z</time></trkpt><trkpt lat="43.4608423" lon="11.2317064"><ele>274.0</ele><time>2026-03-22T09:37:45.67Z</time></trkpt><trkpt lat="43.460813" lon="11.2315505"><ele>274.0</ele><time>2026-03-22T09:37:47.669Z</time></trkpt><trkpt lat="43.4607915" lon="11.2314622"><ele>274.0</ele><time>2026-03-22T09:37:48.691Z</time></trkpt><trkpt lat="43.4607547" lon="11.231305"><ele>274.0</ele><time>2026-03-22T09:37:49.662Z</time></trkpt><trkpt lat="43.4606971" lon="11.2310888"><ele>273.0</ele><time>2026-03-22T09:37:50.671Z</time></trkpt><trkpt lat="43.4606427" lon="11.2309155"><ele>272.0</ele><time>2026-03-22T09:37:51.663Z</time></trkpt><trkpt lat="43.4606102" lon="11.2307837"><ele>271.0</ele><time>2026-03-22T09:37:52.66Z</time></trkpt><trkpt lat="43.4605849" lon="11.2306765"><ele>270.0</ele><time>2026-03-22T09:37:53.672Z</time></trkpt><trkpt lat="43.4605578" lon="11.2305373"><ele>269.0</ele><time>2026-03-22T09:37:54.668Z</time></trkpt><trkpt lat="43.4605191" lon="11.2303899"><ele>269.25</ele><time>2026-03-22T09:37:55.672Z</time></trkpt><trkpt lat="43.4604751" lon="11.2302232"><ele>269.5</ele><time>2026-03-22T09:37:56.682Z</time></trkpt><trkpt lat="43.4604267" lon="11.2300211"><ele>269.75</ele><time>2026-03-22T09:37:57.672Z</time></trkpt><trkpt lat="43.4603721" lon="11.2298226"><ele>270.0</ele><time>2026-03-22T09:37:58.666Z</time></trkpt><trkpt lat="43.460329" lon="11.2296124"><ele>270.0</ele><time>2026-03-22T09:37:59.666Z</time></trkpt><trkpt lat="43.4602813" lon="11.2293874"><ele>270.0</ele><time>2026-03-22T09:38:00.656Z</time></trkpt><trkpt lat="43.4602363" lon="11.229186"><ele>270.0</ele><time>2026-03-22T09:38:01.671Z</time></trkpt><trkpt lat="43.4602005" lon="11.2290068"><ele>270.2</ele><time>2026-03-22T09:38:02.674Z</time></trkpt><trkpt lat="43.4601816" lon="11.2288566"><ele>270.4</ele><time>2026-03-22T09:38:03.668Z</time></trkpt><trkpt lat="43.4601687" lon="11.2287096"><ele>270.6</ele><time>2026-03-22T09:38:04.699Z</time></trkpt><trkpt lat="43.4601594" lon="11.2285603"><ele>270.8</ele><time>2026-03-22T09:38:05.666Z</time></trkpt><trkpt lat="43.4601418" lon="11.2284285"><ele>271.0</ele><time>2026-03-22T09:38:06.662Z</time></trkpt><trkpt lat="43.4601293" lon="11.2283294"><ele>271.0</ele><time>2026-03-22T09:38:07.665Z</time></trkpt><trkpt lat="43.4601371" lon="11.2282319"><ele>271.0</ele><time>2026-03-22T09:38:09.675Z</time></trkpt><trkpt lat="43.4602296" lon="11.2281712"><ele>271.0</ele><time>2026-03-22T09:38:12.669Z</time></trkpt><trkpt lat="43.4603207" lon="11.2281297"><ele>271.0</ele><time>2026-03-22T09:38:14.665Z</time></trkpt><trkpt lat="43.4604314" lon="11.2280917"><ele>271.0</ele><time>2026-03-22T09:38:16.668Z</time></trkpt><trkpt lat="43.4605406" lon="11.2280388"><ele>271.0</ele><time>2026-03-22T09:38:18.669Z</time></trkpt><trkpt lat="43.4606251" lon="11.228005"><ele>271.0</ele><time>2026-03-22T09:38:20.667Z</time></trkpt><trkpt lat="43.4605588" lon="11.2280545"><ele>271.0</ele><time>2026-03-22T09:38:27.664Z</time></trkpt><trkpt lat="43.4604296" lon="11.2280833"><ele>271.0</ele><time>2026-03-22T09:38:29.673Z</time></trkpt><trkpt lat="43.4603468" lon="11.2281132"><ele>271.0</ele><time>2026-03-22T09:38:30.67Z</time></trkpt><trkpt lat="43.4602716" lon="11.2281433"><ele>271.0</ele><time>2026-03-22T09:38:31.677Z</time></trkpt><trkpt lat="43.4601892" lon="11.2281746"><ele>271.0</ele><time>2026-03-22T09:38:32.67Z</time></trkpt><trkpt lat="43.4601333" lon="11.2282156"><ele>271.0</ele><time>2026-03-22T09:38:33.669Z</time></trkpt><trkpt lat="43.4601232" lon="11.228359"><ele>271.0</ele><time>2026-03-22T09:38:35.666Z</time></trkpt><trkpt lat="43.4601256" lon="11.2284831"><ele>271.0</ele><time>2026-03-22T09:38:36.67Z</time></trkpt><trkpt lat="43.4601369" lon="11.2286625"><ele>271.0</ele><time>2026-03-22T09:38:37.68Z</time></trkpt><trkpt lat="43.4601655" lon="11.2288823"><ele>271.0</ele><time>2026-03-22T09:38:38.663Z</time></trkpt><trkpt lat="43.4601942" lon="11.2290941"><ele>271.0</ele><time>2026-03-22T09:38:39.656Z</time></trkpt><trkpt lat="43.4602301" lon="11.2292763"><ele>271.0</ele><time>2026-03-22T09:38:40.668Z</time></trkpt><trkpt lat="43.4602685" lon="11.229442"><ele>271.0</ele><time>2026-03-22T09:38:41.663Z</time></trkpt><trkpt lat="43.4603042" lon="11.2295803"><ele>271.0</ele><time>2026-03-22T09:38:42.664Z</time></trkpt><trkpt lat="43.4603435" lon="11.2297263"><ele>271.0</ele><time>2026-03-22T09:38:43.664Z</time></trkpt><trkpt lat="43.4603904" lon="11.2299111"><ele>269.8</ele><time>2026-03-22T09:38:44.662Z</time></trkpt><trkpt lat="43.4604513" lon="11.2300826"><ele>268.6</ele><time>2026-03-22T09:38:45.669Z</time></trkpt><trkpt lat="43.4604871" lon="11.2302247"><ele>267.4</ele><time>2026-03-22T09:38:46.694Z</time></trkpt><trkpt lat="43.4605098" lon="11.2303398"><ele>266.2</ele><time>2026-03-22T09:38:47.67Z</time></trkpt><trkpt lat="43.4605355" lon="11.230441"><ele>265.0</ele><time>2026-03-22T09:38:48.667Z</time></trkpt><trkpt lat="43.4605515" lon="11.2305286"><ele>266.0</ele><time>2026-03-22T09:38:49.669Z</time></trkpt><trkpt lat="43.4605996" lon="11.2306991"><ele>267.0</ele><time>2026-03-22T09:38:51.67Z</time></trkpt><trkpt lat="43.4606234" lon="11.230823"><ele>268.0</ele><time>2026-03-22T09:38:52.669Z</time></trkpt><trkpt lat="43.4606661" lon="11.2309857"><ele>269.0</ele><time>2026-03-22T09:38:53.665Z</time></trkpt><trkpt lat="43.460708" lon="11.2311787"><ele>269.0</ele><time>2026-03-22T09:38:54.673Z</time></trkpt><trkpt lat="43.4607487" lon="11.2313013"><ele>269.0</ele><time>2026-03-22T09:38:55.661Z</time></trkpt><trkpt lat="43.460781" lon="11.2313892"><ele>269.0</ele><time>2026-03-22T09:38:56.665Z</time></trkpt><trkpt lat="43.4608029" lon="11.2314707"><ele>269.0</ele><time>2026-03-22T09:38:57.665Z</time></trkpt><trkpt lat="43.4607963" lon="11.2315699"><ele>269.0</ele><time>2026-03-22T09:38:59.675Z</time></trkpt><trkpt lat="43.4607576" lon="11.2316404"><ele>269.0</ele><time>2026-03-22T09:39:03.665Z</time></trkpt><trkpt lat="43.4606865" lon="11.2315077"><ele>269.0</ele><time>2026-03-22T09:39:06.663Z</time></trkpt><trkpt lat="43.4606643" lon="11.2314028"><ele>269.0</ele><time>2026-03-22T09:39:07.664Z</time></trkpt><trkpt lat="43.4606498" lon="11.2312577"><ele>269.0</ele><time>2026-03-22T09:39:08.666Z</time></trkpt><trkpt lat="43.4606185" lon="11.231122"><ele>269.0</ele><time>2026-03-22T09:39:09.665Z</time></trkpt><trkpt lat="43.4605872" lon="11.2310158"><ele>269.0</ele><time>2026-03-22T09:39:10.668Z</time></trkpt><trkpt lat="43.4605689" lon="11.2309261"><ele>269.0</ele><time>2026-03-22T09:39:11.67Z</time></trkpt><trkpt lat="43.4605447" lon="11.2308434"><ele>269.0</ele><time>2026-03-22T09:39:12.663Z</time></trkpt><trkpt lat="43.460471" lon="11.2307645"><ele>269.0</ele><time>2026-03-22T09:39:14.671Z</time></trkpt><trkpt lat="43.4603973" lon="11.2307888"><ele>269.0</ele><time>2026-03-22T09:39:15.665Z</time></trkpt><trkpt lat="43.4603077" lon="11.2308355"><ele>269.0</ele><time>2026-03-22T09:39:16.691Z</time></trkpt><trkpt lat="43.4602075" lon="11.230883"><ele>269.0</ele><time>2026-03-22T09:39:17.666Z</time></trkpt><trkpt lat="43.460098" lon="11.230932"><ele>270.0</ele><time>2026-03-22T09:39:18.668Z</time></trkpt><trkpt lat="43.4599763" lon="11.2310019"><ele>271.0</ele><time>2026-03-22T09:39:19.674Z</time></trkpt><trkpt lat="43.4598433" lon="11.231068"><ele>272.0</ele><time>2026-03-22T09:39:20.664Z</time></trkpt><trkpt lat="43.4597275" lon="11.2311272"><ele>273.0</ele><time>2026-03-22T09:39:21.7Z</time></trkpt><trkpt lat="43.4596195" lon="11.2311728"><ele>273.5</ele><time>2026-03-22T09:39:22.665Z</time></trkpt><trkpt lat="43.4595111" lon="11.2312267"><ele>274.0</ele><time>2026-03-22T09:39:23.67Z</time></trkpt><trkpt lat="43.4593884" lon="11.231293"><ele>274.5</ele><time>2026-03-22T09:39:24.668Z</time></trkpt><trkpt lat="43.4592637" lon="11.2313607"><ele>275.0</ele><time>2026-03-22T09:39:25.671Z</time></trkpt><trkpt lat="43.4591353" lon="11.2314251"><ele>275.75</ele><time>2026-03-22T09:39:26.668Z</time></trkpt><trkpt lat="43.4590112" lon="11.2314983"><ele>276.5</ele><time>2026-03-22T09:39:27.663Z</time></trkpt><trkpt lat="43.4588721" lon="11.231577"><ele>277.25</ele><time>2026-03-22T09:39:28.694Z</time></trkpt><trkpt lat="43.4587321" lon="11.2316514"><ele>278.0</ele><time>2026-03-22T09:39:29.667Z</time></trkpt><trkpt lat="43.4586196" lon="11.2317097"><ele>279.6666666666667</ele><time>2026-03-22T09:39:30.665Z</time></trkpt><trkpt lat="43.4585437" lon="11.2317579"><ele>281.33333333333337</ele><time>2026-03-22T09:39:31.671Z</time></trkpt><trkpt lat="43.458467" lon="11.2317744"><ele>283.0</ele><time>2026-03-22T09:39:32.667Z</time></trkpt><trkpt lat="43.4583868" lon="11.2317892"><ele>284.6666666666667</ele><time>2026-03-22T09:39:33.685Z</time></trkpt><trkpt lat="43.4583126" lon="11.2317897"><ele>286.3333333333333</ele><time>2026-03-22T09:39:34.666Z</time></trkpt><trkpt lat="43.4582338" lon="11.2317701"><ele>288.0</ele><time>2026-03-22T09:39:35.669Z</time></trkpt><trkpt lat="43.4581483" lon="11.2317217"><ele>288.0</ele><time>2026-03-22T09:39:36.669Z</time></trkpt><trkpt lat="43.4580497" lon="11.2316382"><ele>288.0</ele><time>2026-03-22T09:39:37.672Z</time></trkpt><trkpt lat="43.4579457" lon="11.2315221"><ele>288.0</ele><time>2026-03-22T09:39:38.668Z</time></trkpt><trkpt lat="43.4578186" lon="11.2313488"><ele>288.0</ele><time>2026-03-22T09:39:39.666Z</time></trkpt><trkpt lat="43.4576848" lon="11.2311759"><ele>289.6666666666667</ele><time>2026-03-22T09:39:40.692Z</time></trkpt><trkpt lat="43.457539" lon="11.2310062"><ele>291.33333333333337</ele><time>2026-03-22T09:39:41.666Z</time></trkpt><trkpt lat="43.457424" lon="11.2308546"><ele>293.0</ele><time>2026-03-22T09:39:42.663Z</time></trkpt><trkpt lat="43.4573415" lon="11.230739"><ele>293.0</ele><time>2026-03-22T09:39:43.67Z</time></trkpt><trkpt lat="43.4572729" lon="11.2306482"><ele>293.0</ele><time>2026-03-22T09:39:44.671Z</time></trkpt><trkpt lat="43.4572199" lon="11.2305581"><ele>293.0</ele><time>2026-03-22T09:39:45.668Z</time></trkpt><trkpt lat="43.4571594" lon="11.2304559"><ele>293.0</ele><time>2026-03-22T09:39:46.667Z</time></trkpt><trkpt lat="43.4570824" lon="11.2303141"><ele>293.0</ele><time>2026-03-22T09:39:47.674Z</time></trkpt><trkpt lat="43.4570031" lon="11.2300929"><ele>293.5</ele><time>2026-03-22T09:39:48.673Z</time></trkpt><trkpt lat="43.4569287" lon="11.2298956"><ele>294.0</ele><time>2026-03-22T09:39:49.671Z</time></trkpt><trkpt lat="43.4568771" lon="11.2297338"><ele>294.5</ele><time>2026-03-22T09:39:50.663Z</time></trkpt><trkpt lat="43.456832" lon="11.2295955"><ele>295.0</ele><time>2026-03-22T09:39:51.67Z</time></trkpt><trkpt lat="43.4567983" lon="11.2294632"><ele>294.2</ele><time>2026-03-22T09:39:52.668Z</time></trkpt><trkpt lat="43.4567485" lon="11.2293549"><ele>293.4</ele><time>2026-03-22T09:39:53.699Z</time></trkpt><trkpt lat="43.456698" lon="11.2292377"><ele>292.6</ele><time>2026-03-22T09:39:54.666Z</time></trkpt><trkpt lat="43.4566385" lon="11.229128"><ele>291.8</ele><time>2026-03-22T09:39:55.67Z</time></trkpt><trkpt lat="43.4565519" lon="11.2289987"><ele>291.0</ele><time>2026-03-22T09:39:56.666Z</time></trkpt><trkpt lat="43.4564341" lon="11.2288393"><ele>289.3333333333333</ele><time>2026-03-22T09:39:57.667Z</time></trkpt><trkpt lat="43.4563086" lon="11.2286617"><ele>287.66666666666663</ele><time>2026-03-22T09:39:58.67Z</time></trkpt><trkpt lat="43.4561986" lon="11.2285051"><ele>286.0</ele><time>2026-03-22T09:39:59.681Z</time></trkpt><trkpt lat="43.4560933" lon="11.2283604"><ele>286.0</ele><time>2026-03-22T09:40:00.665Z</time></trkpt><trkpt lat="43.4559945" lon="11.2282155"><ele>286.0</ele><time>2026-03-22T09:40:01.666Z</time></trkpt><trkpt lat="43.4559027" lon="11.2280777"><ele>286.0</ele><time>2026-03-22T09:40:02.663Z</time></trkpt><trkpt lat="43.4558173" lon="11.2279465"><ele>286.0</ele><time>2026-03-22T09:40:03.709Z</time></trkpt><trkpt lat="43.4557367" lon="11.2278409"><ele>285.8</ele><time>2026-03-22T09:40:04.662Z</time></trkpt><trkpt lat="43.4556694" lon="11.2277465"><ele>285.6</ele><time>2026-03-22T09:40:05.665Z</time></trkpt><trkpt lat="43.4556027" lon="11.2276859"><ele>285.4</ele><time>2026-03-22T09:40:06.668Z</time></trkpt><trkpt lat="43.4555068" lon="11.2276161"><ele>285.2</ele><time>2026-03-22T09:40:07.67Z</time></trkpt><trkpt lat="43.4553686" lon="11.2275214"><ele>285.0</ele><time>2026-03-22T09:40:08.684Z</time></trkpt><trkpt lat="43.4552149" lon="11.2274451"><ele>285.0</ele><time>2026-03-22T09:40:09.671Z</time></trkpt><trkpt lat="43.455061" lon="11.2273982"><ele>285.0</ele><time>2026-03-22T09:40:10.666Z</time></trkpt><trkpt lat="43.4548793" lon="11.2273693"><ele>285.0</ele><time>2026-03-22T09:40:11.663Z</time></trkpt><trkpt lat="43.4547181" lon="11.227328"><ele>286.8</ele><time>2026-03-22T09:40:12.673Z</time></trkpt><trkpt lat="43.4545905" lon="11.2273055"><ele>288.6</ele><time>2026-03-22T09:40:13.67Z</time></trkpt><trkpt lat="43.4544921" lon="11.2272879"><ele>290.4</ele><time>2026-03-22T09:40:14.692Z</time></trkpt><trkpt lat="43.4543825" lon="11.2272702"><ele>292.2</ele><time>2026-03-22T09:40:15.663Z</time></trkpt><trkpt lat="43.4542735" lon="11.227262"><ele>294.0</ele><time>2026-03-22T09:40:16.665Z</time></trkpt><trkpt lat="43.4541634" lon="11.227266"><ele>294.0</ele><time>2026-03-22T09:40:17.672Z</time></trkpt><trkpt lat="43.4540625" lon="11.2272615"><ele>294.0</ele><time>2026-03-22T09:40:18.655Z</time></trkpt><trkpt lat="43.4539741" lon="11.2272691"><ele>294.0</ele><time>2026-03-22T09:40:19.692Z</time></trkpt><trkpt lat="43.4538886" lon="11.2272749"><ele>294.0</ele><time>2026-03-22T09:40:20.668Z</time></trkpt><trkpt lat="43.4538145" lon="11.2272798"><ele>294.0</ele><time>2026-03-22T09:40:21.709Z</time></trkpt><trkpt lat="43.4537416" lon="11.2272731"><ele>294.0</ele><time>2026-03-22T09:40:22.674Z</time></trkpt><trkpt lat="43.4536705" lon="11.2272653"><ele>291.5</ele><time>2026-03-22T09:40:23.667Z</time></trkpt><trkpt lat="43.4535977" lon="11.2272429"><ele>289.0</ele><time>2026-03-22T09:40:24.663Z</time></trkpt><trkpt lat="43.453522" lon="11.2272046"><ele>286.5</ele><time>2026-03-22T09:40:25.659Z</time></trkpt><trkpt lat="43.4534452" lon="11.2271488"><ele>284.0</ele><time>2026-03-22T09:40:26.667Z</time></trkpt><trkpt lat="43.4533813" lon="11.2270831"><ele>281.5</ele><time>2026-03-22T09:40:27.666Z</time></trkpt><trkpt lat="43.4533178" lon="11.2270123"><ele>279.0</ele><time>2026-03-22T09:40:28.659Z</time></trkpt><trkpt lat="43.4532649" lon="11.2269304"><ele>279.0</ele><time>2026-03-22T09:40:29.683Z</time></trkpt><trkpt lat="43.453217" lon="11.2268665"><ele>279.0</ele><time>2026-03-22T09:40:30.665Z</time></trkpt><trkpt lat="43.45313" lon="11.2267943"><ele>279.0</ele><time>2026-03-22T09:40:32.661Z</time></trkpt><trkpt lat="43.4530288" lon="11.226805"><ele>279.0</ele><time>2026-03-22T09:40:34.666Z</time></trkpt><trkpt lat="43.4529148" lon="11.2268775"><ele>279.0</ele><time>2026-03-22T09:40:36.665Z</time></trkpt><trkpt lat="43.4528179" lon="11.22694"><ele>279.0</ele><time>2026-03-22T09:40:38.663Z</time></trkpt><trkpt lat="43.4527535" lon="11.2269576"><ele>279.0</ele><time>2026-03-22T09:40:40.663Z</time></trkpt><trkpt lat="43.4526984" lon="11.2270068"><ele>279.0</ele><time>2026-03-22T09:40:48.663Z</time></trkpt><trkpt lat="43.4527742" lon="11.2269675"><ele>279.0</ele><time>2026-03-22T09:41:00.678Z</time></trkpt><trkpt lat="43.4528613" lon="11.2269218"><ele>279.0</ele><time>2026-03-22T09:41:02.671Z</time></trkpt><trkpt lat="43.4529478" lon="11.2268763"><ele>279.0</ele><time>2026-03-22T09:41:04.668Z</time></trkpt><trkpt lat="43.4529956" lon="11.22695"><ele>275.2</ele><time>2026-03-22T09:41:07.679Z</time></trkpt><trkpt lat="43.4529544" lon="11.2270918"><ele>271.4</ele><time>2026-03-22T09:41:09.663Z</time></trkpt><trkpt lat="43.4529339" lon="11.2271793"><ele>267.6</ele><time>2026-03-22T09:41:10.665Z</time></trkpt><trkpt lat="43.4529003" lon="11.2273098"><ele>263.8</ele><time>2026-03-22T09:41:11.664Z</time></trkpt><trkpt lat="43.4528732" lon="11.2274599"><ele>260.0</ele><time>2026-03-22T09:41:12.666Z</time></trkpt><trkpt lat="43.4528372" lon="11.227616"><ele>259.75</ele><time>2026-03-22T09:41:13.697Z</time></trkpt><trkpt lat="43.4527982" lon="11.2277849"><ele>259.5</ele><time>2026-03-22T09:41:14.665Z</time></trkpt><trkpt lat="43.4527601" lon="11.2279768"><ele>259.25</ele><time>2026-03-22T09:41:15.667Z</time></trkpt><trkpt lat="43.4527258" lon="11.228175"><ele>259.0</ele><time>2026-03-22T09:41:16.669Z</time></trkpt><trkpt lat="43.4526995" lon="11.2283496"><ele>258.4</ele><time>2026-03-22T09:41:17.66Z</time></trkpt><trkpt lat="43.4526679" lon="11.2284951"><ele>257.79999999999995</ele><time>2026-03-22T09:41:18.673Z</time></trkpt><trkpt lat="43.4526347" lon="11.2286199"><ele>257.20000000000005</ele><time>2026-03-22T09:41:19.701Z</time></trkpt><trkpt lat="43.4525905" lon="11.228732"><ele>256.6</ele><time>2026-03-22T09:41:20.664Z</time></trkpt><trkpt lat="43.4525446" lon="11.2288396"><ele>256.0</ele><time>2026-03-22T09:41:21.664Z</time></trkpt><trkpt lat="43.4524714" lon="11.2289376"><ele>255.0</ele><time>2026-03-22T09:41:22.665Z</time></trkpt><trkpt lat="43.4523857" lon="11.2290344"><ele>254.00000000000003</ele><time>2026-03-22T09:41:23.664Z</time></trkpt><trkpt lat="43.4523138" lon="11.2291597"><ele>253.00000000000003</ele><time>2026-03-22T09:41:24.666Z</time></trkpt><trkpt lat="43.4522517" lon="11.2292775"><ele>252.0</ele><time>2026-03-22T09:41:25.663Z</time></trkpt><trkpt lat="43.4521868" lon="11.2293813"><ele>251.0</ele><time>2026-03-22T09:41:26.67Z</time></trkpt><trkpt lat="43.4521187" lon="11.2294605"><ele>249.0</ele><time>2026-03-22T09:41:27.665Z</time></trkpt><trkpt lat="43.4520409" lon="11.2295409"><ele>247.00000000000003</ele><time>2026-03-22T09:41:28.671Z</time></trkpt><trkpt lat="43.4519593" lon="11.2296351"><ele>245.00000000000003</ele><time>2026-03-22T09:41:29.662Z</time></trkpt><trkpt lat="43.451883" lon="11.2297197"><ele>243.0</ele><time>2026-03-22T09:41:30.662Z</time></trkpt><trkpt lat="43.4517979" lon="11.2298004"><ele>241.0</ele><time>2026-03-22T09:41:31.663Z</time></trkpt><trkpt lat="43.4517233" lon="11.2298772"><ele>240.25</ele><time>2026-03-22T09:41:32.662Z</time></trkpt><trkpt lat="43.4516419" lon="11.229955"><ele>239.5</ele><time>2026-03-22T09:41:33.666Z</time></trkpt><trkpt lat="43.4515381" lon="11.2300382"><ele>238.75</ele><time>2026-03-22T09:41:34.662Z</time></trkpt><trkpt lat="43.4514221" lon="11.2301244"><ele>238.0</ele><time>2026-03-22T09:41:35.663Z</time></trkpt><trkpt lat="43.4512961" lon="11.2302062"><ele>235.0</ele><time>2026-03-22T09:41:36.671Z</time></trkpt><trkpt lat="43.4511721" lon="11.2302985"><ele>232.0</ele><time>2026-03-22T09:41:37.662Z</time></trkpt><trkpt lat="43.4510473" lon="11.2303838"><ele>229.0</ele><time>2026-03-22T09:41:38.697Z</time></trkpt><trkpt lat="43.4509266" lon="11.2304765"><ele>226.0</ele><time>2026-03-22T09:41:39.668Z</time></trkpt><trkpt lat="43.4508009" lon="11.2305606"><ele>225.5</ele><time>2026-03-22T09:41:40.667Z</time></trkpt><trkpt lat="43.450667" lon="11.2306658"><ele>225.0</ele><time>2026-03-22T09:41:41.672Z</time></trkpt><trkpt lat="43.450554" lon="11.2307606"><ele>224.5</ele><time>2026-03-22T09:41:42.666Z</time></trkpt><trkpt lat="43.4504495" lon="11.2308546"><ele>224.0</ele><time>2026-03-22T09:41:43.669Z</time></trkpt><trkpt lat="43.4503676" lon="11.2309429"><ele>222.0</ele><time>2026-03-22T09:41:44.667Z</time></trkpt><trkpt lat="43.4502838" lon="11.2310521"><ele>220.0</ele><time>2026-03-22T09:41:45.665Z</time></trkpt><trkpt lat="43.4501913" lon="11.2311846"><ele>218.0</ele><time>2026-03-22T09:41:46.665Z</time></trkpt><trkpt lat="43.4500938" lon="11.2313241"><ele>216.0</ele><time>2026-03-22T09:41:47.659Z</time></trkpt><trkpt lat="43.4500061" lon="11.2314507"><ele>215.60000000000002</ele><time>2026-03-22T09:41:48.663Z</time></trkpt><trkpt lat="43.4499168" lon="11.2315552"><ele>215.20000000000002</ele><time>2026-03-22T09:41:49.662Z</time></trkpt><trkpt lat="43.4498398" lon="11.2316389"><ele>214.79999999999998</ele><time>2026-03-22T09:41:50.667Z</time></trkpt><trkpt lat="43.4497631" lon="11.2317079"><ele>214.39999999999998</ele><time>2026-03-22T09:41:51.669Z</time></trkpt><trkpt lat="43.4496911" lon="11.231785"><ele>214.0</ele><time>2026-03-22T09:41:52.663Z</time></trkpt><trkpt lat="43.4496227" lon="11.2318492"><ele>212.49999999999997</ele><time>2026-03-22T09:41:53.681Z</time></trkpt><trkpt lat="43.4495504" lon="11.2319058"><ele>211.0</ele><time>2026-03-22T09:41:54.666Z</time></trkpt><trkpt lat="43.4494723" lon="11.2319673"><ele>209.5</ele><time>2026-03-22T09:41:55.663Z</time></trkpt><trkpt lat="43.4493991" lon="11.2320263"><ele>208.0</ele><time>2026-03-22T09:41:56.671Z</time></trkpt><trkpt lat="43.4493233" lon="11.2320937"><ele>206.49999999999997</ele><time>2026-03-22T09:41:57.66Z</time></trkpt><trkpt lat="43.4492628" lon="11.2321574"><ele>205.0</ele><time>2026-03-22T09:41:58.688Z</time></trkpt><trkpt lat="43.4492074" lon="11.23221"><ele>205.0</ele><time>2026-03-22T09:41:59.668Z</time></trkpt><trkpt lat="43.4491207" lon="11.2322413"><ele>205.0</ele><time>2026-03-22T09:42:01.67Z</time></trkpt><trkpt lat="43.4490666" lon="11.232175"><ele>205.0</ele><time>2026-03-22T09:42:03.684Z</time></trkpt><trkpt lat="43.4490724" lon="11.2320068"><ele>205.0</ele><time>2026-03-22T09:42:05.67Z</time></trkpt><trkpt lat="43.449076" lon="11.2318927"><ele>205.0</ele><time>2026-03-22T09:42:06.685Z</time></trkpt><trkpt lat="43.4490667" lon="11.2317542"><ele>205.0</ele><time>2026-03-22T09:42:07.668Z</time></trkpt><trkpt lat="43.4490524" lon="11.2315976"><ele>205.0</ele><time>2026-03-22T09:42:08.672Z</time></trkpt><trkpt lat="43.4490354" lon="11.2314379"><ele>205.0</ele><time>2026-03-22T09:42:09.672Z</time></trkpt><trkpt lat="43.4490214" lon="11.2312638"><ele>205.0</ele><time>2026-03-22T09:42:10.671Z</time></trkpt><trkpt lat="43.449008" lon="11.2310784"><ele>205.5</ele><time>2026-03-22T09:42:11.673Z</time></trkpt><trkpt lat="43.4489934" lon="11.2308869"><ele>206.0</ele><time>2026-03-22T09:42:12.674Z</time></trkpt><trkpt lat="43.4489794" lon="11.2306934"><ele>206.5</ele><time>2026-03-22T09:42:13.672Z</time></trkpt><trkpt lat="43.448962" lon="11.2305049"><ele>207.0</ele><time>2026-03-22T09:42:14.666Z</time></trkpt><trkpt lat="43.4489464" lon="11.2303143"><ele>207.5</ele><time>2026-03-22T09:42:15.664Z</time></trkpt><trkpt lat="43.4489302" lon="11.2301393"><ele>208.0</ele><time>2026-03-22T09:42:16.668Z</time></trkpt><trkpt lat="43.4489169" lon="11.229964"><ele>208.5</ele><time>2026-03-22T09:42:17.666Z</time></trkpt><trkpt lat="43.4488978" lon="11.2297879"><ele>209.0</ele><time>2026-03-22T09:42:18.663Z</time></trkpt><trkpt lat="43.4488814" lon="11.2295983"><ele>209.25</ele><time>2026-03-22T09:42:19.694Z</time></trkpt><trkpt lat="43.4488659" lon="11.2294021"><ele>209.5</ele><time>2026-03-22T09:42:20.667Z</time></trkpt><trkpt lat="43.4488506" lon="11.2292116"><ele>209.75</ele><time>2026-03-22T09:42:21.668Z</time></trkpt><trkpt lat="43.448841" lon="11.2290327"><ele>210.0</ele><time>2026-03-22T09:42:22.672Z</time></trkpt><trkpt lat="43.4488264" lon="11.2288791"><ele>210.0</ele><time>2026-03-22T09:42:23.669Z</time></trkpt><trkpt lat="43.4488074" lon="11.228755"><ele>210.0</ele><time>2026-03-22T09:42:24.668Z</time></trkpt><trkpt lat="43.4487948" lon="11.2286576"><ele>210.0</ele><time>2026-03-22T09:42:25.66Z</time></trkpt><trkpt lat="43.4487732" lon="11.2284975"><ele>210.0</ele><time>2026-03-22T09:42:27.67Z</time></trkpt><trkpt lat="43.4487577" lon="11.2283713"><ele>210.0</ele><time>2026-03-22T09:42:29.667Z</time></trkpt><trkpt lat="43.4487512" lon="11.2282443"><ele>208.0</ele><time>2026-03-22T09:42:31.686Z</time></trkpt><trkpt lat="43.4486769" lon="11.228165"><ele>206.0</ele><time>2026-03-22T09:42:34.66Z</time></trkpt><trkpt lat="43.4486127" lon="11.2281631"><ele>204.0</ele><time>2026-03-22T09:42:35.668Z</time></trkpt><trkpt lat="43.4485254" lon="11.2281795"><ele>202.0</ele><time>2026-03-22T09:42:36.667Z</time></trkpt><trkpt lat="43.4484202" lon="11.2282098"><ele>200.0</ele><time>2026-03-22T09:42:37.666Z</time></trkpt><trkpt lat="43.4483128" lon="11.2282365"><ele>200.0</ele><time>2026-03-22T09:42:38.662Z</time></trkpt><trkpt lat="43.4482052" lon="11.228251"><ele>200.0</ele><time>2026-03-22T09:42:39.66Z</time></trkpt><trkpt lat="43.4481026" lon="11.2282604"><ele>200.0</ele><time>2026-03-22T09:42:40.684Z</time></trkpt><trkpt lat="43.4479946" lon="11.2282806"><ele>200.0</ele><time>2026-03-22T09:42:41.668Z</time></trkpt><trkpt lat="43.4478889" lon="11.2282978"><ele>200.0</ele><time>2026-03-22T09:42:42.663Z</time></trkpt><trkpt lat="43.4477802" lon="11.2283154"><ele>198.66666666666669</ele><time>2026-03-22T09:42:43.668Z</time></trkpt><trkpt lat="43.4476805" lon="11.2283187"><ele>197.33333333333334</ele><time>2026-03-22T09:42:44.666Z</time></trkpt><trkpt lat="43.4475906" lon="11.2283138"><ele>196.0</ele><time>2026-03-22T09:42:45.665Z</time></trkpt><trkpt lat="43.4475056" lon="11.2282985"><ele>194.66666666666669</ele><time>2026-03-22T09:42:46.661Z</time></trkpt><trkpt lat="43.4474304" lon="11.2282728"><ele>193.33333333333334</ele><time>2026-03-22T09:42:47.664Z</time></trkpt><trkpt lat="43.4473676" lon="11.2282319"><ele>192.0</ele><time>2026-03-22T09:42:48.696Z</time></trkpt><trkpt lat="43.4473271" lon="11.2281625"><ele>191.75</ele><time>2026-03-22T09:42:49.668Z</time></trkpt><trkpt lat="43.4472894" lon="11.2280504"><ele>191.5</ele><time>2026-03-22T09:42:50.665Z</time></trkpt><trkpt lat="43.4472545" lon="11.2278861"><ele>191.25</ele><time>2026-03-22T09:42:51.667Z</time></trkpt><trkpt lat="43.4472389" lon="11.2277222"><ele>191.0</ele><time>2026-03-22T09:42:52.669Z</time></trkpt><trkpt lat="43.4472192" lon="11.2275542"><ele>191.0</ele><time>2026-03-22T09:42:53.665Z</time></trkpt><trkpt lat="43.4472038" lon="11.2274302"><ele>191.0</ele><time>2026-03-22T09:42:54.672Z</time></trkpt><trkpt lat="43.447191" lon="11.2273191"><ele>191.0</ele><time>2026-03-22T09:42:55.666Z</time></trkpt><trkpt lat="43.447184" lon="11.2272224"><ele>191.0</ele><time>2026-03-22T09:42:56.664Z</time></trkpt><trkpt lat="43.4471477" lon="11.2271039"><ele>191.0</ele><time>2026-03-22T09:42:58.666Z</time></trkpt><trkpt lat="43.4470354" lon="11.2270724"><ele>190.83333333333331</ele><time>2026-03-22T09:43:00.664Z</time></trkpt><trkpt lat="43.4469673" lon="11.2270861"><ele>190.66666666666666</ele><time>2026-03-22T09:43:01.663Z</time></trkpt><trkpt lat="43.4469024" lon="11.2271304"><ele>190.5</ele><time>2026-03-22T09:43:02.678Z</time></trkpt><trkpt lat="43.4468363" lon="11.22718"><ele>190.33333333333334</ele><time>2026-03-22T09:43:03.668Z</time></trkpt><trkpt lat="43.4467193" lon="11.2272073"><ele>190.16666666666669</ele><time>2026-03-22T09:43:05.664Z</time></trkpt><trkpt lat="43.4466405" lon="11.2271804"><ele>190.0</ele><time>2026-03-22T09:43:06.673Z</time></trkpt><trkpt lat="43.4465345" lon="11.227155"><ele>190.0</ele><time>2026-03-22T09:43:07.669Z</time></trkpt><trkpt lat="43.4464013" lon="11.2271551"><ele>190.0</ele><time>2026-03-22T09:43:08.663Z</time></trkpt><trkpt lat="43.4462501" lon="11.2271534"><ele>190.0</ele><time>2026-03-22T09:43:09.694Z</time></trkpt><trkpt lat="43.4461045" lon="11.227163"><ele>190.0</ele><time>2026-03-22T09:43:10.666Z</time></trkpt><trkpt lat="43.4459804" lon="11.2271598"><ele>192.6</ele><time>2026-03-22T09:43:11.663Z</time></trkpt><trkpt lat="43.4458733" lon="11.2271596"><ele>195.2</ele><time>2026-03-22T09:43:12.665Z</time></trkpt><trkpt lat="43.4457649" lon="11.2271348"><ele>197.8</ele><time>2026-03-22T09:43:13.662Z</time></trkpt><trkpt lat="43.4456635" lon="11.2270891"><ele>200.4</ele><time>2026-03-22T09:43:14.663Z</time></trkpt><trkpt lat="43.4455862" lon="11.227037"><ele>203.0</ele><time>2026-03-22T09:43:15.668Z</time></trkpt><trkpt lat="43.4455082" lon="11.2269644"><ele>204.16666666666669</ele><time>2026-03-22T09:43:16.698Z</time></trkpt><trkpt lat="43.4454513" lon="11.2268772"><ele>205.33333333333334</ele><time>2026-03-22T09:43:17.665Z</time></trkpt><trkpt lat="43.4454041" lon="11.2267991"><ele>206.5</ele><time>2026-03-22T09:43:18.67Z</time></trkpt><trkpt lat="43.4453496" lon="11.2267279"><ele>207.66666666666669</ele><time>2026-03-22T09:43:19.668Z</time></trkpt><trkpt lat="43.4452948" lon="11.2266747"><ele>208.83333333333334</ele><time>2026-03-22T09:43:20.664Z</time></trkpt><trkpt lat="43.4452235" lon="11.226632"><ele>210.0</ele><time>2026-03-22T09:43:21.668Z</time></trkpt><trkpt lat="43.4451421" lon="11.2265902"><ele>210.0</ele><time>2026-03-22T09:43:22.696Z</time></trkpt><trkpt lat="43.4450301" lon="11.226542"><ele>210.0</ele><time>2026-03-22T09:43:23.663Z</time></trkpt><trkpt lat="43.4449052" lon="11.2265033"><ele>210.0</ele><time>2026-03-22T09:43:24.668Z</time></trkpt><trkpt lat="43.4447769" lon="11.22646"><ele>210.0</ele><time>2026-03-22T09:43:25.662Z</time></trkpt><trkpt lat="43.4446631" lon="11.2264353"><ele>211.8</ele><time>2026-03-22T09:43:26.67Z</time></trkpt><trkpt lat="43.4445704" lon="11.2263928"><ele>213.6</ele><time>2026-03-22T09:43:27.665Z</time></trkpt><trkpt lat="43.4444875" lon="11.2263482"><ele>215.39999999999998</ele><time>2026-03-22T09:43:28.669Z</time></trkpt><trkpt lat="43.4443981" lon="11.2262971"><ele>217.2</ele><time>2026-03-22T09:43:29.665Z</time></trkpt><trkpt lat="43.4442896" lon="11.2262502"><ele>219.0</ele><time>2026-03-22T09:43:30.662Z</time></trkpt><trkpt lat="43.4441639" lon="11.2262079"><ele>219.0</ele><time>2026-03-22T09:43:31.669Z</time></trkpt><trkpt lat="43.444021" lon="11.2261553"><ele>219.0</ele><time>2026-03-22T09:43:32.662Z</time></trkpt><trkpt lat="43.4438596" lon="11.2261004"><ele>219.0</ele><time>2026-03-22T09:43:33.689Z</time></trkpt><trkpt lat="43.443682" lon="11.2260477"><ele>221.5</ele><time>2026-03-22T09:43:34.669Z</time></trkpt><trkpt lat="43.4435129" lon="11.2259937"><ele>224.0</ele><time>2026-03-22T09:43:35.655Z</time></trkpt><trkpt lat="43.443369" lon="11.2259532"><ele>226.5</ele><time>2026-03-22T09:43:36.665Z</time></trkpt><trkpt lat="43.4432477" lon="11.2259168"><ele>229.0</ele><time>2026-03-22T09:43:37.662Z</time></trkpt><trkpt lat="43.4431398" lon="11.2258817"><ele>229.0</ele><time>2026-03-22T09:43:38.669Z</time></trkpt><trkpt lat="43.4430445" lon="11.2258496"><ele>228.99999999999997</ele><time>2026-03-22T09:43:39.662Z</time></trkpt><trkpt lat="43.4429798" lon="11.2258263"><ele>228.99999999999997</ele><time>2026-03-22T09:43:40.676Z</time></trkpt><trkpt lat="43.4429114" lon="11.2257713"><ele>229.0</ele><time>2026-03-22T09:43:42.664Z</time></trkpt><trkpt lat="43.4429147" lon="11.2255914"><ele>229.0</ele><time>2026-03-22T09:43:44.669Z</time></trkpt><trkpt lat="43.442906" lon="11.2254328"><ele>228.83333333333331</ele><time>2026-03-22T09:43:45.662Z</time></trkpt><trkpt lat="43.442922" lon="11.2252739"><ele>228.66666666666666</ele><time>2026-03-22T09:43:46.666Z</time></trkpt><trkpt lat="43.4429417" lon="11.2251624"><ele>228.5</ele><time>2026-03-22T09:43:47.663Z</time></trkpt><trkpt lat="43.4429586" lon="11.2250749"><ele>228.33333333333331</ele><time>2026-03-22T09:43:48.671Z</time></trkpt><trkpt lat="43.4429419" lon="11.2249322"><ele>228.16666666666666</ele><time>2026-03-22T09:43:50.669Z</time></trkpt><trkpt lat="43.4429344" lon="11.2248291"><ele>228.0</ele><time>2026-03-22T09:43:51.669Z</time></trkpt><trkpt lat="43.4429397" lon="11.2247327"><ele>228.4</ele><time>2026-03-22T09:43:52.666Z</time></trkpt><trkpt lat="43.4429687" lon="11.2246106"><ele>228.8</ele><time>2026-03-22T09:43:53.684Z</time></trkpt><trkpt lat="43.4429967" lon="11.2244828"><ele>229.2</ele><time>2026-03-22T09:43:54.67Z</time></trkpt><trkpt lat="43.4430235" lon="11.2243355"><ele>229.6</ele><time>2026-03-22T09:43:55.663Z</time></trkpt><trkpt lat="43.4430503" lon="11.2241862"><ele>230.0</ele><time>2026-03-22T09:43:56.669Z</time></trkpt><trkpt lat="43.4430723" lon="11.2240334"><ele>229.0</ele><time>2026-03-22T09:43:57.665Z</time></trkpt><trkpt lat="43.4430922" lon="11.2238909"><ele>228.0</ele><time>2026-03-22T09:43:58.664Z</time></trkpt><trkpt lat="43.4431153" lon="11.2237442"><ele>227.0</ele><time>2026-03-22T09:43:59.689Z</time></trkpt><trkpt lat="43.4431345" lon="11.2235937"><ele>226.0</ele><time>2026-03-22T09:44:00.663Z</time></trkpt><trkpt lat="43.4431451" lon="11.2234364"><ele>225.0</ele><time>2026-03-22T09:44:01.667Z</time></trkpt><trkpt lat="43.4431549" lon="11.2232983"><ele>225.0</ele><time>2026-03-22T09:44:02.668Z</time></trkpt><trkpt lat="43.4431572" lon="11.2231736"><ele>225.0</ele><time>2026-03-22T09:44:03.667Z</time></trkpt><trkpt lat="43.4431525" lon="11.2230606"><ele>225.0</ele><time>2026-03-22T09:44:04.659Z</time></trkpt><trkpt lat="43.4431502" lon="11.2229631"><ele>225.0</ele><time>2026-03-22T09:44:05.701Z</time></trkpt><trkpt lat="43.443143" lon="11.2228224"><ele>225.0</ele><time>2026-03-22T09:44:07.666Z</time></trkpt><trkpt lat="43.4431397" lon="11.2226662"><ele>224.8</ele><time>2026-03-22T09:44:09.669Z</time></trkpt><trkpt lat="43.4430904" lon="11.2225385"><ele>224.6</ele><time>2026-03-22T09:44:11.66Z</time></trkpt><trkpt lat="43.4429968" lon="11.2224758"><ele>224.39999999999998</ele><time>2026-03-22T09:44:13.664Z</time></trkpt><trkpt lat="43.4428801" lon="11.2224908"><ele>224.2</ele><time>2026-03-22T09:44:15.664Z</time></trkpt><trkpt lat="43.4427753" lon="11.2224834"><ele>224.0</ele><time>2026-03-22T09:44:17.668Z</time></trkpt><trkpt lat="43.4427332" lon="11.2223878"><ele>223.16666666666669</ele><time>2026-03-22T09:44:19.68Z</time></trkpt><trkpt lat="43.4427235" lon="11.2223001"><ele>222.33333333333334</ele><time>2026-03-22T09:44:20.661Z</time></trkpt><trkpt lat="43.4427327" lon="11.2221992"><ele>221.5</ele><time>2026-03-22T09:44:22.673Z</time></trkpt><trkpt lat="43.442643" lon="11.2222362"><ele>220.66666666666669</ele><time>2026-03-22T09:44:29.665Z</time></trkpt><trkpt lat="43.4425396" lon="11.2222775"><ele>219.83333333333334</ele><time>2026-03-22T09:44:31.689Z</time></trkpt><trkpt lat="43.4424685" lon="11.2222849"><ele>219.0</ele><time>2026-03-22T09:44:32.664Z</time></trkpt><trkpt lat="43.4423629" lon="11.2223022"><ele>219.66666666666669</ele><time>2026-03-22T09:44:33.67Z</time></trkpt><trkpt lat="43.4422176" lon="11.222322"><ele>220.33333333333334</ele><time>2026-03-22T09:44:34.666Z</time></trkpt><trkpt lat="43.4420219" lon="11.2223439"><ele>221.0</ele><time>2026-03-22T09:44:35.668Z</time></trkpt><trkpt lat="43.4418213" lon="11.2223655"><ele>218.66666666666669</ele><time>2026-03-22T09:44:36.668Z</time></trkpt><trkpt lat="43.4416343" lon="11.222388"><ele>216.33333333333331</ele><time>2026-03-22T09:44:37.668Z</time></trkpt><trkpt lat="43.4414504" lon="11.2224039"><ele>214.0</ele><time>2026-03-22T09:44:38.668Z</time></trkpt><trkpt lat="43.4412605" lon="11.222415"><ele>212.33333333333331</ele><time>2026-03-22T09:44:39.671Z</time></trkpt><trkpt lat="43.4410849" lon="11.2224354"><ele>210.66666666666669</ele><time>2026-03-22T09:44:40.671Z</time></trkpt><trkpt lat="43.4409274" lon="11.2224528"><ele>209.0</ele><time>2026-03-22T09:44:41.666Z</time></trkpt><trkpt lat="43.4407688" lon="11.2224754"><ele>209.0</ele><time>2026-03-22T09:44:42.658Z</time></trkpt><trkpt lat="43.4406163" lon="11.2224916"><ele>209.0</ele><time>2026-03-22T09:44:43.669Z</time></trkpt><trkpt lat="43.4404627" lon="11.2225084"><ele>209.0</ele><time>2026-03-22T09:44:44.672Z</time></trkpt><trkpt lat="43.4403384" lon="11.2225146"><ele>209.0</ele><time>2026-03-22T09:44:45.661Z</time></trkpt><trkpt lat="43.4402235" lon="11.2225211"><ele>207.83333333333334</ele><time>2026-03-22T09:44:46.664Z</time></trkpt><trkpt lat="43.4401186" lon="11.2225312"><ele>206.66666666666669</ele><time>2026-03-22T09:44:47.674Z</time></trkpt><trkpt lat="43.4400264" lon="11.2225209"><ele>205.5</ele><time>2026-03-22T09:44:48.67Z</time></trkpt><trkpt lat="43.4399444" lon="11.2224944"><ele>204.33333333333331</ele><time>2026-03-22T09:44:49.699Z</time></trkpt><trkpt lat="43.4398671" lon="11.2224535"><ele>203.16666666666666</ele><time>2026-03-22T09:44:50.664Z</time></trkpt><trkpt lat="43.4397908" lon="11.2224112"><ele>202.0</ele><time>2026-03-22T09:44:51.67Z</time></trkpt><trkpt lat="43.4397205" lon="11.222347"><ele>200.8</ele><time>2026-03-22T09:44:52.661Z</time></trkpt><trkpt lat="43.4396441" lon="11.2222834"><ele>199.6</ele><time>2026-03-22T09:44:53.667Z</time></trkpt><trkpt lat="43.4395658" lon="11.2222047"><ele>198.4</ele><time>2026-03-22T09:44:54.674Z</time></trkpt><trkpt lat="43.4394914" lon="11.2221286"><ele>197.20000000000002</ele><time>2026-03-22T09:44:55.67Z</time></trkpt><trkpt lat="43.4394096" lon="11.2220496"><ele>196.0</ele><time>2026-03-22T09:44:56.701Z</time></trkpt><trkpt lat="43.4393299" lon="11.2219746"><ele>194.66666666666666</ele><time>2026-03-22T09:44:57.664Z</time></trkpt><trkpt lat="43.4392597" lon="11.2219156"><ele>193.33333333333331</ele><time>2026-03-22T09:44:58.664Z</time></trkpt><trkpt lat="43.4391915" lon="11.2218816"><ele>192.0</ele><time>2026-03-22T09:44:59.668Z</time></trkpt><trkpt lat="43.439129" lon="11.2218625"><ele>190.66666666666666</ele><time>2026-03-22T09:45:00.666Z</time></trkpt><trkpt lat="43.4390499" lon="11.2218031"><ele>189.33333333333331</ele><time>2026-03-22T09:45:02.666Z</time></trkpt><trkpt lat="43.4389986" lon="11.2217363"><ele>188.0</ele><time>2026-03-22T09:45:04.662Z</time></trkpt><trkpt lat="43.438921" lon="11.2217377"><ele>188.0</ele><time>2026-03-22T09:45:06.666Z</time></trkpt><trkpt lat="43.4388212" lon="11.2218043"><ele>188.0</ele><time>2026-03-22T09:45:08.666Z</time></trkpt><trkpt lat="43.4387215" lon="11.2219184"><ele>188.0</ele><time>2026-03-22T09:45:10.666Z</time></trkpt><trkpt lat="43.4386732" lon="11.2219872"><ele>188.0</ele><time>2026-03-22T09:45:11.666Z</time></trkpt><trkpt lat="43.4386133" lon="11.2220633"><ele>188.0</ele><time>2026-03-22T09:45:12.686Z</time></trkpt><trkpt lat="43.438548" lon="11.2221409"><ele>187.8</ele><time>2026-03-22T09:45:13.669Z</time></trkpt><trkpt lat="43.4384649" lon="11.2222573"><ele>187.60000000000002</ele><time>2026-03-22T09:45:14.669Z</time></trkpt><trkpt lat="43.4383675" lon="11.2223836"><ele>187.39999999999998</ele><time>2026-03-22T09:45:15.667Z</time></trkpt><trkpt lat="43.4383021" lon="11.2224722"><ele>187.2</ele><time>2026-03-22T09:45:16.661Z</time></trkpt><trkpt lat="43.4382561" lon="11.2225506"><ele>187.0</ele><time>2026-03-22T09:45:17.679Z</time></trkpt><trkpt lat="43.4381905" lon="11.2225998"><ele>188.0</ele><time>2026-03-22T09:45:18.676Z</time></trkpt><trkpt lat="43.4381212" lon="11.2226243"><ele>189.0</ele><time>2026-03-22T09:45:19.669Z</time></trkpt><trkpt lat="43.438006" lon="11.222628"><ele>190.0</ele><time>2026-03-22T09:45:20.691Z</time></trkpt><trkpt lat="43.4378682" lon="11.2226264"><ele>191.0</ele><time>2026-03-22T09:45:21.659Z</time></trkpt><trkpt lat="43.4376992" lon="11.2226343"><ele>195.0</ele><time>2026-03-22T09:45:22.664Z</time></trkpt><trkpt lat="43.4375327" lon="11.222636"><ele>199.0</ele><time>2026-03-22T09:45:23.67Z</time></trkpt><trkpt lat="43.437356" lon="11.222643"><ele>203.0</ele><time>2026-03-22T09:45:24.665Z</time></trkpt><trkpt lat="43.437167" lon="11.2226457"><ele>204.25</ele><time>2026-03-22T09:45:25.683Z</time></trkpt><trkpt lat="43.4370092" lon="11.2226393"><ele>205.5</ele><time>2026-03-22T09:45:26.664Z</time></trkpt><trkpt lat="43.4368933" lon="11.2226439"><ele>206.75</ele><time>2026-03-22T09:45:27.67Z</time></trkpt><trkpt lat="43.4368072" lon="11.2226841"><ele>208.0</ele><time>2026-03-22T09:45:28.667Z</time></trkpt><trkpt lat="43.4367305" lon="11.2227384"><ele>208.0</ele><time>2026-03-22T09:45:29.677Z</time></trkpt><trkpt lat="43.4366595" lon="11.2228171"><ele>208.0</ele><time>2026-03-22T09:45:30.675Z</time></trkpt><trkpt lat="43.4365849" lon="11.2229125"><ele>208.0</ele><time>2026-03-22T09:45:31.662Z</time></trkpt><trkpt lat="43.4365044" lon="11.2230393"><ele>208.0</ele><time>2026-03-22T09:45:32.664Z</time></trkpt><trkpt lat="43.4363977" lon="11.2231737"><ele>208.66666666666666</ele><time>2026-03-22T09:45:33.665Z</time></trkpt><trkpt lat="43.4362742" lon="11.2233306"><ele>209.33333333333331</ele><time>2026-03-22T09:45:34.669Z</time></trkpt><trkpt lat="43.4361617" lon="11.2234852"><ele>210.0</ele><time>2026-03-22T09:45:35.666Z</time></trkpt><trkpt lat="43.4360604" lon="11.2236308"><ele>210.0</ele><time>2026-03-22T09:45:36.669Z</time></trkpt><trkpt lat="43.4359572" lon="11.2237684"><ele>210.0</ele><time>2026-03-22T09:45:37.669Z</time></trkpt><trkpt lat="43.4358586" lon="11.2238962"><ele>210.0</ele><time>2026-03-22T09:45:38.667Z</time></trkpt><trkpt lat="43.435761" lon="11.2240052"><ele>210.0</ele><time>2026-03-22T09:45:39.698Z</time></trkpt><trkpt lat="43.4356732" lon="11.2241093"><ele>210.75</ele><time>2026-03-22T09:45:40.669Z</time></trkpt><trkpt lat="43.4355807" lon="11.224229"><ele>211.5</ele><time>2026-03-22T09:45:41.669Z</time></trkpt><trkpt lat="43.435492" lon="11.2243561"><ele>212.25</ele><time>2026-03-22T09:45:42.665Z</time></trkpt><trkpt lat="43.4354113" lon="11.2244695"><ele>213.0</ele><time>2026-03-22T09:45:43.661Z</time></trkpt><trkpt lat="43.4353261" lon="11.2245928"><ele>213.0</ele><time>2026-03-22T09:45:44.667Z</time></trkpt><trkpt lat="43.4352275" lon="11.2247223"><ele>213.0</ele><time>2026-03-22T09:45:45.672Z</time></trkpt><trkpt lat="43.435125" lon="11.2248532"><ele>213.0</ele><time>2026-03-22T09:45:46.67Z</time></trkpt><trkpt lat="43.4350228" lon="11.2249833"><ele>213.0</ele><time>2026-03-22T09:45:47.663Z</time></trkpt><trkpt lat="43.4349147" lon="11.2251218"><ele>215.75</ele><time>2026-03-22T09:45:48.689Z</time></trkpt><trkpt lat="43.4348026" lon="11.2252544"><ele>218.5</ele><time>2026-03-22T09:45:49.667Z</time></trkpt><trkpt lat="43.434692" lon="11.2253901"><ele>221.25</ele><time>2026-03-22T09:45:50.669Z</time></trkpt><trkpt lat="43.4345881" lon="11.2255329"><ele>224.0</ele><time>2026-03-22T09:45:51.67Z</time></trkpt><trkpt lat="43.4344866" lon="11.2256704"><ele>227.0</ele><time>2026-03-22T09:45:52.671Z</time></trkpt><trkpt lat="43.4343903" lon="11.2258017"><ele>230.0</ele><time>2026-03-22T09:45:53.669Z</time></trkpt><trkpt lat="43.4342887" lon="11.225937"><ele>233.0</ele><time>2026-03-22T09:45:54.67Z</time></trkpt><trkpt lat="43.4341742" lon="11.2260927"><ele>236.0</ele><time>2026-03-22T09:45:55.667Z</time></trkpt><trkpt lat="43.434058" lon="11.2262494"><ele>236.0</ele><time>2026-03-22T09:45:56.673Z</time></trkpt><trkpt lat="43.4339512" lon="11.226391"><ele>236.00000000000003</ele><time>2026-03-22T09:45:57.67Z</time></trkpt><trkpt lat="43.4338615" lon="11.2265013"><ele>236.00000000000003</ele><time>2026-03-22T09:45:58.664Z</time></trkpt><trkpt lat="43.4337988" lon="11.2265922"><ele>236.0</ele><time>2026-03-22T09:45:59.664Z</time></trkpt><trkpt lat="43.4337221" lon="11.2266449"><ele>236.0</ele><time>2026-03-22T09:46:01.664Z</time></trkpt><trkpt lat="43.4336465" lon="11.2265661"><ele>237.00000000000003</ele><time>2026-03-22T09:46:03.691Z</time></trkpt><trkpt lat="43.4335975" lon="11.2264834"><ele>238.0</ele><time>2026-03-22T09:46:04.67Z</time></trkpt><trkpt lat="43.4335557" lon="11.2263865"><ele>239.0</ele><time>2026-03-22T09:46:05.668Z</time></trkpt><trkpt lat="43.4334988" lon="11.226303"><ele>240.0</ele><time>2026-03-22T09:46:06.667Z</time></trkpt><trkpt lat="43.4334531" lon="11.2262128"><ele>241.00000000000003</ele><time>2026-03-22T09:46:07.665Z</time></trkpt><trkpt lat="43.4334019" lon="11.2261284"><ele>242.0</ele><time>2026-03-22T09:46:08.67Z</time></trkpt><trkpt lat="43.4333395" lon="11.2260265"><ele>242.00000000000003</ele><time>2026-03-22T09:46:10.695Z</time></trkpt><trkpt lat="43.4332778" lon="11.2259382"><ele>242.0</ele><time>2026-03-22T09:46:12.671Z</time></trkpt><trkpt lat="43.4332375" lon="11.2258647"><ele>242.0</ele><time>2026-03-22T09:46:13.669Z</time></trkpt><trkpt lat="43.4331868" lon="11.2257832"><ele>242.0</ele><time>2026-03-22T09:46:14.67Z</time></trkpt><trkpt lat="43.4331306" lon="11.225722"><ele>242.00000000000003</ele><time>2026-03-22T09:46:15.67Z</time></trkpt><trkpt lat="43.4330215" lon="11.2256489"><ele>242.0</ele><time>2026-03-22T09:46:17.666Z</time></trkpt><trkpt lat="43.4329556" lon="11.2255683"><ele>241.50000000000003</ele><time>2026-03-22T09:46:19.665Z</time></trkpt><trkpt lat="43.4329074" lon="11.2254305"><ele>241.0</ele><time>2026-03-22T09:46:21.663Z</time></trkpt><trkpt lat="43.4328797" lon="11.2253101"><ele>240.5</ele><time>2026-03-22T09:46:22.667Z</time></trkpt><trkpt lat="43.4328514" lon="11.2251767"><ele>240.0</ele><time>2026-03-22T09:46:23.687Z</time></trkpt><trkpt lat="43.4328317" lon="11.2250741"><ele>239.50000000000003</ele><time>2026-03-22T09:46:24.664Z</time></trkpt><trkpt lat="43.4328192" lon="11.2249827"><ele>239.0</ele><time>2026-03-22T09:46:25.667Z</time></trkpt><trkpt lat="43.4327964" lon="11.2248927"><ele>240.0</ele><time>2026-03-22T09:46:26.664Z</time></trkpt><trkpt lat="43.4327474" lon="11.2247539"><ele>240.99999999999997</ele><time>2026-03-22T09:46:28.681Z</time></trkpt><trkpt lat="43.4327261" lon="11.2246538"><ele>241.99999999999997</ele><time>2026-03-22T09:46:29.664Z</time></trkpt><trkpt lat="43.4327005" lon="11.2245354"><ele>243.0</ele><time>2026-03-22T09:46:30.676Z</time></trkpt><trkpt lat="43.4326635" lon="11.2244287"><ele>244.0</ele><time>2026-03-22T09:46:31.666Z</time></trkpt><trkpt lat="43.4325964" lon="11.2243099"><ele>244.0</ele><time>2026-03-22T09:46:32.656Z</time></trkpt><trkpt lat="43.4325094" lon="11.2241671"><ele>244.0</ele><time>2026-03-22T09:46:33.664Z</time></trkpt><trkpt lat="43.4324119" lon="11.2240336"><ele>244.0</ele><time>2026-03-22T09:46:34.669Z</time></trkpt><trkpt lat="43.4323319" lon="11.223913"><ele>244.0</ele><time>2026-03-22T09:46:35.66Z</time></trkpt><trkpt lat="43.4322569" lon="11.223783"><ele>243.75</ele><time>2026-03-22T09:46:36.666Z</time></trkpt><trkpt lat="43.432187" lon="11.2236564"><ele>243.5</ele><time>2026-03-22T09:46:37.668Z</time></trkpt><trkpt lat="43.4321085" lon="11.2235351"><ele>243.25</ele><time>2026-03-22T09:46:38.667Z</time></trkpt><trkpt lat="43.4320203" lon="11.2234181"><ele>243.0</ele><time>2026-03-22T09:46:39.696Z</time></trkpt><trkpt lat="43.431935" lon="11.223315"><ele>243.0</ele><time>2026-03-22T09:46:40.662Z</time></trkpt><trkpt lat="43.4318619" lon="11.223217"><ele>243.0</ele><time>2026-03-22T09:46:41.669Z</time></trkpt><trkpt lat="43.431788" lon="11.2231224"><ele>243.0</ele><time>2026-03-22T09:46:42.668Z</time></trkpt><trkpt lat="43.4317178" lon="11.2230266"><ele>243.0</ele><time>2026-03-22T09:46:43.67Z</time></trkpt><trkpt lat="43.4316441" lon="11.2229162"><ele>243.0</ele><time>2026-03-22T09:46:44.698Z</time></trkpt><trkpt lat="43.4315637" lon="11.2227875"><ele>243.0</ele><time>2026-03-22T09:46:45.663Z</time></trkpt><trkpt lat="43.4314982" lon="11.2226739"><ele>243.0</ele><time>2026-03-22T09:46:46.667Z</time></trkpt><trkpt lat="43.4314608" lon="11.2225923"><ele>243.0</ele><time>2026-03-22T09:46:47.663Z</time></trkpt><trkpt lat="43.4314234" lon="11.2225019"><ele>243.0</ele><time>2026-03-22T09:46:50.671Z</time></trkpt><trkpt lat="43.4314715" lon="11.2224125"><ele>243.0</ele><time>2026-03-22T09:46:53.666Z</time></trkpt><trkpt lat="43.4316215" lon="11.2223077"><ele>242.25</ele><time>2026-03-22T09:46:55.668Z</time></trkpt><trkpt lat="43.4317314" lon="11.2222401"><ele>241.5</ele><time>2026-03-22T09:46:56.699Z</time></trkpt><trkpt lat="43.4318638" lon="11.2221588"><ele>240.75</ele><time>2026-03-22T09:46:57.672Z</time></trkpt><trkpt lat="43.4320155" lon="11.2220655"><ele>240.0</ele><time>2026-03-22T09:46:58.664Z</time></trkpt><trkpt lat="43.4321581" lon="11.2219655"><ele>238.66666666666669</ele><time>2026-03-22T09:46:59.673Z</time></trkpt><trkpt lat="43.4322863" lon="11.2218867"><ele>237.33333333333334</ele><time>2026-03-22T09:47:00.667Z</time></trkpt><trkpt lat="43.4324158" lon="11.2218153"><ele>236.0</ele><time>2026-03-22T09:47:01.664Z</time></trkpt><trkpt lat="43.4325697" lon="11.2217169"><ele>236.0</ele><time>2026-03-22T09:47:02.661Z</time></trkpt><trkpt lat="43.4327303" lon="11.2215966"><ele>236.0</ele><time>2026-03-22T09:47:03.673Z</time></trkpt><trkpt lat="43.4328684" lon="11.221504"><ele>236.0</ele><time>2026-03-22T09:47:04.667Z</time></trkpt><trkpt lat="43.4329763" lon="11.2214501"><ele>235.66666666666669</ele><time>2026-03-22T09:47:05.674Z</time></trkpt><trkpt lat="43.4330755" lon="11.2213862"><ele>235.33333333333334</ele><time>2026-03-22T09:47:06.666Z</time></trkpt><trkpt lat="43.4331537" lon="11.2213512"><ele>235.0</ele><time>2026-03-22T09:47:07.667Z</time></trkpt><trkpt lat="43.4332188" lon="11.2213212"><ele>234.66666666666669</ele><time>2026-03-22T09:47:08.663Z</time></trkpt><trkpt lat="43.4332734" lon="11.2212761"><ele>234.33333333333334</ele><time>2026-03-22T09:47:09.678Z</time></trkpt><trkpt lat="43.4333314" lon="11.2211386"><ele>234.0</ele><time>2026-03-22T09:47:11.669Z</time></trkpt><trkpt lat="43.4333099" lon="11.2209765"><ele>234.0</ele><time>2026-03-22T09:47:13.673Z</time></trkpt><trkpt lat="43.4332698" lon="11.2208684"><ele>234.0</ele><time>2026-03-22T09:47:14.682Z</time></trkpt><trkpt lat="43.4332063" lon="11.2207446"><ele>234.0</ele><time>2026-03-22T09:47:15.668Z</time></trkpt><trkpt lat="43.4331306" lon="11.2205848"><ele>234.0</ele><time>2026-03-22T09:47:16.661Z</time></trkpt><trkpt lat="43.4330447" lon="11.2204012"><ele>235.25</ele><time>2026-03-22T09:47:17.668Z</time></trkpt><trkpt lat="43.4329546" lon="11.2202196"><ele>236.5</ele><time>2026-03-22T09:47:18.671Z</time></trkpt><trkpt lat="43.4328858" lon="11.2200611"><ele>237.75</ele><time>2026-03-22T09:47:19.678Z</time></trkpt><trkpt lat="43.4328347" lon="11.219936"><ele>239.0</ele><time>2026-03-22T09:47:20.66Z</time></trkpt><trkpt lat="43.432797" lon="11.2197984"><ele>239.39999999999998</ele><time>2026-03-22T09:47:21.672Z</time></trkpt><trkpt lat="43.4327687" lon="11.2196576"><ele>239.79999999999998</ele><time>2026-03-22T09:47:22.664Z</time></trkpt><trkpt lat="43.432766" lon="11.2195501"><ele>240.20000000000002</ele><time>2026-03-22T09:47:23.663Z</time></trkpt><trkpt lat="43.4327809" lon="11.2194468"><ele>240.60000000000002</ele><time>2026-03-22T09:47:24.693Z</time></trkpt><trkpt lat="43.4328118" lon="11.2193039"><ele>241.0</ele><time>2026-03-22T09:47:25.665Z</time></trkpt><trkpt lat="43.4328425" lon="11.2191161"><ele>241.0</ele><time>2026-03-22T09:47:26.668Z</time></trkpt><trkpt lat="43.4328671" lon="11.2188855"><ele>241.0</ele><time>2026-03-22T09:47:27.665Z</time></trkpt><trkpt lat="43.4329019" lon="11.21862"><ele>241.0</ele><time>2026-03-22T09:47:28.672Z</time></trkpt><trkpt lat="43.4329383" lon="11.2183659"><ele>241.25</ele><time>2026-03-22T09:47:29.668Z</time></trkpt><trkpt lat="43.4329667" lon="11.218139"><ele>241.5</ele><time>2026-03-22T09:47:30.689Z</time></trkpt><trkpt lat="43.4329877" lon="11.2179517"><ele>241.75</ele><time>2026-03-22T09:47:31.67Z</time></trkpt><trkpt lat="43.4330022" lon="11.2177674"><ele>242.0</ele><time>2026-03-22T09:47:32.665Z</time></trkpt><trkpt lat="43.4330071" lon="11.2175905"><ele>243.0</ele><time>2026-03-22T09:47:33.664Z</time></trkpt><trkpt lat="43.4330045" lon="11.2174007"><ele>244.0</ele><time>2026-03-22T09:47:34.659Z</time></trkpt><trkpt lat="43.4329936" lon="11.2171849"><ele>245.0</ele><time>2026-03-22T09:47:35.664Z</time></trkpt><trkpt lat="43.4329799" lon="11.2169598"><ele>246.33333333333334</ele><time>2026-03-22T09:47:36.664Z</time></trkpt><trkpt lat="43.4329589" lon="11.2167396"><ele>247.66666666666669</ele><time>2026-03-22T09:47:37.656Z</time></trkpt><trkpt lat="43.4329227" lon="11.216526"><ele>249.0</ele><time>2026-03-22T09:47:38.691Z</time></trkpt><trkpt lat="43.4328645" lon="11.2162939"><ele>250.33333333333331</ele><time>2026-03-22T09:47:39.672Z</time></trkpt><trkpt lat="43.432788" lon="11.2160335"><ele>251.66666666666666</ele><time>2026-03-22T09:47:40.666Z</time></trkpt><trkpt lat="43.4327127" lon="11.215787"><ele>253.0</ele><time>2026-03-22T09:47:41.662Z</time></trkpt><trkpt lat="43.4326372" lon="11.2155495"><ele>253.25</ele><time>2026-03-22T09:47:42.669Z</time></trkpt><trkpt lat="43.4325774" lon="11.2153455"><ele>253.5</ele><time>2026-03-22T09:47:43.669Z</time></trkpt><trkpt lat="43.4325376" lon="11.2151626"><ele>253.75</ele><time>2026-03-22T09:47:44.677Z</time></trkpt><trkpt lat="43.432514" lon="11.2149983"><ele>254.0</ele><time>2026-03-22T09:47:45.674Z</time></trkpt><trkpt lat="43.4324862" lon="11.2148476"><ele>253.25</ele><time>2026-03-22T09:47:46.693Z</time></trkpt><trkpt lat="43.4324666" lon="11.2146646"><ele>252.5</ele><time>2026-03-22T09:47:47.663Z</time></trkpt><trkpt lat="43.4324504" lon="11.2144571"><ele>251.75</ele><time>2026-03-22T09:47:48.667Z</time></trkpt><trkpt lat="43.4324263" lon="11.2142363"><ele>251.0</ele><time>2026-03-22T09:47:49.659Z</time></trkpt><trkpt lat="43.4323975" lon="11.2140307"><ele>249.0</ele><time>2026-03-22T09:47:50.674Z</time></trkpt><trkpt lat="43.4323598" lon="11.213851"><ele>247.0</ele><time>2026-03-22T09:47:51.67Z</time></trkpt><trkpt lat="43.4323252" lon="11.2136817"><ele>245.0</ele><time>2026-03-22T09:47:52.672Z</time></trkpt><trkpt lat="43.4322949" lon="11.2135273"><ele>243.0</ele><time>2026-03-22T09:47:53.694Z</time></trkpt><trkpt lat="43.4322659" lon="11.213388"><ele>243.0</ele><time>2026-03-22T09:47:54.663Z</time></trkpt><trkpt lat="43.4322405" lon="11.2132514"><ele>243.0</ele><time>2026-03-22T09:47:55.673Z</time></trkpt><trkpt lat="43.4322218" lon="11.2131278"><ele>243.0</ele><time>2026-03-22T09:47:56.665Z</time></trkpt><trkpt lat="43.4322085" lon="11.2130117"><ele>243.0</ele><time>2026-03-22T09:47:57.668Z</time></trkpt><trkpt lat="43.432196" lon="11.212888"><ele>243.0</ele><time>2026-03-22T09:47:58.667Z</time></trkpt><trkpt lat="43.4321793" lon="11.2127495"><ele>243.5</ele><time>2026-03-22T09:47:59.673Z</time></trkpt><trkpt lat="43.4321547" lon="11.2126045"><ele>244.0</ele><time>2026-03-22T09:48:00.669Z</time></trkpt><trkpt lat="43.4321312" lon="11.2124572"><ele>244.5</ele><time>2026-03-22T09:48:01.667Z</time></trkpt><trkpt lat="43.4320998" lon="11.2122962"><ele>245.0</ele><time>2026-03-22T09:48:02.686Z</time></trkpt><trkpt lat="43.4320715" lon="11.2121305"><ele>247.0</ele><time>2026-03-22T09:48:03.668Z</time></trkpt><trkpt lat="43.4320317" lon="11.2119556"><ele>249.0</ele><time>2026-03-22T09:48:04.668Z</time></trkpt><trkpt lat="43.4319814" lon="11.2117659"><ele>251.0</ele><time>2026-03-22T09:48:05.669Z</time></trkpt><trkpt lat="43.4319221" lon="11.211564"><ele>253.0</ele><time>2026-03-22T09:48:06.663Z</time></trkpt><trkpt lat="43.4318682" lon="11.2113519"><ele>254.5</ele><time>2026-03-22T09:48:07.692Z</time></trkpt><trkpt lat="43.4318194" lon="11.2111847"><ele>256.0</ele><time>2026-03-22T09:48:08.668Z</time></trkpt><trkpt lat="43.4317667" lon="11.211032"><ele>257.5</ele><time>2026-03-22T09:48:09.666Z</time></trkpt><trkpt lat="43.4317113" lon="11.2108967"><ele>259.0</ele><time>2026-03-22T09:48:10.667Z</time></trkpt><trkpt lat="43.4316714" lon="11.2107718"><ele>259.4</ele><time>2026-03-22T09:48:11.67Z</time></trkpt><trkpt lat="43.4316599" lon="11.2106488"><ele>259.79999999999995</ele><time>2026-03-22T09:48:12.689Z</time></trkpt><trkpt lat="43.4316647" lon="11.2105419"><ele>260.20000000000005</ele><time>2026-03-22T09:48:13.666Z</time></trkpt><trkpt lat="43.4316897" lon="11.2103914"><ele>260.6</ele><time>2026-03-22T09:48:14.667Z</time></trkpt><trkpt lat="43.4317359" lon="11.2102164"><ele>261.0</ele><time>2026-03-22T09:48:15.665Z</time></trkpt><trkpt lat="43.4317824" lon="11.210096"><ele>261.0</ele><time>2026-03-22T09:48:16.662Z</time></trkpt><trkpt lat="43.4318366" lon="11.2099778"><ele>261.0</ele><time>2026-03-22T09:48:17.652Z</time></trkpt><trkpt lat="43.4318943" lon="11.2098933"><ele>261.0</ele><time>2026-03-22T09:48:18.671Z</time></trkpt><trkpt lat="43.4319522" lon="11.2098211"><ele>261.0</ele><time>2026-03-22T09:48:19.671Z</time></trkpt><trkpt lat="43.4319965" lon="11.2097307"><ele>261.0</ele><time>2026-03-22T09:48:20.669Z</time></trkpt><trkpt lat="43.4319955" lon="11.2095838"><ele>260.6</ele><time>2026-03-22T09:48:22.661Z</time></trkpt><trkpt lat="43.4319348" lon="11.2094489"><ele>260.20000000000005</ele><time>2026-03-22T09:48:24.662Z</time></trkpt><trkpt lat="43.4318779" lon="11.2092963"><ele>259.79999999999995</ele><time>2026-03-22T09:48:26.668Z</time></trkpt><trkpt lat="43.4318612" lon="11.2091955"><ele>259.4</ele><time>2026-03-22T09:48:27.671Z</time></trkpt><trkpt lat="43.4318396" lon="11.2090746"><ele>259.0</ele><time>2026-03-22T09:48:28.688Z</time></trkpt><trkpt lat="43.4318154" lon="11.208959"><ele>259.0</ele><time>2026-03-22T09:48:29.667Z</time></trkpt><trkpt lat="43.431803" lon="11.2088591"><ele>259.0</ele><time>2026-03-22T09:48:30.663Z</time></trkpt><trkpt lat="43.4317818" lon="11.2087518"><ele>259.0</ele><time>2026-03-22T09:48:31.67Z</time></trkpt><trkpt lat="43.4317453" lon="11.208617"><ele>259.0</ele><time>2026-03-22T09:48:32.668Z</time></trkpt><trkpt lat="43.4317031" lon="11.2084549"><ele>259.0</ele><time>2026-03-22T09:48:33.67Z</time></trkpt><trkpt lat="43.431673" lon="11.2082888"><ele>259.59999999999997</ele><time>2026-03-22T09:48:34.662Z</time></trkpt><trkpt lat="43.4316608" lon="11.2081545"><ele>260.2</ele><time>2026-03-22T09:48:35.676Z</time></trkpt><trkpt lat="43.4316582" lon="11.2080503"><ele>260.79999999999995</ele><time>2026-03-22T09:48:36.667Z</time></trkpt><trkpt lat="43.4316496" lon="11.2079583"><ele>261.4</ele><time>2026-03-22T09:48:37.667Z</time></trkpt><trkpt lat="43.4316095" lon="11.2078017"><ele>262.0</ele><time>2026-03-22T09:48:39.659Z</time></trkpt><trkpt lat="43.4316004" lon="11.2076215"><ele>262.0</ele><time>2026-03-22T09:48:41.663Z</time></trkpt><trkpt lat="43.4316194" lon="11.2074473"><ele>262.0</ele><time>2026-03-22T09:48:42.667Z</time></trkpt><trkpt lat="43.4316326" lon="11.2072779"><ele>262.0</ele><time>2026-03-22T09:48:43.67Z</time></trkpt><trkpt lat="43.4316402" lon="11.2071157"><ele>262.0</ele><time>2026-03-22T09:48:44.667Z</time></trkpt><trkpt lat="43.431647" lon="11.2069588"><ele>262.0</ele><time>2026-03-22T09:48:45.686Z</time></trkpt><trkpt lat="43.4316611" lon="11.2068027"><ele>262.0</ele><time>2026-03-22T09:48:46.666Z</time></trkpt><trkpt lat="43.4316801" lon="11.2066401"><ele>262.0</ele><time>2026-03-22T09:48:47.668Z</time></trkpt><trkpt lat="43.4316977" lon="11.2064651"><ele>262.0</ele><time>2026-03-22T09:48:48.675Z</time></trkpt><trkpt lat="43.4317147" lon="11.2062971"><ele>262.0</ele><time>2026-03-22T09:48:49.67Z</time></trkpt><trkpt lat="43.4317281" lon="11.2061293"><ele>262.0</ele><time>2026-03-22T09:48:50.671Z</time></trkpt><trkpt lat="43.4317369" lon="11.2059756"><ele>262.0</ele><time>2026-03-22T09:48:51.67Z</time></trkpt><trkpt lat="43.4317406" lon="11.2058415"><ele>262.0</ele><time>2026-03-22T09:48:52.684Z</time></trkpt><trkpt lat="43.431739" lon="11.2057098"><ele>262.0</ele><time>2026-03-22T09:48:53.669Z</time></trkpt><trkpt lat="43.4317292" lon="11.2055747"><ele>262.0</ele><time>2026-03-22T09:48:54.668Z</time></trkpt><trkpt lat="43.4317139" lon="11.2054299"><ele>262.0</ele><time>2026-03-22T09:48:55.672Z</time></trkpt><trkpt lat="43.4316851" lon="11.2052712"><ele>262.0</ele><time>2026-03-22T09:48:56.665Z</time></trkpt><trkpt lat="43.4316398" lon="11.2051064"><ele>262.0</ele><time>2026-03-22T09:48:57.694Z</time></trkpt><trkpt lat="43.4315845" lon="11.2049222"><ele>261.75</ele><time>2026-03-22T09:48:58.669Z</time></trkpt><trkpt lat="43.4315277" lon="11.2047414"><ele>261.5</ele><time>2026-03-22T09:48:59.666Z</time></trkpt><trkpt lat="43.4314598" lon="11.2045607"><ele>261.25</ele><time>2026-03-22T09:49:00.667Z</time></trkpt><trkpt lat="43.4314002" lon="11.2043998"><ele>261.0</ele><time>2026-03-22T09:49:01.666Z</time></trkpt><trkpt lat="43.4313418" lon="11.2042593"><ele>260.25</ele><time>2026-03-22T09:49:02.668Z</time></trkpt><trkpt lat="43.4312954" lon="11.2041086"><ele>259.5</ele><time>2026-03-22T09:49:03.667Z</time></trkpt><trkpt lat="43.4312697" lon="11.2039603"><ele>258.75</ele><time>2026-03-22T09:49:04.661Z</time></trkpt><trkpt lat="43.4312679" lon="11.2038026"><ele>258.0</ele><time>2026-03-22T09:49:05.666Z</time></trkpt><trkpt lat="43.4312769" lon="11.2036454"><ele>257.5</ele><time>2026-03-22T09:49:06.669Z</time></trkpt><trkpt lat="43.4313005" lon="11.2034825"><ele>257.0</ele><time>2026-03-22T09:49:07.664Z</time></trkpt><trkpt lat="43.4313505" lon="11.2032999"><ele>256.5</ele><time>2026-03-22T09:49:08.687Z</time></trkpt><trkpt lat="43.4314099" lon="11.2031097"><ele>256.0</ele><time>2026-03-22T09:49:09.668Z</time></trkpt><trkpt lat="43.4314655" lon="11.2029214"><ele>256.0</ele><time>2026-03-22T09:49:10.671Z</time></trkpt><trkpt lat="43.4315002" lon="11.202762"><ele>256.0</ele><time>2026-03-22T09:49:11.663Z</time></trkpt><trkpt lat="43.4315284" lon="11.2026144"><ele>256.0</ele><time>2026-03-22T09:49:12.669Z</time></trkpt><trkpt lat="43.4315635" lon="11.2024771"><ele>256.0</ele><time>2026-03-22T09:49:13.67Z</time></trkpt><trkpt lat="43.4315962" lon="11.2023319"><ele>256.0</ele><time>2026-03-22T09:49:14.665Z</time></trkpt><trkpt lat="43.4316506" lon="11.2021633"><ele>256.0</ele><time>2026-03-22T09:49:15.665Z</time></trkpt><trkpt lat="43.4316888" lon="11.2019663"><ele>256.0</ele><time>2026-03-22T09:49:16.677Z</time></trkpt><trkpt lat="43.4317242" lon="11.201786"><ele>256.0</ele><time>2026-03-22T09:49:17.672Z</time></trkpt><trkpt lat="43.4317496" lon="11.2015779"><ele>256.0</ele><time>2026-03-22T09:49:18.671Z</time></trkpt><trkpt lat="43.4317595" lon="11.2013805"><ele>256.5</ele><time>2026-03-22T09:49:19.675Z</time></trkpt><trkpt lat="43.431757" lon="11.2011788"><ele>257.0</ele><time>2026-03-22T09:49:20.66Z</time></trkpt><trkpt lat="43.4317686" lon="11.200968"><ele>257.5</ele><time>2026-03-22T09:49:21.662Z</time></trkpt><trkpt lat="43.4318015" lon="11.2007771"><ele>258.0</ele><time>2026-03-22T09:49:22.679Z</time></trkpt><trkpt lat="43.4318463" lon="11.2005851"><ele>258.5</ele><time>2026-03-22T09:49:23.668Z</time></trkpt><trkpt lat="43.4319026" lon="11.200402"><ele>259.0</ele><time>2026-03-22T09:49:24.692Z</time></trkpt><trkpt lat="43.431982" lon="11.2002413"><ele>259.5</ele><time>2026-03-22T09:49:25.666Z</time></trkpt><trkpt lat="43.4320587" lon="11.2000719"><ele>260.0</ele><time>2026-03-22T09:49:26.661Z</time></trkpt><trkpt lat="43.4320985" lon="11.1999112"><ele>258.25</ele><time>2026-03-22T09:49:27.697Z</time></trkpt><trkpt lat="43.4321147" lon="11.1997595"><ele>256.5</ele><time>2026-03-22T09:49:28.668Z</time></trkpt><trkpt lat="43.4321091" lon="11.1995873"><ele>254.75</ele><time>2026-03-22T09:49:29.678Z</time></trkpt><trkpt lat="43.4320956" lon="11.1994042"><ele>253.0</ele><time>2026-03-22T09:49:30.669Z</time></trkpt><trkpt lat="43.4320915" lon="11.1992435"><ele>253.0</ele><time>2026-03-22T09:49:31.671Z</time></trkpt><trkpt lat="43.4320918" lon="11.1991"><ele>253.0</ele><time>2026-03-22T09:49:32.668Z</time></trkpt><trkpt lat="43.4321114" lon="11.1989524"><ele>253.0</ele><time>2026-03-22T09:49:33.667Z</time></trkpt><trkpt lat="43.4321583" lon="11.1987858"><ele>253.0</ele><time>2026-03-22T09:49:34.664Z</time></trkpt><trkpt lat="43.4322113" lon="11.198567"><ele>248.66666666666666</ele><time>2026-03-22T09:49:35.664Z</time></trkpt><trkpt lat="43.4322615" lon="11.1983233"><ele>244.33333333333331</ele><time>2026-03-22T09:49:36.685Z</time></trkpt><trkpt lat="43.4323036" lon="11.1981119"><ele>240.0</ele><time>2026-03-22T09:49:37.664Z</time></trkpt><trkpt lat="43.4323432" lon="11.1979144"><ele>240.0</ele><time>2026-03-22T09:49:38.662Z</time></trkpt><trkpt lat="43.4323595" lon="11.1977169"><ele>240.0</ele><time>2026-03-22T09:49:39.667Z</time></trkpt><trkpt lat="43.4323814" lon="11.1974968"><ele>240.0</ele><time>2026-03-22T09:49:40.674Z</time></trkpt><trkpt lat="43.432408" lon="11.1973045"><ele>240.0</ele><time>2026-03-22T09:49:41.674Z</time></trkpt><trkpt lat="43.4324322" lon="11.1971394"><ele>241.25</ele><time>2026-03-22T09:49:42.666Z</time></trkpt><trkpt lat="43.432474" lon="11.1969804"><ele>242.5</ele><time>2026-03-22T09:49:43.67Z</time></trkpt><trkpt lat="43.4325304" lon="11.1968114"><ele>243.75</ele><time>2026-03-22T09:49:44.718Z</time></trkpt><trkpt lat="43.432602" lon="11.1966426"><ele>245.0</ele><time>2026-03-22T09:49:45.67Z</time></trkpt><trkpt lat="43.4326896" lon="11.1964684"><ele>244.0</ele><time>2026-03-22T09:49:46.681Z</time></trkpt><trkpt lat="43.4328078" lon="11.1962826"><ele>243.0</ele><time>2026-03-22T09:49:47.662Z</time></trkpt><trkpt lat="43.4329403" lon="11.1960666"><ele>242.0</ele><time>2026-03-22T09:49:48.671Z</time></trkpt><trkpt lat="43.4330489" lon="11.1958469"><ele>243.25</ele><time>2026-03-22T09:49:49.67Z</time></trkpt><trkpt lat="43.4331381" lon="11.1956593"><ele>244.5</ele><time>2026-03-22T09:49:50.681Z</time></trkpt><trkpt lat="43.433219" lon="11.1955113"><ele>245.75</ele><time>2026-03-22T09:49:51.66Z</time></trkpt><trkpt lat="43.4332887" lon="11.1954056"><ele>247.0</ele><time>2026-03-22T09:49:52.667Z</time></trkpt><trkpt lat="43.4333517" lon="11.1953138"><ele>247.0</ele><time>2026-03-22T09:49:53.667Z</time></trkpt><trkpt lat="43.4334397" lon="11.195215"><ele>247.0</ele><time>2026-03-22T09:49:55.669Z</time></trkpt><trkpt lat="43.4334896" lon="11.1951593"><ele>247.0</ele><time>2026-03-22T09:49:56.656Z</time></trkpt><trkpt lat="43.4336097" lon="11.1950649"><ele>247.0</ele><time>2026-03-22T09:49:58.665Z</time></trkpt><trkpt lat="43.4336888" lon="11.1950181"><ele>247.0</ele><time>2026-03-22T09:49:59.67Z</time></trkpt><trkpt lat="43.4337584" lon="11.1949799"><ele>246.85714285714286</ele><time>2026-03-22T09:50:00.668Z</time></trkpt><trkpt lat="43.4338297" lon="11.1949481"><ele>246.71428571428572</ele><time>2026-03-22T09:50:01.669Z</time></trkpt><trkpt lat="43.4339079" lon="11.194926"><ele>246.57142857142858</ele><time>2026-03-22T09:50:02.666Z</time></trkpt><trkpt lat="43.4339779" lon="11.1949048"><ele>246.42857142857144</ele><time>2026-03-22T09:50:03.668Z</time></trkpt><trkpt lat="43.4340477" lon="11.1948819"><ele>246.28571428571428</ele><time>2026-03-22T09:50:04.691Z</time></trkpt><trkpt lat="43.4341211" lon="11.1948544"><ele>246.14285714285717</ele><time>2026-03-22T09:50:05.673Z</time></trkpt><trkpt lat="43.4341876" lon="11.1948268"><ele>246.00000000000003</ele><time>2026-03-22T09:50:06.665Z</time></trkpt><trkpt lat="43.4342545" lon="11.1947965"><ele>246.0</ele><time>2026-03-22T09:50:07.67Z</time></trkpt><trkpt lat="43.4343256" lon="11.1947694"><ele>246.0</ele><time>2026-03-22T09:50:08.673Z</time></trkpt><trkpt lat="43.4344003" lon="11.1947348"><ele>246.0</ele><time>2026-03-22T09:50:09.673Z</time></trkpt><trkpt lat="43.434475" lon="11.1947093"><ele>246.0</ele><time>2026-03-22T09:50:10.674Z</time></trkpt><trkpt lat="43.4345395" lon="11.1946855"><ele>246.0</ele><time>2026-03-22T09:50:11.671Z</time></trkpt><trkpt lat="43.4346022" lon="11.1946638"><ele>246.0</ele><time>2026-03-22T09:50:12.667Z</time></trkpt><trkpt lat="43.434718" lon="11.1946079"><ele>245.83333333333334</ele><time>2026-03-22T09:50:14.686Z</time></trkpt><trkpt lat="43.4348046" lon="11.1945383"><ele>245.66666666666669</ele><time>2026-03-22T09:50:16.67Z</time></trkpt><trkpt lat="43.43479" lon="11.1944408"><ele>245.5</ele><time>2026-03-22T09:50:19.678Z</time></trkpt><trkpt lat="43.4347356" lon="11.194313"><ele>245.33333333333334</ele><time>2026-03-22T09:50:22.663Z</time></trkpt><trkpt lat="43.4347229" lon="11.194208"><ele>245.16666666666669</ele><time>2026-03-22T09:50:23.662Z</time></trkpt><trkpt lat="43.4347104" lon="11.1940882"><ele>245.0</ele><time>2026-03-22T09:50:24.68Z</time></trkpt><trkpt lat="43.4346986" lon="11.1939625"><ele>245.0</ele><time>2026-03-22T09:50:25.675Z</time></trkpt><trkpt lat="43.4346726" lon="11.1938293"><ele>245.0</ele><time>2026-03-22T09:50:26.661Z</time></trkpt><trkpt lat="43.4346404" lon="11.193662"><ele>245.0</ele><time>2026-03-22T09:50:27.673Z</time></trkpt><trkpt lat="43.434609" lon="11.193468"><ele>245.0</ele><time>2026-03-22T09:50:28.664Z</time></trkpt><trkpt lat="43.43457" lon="11.1932978"><ele>247.25</ele><time>2026-03-22T09:50:29.668Z</time></trkpt><trkpt lat="43.4345274" lon="11.1931181"><ele>249.5</ele><time>2026-03-22T09:50:30.67Z</time></trkpt><trkpt lat="43.4344851" lon="11.1929405"><ele>251.75</ele><time>2026-03-22T09:50:31.665Z</time></trkpt><trkpt lat="43.4344501" lon="11.1927717"><ele>254.0</ele><time>2026-03-22T09:50:32.702Z</time></trkpt><trkpt lat="43.4344231" lon="11.1926297"><ele>254.00000000000003</ele><time>2026-03-22T09:50:33.665Z</time></trkpt><trkpt lat="43.4344039" lon="11.1925256"><ele>254.0</ele><time>2026-03-22T09:50:34.67Z</time></trkpt><trkpt lat="43.4343456" lon="11.1924322"><ele>254.0</ele><time>2026-03-22T09:50:36.671Z</time></trkpt><trkpt lat="43.4342485" lon="11.1924728"><ele>254.0</ele><time>2026-03-22T09:50:38.67Z</time></trkpt><trkpt lat="43.43415" lon="11.1924862"><ele>254.00000000000003</ele><time>2026-03-22T09:50:40.661Z</time></trkpt><trkpt lat="43.4340732" lon="11.192451"><ele>254.0</ele><time>2026-03-22T09:50:42.664Z</time></trkpt><trkpt lat="43.4340156" lon="11.1923422"><ele>253.83333333333334</ele><time>2026-03-22T09:50:44.671Z</time></trkpt><trkpt lat="43.4340077" lon="11.1922299"><ele>253.66666666666669</ele><time>2026-03-22T09:50:45.665Z</time></trkpt><trkpt lat="43.4339924" lon="11.1921044"><ele>253.5</ele><time>2026-03-22T09:50:46.689Z</time></trkpt><trkpt lat="43.433976" lon="11.1919904"><ele>253.33333333333331</ele><time>2026-03-22T09:50:47.667Z</time></trkpt><trkpt lat="43.4339587" lon="11.1918792"><ele>253.16666666666666</ele><time>2026-03-22T09:50:48.674Z</time></trkpt><trkpt lat="43.433931" lon="11.1917727"><ele>253.0</ele><time>2026-03-22T09:50:49.668Z</time></trkpt><trkpt lat="43.4338993" lon="11.1916799"><ele>252.99999999999997</ele><time>2026-03-22T09:50:50.67Z</time></trkpt><trkpt lat="43.4338789" lon="11.1915845"><ele>253.0</ele><time>2026-03-22T09:50:51.68Z</time></trkpt><trkpt lat="43.4338619" lon="11.1914841"><ele>253.0</ele><time>2026-03-22T09:50:52.668Z</time></trkpt><trkpt lat="43.433836" lon="11.1913926"><ele>253.0</ele><time>2026-03-22T09:50:53.68Z</time></trkpt><trkpt lat="43.4338131" lon="11.1913062"><ele>252.99999999999997</ele><time>2026-03-22T09:50:54.684Z</time></trkpt><trkpt lat="43.4337055" lon="11.1912064"><ele>253.0</ele><time>2026-03-22T09:50:56.671Z</time></trkpt><trkpt lat="43.4336143" lon="11.1911464"><ele>252.66666666666666</ele><time>2026-03-22T09:50:57.662Z</time></trkpt><trkpt lat="43.4335182" lon="11.1910741"><ele>252.33333333333331</ele><time>2026-03-22T09:50:58.666Z</time></trkpt><trkpt lat="43.433447" lon="11.1910095"><ele>252.0</ele><time>2026-03-22T09:50:59.664Z</time></trkpt><trkpt lat="43.4333954" lon="11.190945"><ele>251.66666666666669</ele><time>2026-03-22T09:51:00.666Z</time></trkpt><trkpt lat="43.4333476" lon="11.1908871"><ele>251.33333333333334</ele><time>2026-03-22T09:51:01.665Z</time></trkpt><trkpt lat="43.433292" lon="11.1907544"><ele>251.0</ele><time>2026-03-22T09:51:03.664Z</time></trkpt><trkpt lat="43.4332889" lon="11.1906514"><ele>250.0</ele><time>2026-03-22T09:51:04.669Z</time></trkpt><trkpt lat="43.4332991" lon="11.1905356"><ele>249.00000000000003</ele><time>2026-03-22T09:51:05.669Z</time></trkpt><trkpt lat="43.4333004" lon="11.1904234"><ele>248.00000000000003</ele><time>2026-03-22T09:51:06.668Z</time></trkpt><trkpt lat="43.4332954" lon="11.1903343"><ele>247.0</ele><time>2026-03-22T09:51:07.672Z</time></trkpt><trkpt lat="43.4332451" lon="11.1901976"><ele>246.0</ele><time>2026-03-22T09:51:09.668Z</time></trkpt><trkpt lat="43.433144" lon="11.1901232"><ele>246.0</ele><time>2026-03-22T09:51:11.68Z</time></trkpt><trkpt lat="43.4330832" lon="11.190082"><ele>246.0</ele><time>2026-03-22T09:51:12.665Z</time></trkpt><trkpt lat="43.4330086" lon="11.1900171"><ele>246.0</ele><time>2026-03-22T09:51:14.672Z</time></trkpt><trkpt lat="43.4329467" lon="11.1899919"><ele>246.0</ele><time>2026-03-22T09:51:16.688Z</time></trkpt><trkpt lat="43.4328794" lon="11.1899208"><ele>246.0</ele><time>2026-03-22T09:51:18.667Z</time></trkpt><trkpt lat="43.4328342" lon="11.1897852"><ele>246.0</ele><time>2026-03-22T09:51:20.677Z</time></trkpt><trkpt lat="43.4328112" lon="11.1896417"><ele>244.33333333333334</ele><time>2026-03-22T09:51:22.696Z</time></trkpt><trkpt lat="43.4328179" lon="11.1895432"><ele>242.66666666666669</ele><time>2026-03-22T09:51:23.667Z</time></trkpt><trkpt lat="43.43281" lon="11.1894442"><ele>241.0</ele><time>2026-03-22T09:51:24.671Z</time></trkpt><trkpt lat="43.4327862" lon="11.1893583"><ele>239.33333333333334</ele><time>2026-03-22T09:51:25.669Z</time></trkpt><trkpt lat="43.4327544" lon="11.1892802"><ele>237.66666666666669</ele><time>2026-03-22T09:51:26.663Z</time></trkpt><trkpt lat="43.4327206" lon="11.1891299"><ele>236.0</ele><time>2026-03-22T09:51:28.662Z</time></trkpt><trkpt lat="43.4326753" lon="11.1890165"><ele>236.0</ele><time>2026-03-22T09:51:30.673Z</time></trkpt><trkpt lat="43.4326038" lon="11.1889169"><ele>236.00000000000003</ele><time>2026-03-22T09:51:32.666Z</time></trkpt><trkpt lat="43.4325213" lon="11.1888989"><ele>236.00000000000003</ele><time>2026-03-22T09:51:35.669Z</time></trkpt><trkpt lat="43.4324354" lon="11.1889525"><ele>236.0</ele><time>2026-03-22T09:51:38.664Z</time></trkpt><trkpt lat="43.4324172" lon="11.1891326"><ele>236.0</ele><time>2026-03-22T09:51:41.668Z</time></trkpt><trkpt lat="43.4324276" lon="11.1892686"><ele>236.0</ele><time>2026-03-22T09:51:42.67Z</time></trkpt><trkpt lat="43.4324181" lon="11.1894053"><ele>236.00000000000003</ele><time>2026-03-22T09:51:43.667Z</time></trkpt><trkpt lat="43.4323983" lon="11.1895245"><ele>236.00000000000003</ele><time>2026-03-22T09:51:44.668Z</time></trkpt><trkpt lat="43.4323777" lon="11.1896231"><ele>236.0</ele><time>2026-03-22T09:51:45.664Z</time></trkpt><trkpt lat="43.4323335" lon="11.1897793"><ele>236.0</ele><time>2026-03-22T09:51:47.667Z</time></trkpt><trkpt lat="43.4323012" lon="11.1898605"><ele>236.60000000000002</ele><time>2026-03-22T09:51:48.675Z</time></trkpt><trkpt lat="43.4322557" lon="11.1900012"><ele>237.20000000000002</ele><time>2026-03-22T09:51:50.659Z</time></trkpt><trkpt lat="43.4321987" lon="11.1901391"><ele>237.79999999999998</ele><time>2026-03-22T09:51:52.663Z</time></trkpt><trkpt lat="43.4321565" lon="11.1902712"><ele>238.39999999999998</ele><time>2026-03-22T09:51:54.665Z</time></trkpt><trkpt lat="43.4321516" lon="11.1904294"><ele>239.0</ele><time>2026-03-22T09:51:56.665Z</time></trkpt><trkpt lat="43.4321641" lon="11.1905218"><ele>239.0</ele><time>2026-03-22T09:51:57.662Z</time></trkpt><trkpt lat="43.4321804" lon="11.1906764"><ele>238.99999999999997</ele><time>2026-03-22T09:51:59.664Z</time></trkpt><trkpt lat="43.432214" lon="11.19082"><ele>238.99999999999997</ele><time>2026-03-22T09:52:01.666Z</time></trkpt><trkpt lat="43.4322231" lon="11.1909668"><ele>239.0</ele><time>2026-03-22T09:52:03.668Z</time></trkpt><trkpt lat="43.4321962" lon="11.1910536"><ele>239.0</ele><time>2026-03-22T09:52:04.667Z</time></trkpt><trkpt lat="43.4321638" lon="11.1911359"><ele>239.00000000000003</ele><time>2026-03-22T09:52:05.659Z</time></trkpt><trkpt lat="43.4321433" lon="11.1912197"><ele>239.0</ele><time>2026-03-22T09:52:06.671Z</time></trkpt><trkpt lat="43.4320993" lon="11.1913649"><ele>239.0</ele><time>2026-03-22T09:52:08.659Z</time></trkpt><trkpt lat="43.4320442" lon="11.1914809"><ele>239.0</ele><time>2026-03-22T09:52:10.657Z</time></trkpt><trkpt lat="43.4319738" lon="11.191457"><ele>239.00000000000003</ele><time>2026-03-22T09:52:14.66Z</time></trkpt><trkpt lat="43.4319294" lon="11.191381"><ele>239.0</ele><time>2026-03-22T09:52:16.662Z</time></trkpt><trkpt lat="43.431899" lon="11.1912694"><ele>231.25</ele><time>2026-03-22T09:52:17.664Z</time></trkpt><trkpt lat="43.4318369" lon="11.1911238"><ele>223.5</ele><time>2026-03-22T09:52:18.665Z</time></trkpt><trkpt lat="43.4317664" lon="11.1909663"><ele>215.75</ele><time>2026-03-22T09:52:19.686Z</time></trkpt><trkpt lat="43.4317143" lon="11.1908336"><ele>208.0</ele><time>2026-03-22T09:52:20.657Z</time></trkpt><trkpt lat="43.4316644" lon="11.1907081"><ele>208.8</ele><time>2026-03-22T09:52:21.66Z</time></trkpt><trkpt lat="43.4316228" lon="11.1905793"><ele>209.60000000000002</ele><time>2026-03-22T09:52:22.658Z</time></trkpt><trkpt lat="43.4315927" lon="11.1904515"><ele>210.39999999999998</ele><time>2026-03-22T09:52:23.669Z</time></trkpt><trkpt lat="43.4315683" lon="11.1903121"><ele>211.2</ele><time>2026-03-22T09:52:24.664Z</time></trkpt><trkpt lat="43.4315541" lon="11.1901798"><ele>212.0</ele><time>2026-03-22T09:52:25.667Z</time></trkpt><trkpt lat="43.4315458" lon="11.1900382"><ele>212.0</ele><time>2026-03-22T09:52:26.664Z</time></trkpt><trkpt lat="43.4315474" lon="11.1899127"><ele>212.0</ele><time>2026-03-22T09:52:27.661Z</time></trkpt><trkpt lat="43.4315537" lon="11.1898115"><ele>212.0</ele><time>2026-03-22T09:52:28.659Z</time></trkpt><trkpt lat="43.4315919" lon="11.189693"><ele>212.0</ele><time>2026-03-22T09:52:30.657Z</time></trkpt><trkpt lat="43.4315818" lon="11.1895178"><ele>212.0</ele><time>2026-03-22T09:52:32.66Z</time></trkpt><trkpt lat="43.4315687" lon="11.1893906"><ele>212.00000000000003</ele><time>2026-03-22T09:52:33.703Z</time></trkpt><trkpt lat="43.4315515" lon="11.1892574"><ele>212.0</ele><time>2026-03-22T09:52:34.663Z</time></trkpt><trkpt lat="43.4315396" lon="11.1891295"><ele>212.0</ele><time>2026-03-22T09:52:35.667Z</time></trkpt><trkpt lat="43.4315248" lon="11.1890211"><ele>212.0</ele><time>2026-03-22T09:52:36.66Z</time></trkpt><trkpt lat="43.4315133" lon="11.1889147"><ele>212.00000000000003</ele><time>2026-03-22T09:52:37.669Z</time></trkpt><trkpt lat="43.4315034" lon="11.1888048"><ele>212.0</ele><time>2026-03-22T09:52:38.665Z</time></trkpt><trkpt lat="43.4314907" lon="11.1886737"><ele>211.8</ele><time>2026-03-22T09:52:39.671Z</time></trkpt><trkpt lat="43.4314814" lon="11.1885413"><ele>211.6</ele><time>2026-03-22T09:52:40.664Z</time></trkpt><trkpt lat="43.4314628" lon="11.1883971"><ele>211.4</ele><time>2026-03-22T09:52:41.661Z</time></trkpt><trkpt lat="43.4314471" lon="11.1882509"><ele>211.20000000000002</ele><time>2026-03-22T09:52:42.664Z</time></trkpt><trkpt lat="43.4314389" lon="11.1881147"><ele>211.0</ele><time>2026-03-22T09:52:43.667Z</time></trkpt><trkpt lat="43.4314268" lon="11.1879736"><ele>210.4</ele><time>2026-03-22T09:52:44.688Z</time></trkpt><trkpt lat="43.4314116" lon="11.187824"><ele>209.8</ele><time>2026-03-22T09:52:45.662Z</time></trkpt><trkpt lat="43.4313923" lon="11.1876919"><ele>209.20000000000002</ele><time>2026-03-22T09:52:46.665Z</time></trkpt><trkpt lat="43.4313788" lon="11.187575"><ele>208.60000000000002</ele><time>2026-03-22T09:52:47.666Z</time></trkpt><trkpt lat="43.4313645" lon="11.1874712"><ele>208.0</ele><time>2026-03-22T09:52:48.661Z</time></trkpt><trkpt lat="43.4313614" lon="11.1873579"><ele>206.99999999999997</ele><time>2026-03-22T09:52:49.664Z</time></trkpt><trkpt lat="43.4313471" lon="11.1872481"><ele>206.0</ele><time>2026-03-22T09:52:50.666Z</time></trkpt><trkpt lat="43.4313357" lon="11.1871324"><ele>205.0</ele><time>2026-03-22T09:52:51.666Z</time></trkpt><trkpt lat="43.4313293" lon="11.1870276"><ele>204.0</ele><time>2026-03-22T09:52:52.691Z</time></trkpt><trkpt lat="43.4313327" lon="11.1869174"><ele>202.99999999999997</ele><time>2026-03-22T09:52:53.664Z</time></trkpt><trkpt lat="43.431325" lon="11.1868186"><ele>202.0</ele><time>2026-03-22T09:52:54.666Z</time></trkpt><trkpt lat="43.4313245" lon="11.1867238"><ele>201.99999999999997</ele><time>2026-03-22T09:52:55.662Z</time></trkpt><trkpt lat="43.4313285" lon="11.1866242"><ele>202.0</ele><time>2026-03-22T09:52:56.665Z</time></trkpt><trkpt lat="43.431337" lon="11.1865176"><ele>202.0</ele><time>2026-03-22T09:52:57.667Z</time></trkpt><trkpt lat="43.4313495" lon="11.1864158"><ele>202.0</ele><time>2026-03-22T09:52:58.656Z</time></trkpt><trkpt lat="43.431374" lon="11.1863135"><ele>201.99999999999997</ele><time>2026-03-22T09:52:59.663Z</time></trkpt><trkpt lat="43.4314008" lon="11.1862142"><ele>202.0</ele><time>2026-03-22T09:53:00.662Z</time></trkpt><trkpt lat="43.4314357" lon="11.1861299"><ele>200.0</ele><time>2026-03-22T09:53:01.661Z</time></trkpt><trkpt lat="43.4314703" lon="11.1860419"><ele>198.0</ele><time>2026-03-22T09:53:02.683Z</time></trkpt><trkpt lat="43.4315096" lon="11.1859539"><ele>196.0</ele><time>2026-03-22T09:53:03.66Z</time></trkpt><trkpt lat="43.431544" lon="11.1858689"><ele>194.0</ele><time>2026-03-22T09:53:04.662Z</time></trkpt><trkpt lat="43.4316141" lon="11.185728"><ele>192.0</ele><time>2026-03-22T09:53:06.662Z</time></trkpt><trkpt lat="43.4316948" lon="11.1856287"><ele>189.2</ele><time>2026-03-22T09:53:08.656Z</time></trkpt><trkpt lat="43.4317257" lon="11.1854622"><ele>186.39999999999998</ele><time>2026-03-22T09:53:10.666Z</time></trkpt><trkpt lat="43.4317511" lon="11.1853544"><ele>183.60000000000002</ele><time>2026-03-22T09:53:11.661Z</time></trkpt><trkpt lat="43.4317714" lon="11.1852375"><ele>180.8</ele><time>2026-03-22T09:53:12.661Z</time></trkpt><trkpt lat="43.4318066" lon="11.1851246"><ele>178.0</ele><time>2026-03-22T09:53:13.657Z</time></trkpt><trkpt lat="43.4318414" lon="11.1850188"><ele>178.0</ele><time>2026-03-22T09:53:14.668Z</time></trkpt><trkpt lat="43.4318742" lon="11.1849279"><ele>178.0</ele><time>2026-03-22T09:53:15.662Z</time></trkpt><trkpt lat="43.4319022" lon="11.1848489"><ele>178.0</ele><time>2026-03-22T09:53:16.663Z</time></trkpt><trkpt lat="43.4319595" lon="11.1846953"><ele>178.0</ele><time>2026-03-22T09:53:18.684Z</time></trkpt><trkpt lat="43.4320183" lon="11.1845481"><ele>178.0</ele><time>2026-03-22T09:53:20.666Z</time></trkpt><trkpt lat="43.4320779" lon="11.1844023"><ele>176.5</ele><time>2026-03-22T09:53:22.661Z</time></trkpt><trkpt lat="43.4321106" lon="11.1843207"><ele>175.0</ele><time>2026-03-22T09:53:23.662Z</time></trkpt><trkpt lat="43.4321431" lon="11.184243"><ele>173.5</ele><time>2026-03-22T09:53:24.694Z</time></trkpt><trkpt lat="43.4321747" lon="11.1841596"><ele>172.0</ele><time>2026-03-22T09:53:25.658Z</time></trkpt><trkpt lat="43.4322163" lon="11.1840172"><ele>170.5</ele><time>2026-03-22T09:53:27.664Z</time></trkpt><trkpt lat="43.4322433" lon="11.1839206"><ele>169.0</ele><time>2026-03-22T09:53:30.656Z</time></trkpt><trkpt lat="43.4323576" lon="11.1839066"><ele>169.0</ele><time>2026-03-22T09:53:36.665Z</time></trkpt><trkpt lat="43.4324601" lon="11.1839589"><ele>169.0</ele><time>2026-03-22T09:53:37.663Z</time></trkpt><trkpt lat="43.4325855" lon="11.1840312"><ele>169.0</ele><time>2026-03-22T09:53:38.683Z</time></trkpt><trkpt lat="43.4327309" lon="11.1840959"><ele>169.0</ele><time>2026-03-22T09:53:39.663Z</time></trkpt><trkpt lat="43.432911" lon="11.1841655"><ele>168.33333333333334</ele><time>2026-03-22T09:53:40.664Z</time></trkpt><trkpt lat="43.4331009" lon="11.1842466"><ele>167.66666666666666</ele><time>2026-03-22T09:53:41.662Z</time></trkpt><trkpt lat="43.4333046" lon="11.1843311"><ele>167.0</ele><time>2026-03-22T09:53:42.666Z</time></trkpt><trkpt lat="43.4335072" lon="11.1844205"><ele>167.0</ele><time>2026-03-22T09:53:43.664Z</time></trkpt><trkpt lat="43.4337133" lon="11.1845065"><ele>167.0</ele><time>2026-03-22T09:53:44.664Z</time></trkpt><trkpt lat="43.4339113" lon="11.1845838"><ele>167.0</ele><time>2026-03-22T09:53:45.663Z</time></trkpt><trkpt lat="43.4340857" lon="11.1846533"><ele>167.66666666666666</ele><time>2026-03-22T09:53:46.667Z</time></trkpt><trkpt lat="43.4342504" lon="11.1847308"><ele>168.33333333333334</ele><time>2026-03-22T09:53:47.664Z</time></trkpt><trkpt lat="43.4344099" lon="11.1848009"><ele>169.0</ele><time>2026-03-22T09:53:48.665Z</time></trkpt><trkpt lat="43.4345689" lon="11.1848684"><ele>173.33333333333334</ele><time>2026-03-22T09:53:49.667Z</time></trkpt><trkpt lat="43.434729" lon="11.1849285"><ele>177.66666666666666</ele><time>2026-03-22T09:53:50.669Z</time></trkpt><trkpt lat="43.4348875" lon="11.1849688"><ele>182.0</ele><time>2026-03-22T09:53:51.67Z</time></trkpt><trkpt lat="43.4350457" lon="11.1849948"><ele>182.0</ele><time>2026-03-22T09:53:52.668Z</time></trkpt><trkpt lat="43.4352002" lon="11.1850145"><ele>182.0</ele><time>2026-03-22T09:53:53.653Z</time></trkpt><trkpt lat="43.435347" lon="11.1850423"><ele>182.0</ele><time>2026-03-22T09:53:54.671Z</time></trkpt><trkpt lat="43.4354983" lon="11.1850644"><ele>182.33333333333331</ele><time>2026-03-22T09:53:55.66Z</time></trkpt><trkpt lat="43.4356506" lon="11.1850906"><ele>182.66666666666666</ele><time>2026-03-22T09:53:56.685Z</time></trkpt><trkpt lat="43.4358115" lon="11.1851165"><ele>183.0</ele><time>2026-03-22T09:53:57.666Z</time></trkpt><trkpt lat="43.4359708" lon="11.1851395"><ele>183.0</ele><time>2026-03-22T09:53:58.669Z</time></trkpt><trkpt lat="43.4361126" lon="11.1851682"><ele>183.0</ele><time>2026-03-22T09:53:59.667Z</time></trkpt><trkpt lat="43.436239" lon="11.1851942"><ele>183.0</ele><time>2026-03-22T09:54:00.666Z</time></trkpt><trkpt lat="43.4363588" lon="11.1852221"><ele>183.0</ele><time>2026-03-22T09:54:01.691Z</time></trkpt><trkpt lat="43.4364653" lon="11.1852557"><ele>183.33333333333334</ele><time>2026-03-22T09:54:02.665Z</time></trkpt><trkpt lat="43.4365612" lon="11.1852953"><ele>183.66666666666666</ele><time>2026-03-22T09:54:03.664Z</time></trkpt><trkpt lat="43.4366462" lon="11.1853291"><ele>184.0</ele><time>2026-03-22T09:54:04.665Z</time></trkpt><trkpt lat="43.4367278" lon="11.1853764"><ele>184.33333333333331</ele><time>2026-03-22T09:54:05.664Z</time></trkpt><trkpt lat="43.436811" lon="11.1854217"><ele>184.66666666666666</ele><time>2026-03-22T09:54:06.664Z</time></trkpt><trkpt lat="43.4368864" lon="11.1854629"><ele>185.0</ele><time>2026-03-22T09:54:07.665Z</time></trkpt><trkpt lat="43.4369607" lon="11.1854986"><ele>185.0</ele><time>2026-03-22T09:54:08.662Z</time></trkpt><trkpt lat="43.4370525" lon="11.1855396"><ele>185.0</ele><time>2026-03-22T09:54:10.66Z</time></trkpt><trkpt lat="43.4370351" lon="11.1856505"><ele>185.0</ele><time>2026-03-22T09:54:14.663Z</time></trkpt><trkpt lat="43.4370542" lon="11.1857372"><ele>185.0</ele><time>2026-03-22T09:54:16.657Z</time></trkpt><trkpt lat="43.4371166" lon="11.1858032"><ele>185.0</ele><time>2026-03-22T09:54:18.665Z</time></trkpt><trkpt lat="43.437107" lon="11.1859147"><ele>185.0</ele><time>2026-03-22T09:54:21.663Z</time></trkpt><trkpt lat="43.4370338" lon="11.18602"><ele>187.5</ele><time>2026-03-22T09:54:23.658Z</time></trkpt><trkpt lat="43.436937" lon="11.1861267"><ele>190.0</ele><time>2026-03-22T09:54:25.663Z</time></trkpt><trkpt lat="43.4368864" lon="11.1861819"><ele>192.5</ele><time>2026-03-22T09:54:26.664Z</time></trkpt><trkpt lat="43.4367989" lon="11.1862812"><ele>195.0</ele><time>2026-03-22T09:54:28.66Z</time></trkpt><trkpt lat="43.4367363" lon="11.1863189"><ele>197.50000000000003</ele><time>2026-03-22T09:54:30.665Z</time></trkpt><trkpt lat="43.4367969" lon="11.1862929"><ele>200.0</ele><time>2026-03-22T09:54:41.664Z</time></trkpt><trkpt lat="43.4368708" lon="11.1861773"><ele>200.0</ele><time>2026-03-22T09:54:43.663Z</time></trkpt><trkpt lat="43.4369433" lon="11.1860769"><ele>200.0</ele><time>2026-03-22T09:54:45.665Z</time></trkpt><trkpt lat="43.4370227" lon="11.185983"><ele>200.0</ele><time>2026-03-22T09:54:47.665Z</time></trkpt><trkpt lat="43.4370864" lon="11.185906"><ele>200.0</ele><time>2026-03-22T09:54:49.663Z</time></trkpt><trkpt lat="43.4371181" lon="11.1858093"><ele>200.0</ele><time>2026-03-22T09:54:52.661Z</time></trkpt><trkpt lat="43.4370618" lon="11.1857231"><ele>201.50000000000003</ele><time>2026-03-22T09:54:55.665Z</time></trkpt><trkpt lat="43.4370324" lon="11.185621"><ele>203.0</ele><time>2026-03-22T09:54:58.672Z</time></trkpt><trkpt lat="43.4370629" lon="11.1855215"><ele>204.5</ele><time>2026-03-22T09:55:01.661Z</time></trkpt><trkpt lat="43.4371334" lon="11.1855382"><ele>206.0</ele><time>2026-03-22T09:55:06.658Z</time></trkpt><trkpt lat="43.437204" lon="11.1855858"><ele>207.50000000000003</ele><time>2026-03-22T09:55:08.662Z</time></trkpt><trkpt lat="43.4373127" lon="11.1856347"><ele>209.0</ele><time>2026-03-22T09:55:10.661Z</time></trkpt><trkpt lat="43.4374512" lon="11.1856811"><ele>209.0</ele><time>2026-03-22T09:55:12.683Z</time></trkpt><trkpt lat="43.4375495" lon="11.1857107"><ele>209.0</ele><time>2026-03-22T09:55:13.659Z</time></trkpt><trkpt lat="43.4376498" lon="11.1857281"><ele>209.0</ele><time>2026-03-22T09:55:14.661Z</time></trkpt><trkpt lat="43.4377644" lon="11.1857285"><ele>209.0</ele><time>2026-03-22T09:55:15.665Z</time></trkpt><trkpt lat="43.4378886" lon="11.1857263"><ele>209.0</ele><time>2026-03-22T09:55:16.659Z</time></trkpt><trkpt lat="43.4380218" lon="11.1857201"><ele>208.16666666666669</ele><time>2026-03-22T09:55:17.686Z</time></trkpt><trkpt lat="43.4381398" lon="11.1857194"><ele>207.33333333333334</ele><time>2026-03-22T09:55:18.658Z</time></trkpt><trkpt lat="43.438245" lon="11.1857064"><ele>206.5</ele><time>2026-03-22T09:55:19.657Z</time></trkpt><trkpt lat="43.4383273" lon="11.1856927"><ele>205.66666666666669</ele><time>2026-03-22T09:55:20.66Z</time></trkpt><trkpt lat="43.4383947" lon="11.1856883"><ele>204.83333333333334</ele><time>2026-03-22T09:55:21.662Z</time></trkpt><trkpt lat="43.4384601" lon="11.1856901"><ele>204.0</ele><time>2026-03-22T09:55:22.681Z</time></trkpt><trkpt lat="43.4385239" lon="11.1856872"><ele>204.0</ele><time>2026-03-22T09:55:23.668Z</time></trkpt><trkpt lat="43.4386339" lon="11.1856693"><ele>204.0</ele><time>2026-03-22T09:55:25.664Z</time></trkpt><trkpt lat="43.4387001" lon="11.185666"><ele>204.0</ele><time>2026-03-22T09:55:28.685Z</time></trkpt><trkpt lat="43.4387711" lon="11.1856702"><ele>204.0</ele><time>2026-03-22T09:55:38.664Z</time></trkpt><trkpt lat="43.438664" lon="11.1857304"><ele>204.0</ele><time>2026-03-22T09:55:44.663Z</time></trkpt><trkpt lat="43.4386092" lon="11.1858123"><ele>204.0</ele><time>2026-03-22T09:55:46.668Z</time></trkpt><trkpt lat="43.4385444" lon="11.1858879"><ele>204.0</ele><time>2026-03-22T09:55:49.666Z</time></trkpt><trkpt lat="43.4384875" lon="11.1859449"><ele>204.0</ele><time>2026-03-22T09:55:51.67Z</time></trkpt><trkpt lat="43.4384102" lon="11.1860367"><ele>204.0</ele><time>2026-03-22T09:55:53.671Z</time></trkpt><trkpt lat="43.4383483" lon="11.1861037"><ele>204.0</ele><time>2026-03-22T09:55:54.688Z</time></trkpt><trkpt lat="43.43827" lon="11.1861925"><ele>204.0</ele><time>2026-03-22T09:55:55.663Z</time></trkpt><trkpt lat="43.4381805" lon="11.1862967"><ele>204.0</ele><time>2026-03-22T09:55:56.673Z</time></trkpt><trkpt lat="43.4380609" lon="11.1864107"><ele>204.0</ele><time>2026-03-22T09:55:57.669Z</time></trkpt><trkpt lat="43.4379413" lon="11.1865289"><ele>204.0</ele><time>2026-03-22T09:55:58.667Z</time></trkpt><trkpt lat="43.4378167" lon="11.1866545"><ele>204.0</ele><time>2026-03-22T09:55:59.677Z</time></trkpt><trkpt lat="43.4376924" lon="11.1867631"><ele>208.5</ele><time>2026-03-22T09:56:00.672Z</time></trkpt><trkpt lat="43.437556" lon="11.1868585"><ele>213.0</ele><time>2026-03-22T09:56:01.668Z</time></trkpt><trkpt lat="43.4374368" lon="11.1869327"><ele>217.5</ele><time>2026-03-22T09:56:02.662Z</time></trkpt><trkpt lat="43.4373201" lon="11.187009"><ele>222.0</ele><time>2026-03-22T09:56:03.671Z</time></trkpt><trkpt lat="43.4372267" lon="11.1870683"><ele>220.66666666666666</ele><time>2026-03-22T09:56:04.679Z</time></trkpt><trkpt lat="43.4371329" lon="11.1871323"><ele>219.33333333333331</ele><time>2026-03-22T09:56:05.67Z</time></trkpt><trkpt lat="43.4370607" lon="11.1871712"><ele>218.0</ele><time>2026-03-22T09:56:06.674Z</time></trkpt><trkpt lat="43.4369973" lon="11.1872182"><ele>216.66666666666666</ele><time>2026-03-22T09:56:07.669Z</time></trkpt><trkpt lat="43.4369274" lon="11.1872364"><ele>215.33333333333331</ele><time>2026-03-22T09:56:08.664Z</time></trkpt><trkpt lat="43.4368114" lon="11.1872926"><ele>214.0</ele><time>2026-03-22T09:56:10.66Z</time></trkpt><trkpt lat="43.4367185" lon="11.1873391"><ele>215.66666666666666</ele><time>2026-03-22T09:56:12.663Z</time></trkpt><trkpt lat="43.4366471" lon="11.1874098"><ele>217.33333333333331</ele><time>2026-03-22T09:56:14.662Z</time></trkpt><trkpt lat="43.4365485" lon="11.1875049"><ele>219.0</ele><time>2026-03-22T09:56:16.659Z</time></trkpt><trkpt lat="43.4364659" lon="11.1875638"><ele>220.66666666666669</ele><time>2026-03-22T09:56:18.657Z</time></trkpt><trkpt lat="43.436423" lon="11.1876308"><ele>222.33333333333334</ele><time>2026-03-22T09:56:20.663Z</time></trkpt><trkpt lat="43.4364951" lon="11.1876127"><ele>224.0</ele><time>2026-03-22T09:56:30.66Z</time></trkpt><trkpt lat="43.4365659" lon="11.1875645"><ele>224.0</ele><time>2026-03-22T09:56:33.666Z</time></trkpt><trkpt lat="43.4366417" lon="11.1874898"><ele>223.99999999999997</ele><time>2026-03-22T09:56:36.662Z</time></trkpt><trkpt lat="43.4367266" lon="11.1874611"><ele>223.99999999999997</ele><time>2026-03-22T09:56:39.666Z</time></trkpt><trkpt lat="43.4367986" lon="11.1874138"><ele>224.0</ele><time>2026-03-22T09:56:41.666Z</time></trkpt><trkpt lat="43.436888" lon="11.1873524"><ele>224.0</ele><time>2026-03-22T09:56:43.663Z</time></trkpt><trkpt lat="43.4369892" lon="11.1873056"><ele>223.66666666666669</ele><time>2026-03-22T09:56:45.662Z</time></trkpt><trkpt lat="43.4370579" lon="11.1872672"><ele>223.33333333333334</ele><time>2026-03-22T09:56:46.663Z</time></trkpt><trkpt lat="43.4371377" lon="11.1872249"><ele>223.0</ele><time>2026-03-22T09:56:47.692Z</time></trkpt><trkpt lat="43.4372281" lon="11.187176"><ele>222.66666666666669</ele><time>2026-03-22T09:56:48.667Z</time></trkpt><trkpt lat="43.4373154" lon="11.187126"><ele>222.33333333333334</ele><time>2026-03-22T09:56:49.665Z</time></trkpt><trkpt lat="43.4373948" lon="11.1870802"><ele>222.0</ele><time>2026-03-22T09:56:50.663Z</time></trkpt><trkpt lat="43.4374656" lon="11.1870273"><ele>222.0</ele><time>2026-03-22T09:56:51.667Z</time></trkpt><trkpt lat="43.437542" lon="11.1869736"><ele>222.0</ele><time>2026-03-22T09:56:52.661Z</time></trkpt><trkpt lat="43.4376195" lon="11.186916"><ele>222.0</ele><time>2026-03-22T09:56:53.662Z</time></trkpt><trkpt lat="43.4376922" lon="11.1868572"><ele>222.0</ele><time>2026-03-22T09:56:54.689Z</time></trkpt><trkpt lat="43.4377637" lon="11.1867962"><ele>222.0</ele><time>2026-03-22T09:56:55.658Z</time></trkpt><trkpt lat="43.4378305" lon="11.1867283"><ele>222.0</ele><time>2026-03-22T09:56:56.664Z</time></trkpt><trkpt lat="43.4378973" lon="11.1866436"><ele>222.0</ele><time>2026-03-22T09:56:57.666Z</time></trkpt><trkpt lat="43.4379651" lon="11.1865613"><ele>222.0</ele><time>2026-03-22T09:56:58.667Z</time></trkpt><trkpt lat="43.4380325" lon="11.1864731"><ele>222.0</ele><time>2026-03-22T09:56:59.692Z</time></trkpt><trkpt lat="43.4381054" lon="11.1863895"><ele>222.0</ele><time>2026-03-22T09:57:00.666Z</time></trkpt><trkpt lat="43.438181" lon="11.1863108"><ele>222.0</ele><time>2026-03-22T09:57:01.664Z</time></trkpt><trkpt lat="43.4382602" lon="11.1862297"><ele>218.39999999999998</ele><time>2026-03-22T09:57:02.665Z</time></trkpt><trkpt lat="43.4383351" lon="11.1861477"><ele>214.79999999999998</ele><time>2026-03-22T09:57:03.675Z</time></trkpt><trkpt lat="43.4384161" lon="11.1860714"><ele>211.2</ele><time>2026-03-22T09:57:04.674Z</time></trkpt><trkpt lat="43.4384943" lon="11.1860058"><ele>207.6</ele><time>2026-03-22T09:57:05.665Z</time></trkpt><trkpt lat="43.4385684" lon="11.1859239"><ele>204.0</ele><time>2026-03-22T09:57:06.663Z</time></trkpt><trkpt lat="43.4386301" lon="11.1858612"><ele>204.0</ele><time>2026-03-22T09:57:07.668Z</time></trkpt><trkpt lat="43.4386848" lon="11.1857914"><ele>204.0</ele><time>2026-03-22T09:57:08.697Z</time></trkpt><trkpt lat="43.4387496" lon="11.1857133"><ele>204.0</ele><time>2026-03-22T09:57:09.667Z</time></trkpt><trkpt lat="43.4388113" lon="11.1856467"><ele>204.0</ele><time>2026-03-22T09:57:10.668Z</time></trkpt><trkpt lat="43.4388835" lon="11.1855676"><ele>204.0</ele><time>2026-03-22T09:57:11.667Z</time></trkpt><trkpt lat="43.4389565" lon="11.1854909"><ele>204.0</ele><time>2026-03-22T09:57:12.662Z</time></trkpt><trkpt lat="43.4390199" lon="11.1854255"><ele>201.79999999999998</ele><time>2026-03-22T09:57:13.685Z</time></trkpt><trkpt lat="43.4390792" lon="11.1853634"><ele>199.6</ele><time>2026-03-22T09:57:14.669Z</time></trkpt><trkpt lat="43.4391304" lon="11.1852928"><ele>197.4</ele><time>2026-03-22T09:57:15.67Z</time></trkpt><trkpt lat="43.4391996" lon="11.185192"><ele>195.2</ele><time>2026-03-22T09:57:16.657Z</time></trkpt><trkpt lat="43.4392702" lon="11.1850695"><ele>193.0</ele><time>2026-03-22T09:57:17.669Z</time></trkpt><trkpt lat="43.4393536" lon="11.184927"><ele>190.0</ele><time>2026-03-22T09:57:18.67Z</time></trkpt><trkpt lat="43.4394472" lon="11.1847662"><ele>187.0</ele><time>2026-03-22T09:57:19.668Z</time></trkpt><trkpt lat="43.439556" lon="11.1845743"><ele>184.0</ele><time>2026-03-22T09:57:20.664Z</time></trkpt><trkpt lat="43.4396714" lon="11.1843793"><ele>184.0</ele><time>2026-03-22T09:57:21.67Z</time></trkpt><trkpt lat="43.4397765" lon="11.1841907"><ele>184.0</ele><time>2026-03-22T09:57:22.693Z</time></trkpt><trkpt lat="43.4398761" lon="11.1840105"><ele>184.0</ele><time>2026-03-22T09:57:23.669Z</time></trkpt><trkpt lat="43.4399609" lon="11.1838513"><ele>183.5</ele><time>2026-03-22T09:57:24.663Z</time></trkpt><trkpt lat="43.4400441" lon="11.1836887"><ele>183.0</ele><time>2026-03-22T09:57:25.668Z</time></trkpt><trkpt lat="43.4401323" lon="11.183532"><ele>182.5</ele><time>2026-03-22T09:57:26.662Z</time></trkpt><trkpt lat="43.4402145" lon="11.1833786"><ele>182.0</ele><time>2026-03-22T09:57:27.667Z</time></trkpt><trkpt lat="43.4402973" lon="11.1832308"><ele>181.75</ele><time>2026-03-22T09:57:28.665Z</time></trkpt><trkpt lat="43.4403801" lon="11.1830844"><ele>181.5</ele><time>2026-03-22T09:57:29.667Z</time></trkpt><trkpt lat="43.4404711" lon="11.1829312"><ele>181.25</ele><time>2026-03-22T09:57:30.663Z</time></trkpt><trkpt lat="43.4405561" lon="11.1827618"><ele>181.0</ele><time>2026-03-22T09:57:31.665Z</time></trkpt><trkpt lat="43.4406395" lon="11.1826057"><ele>181.0</ele><time>2026-03-22T09:57:32.665Z</time></trkpt><trkpt lat="43.4407215" lon="11.1824612"><ele>181.0</ele><time>2026-03-22T09:57:33.706Z</time></trkpt><trkpt lat="43.4408024" lon="11.1823209"><ele>181.0</ele><time>2026-03-22T09:57:34.697Z</time></trkpt><trkpt lat="43.4408822" lon="11.1821707"><ele>181.0</ele><time>2026-03-22T09:57:35.67Z</time></trkpt><trkpt lat="43.4409659" lon="11.1820156"><ele>179.66666666666669</ele><time>2026-03-22T09:57:36.668Z</time></trkpt><trkpt lat="43.4410575" lon="11.1818511"><ele>178.33333333333334</ele><time>2026-03-22T09:57:37.665Z</time></trkpt><trkpt lat="43.4411544" lon="11.1816794"><ele>177.0</ele><time>2026-03-22T09:57:38.664Z</time></trkpt><trkpt lat="43.4412527" lon="11.1815249"><ele>177.5</ele><time>2026-03-22T09:57:39.663Z</time></trkpt><trkpt lat="43.4413468" lon="11.1813796"><ele>178.0</ele><time>2026-03-22T09:57:40.664Z</time></trkpt><trkpt lat="43.4414427" lon="11.1812457"><ele>178.5</ele><time>2026-03-22T09:57:41.665Z</time></trkpt><trkpt lat="43.441554" lon="11.1811154"><ele>179.0</ele><time>2026-03-22T09:57:42.665Z</time></trkpt><trkpt lat="43.4416685" lon="11.1809947"><ele>179.0</ele><time>2026-03-22T09:57:43.678Z</time></trkpt><trkpt lat="43.4417874" lon="11.1808666"><ele>179.0</ele><time>2026-03-22T09:57:44.667Z</time></trkpt><trkpt lat="43.4419002" lon="11.1807395"><ele>179.0</ele><time>2026-03-22T09:57:45.67Z</time></trkpt><trkpt lat="43.4420023" lon="11.1806149"><ele>179.0</ele><time>2026-03-22T09:57:46.668Z</time></trkpt><trkpt lat="43.4421075" lon="11.1804867"><ele>178.75</ele><time>2026-03-22T09:57:47.657Z</time></trkpt><trkpt lat="43.4422124" lon="11.1803646"><ele>178.5</ele><time>2026-03-22T09:57:48.668Z</time></trkpt><trkpt lat="43.4423257" lon="11.1802329"><ele>178.25</ele><time>2026-03-22T09:57:49.67Z</time></trkpt><trkpt lat="43.4424304" lon="11.1801063"><ele>178.0</ele><time>2026-03-22T09:57:50.687Z</time></trkpt><trkpt lat="43.4425297" lon="11.1799891"><ele>178.0</ele><time>2026-03-22T09:57:51.671Z</time></trkpt><trkpt lat="43.442625" lon="11.1798799"><ele>178.0</ele><time>2026-03-22T09:57:52.668Z</time></trkpt><trkpt lat="43.4427143" lon="11.1797845"><ele>178.0</ele><time>2026-03-22T09:57:53.659Z</time></trkpt><trkpt lat="43.4427882" lon="11.1796846"><ele>178.0</ele><time>2026-03-22T09:57:54.665Z</time></trkpt><trkpt lat="43.4428456" lon="11.1795965"><ele>178.0</ele><time>2026-03-22T09:57:55.666Z</time></trkpt><trkpt lat="43.442885" lon="11.1794998"><ele>177.99999999999997</ele><time>2026-03-22T09:57:56.671Z</time></trkpt><trkpt lat="43.4429236" lon="11.1794123"><ele>178.0</ele><time>2026-03-22T09:57:57.666Z</time></trkpt><trkpt lat="43.4429599" lon="11.1793375"><ele>178.0</ele><time>2026-03-22T09:57:58.689Z</time></trkpt><trkpt lat="43.4430198" lon="11.1792757"><ele>178.0</ele><time>2026-03-22T09:57:59.666Z</time></trkpt><trkpt lat="43.4430804" lon="11.1792284"><ele>178.0</ele><time>2026-03-22T09:58:00.662Z</time></trkpt><trkpt lat="43.4431432" lon="11.1791764"><ele>177.99999999999997</ele><time>2026-03-22T09:58:01.668Z</time></trkpt><trkpt lat="43.4432121" lon="11.179137"><ele>178.0</ele><time>2026-03-22T09:58:02.662Z</time></trkpt><trkpt lat="43.4433015" lon="11.1791386"><ele>178.25</ele><time>2026-03-22T09:58:04.682Z</time></trkpt><trkpt lat="43.4433707" lon="11.1792727"><ele>178.5</ele><time>2026-03-22T09:58:06.668Z</time></trkpt><trkpt lat="43.4434038" lon="11.1793712"><ele>178.75</ele><time>2026-03-22T09:58:07.696Z</time></trkpt><trkpt lat="43.4434285" lon="11.1795362"><ele>179.0</ele><time>2026-03-22T09:58:09.666Z</time></trkpt><trkpt lat="43.4434548" lon="11.1797214"><ele>177.25</ele><time>2026-03-22T09:58:11.669Z</time></trkpt><trkpt lat="43.4434998" lon="11.1798692"><ele>175.5</ele><time>2026-03-22T09:58:12.672Z</time></trkpt><trkpt lat="43.4435474" lon="11.1800534"><ele>173.75</ele><time>2026-03-22T09:58:13.666Z</time></trkpt><trkpt lat="43.4436052" lon="11.1802165"><ele>172.0</ele><time>2026-03-22T09:58:14.67Z</time></trkpt><trkpt lat="43.443657" lon="11.180366"><ele>172.0</ele><time>2026-03-22T09:58:15.671Z</time></trkpt><trkpt lat="43.4437207" lon="11.1805185"><ele>172.0</ele><time>2026-03-22T09:58:16.702Z</time></trkpt><trkpt lat="43.4437836" lon="11.1806792"><ele>172.0</ele><time>2026-03-22T09:58:17.669Z</time></trkpt><trkpt lat="43.4438454" lon="11.1808317"><ele>172.0</ele><time>2026-03-22T09:58:18.664Z</time></trkpt><trkpt lat="43.4439058" lon="11.180982"><ele>169.2</ele><time>2026-03-22T09:58:19.672Z</time></trkpt><trkpt lat="43.4439421" lon="11.1811231"><ele>166.39999999999998</ele><time>2026-03-22T09:58:20.663Z</time></trkpt><trkpt lat="43.4439547" lon="11.1812686"><ele>163.60000000000002</ele><time>2026-03-22T09:58:21.686Z</time></trkpt><trkpt lat="43.4439589" lon="11.1814126"><ele>160.8</ele><time>2026-03-22T09:58:22.668Z</time></trkpt><trkpt lat="43.4439729" lon="11.1815623"><ele>158.0</ele><time>2026-03-22T09:58:23.665Z</time></trkpt><trkpt lat="43.4440047" lon="11.1816975"><ele>157.20000000000002</ele><time>2026-03-22T09:58:24.668Z</time></trkpt><trkpt lat="43.4440463" lon="11.1818281"><ele>156.4</ele><time>2026-03-22T09:58:25.665Z</time></trkpt><trkpt lat="43.444102" lon="11.1819347"><ele>155.60000000000002</ele><time>2026-03-22T09:58:26.687Z</time></trkpt><trkpt lat="43.4441675" lon="11.1820311"><ele>154.8</ele><time>2026-03-22T09:58:27.665Z</time></trkpt><trkpt lat="43.4442431" lon="11.1821099"><ele>154.0</ele><time>2026-03-22T09:58:28.665Z</time></trkpt><trkpt lat="43.444322" lon="11.1821833"><ele>154.0</ele><time>2026-03-22T09:58:29.671Z</time></trkpt><trkpt lat="43.4443917" lon="11.1822792"><ele>154.0</ele><time>2026-03-22T09:58:30.667Z</time></trkpt><trkpt lat="43.4444381" lon="11.1823889"><ele>154.0</ele><time>2026-03-22T09:58:31.662Z</time></trkpt><trkpt lat="43.444455" lon="11.1825215"><ele>154.0</ele><time>2026-03-22T09:58:32.683Z</time></trkpt><trkpt lat="43.4444721" lon="11.1826456"><ele>154.0</ele><time>2026-03-22T09:58:33.669Z</time></trkpt><trkpt lat="43.444511" lon="11.1827533"><ele>153.5</ele><time>2026-03-22T09:58:34.665Z</time></trkpt><trkpt lat="43.4445725" lon="11.182839"><ele>153.0</ele><time>2026-03-22T09:58:35.665Z</time></trkpt><trkpt lat="43.4446442" lon="11.182899"><ele>152.5</ele><time>2026-03-22T09:58:36.664Z</time></trkpt><trkpt lat="43.4447244" lon="11.1829419"><ele>152.0</ele><time>2026-03-22T09:58:37.697Z</time></trkpt><trkpt lat="43.4448125" lon="11.1829535"><ele>151.5</ele><time>2026-03-22T09:58:38.669Z</time></trkpt><trkpt lat="43.4448907" lon="11.1829283"><ele>151.0</ele><time>2026-03-22T09:58:39.66Z</time></trkpt><trkpt lat="43.4449694" lon="11.1828741"><ele>148.0</ele><time>2026-03-22T09:58:40.666Z</time></trkpt><trkpt lat="43.4450651" lon="11.1827656"><ele>145.0</ele><time>2026-03-22T09:58:41.666Z</time></trkpt><trkpt lat="43.4451752" lon="11.1826305"><ele>142.0</ele><time>2026-03-22T09:58:42.695Z</time></trkpt><trkpt lat="43.4452772" lon="11.182482"><ele>139.0</ele><time>2026-03-22T09:58:43.669Z</time></trkpt><trkpt lat="43.4453682" lon="11.1823754"><ele>140.4</ele><time>2026-03-22T09:58:44.666Z</time></trkpt><trkpt lat="43.4454395" lon="11.1822712"><ele>141.8</ele><time>2026-03-22T09:58:45.666Z</time></trkpt><trkpt lat="43.4455122" lon="11.1822019"><ele>143.2</ele><time>2026-03-22T09:58:46.67Z</time></trkpt><trkpt lat="43.4455978" lon="11.1821627"><ele>144.6</ele><time>2026-03-22T09:58:47.699Z</time></trkpt><trkpt lat="43.445683" lon="11.1821874"><ele>146.0</ele><time>2026-03-22T09:58:48.669Z</time></trkpt><trkpt lat="43.4457647" lon="11.1822328"><ele>142.5</ele><time>2026-03-22T09:58:49.669Z</time></trkpt><trkpt lat="43.445862" lon="11.1823258"><ele>139.0</ele><time>2026-03-22T09:58:50.666Z</time></trkpt><trkpt lat="43.4459813" lon="11.1824333"><ele>135.5</ele><time>2026-03-22T09:58:51.666Z</time></trkpt><trkpt lat="43.4460881" lon="11.1825393"><ele>132.0</ele><time>2026-03-22T09:58:52.665Z</time></trkpt><trkpt lat="43.4461735" lon="11.1826075"><ele>132.0</ele><time>2026-03-22T09:58:53.668Z</time></trkpt><trkpt lat="43.4462462" lon="11.1826626"><ele>132.0</ele><time>2026-03-22T09:58:54.657Z</time></trkpt><trkpt lat="43.4463503" lon="11.182627"><ele>132.0</ele><time>2026-03-22T09:58:56.663Z</time></trkpt><trkpt lat="43.4463958" lon="11.1824388"><ele>132.0</ele><time>2026-03-22T09:58:58.663Z</time></trkpt><trkpt lat="43.4464385" lon="11.1823261"><ele>132.0</ele><time>2026-03-22T09:58:59.665Z</time></trkpt><trkpt lat="43.4465416" lon="11.182198"><ele>130.66666666666666</ele><time>2026-03-22T09:59:00.665Z</time></trkpt><trkpt lat="43.4467023" lon="11.182053"><ele>129.33333333333331</ele><time>2026-03-22T09:59:01.664Z</time></trkpt><trkpt lat="43.4468812" lon="11.1819037"><ele>128.0</ele><time>2026-03-22T09:59:02.664Z</time></trkpt><trkpt lat="43.4470325" lon="11.1817478"><ele>128.0</ele><time>2026-03-22T09:59:03.667Z</time></trkpt><trkpt lat="43.4471824" lon="11.1815951"><ele>128.0</ele><time>2026-03-22T09:59:04.666Z</time></trkpt><trkpt lat="43.4473299" lon="11.1814402"><ele>128.0</ele><time>2026-03-22T09:59:05.663Z</time></trkpt><trkpt lat="43.4474653" lon="11.1812781"><ele>127.33333333333333</ele><time>2026-03-22T09:59:06.699Z</time></trkpt><trkpt lat="43.4476" lon="11.181123"><ele>126.66666666666666</ele><time>2026-03-22T09:59:07.664Z</time></trkpt><trkpt lat="43.4477379" lon="11.1809706"><ele>126.0</ele><time>2026-03-22T09:59:08.667Z</time></trkpt><trkpt lat="43.4478686" lon="11.1808254"><ele>126.25</ele><time>2026-03-22T09:59:09.653Z</time></trkpt><trkpt lat="43.4479904" lon="11.1806918"><ele>126.5</ele><time>2026-03-22T09:59:10.664Z</time></trkpt><trkpt lat="43.4481006" lon="11.180579"><ele>126.75</ele><time>2026-03-22T09:59:11.669Z</time></trkpt><trkpt lat="43.4482062" lon="11.1804732"><ele>127.0</ele><time>2026-03-22T09:59:12.662Z</time></trkpt><trkpt lat="43.4483043" lon="11.1803945"><ele>127.0</ele><time>2026-03-22T09:59:13.666Z</time></trkpt><trkpt lat="43.4484034" lon="11.1803258"><ele>127.0</ele><time>2026-03-22T09:59:14.676Z</time></trkpt><trkpt lat="43.4485102" lon="11.1802519"><ele>127.0</ele><time>2026-03-22T09:59:15.665Z</time></trkpt><trkpt lat="43.448622" lon="11.1801669"><ele>127.0</ele><time>2026-03-22T09:59:16.669Z</time></trkpt><trkpt lat="43.4487408" lon="11.1800769"><ele>126.5</ele><time>2026-03-22T09:59:17.666Z</time></trkpt><trkpt lat="43.4488648" lon="11.1799935"><ele>126.0</ele><time>2026-03-22T09:59:18.666Z</time></trkpt><trkpt lat="43.4489823" lon="11.1799057"><ele>125.5</ele><time>2026-03-22T09:59:19.663Z</time></trkpt><trkpt lat="43.449104" lon="11.1798052"><ele>125.0</ele><time>2026-03-22T09:59:20.666Z</time></trkpt><trkpt lat="43.4492132" lon="11.1797041"><ele>125.0</ele><time>2026-03-22T09:59:21.69Z</time></trkpt><trkpt lat="43.449313" lon="11.1796206"><ele>125.0</ele><time>2026-03-22T09:59:22.67Z</time></trkpt><trkpt lat="43.4494126" lon="11.1795596"><ele>125.0</ele><time>2026-03-22T09:59:23.667Z</time></trkpt><trkpt lat="43.4495378" lon="11.1795247"><ele>125.0</ele><time>2026-03-22T09:59:24.668Z</time></trkpt><trkpt lat="43.4496808" lon="11.1794965"><ele>125.25</ele><time>2026-03-22T09:59:25.66Z</time></trkpt><trkpt lat="43.4498274" lon="11.1794728"><ele>125.5</ele><time>2026-03-22T09:59:26.673Z</time></trkpt><trkpt lat="43.4499672" lon="11.1794364"><ele>125.75</ele><time>2026-03-22T09:59:27.671Z</time></trkpt><trkpt lat="43.450105" lon="11.179372"><ele>126.0</ele><time>2026-03-22T09:59:28.67Z</time></trkpt><trkpt lat="43.4502333" lon="11.179277"><ele>126.0</ele><time>2026-03-22T09:59:29.664Z</time></trkpt><trkpt lat="43.4503496" lon="11.1791705"><ele>126.0</ele><time>2026-03-22T09:59:30.665Z</time></trkpt><trkpt lat="43.4504628" lon="11.1790642"><ele>126.0</ele><time>2026-03-22T09:59:31.665Z</time></trkpt><trkpt lat="43.4505639" lon="11.1789658"><ele>126.0</ele><time>2026-03-22T09:59:32.673Z</time></trkpt><trkpt lat="43.4506584" lon="11.1788765"><ele>126.0</ele><time>2026-03-22T09:59:33.67Z</time></trkpt><trkpt lat="43.4507291" lon="11.1788027"><ele>126.0</ele><time>2026-03-22T09:59:34.686Z</time></trkpt><trkpt lat="43.450824" lon="11.1787769"><ele>126.0</ele><time>2026-03-22T09:59:36.668Z</time></trkpt><trkpt lat="43.450923" lon="11.1787138"><ele>126.0</ele><time>2026-03-22T09:59:39.702Z</time></trkpt><trkpt lat="43.4509827" lon="11.1786221"><ele>126.0</ele><time>2026-03-22T09:59:40.666Z</time></trkpt><trkpt lat="43.4510744" lon="11.1785179"><ele>126.0</ele><time>2026-03-22T09:59:41.667Z</time></trkpt><trkpt lat="43.4511906" lon="11.178403"><ele>126.0</ele><time>2026-03-22T09:59:42.662Z</time></trkpt><trkpt lat="43.4513245" lon="11.1783087"><ele>126.0</ele><time>2026-03-22T09:59:43.667Z</time></trkpt><trkpt lat="43.4514434" lon="11.1782304"><ele>126.0</ele><time>2026-03-22T09:59:44.7Z</time></trkpt><trkpt lat="43.4515544" lon="11.1781951"><ele>126.25</ele><time>2026-03-22T09:59:45.664Z</time></trkpt><trkpt lat="43.4516612" lon="11.1781968"><ele>126.5</ele><time>2026-03-22T09:59:46.699Z</time></trkpt><trkpt lat="43.4517692" lon="11.1782131"><ele>126.75</ele><time>2026-03-22T09:59:47.66Z</time></trkpt><trkpt lat="43.4518852" lon="11.1782549"><ele>127.0</ele><time>2026-03-22T09:59:48.669Z</time></trkpt><trkpt lat="43.4519981" lon="11.1783507"><ele>127.0</ele><time>2026-03-22T09:59:49.663Z</time></trkpt><trkpt lat="43.4520947" lon="11.1784803"><ele>127.0</ele><time>2026-03-22T09:59:50.666Z</time></trkpt><trkpt lat="43.4521852" lon="11.1785906"><ele>127.0</ele><time>2026-03-22T09:59:51.667Z</time></trkpt><trkpt lat="43.4522698" lon="11.1786687"><ele>127.0</ele><time>2026-03-22T09:59:52.666Z</time></trkpt><trkpt lat="43.4523642" lon="11.1787145"><ele>127.0</ele><time>2026-03-22T09:59:53.668Z</time></trkpt><trkpt lat="43.4524632" lon="11.1787231"><ele>127.0</ele><time>2026-03-22T09:59:54.668Z</time></trkpt><trkpt lat="43.4525685" lon="11.1786794"><ele>127.0</ele><time>2026-03-22T09:59:55.664Z</time></trkpt><trkpt lat="43.4526722" lon="11.1785974"><ele>127.0</ele><time>2026-03-22T09:59:56.66Z</time></trkpt><trkpt lat="43.4527811" lon="11.1784833"><ele>127.0</ele><time>2026-03-22T09:59:57.669Z</time></trkpt><trkpt lat="43.4528949" lon="11.1783339"><ele>127.0</ele><time>2026-03-22T09:59:58.666Z</time></trkpt><trkpt lat="43.4530203" lon="11.1781877"><ele>127.0</ele><time>2026-03-22T09:59:59.723Z</time></trkpt><trkpt lat="43.4531513" lon="11.1780371"><ele>128.66666666666669</ele><time>2026-03-22T10:00:00.668Z</time></trkpt><trkpt lat="43.4532764" lon="11.1778926"><ele>130.33333333333334</ele><time>2026-03-22T10:00:01.663Z</time></trkpt><trkpt lat="43.4533983" lon="11.1777519"><ele>132.0</ele><time>2026-03-22T10:00:02.665Z</time></trkpt><trkpt lat="43.4535295" lon="11.177626"><ele>132.0</ele><time>2026-03-22T10:00:03.666Z</time></trkpt><trkpt lat="43.4536585" lon="11.1774996"><ele>132.0</ele><time>2026-03-22T10:00:04.664Z</time></trkpt><trkpt lat="43.4537961" lon="11.1773862"><ele>132.0</ele><time>2026-03-22T10:00:05.666Z</time></trkpt><trkpt lat="43.4539367" lon="11.1772783"><ele>134.25</ele><time>2026-03-22T10:00:06.691Z</time></trkpt><trkpt lat="43.4540743" lon="11.1771868"><ele>136.5</ele><time>2026-03-22T10:00:07.661Z</time></trkpt><trkpt lat="43.4542094" lon="11.1771091"><ele>138.75</ele><time>2026-03-22T10:00:08.671Z</time></trkpt><trkpt lat="43.4543351" lon="11.177042"><ele>141.0</ele><time>2026-03-22T10:00:09.668Z</time></trkpt><trkpt lat="43.4544422" lon="11.1769908"><ele>141.0</ele><time>2026-03-22T10:00:10.665Z</time></trkpt><trkpt lat="43.4545319" lon="11.1769503"><ele>141.0</ele><time>2026-03-22T10:00:11.662Z</time></trkpt><trkpt lat="43.4546135" lon="11.1768996"><ele>141.0</ele><time>2026-03-22T10:00:12.692Z</time></trkpt><trkpt lat="43.4546785" lon="11.1768461"><ele>141.0</ele><time>2026-03-22T10:00:13.666Z</time></trkpt><trkpt lat="43.4547696" lon="11.1767842"><ele>141.0</ele><time>2026-03-22T10:00:15.671Z</time></trkpt><trkpt lat="43.4548204" lon="11.1769251"><ele>142.25</ele><time>2026-03-22T10:00:18.692Z</time></trkpt><trkpt lat="43.4548287" lon="11.1770804"><ele>143.5</ele><time>2026-03-22T10:00:19.666Z</time></trkpt><trkpt lat="43.454833" lon="11.1772716"><ele>144.75</ele><time>2026-03-22T10:00:20.67Z</time></trkpt><trkpt lat="43.4548433" lon="11.177488"><ele>146.0</ele><time>2026-03-22T10:00:21.669Z</time></trkpt><trkpt lat="43.4548414" lon="11.177695"><ele>147.0</ele><time>2026-03-22T10:00:22.668Z</time></trkpt><trkpt lat="43.4548346" lon="11.1779052"><ele>148.0</ele><time>2026-03-22T10:00:23.686Z</time></trkpt><trkpt lat="43.4548173" lon="11.1781025"><ele>149.0</ele><time>2026-03-22T10:00:24.661Z</time></trkpt><trkpt lat="43.454795" lon="11.1782944"><ele>150.0</ele><time>2026-03-22T10:00:25.673Z</time></trkpt><trkpt lat="43.4547854" lon="11.1784834"><ele>150.75</ele><time>2026-03-22T10:00:26.667Z</time></trkpt><trkpt lat="43.4547829" lon="11.1786511"><ele>151.5</ele><time>2026-03-22T10:00:27.669Z</time></trkpt><trkpt lat="43.4548105" lon="11.1788076"><ele>152.25</ele><time>2026-03-22T10:00:28.665Z</time></trkpt><trkpt lat="43.4548669" lon="11.1789726"><ele>153.0</ele><time>2026-03-22T10:00:29.666Z</time></trkpt><trkpt lat="43.4549309" lon="11.179137"><ele>153.75</ele><time>2026-03-22T10:00:30.67Z</time></trkpt><trkpt lat="43.4549956" lon="11.1792939"><ele>154.5</ele><time>2026-03-22T10:00:31.665Z</time></trkpt><trkpt lat="43.4550685" lon="11.1794588"><ele>155.25</ele><time>2026-03-22T10:00:32.669Z</time></trkpt><trkpt lat="43.4551369" lon="11.1796183"><ele>156.0</ele><time>2026-03-22T10:00:33.667Z</time></trkpt><trkpt lat="43.4552077" lon="11.1797707"><ele>156.25</ele><time>2026-03-22T10:00:34.669Z</time></trkpt><trkpt lat="43.4552681" lon="11.1799208"><ele>156.5</ele><time>2026-03-22T10:00:35.665Z</time></trkpt><trkpt lat="43.4553335" lon="11.1800769"><ele>156.75</ele><time>2026-03-22T10:00:36.669Z</time></trkpt><trkpt lat="43.4554027" lon="11.1802312"><ele>157.0</ele><time>2026-03-22T10:00:37.667Z</time></trkpt><trkpt lat="43.455473" lon="11.1803854"><ele>157.5</ele><time>2026-03-22T10:00:38.686Z</time></trkpt><trkpt lat="43.4555417" lon="11.1805418"><ele>158.0</ele><time>2026-03-22T10:00:39.671Z</time></trkpt><trkpt lat="43.455612" lon="11.1806977"><ele>158.5</ele><time>2026-03-22T10:00:40.669Z</time></trkpt><trkpt lat="43.4556851" lon="11.1808494"><ele>159.0</ele><time>2026-03-22T10:00:41.665Z</time></trkpt><trkpt lat="43.4557615" lon="11.1809944"><ele>159.0</ele><time>2026-03-22T10:00:42.673Z</time></trkpt><trkpt lat="43.4558437" lon="11.1811314"><ele>159.0</ele><time>2026-03-22T10:00:43.667Z</time></trkpt><trkpt lat="43.4559252" lon="11.1812767"><ele>159.0</ele><time>2026-03-22T10:00:44.664Z</time></trkpt><trkpt lat="43.4560108" lon="11.1814255"><ele>159.0</ele><time>2026-03-22T10:00:45.666Z</time></trkpt><trkpt lat="43.4561041" lon="11.1815617"><ele>159.0</ele><time>2026-03-22T10:00:46.668Z</time></trkpt><trkpt lat="43.4561948" lon="11.1816991"><ele>159.0</ele><time>2026-03-22T10:00:47.668Z</time></trkpt><trkpt lat="43.4562872" lon="11.1818353"><ele>159.0</ele><time>2026-03-22T10:00:48.664Z</time></trkpt><trkpt lat="43.4563787" lon="11.1819749"><ele>159.0</ele><time>2026-03-22T10:00:49.693Z</time></trkpt><trkpt lat="43.4564753" lon="11.1821042"><ele>160.5</ele><time>2026-03-22T10:00:50.668Z</time></trkpt><trkpt lat="43.4565716" lon="11.1822404"><ele>162.0</ele><time>2026-03-22T10:00:51.664Z</time></trkpt><trkpt lat="43.456672" lon="11.1823693"><ele>163.5</ele><time>2026-03-22T10:00:52.668Z</time></trkpt><trkpt lat="43.4567737" lon="11.1824899"><ele>165.0</ele><time>2026-03-22T10:00:53.664Z</time></trkpt><trkpt lat="43.456869" lon="11.1826154"><ele>165.0</ele><time>2026-03-22T10:00:54.689Z</time></trkpt><trkpt lat="43.4569612" lon="11.1827336"><ele>165.0</ele><time>2026-03-22T10:00:55.662Z</time></trkpt><trkpt lat="43.4570579" lon="11.1828559"><ele>165.0</ele><time>2026-03-22T10:00:56.668Z</time></trkpt><trkpt lat="43.4571513" lon="11.1829781"><ele>165.0</ele><time>2026-03-22T10:00:57.664Z</time></trkpt><trkpt lat="43.457248" lon="11.1830993"><ele>166.75</ele><time>2026-03-22T10:00:58.666Z</time></trkpt><trkpt lat="43.4573461" lon="11.1832132"><ele>168.5</ele><time>2026-03-22T10:00:59.667Z</time></trkpt><trkpt lat="43.4574385" lon="11.1833206"><ele>170.25</ele><time>2026-03-22T10:01:00.706Z</time></trkpt><trkpt lat="43.4575255" lon="11.1834182"><ele>172.0</ele><time>2026-03-22T10:01:01.659Z</time></trkpt><trkpt lat="43.457611" lon="11.1835235"><ele>172.0</ele><time>2026-03-22T10:01:02.67Z</time></trkpt><trkpt lat="43.4576889" lon="11.1836426"><ele>172.0</ele><time>2026-03-22T10:01:03.672Z</time></trkpt><trkpt lat="43.4577617" lon="11.1837705"><ele>172.0</ele><time>2026-03-22T10:01:04.667Z</time></trkpt><trkpt lat="43.4578335" lon="11.1839003"><ele>172.0</ele><time>2026-03-22T10:01:05.696Z</time></trkpt><trkpt lat="43.4579035" lon="11.1840372"><ele>172.5</ele><time>2026-03-22T10:01:06.662Z</time></trkpt><trkpt lat="43.4579777" lon="11.1841731"><ele>173.0</ele><time>2026-03-22T10:01:07.667Z</time></trkpt><trkpt lat="43.4580599" lon="11.1843046"><ele>173.5</ele><time>2026-03-22T10:01:08.666Z</time></trkpt><trkpt lat="43.4581518" lon="11.1844336"><ele>174.0</ele><time>2026-03-22T10:01:09.67Z</time></trkpt><trkpt lat="43.4582486" lon="11.1845527"><ele>174.0</ele><time>2026-03-22T10:01:10.68Z</time></trkpt><trkpt lat="43.4583388" lon="11.1846436"><ele>174.0</ele><time>2026-03-22T10:01:11.662Z</time></trkpt><trkpt lat="43.4584326" lon="11.1847279"><ele>174.0</ele><time>2026-03-22T10:01:12.668Z</time></trkpt><trkpt lat="43.458533" lon="11.1848127"><ele>174.0</ele><time>2026-03-22T10:01:13.668Z</time></trkpt><trkpt lat="43.4586331" lon="11.1848932"><ele>174.75</ele><time>2026-03-22T10:01:14.669Z</time></trkpt><trkpt lat="43.4587414" lon="11.1849721"><ele>175.5</ele><time>2026-03-22T10:01:15.67Z</time></trkpt><trkpt lat="43.4588461" lon="11.1850564"><ele>176.25</ele><time>2026-03-22T10:01:16.668Z</time></trkpt><trkpt lat="43.4589531" lon="11.1851443"><ele>177.0</ele><time>2026-03-22T10:01:17.671Z</time></trkpt><trkpt lat="43.4590461" lon="11.1852509"><ele>178.0</ele><time>2026-03-22T10:01:18.672Z</time></trkpt><trkpt lat="43.4591311" lon="11.1853807"><ele>179.0</ele><time>2026-03-22T10:01:19.664Z</time></trkpt><trkpt lat="43.4592123" lon="11.1855165"><ele>180.0</ele><time>2026-03-22T10:01:20.668Z</time></trkpt><trkpt lat="43.4593022" lon="11.1856517"><ele>181.0</ele><time>2026-03-22T10:01:21.669Z</time></trkpt><trkpt lat="43.459388" lon="11.1857804"><ele>181.75</ele><time>2026-03-22T10:01:22.664Z</time></trkpt><trkpt lat="43.4594668" lon="11.1859009"><ele>182.5</ele><time>2026-03-22T10:01:23.667Z</time></trkpt><trkpt lat="43.4595398" lon="11.1860193"><ele>183.25</ele><time>2026-03-22T10:01:24.665Z</time></trkpt><trkpt lat="43.459623" lon="11.1861341"><ele>184.0</ele><time>2026-03-22T10:01:25.686Z</time></trkpt><trkpt lat="43.4597062" lon="11.1862508"><ele>184.39999999999998</ele><time>2026-03-22T10:01:26.667Z</time></trkpt><trkpt lat="43.4597851" lon="11.1863648"><ele>184.8</ele><time>2026-03-22T10:01:27.662Z</time></trkpt><trkpt lat="43.4598589" lon="11.1864664"><ele>185.2</ele><time>2026-03-22T10:01:28.666Z</time></trkpt><trkpt lat="43.4599415" lon="11.1865492"><ele>185.60000000000002</ele><time>2026-03-22T10:01:29.661Z</time></trkpt><trkpt lat="43.4600316" lon="11.1866141"><ele>186.0</ele><time>2026-03-22T10:01:30.665Z</time></trkpt><trkpt lat="43.4601351" lon="11.1866621"><ele>187.4</ele><time>2026-03-22T10:01:31.667Z</time></trkpt><trkpt lat="43.4602355" lon="11.1867081"><ele>188.8</ele><time>2026-03-22T10:01:32.669Z</time></trkpt><trkpt lat="43.4603402" lon="11.1867468"><ele>190.20000000000002</ele><time>2026-03-22T10:01:33.666Z</time></trkpt><trkpt lat="43.4604467" lon="11.1867896"><ele>191.60000000000002</ele><time>2026-03-22T10:01:34.686Z</time></trkpt><trkpt lat="43.460554" lon="11.1868213"><ele>193.0</ele><time>2026-03-22T10:01:35.67Z</time></trkpt><trkpt lat="43.4606626" lon="11.1868407"><ele>194.5</ele><time>2026-03-22T10:01:36.663Z</time></trkpt><trkpt lat="43.4607922" lon="11.1868465"><ele>196.0</ele><time>2026-03-22T10:01:37.666Z</time></trkpt><trkpt lat="43.4609162" lon="11.1868662"><ele>197.5</ele><time>2026-03-22T10:01:38.668Z</time></trkpt><trkpt lat="43.4610397" lon="11.1868807"><ele>199.0</ele><time>2026-03-22T10:01:39.664Z</time></trkpt><trkpt lat="43.461159" lon="11.1869092"><ele>199.0</ele><time>2026-03-22T10:01:40.668Z</time></trkpt><trkpt lat="43.4612741" lon="11.1869465"><ele>199.0</ele><time>2026-03-22T10:01:41.668Z</time></trkpt><trkpt lat="43.4613901" lon="11.1869842"><ele>199.0</ele><time>2026-03-22T10:01:42.664Z</time></trkpt><trkpt lat="43.4614975" lon="11.1870388"><ele>199.0</ele><time>2026-03-22T10:01:43.67Z</time></trkpt><trkpt lat="43.4616087" lon="11.1871071"><ele>199.5</ele><time>2026-03-22T10:01:44.658Z</time></trkpt><trkpt lat="43.4617126" lon="11.1871813"><ele>200.0</ele><time>2026-03-22T10:01:45.661Z</time></trkpt><trkpt lat="43.461823" lon="11.187257"><ele>200.5</ele><time>2026-03-22T10:01:46.67Z</time></trkpt><trkpt lat="43.4619308" lon="11.1873311"><ele>201.0</ele><time>2026-03-22T10:01:47.666Z</time></trkpt><trkpt lat="43.4620387" lon="11.1874076"><ele>203.4</ele><time>2026-03-22T10:01:48.69Z</time></trkpt><trkpt lat="43.4621455" lon="11.1874784"><ele>205.8</ele><time>2026-03-22T10:01:49.668Z</time></trkpt><trkpt lat="43.4622498" lon="11.1875379"><ele>208.20000000000002</ele><time>2026-03-22T10:01:50.663Z</time></trkpt><trkpt lat="43.462349" lon="11.187579"><ele>210.60000000000002</ele><time>2026-03-22T10:01:51.669Z</time></trkpt><trkpt lat="43.462445" lon="11.1876032"><ele>213.0</ele><time>2026-03-22T10:01:52.671Z</time></trkpt><trkpt lat="43.4625394" lon="11.1876413"><ele>213.0</ele><time>2026-03-22T10:01:53.703Z</time></trkpt><trkpt lat="43.4626298" lon="11.1877144"><ele>213.0</ele><time>2026-03-22T10:01:54.666Z</time></trkpt><trkpt lat="43.4627106" lon="11.1877937"><ele>213.0</ele><time>2026-03-22T10:01:55.666Z</time></trkpt><trkpt lat="43.46278" lon="11.1879006"><ele>213.0</ele><time>2026-03-22T10:01:56.666Z</time></trkpt><trkpt lat="43.4628297" lon="11.1880125"><ele>213.0</ele><time>2026-03-22T10:01:57.663Z</time></trkpt><trkpt lat="43.4628712" lon="11.1881398"><ele>214.8</ele><time>2026-03-22T10:01:58.668Z</time></trkpt><trkpt lat="43.4629268" lon="11.1882571"><ele>216.60000000000002</ele><time>2026-03-22T10:01:59.664Z</time></trkpt><trkpt lat="43.4629955" lon="11.1883716"><ele>218.39999999999998</ele><time>2026-03-22T10:02:00.67Z</time></trkpt><trkpt lat="43.4630721" lon="11.1884822"><ele>220.2</ele><time>2026-03-22T10:02:01.666Z</time></trkpt><trkpt lat="43.4631532" lon="11.1885904"><ele>222.0</ele><time>2026-03-22T10:02:02.685Z</time></trkpt><trkpt lat="43.4632319" lon="11.1886879"><ele>222.0</ele><time>2026-03-22T10:02:03.667Z</time></trkpt><trkpt lat="43.4633156" lon="11.1887876"><ele>222.0</ele><time>2026-03-22T10:02:04.697Z</time></trkpt><trkpt lat="43.4633986" lon="11.1888744"><ele>222.0</ele><time>2026-03-22T10:02:05.667Z</time></trkpt><trkpt lat="43.463483" lon="11.1889574"><ele>222.0</ele><time>2026-03-22T10:02:06.668Z</time></trkpt><trkpt lat="43.4635597" lon="11.1890264"><ele>222.0</ele><time>2026-03-22T10:02:07.671Z</time></trkpt><trkpt lat="43.4636357" lon="11.1890933"><ele>223.16666666666666</ele><time>2026-03-22T10:02:08.666Z</time></trkpt><trkpt lat="43.4636986" lon="11.1891437"><ele>224.33333333333331</ele><time>2026-03-22T10:02:09.665Z</time></trkpt><trkpt lat="43.4637827" lon="11.1892031"><ele>225.5</ele><time>2026-03-22T10:02:11.664Z</time></trkpt><trkpt lat="43.4638372" lon="11.1892651"><ele>226.66666666666666</ele><time>2026-03-22T10:02:13.662Z</time></trkpt><trkpt lat="43.4638824" lon="11.1893285"><ele>227.83333333333331</ele><time>2026-03-22T10:02:16.665Z</time></trkpt><trkpt lat="43.4639411" lon="11.1894074"><ele>229.0</ele><time>2026-03-22T10:02:18.665Z</time></trkpt><trkpt lat="43.4639801" lon="11.1895112"><ele>228.99999999999997</ele><time>2026-03-22T10:02:21.665Z</time></trkpt><trkpt lat="43.4640157" lon="11.1895961"><ele>229.0</ele><time>2026-03-22T10:02:23.669Z</time></trkpt><trkpt lat="43.4640626" lon="11.1896757"><ele>229.0</ele><time>2026-03-22T10:02:24.666Z</time></trkpt><trkpt lat="43.4641035" lon="11.1897676"><ele>229.0</ele><time>2026-03-22T10:02:25.668Z</time></trkpt><trkpt lat="43.4641476" lon="11.1898699"><ele>228.99999999999997</ele><time>2026-03-22T10:02:26.664Z</time></trkpt><trkpt lat="43.4641993" lon="11.1899702"><ele>229.0</ele><time>2026-03-22T10:02:27.671Z</time></trkpt><trkpt lat="43.4642514" lon="11.1900653"><ele>229.16666666666666</ele><time>2026-03-22T10:02:28.671Z</time></trkpt><trkpt lat="43.4642972" lon="11.1901677"><ele>229.33333333333331</ele><time>2026-03-22T10:02:29.702Z</time></trkpt><trkpt lat="43.4643365" lon="11.1902542"><ele>229.5</ele><time>2026-03-22T10:02:30.669Z</time></trkpt><trkpt lat="43.4643672" lon="11.1903392"><ele>229.66666666666669</ele><time>2026-03-22T10:02:31.67Z</time></trkpt><trkpt lat="43.4644102" lon="11.1904417"><ele>229.83333333333334</ele><time>2026-03-22T10:02:32.688Z</time></trkpt><trkpt lat="43.4644631" lon="11.190534"><ele>230.0</ele><time>2026-03-22T10:02:33.669Z</time></trkpt><trkpt lat="43.4645104" lon="11.1906249"><ele>230.16666666666669</ele><time>2026-03-22T10:02:34.7Z</time></trkpt><trkpt lat="43.4645502" lon="11.1907097"><ele>230.33333333333334</ele><time>2026-03-22T10:02:35.668Z</time></trkpt><trkpt lat="43.4645891" lon="11.1907911"><ele>230.5</ele><time>2026-03-22T10:02:36.668Z</time></trkpt><trkpt lat="43.4646299" lon="11.190873"><ele>230.66666666666669</ele><time>2026-03-22T10:02:37.665Z</time></trkpt><trkpt lat="43.4646647" lon="11.1909596"><ele>230.83333333333334</ele><time>2026-03-22T10:02:38.67Z</time></trkpt><trkpt lat="43.4647065" lon="11.1910275"><ele>231.0</ele><time>2026-03-22T10:02:40.67Z</time></trkpt><trkpt lat="43.4647951" lon="11.1909732"><ele>231.0</ele><time>2026-03-22T10:02:43.669Z</time></trkpt><trkpt lat="43.4648682" lon="11.1908766"><ele>231.00000000000003</ele><time>2026-03-22T10:02:45.662Z</time></trkpt><trkpt lat="43.4649362" lon="11.1908411"><ele>231.00000000000003</ele><time>2026-03-22T10:02:47.682Z</time></trkpt><trkpt lat="43.4650367" lon="11.1909357"><ele>231.0</ele><time>2026-03-22T10:02:49.67Z</time></trkpt><trkpt lat="43.4651155" lon="11.1909882"><ele>231.0</ele><time>2026-03-22T10:02:50.671Z</time></trkpt><trkpt lat="43.4652144" lon="11.1910325"><ele>231.0</ele><time>2026-03-22T10:02:51.659Z</time></trkpt><trkpt lat="43.465312" lon="11.1910507"><ele>231.0</ele><time>2026-03-22T10:02:52.662Z</time></trkpt><trkpt lat="43.4654023" lon="11.1910642"><ele>231.0</ele><time>2026-03-22T10:02:53.665Z</time></trkpt><trkpt lat="43.4654851" lon="11.1910776"><ele>231.0</ele><time>2026-03-22T10:02:54.668Z</time></trkpt><trkpt lat="43.4655568" lon="11.1910978"><ele>231.0</ele><time>2026-03-22T10:02:55.667Z</time></trkpt><trkpt lat="43.4656255" lon="11.1911139"><ele>231.0</ele><time>2026-03-22T10:02:56.691Z</time></trkpt><trkpt lat="43.4656953" lon="11.1911242"><ele>231.28571428571428</ele><time>2026-03-22T10:02:57.666Z</time></trkpt><trkpt lat="43.4657614" lon="11.191128"><ele>231.57142857142856</ele><time>2026-03-22T10:02:58.671Z</time></trkpt><trkpt lat="43.4658264" lon="11.1911361"><ele>231.85714285714286</ele><time>2026-03-22T10:02:59.667Z</time></trkpt><trkpt lat="43.4658975" lon="11.1911476"><ele>232.14285714285714</ele><time>2026-03-22T10:03:00.67Z</time></trkpt><trkpt lat="43.4659773" lon="11.1911519"><ele>232.42857142857142</ele><time>2026-03-22T10:03:01.667Z</time></trkpt><trkpt lat="43.4660472" lon="11.1911297"><ele>232.71428571428572</ele><time>2026-03-22T10:03:02.67Z</time></trkpt><trkpt lat="43.466113" lon="11.1911014"><ele>233.0</ele><time>2026-03-22T10:03:03.667Z</time></trkpt><trkpt lat="43.4661906" lon="11.1910797"><ele>233.00000000000003</ele><time>2026-03-22T10:03:04.672Z</time></trkpt><trkpt lat="43.4662546" lon="11.1910924"><ele>233.0</ele><time>2026-03-22T10:03:05.665Z</time></trkpt><trkpt lat="43.4663264" lon="11.1911159"><ele>233.0</ele><time>2026-03-22T10:03:06.665Z</time></trkpt><trkpt lat="43.4664098" lon="11.1911453"><ele>233.0</ele><time>2026-03-22T10:03:07.682Z</time></trkpt><trkpt lat="43.4664843" lon="11.1911864"><ele>233.00000000000003</ele><time>2026-03-22T10:03:08.67Z</time></trkpt><trkpt lat="43.4665585" lon="11.1912263"><ele>233.0</ele><time>2026-03-22T10:03:09.665Z</time></trkpt><trkpt lat="43.4666331" lon="11.1912737"><ele>233.00000000000003</ele><time>2026-03-22T10:03:10.667Z</time></trkpt><trkpt lat="43.4667067" lon="11.1913361"><ele>233.0</ele><time>2026-03-22T10:03:11.665Z</time></trkpt><trkpt lat="43.4667716" lon="11.1914096"><ele>233.0</ele><time>2026-03-22T10:03:12.665Z</time></trkpt><trkpt lat="43.4668305" lon="11.1914993"><ele>233.0</ele><time>2026-03-22T10:03:13.671Z</time></trkpt><trkpt lat="43.4668741" lon="11.1915962"><ele>233.00000000000003</ele><time>2026-03-22T10:03:14.663Z</time></trkpt><trkpt lat="43.4669093" lon="11.1916991"><ele>233.0</ele><time>2026-03-22T10:03:15.664Z</time></trkpt><trkpt lat="43.466943" lon="11.191814"><ele>233.0</ele><time>2026-03-22T10:03:16.67Z</time></trkpt><trkpt lat="43.4669833" lon="11.1919394"><ele>233.0</ele><time>2026-03-22T10:03:17.669Z</time></trkpt><trkpt lat="43.4670171" lon="11.1920755"><ele>233.0</ele><time>2026-03-22T10:03:18.667Z</time></trkpt><trkpt lat="43.4670432" lon="11.1922171"><ele>233.0</ele><time>2026-03-22T10:03:19.665Z</time></trkpt><trkpt lat="43.4670769" lon="11.1923582"><ele>233.0</ele><time>2026-03-22T10:03:20.688Z</time></trkpt><trkpt lat="43.467112" lon="11.1925167"><ele>226.75</ele><time>2026-03-22T10:03:21.665Z</time></trkpt><trkpt lat="43.4671527" lon="11.1926829"><ele>220.5</ele><time>2026-03-22T10:03:22.668Z</time></trkpt><trkpt lat="43.4671981" lon="11.1928385"><ele>214.25</ele><time>2026-03-22T10:03:23.667Z</time></trkpt><trkpt lat="43.4672356" lon="11.192976"><ele>208.0</ele><time>2026-03-22T10:03:24.669Z</time></trkpt><trkpt lat="43.4672778" lon="11.1931072"><ele>208.49999999999997</ele><time>2026-03-22T10:03:25.665Z</time></trkpt><trkpt lat="43.4673291" lon="11.1932207"><ele>209.0</ele><time>2026-03-22T10:03:26.668Z</time></trkpt><trkpt lat="43.4673822" lon="11.1933336"><ele>209.5</ele><time>2026-03-22T10:03:27.652Z</time></trkpt><trkpt lat="43.4674336" lon="11.1934242"><ele>210.0</ele><time>2026-03-22T10:03:28.67Z</time></trkpt><trkpt lat="43.4674797" lon="11.1935311"><ele>210.49999999999997</ele><time>2026-03-22T10:03:29.671Z</time></trkpt><trkpt lat="43.4675172" lon="11.1936233"><ele>211.0</ele><time>2026-03-22T10:03:30.667Z</time></trkpt><trkpt lat="43.4675529" lon="11.1937013"><ele>210.99999999999997</ele><time>2026-03-22T10:03:31.666Z</time></trkpt><trkpt lat="43.4676278" lon="11.1937934"><ele>211.0</ele><time>2026-03-22T10:03:33.659Z</time></trkpt><trkpt lat="43.4677587" lon="11.1937648"><ele>211.0</ele><time>2026-03-22T10:03:35.665Z</time></trkpt><trkpt lat="43.4678319" lon="11.193755"><ele>211.0</ele><time>2026-03-22T10:03:36.666Z</time></trkpt><trkpt lat="43.4678949" lon="11.193741"><ele>210.99999999999997</ele><time>2026-03-22T10:03:37.668Z</time></trkpt><trkpt lat="43.467959" lon="11.1937314"><ele>211.0</ele><time>2026-03-22T10:03:38.666Z</time></trkpt><trkpt lat="43.4680241" lon="11.1937283"><ele>206.25</ele><time>2026-03-22T10:03:39.662Z</time></trkpt><trkpt lat="43.4681334" lon="11.1936945"><ele>201.5</ele><time>2026-03-22T10:03:41.666Z</time></trkpt><trkpt lat="43.4681627" lon="11.1935758"><ele>196.75</ele><time>2026-03-22T10:03:43.667Z</time></trkpt><trkpt lat="43.4681492" lon="11.1934078"><ele>192.0</ele><time>2026-03-22T10:03:45.692Z</time></trkpt><trkpt lat="43.4681524" lon="11.1932315"><ele>192.8</ele><time>2026-03-22T10:03:47.663Z</time></trkpt><trkpt lat="43.4681609" lon="11.1930741"><ele>193.6</ele><time>2026-03-22T10:03:49.663Z</time></trkpt><trkpt lat="43.4681593" lon="11.1929342"><ele>194.4</ele><time>2026-03-22T10:03:51.664Z</time></trkpt><trkpt lat="43.4681589" lon="11.1928114"><ele>195.20000000000002</ele><time>2026-03-22T10:03:53.666Z</time></trkpt><trkpt lat="43.4681585" lon="11.1926942"><ele>196.0</ele><time>2026-03-22T10:03:55.671Z</time></trkpt><trkpt lat="43.4681803" lon="11.1925988"><ele>196.0</ele><time>2026-03-22T10:03:57.662Z</time></trkpt><trkpt lat="43.4682422" lon="11.1925484"><ele>196.0</ele><time>2026-03-22T10:03:59.667Z</time></trkpt><trkpt lat="43.4682965" lon="11.1924863"><ele>196.0</ele><time>2026-03-22T10:04:01.658Z</time></trkpt><trkpt lat="43.468355" lon="11.1924281"><ele>196.0</ele><time>2026-03-22T10:04:03.673Z</time></trkpt><trkpt lat="43.4683811" lon="11.1923294"><ele>196.0</ele><time>2026-03-22T10:04:06.667Z</time></trkpt><trkpt lat="43.4683557" lon="11.1922171"><ele>196.0</ele><time>2026-03-22T10:04:08.665Z</time></trkpt><trkpt lat="43.4683446" lon="11.1921271"><ele>196.0</ele><time>2026-03-22T10:04:09.671Z</time></trkpt><trkpt lat="43.4683253" lon="11.1920206"><ele>195.33333333333331</ele><time>2026-03-22T10:04:10.662Z</time></trkpt><trkpt lat="43.4683038" lon="11.1919246"><ele>194.66666666666666</ele><time>2026-03-22T10:04:11.705Z</time></trkpt><trkpt lat="43.4682663" lon="11.1917882"><ele>194.0</ele><time>2026-03-22T10:04:13.663Z</time></trkpt><trkpt lat="43.4682275" lon="11.1916278"><ele>193.33333333333331</ele><time>2026-03-22T10:04:15.665Z</time></trkpt><trkpt lat="43.4682033" lon="11.1915356"><ele>192.66666666666666</ele><time>2026-03-22T10:04:16.668Z</time></trkpt><trkpt lat="43.4681813" lon="11.1914447"><ele>192.0</ele><time>2026-03-22T10:04:17.668Z</time></trkpt><trkpt lat="43.4681613" lon="11.1913537"><ele>191.28571428571428</ele><time>2026-03-22T10:04:18.662Z</time></trkpt><trkpt lat="43.4681442" lon="11.1912669"><ele>190.57142857142856</ele><time>2026-03-22T10:04:19.692Z</time></trkpt><trkpt lat="43.4681192" lon="11.1911725"><ele>189.85714285714283</ele><time>2026-03-22T10:04:20.665Z</time></trkpt><trkpt lat="43.4680931" lon="11.1910699"><ele>189.14285714285714</ele><time>2026-03-22T10:04:21.664Z</time></trkpt><trkpt lat="43.4680686" lon="11.1909686"><ele>188.42857142857144</ele><time>2026-03-22T10:04:22.663Z</time></trkpt><trkpt lat="43.4680439" lon="11.1908726"><ele>187.7142857142857</ele><time>2026-03-22T10:04:23.668Z</time></trkpt><trkpt lat="43.4680246" lon="11.1907894"><ele>187.0</ele><time>2026-03-22T10:04:24.667Z</time></trkpt><trkpt lat="43.4679964" lon="11.1906485"><ele>186.2</ele><time>2026-03-22T10:04:26.67Z</time></trkpt><trkpt lat="43.4679809" lon="11.1905642"><ele>185.39999999999998</ele><time>2026-03-22T10:04:28.67Z</time></trkpt><trkpt lat="43.4680611" lon="11.1904804"><ele>184.60000000000002</ele><time>2026-03-22T10:04:31.667Z</time></trkpt><trkpt lat="43.468163" lon="11.1904131"><ele>183.8</ele><time>2026-03-22T10:04:33.664Z</time></trkpt><trkpt lat="43.4682537" lon="11.1903333"><ele>183.0</ele><time>2026-03-22T10:04:35.662Z</time></trkpt><trkpt lat="43.4683069" lon="11.1902784"><ele>183.0</ele><time>2026-03-22T10:04:36.663Z</time></trkpt><trkpt lat="43.4683777" lon="11.1902074"><ele>183.0</ele><time>2026-03-22T10:04:37.667Z</time></trkpt><trkpt lat="43.4684397" lon="11.1901405"><ele>183.0</ele><time>2026-03-22T10:04:38.693Z</time></trkpt><trkpt lat="43.4685015" lon="11.1900751"><ele>183.0</ele><time>2026-03-22T10:04:39.661Z</time></trkpt><trkpt lat="43.4685677" lon="11.1900012"><ele>183.0</ele><time>2026-03-22T10:04:40.666Z</time></trkpt><trkpt lat="43.4686362" lon="11.1899271"><ele>183.0</ele><time>2026-03-22T10:04:41.662Z</time></trkpt><trkpt lat="43.4687024" lon="11.1898478"><ele>182.4</ele><time>2026-03-22T10:04:42.666Z</time></trkpt><trkpt lat="43.468774" lon="11.1897667"><ele>181.8</ele><time>2026-03-22T10:04:43.666Z</time></trkpt><trkpt lat="43.4688445" lon="11.1896935"><ele>181.2</ele><time>2026-03-22T10:04:44.66Z</time></trkpt><trkpt lat="43.4689145" lon="11.1896184"><ele>180.6</ele><time>2026-03-22T10:04:45.663Z</time></trkpt><trkpt lat="43.468987" lon="11.1895371"><ele>180.0</ele><time>2026-03-22T10:04:46.665Z</time></trkpt><trkpt lat="43.4690548" lon="11.1894599"><ele>178.0</ele><time>2026-03-22T10:04:47.665Z</time></trkpt><trkpt lat="43.4691144" lon="11.1894006"><ele>176.0</ele><time>2026-03-22T10:04:48.667Z</time></trkpt><trkpt lat="43.4691731" lon="11.1893375"><ele>174.0</ele><time>2026-03-22T10:04:49.668Z</time></trkpt><trkpt lat="43.4692327" lon="11.1892716"><ele>172.0</ele><time>2026-03-22T10:04:50.663Z</time></trkpt><trkpt lat="43.4692921" lon="11.1892097"><ele>170.0</ele><time>2026-03-22T10:04:51.668Z</time></trkpt><trkpt lat="43.4693546" lon="11.1891489"><ele>168.0</ele><time>2026-03-22T10:04:52.666Z</time></trkpt><trkpt lat="43.469413" lon="11.1890932"><ele>166.0</ele><time>2026-03-22T10:04:53.668Z</time></trkpt><trkpt lat="43.4695128" lon="11.1890322"><ele>165.20000000000002</ele><time>2026-03-22T10:04:55.665Z</time></trkpt><trkpt lat="43.4696258" lon="11.1890392"><ele>164.4</ele><time>2026-03-22T10:04:57.668Z</time></trkpt><trkpt lat="43.4697293" lon="11.1890089"><ele>163.6</ele><time>2026-03-22T10:04:59.664Z</time></trkpt><trkpt lat="43.4698091" lon="11.1889514"><ele>162.8</ele><time>2026-03-22T10:05:01.671Z</time></trkpt><trkpt lat="43.4698742" lon="11.1889527"><ele>162.0</ele><time>2026-03-22T10:05:07.662Z</time></trkpt><trkpt lat="43.4699594" lon="11.1890248"><ele>162.0</ele><time>2026-03-22T10:05:10.669Z</time></trkpt><trkpt lat="43.470066" lon="11.1890573"><ele>162.0</ele><time>2026-03-22T10:05:12.663Z</time></trkpt><trkpt lat="43.4701385" lon="11.1889999"><ele>162.0</ele><time>2026-03-22T10:05:14.659Z</time></trkpt><trkpt lat="43.4701904" lon="11.1889345"><ele>162.0</ele><time>2026-03-22T10:05:15.661Z</time></trkpt><trkpt lat="43.4702322" lon="11.1888667"><ele>162.0</ele><time>2026-03-22T10:05:16.662Z</time></trkpt><trkpt lat="43.4702988" lon="11.1887597"><ele>162.0</ele><time>2026-03-22T10:05:23.67Z</time></trkpt><trkpt lat="43.4703353" lon="11.1886825"><ele>162.0</ele><time>2026-03-22T10:05:24.665Z</time></trkpt><trkpt lat="43.4703769" lon="11.1886156"><ele>162.0</ele><time>2026-03-22T10:05:25.664Z</time></trkpt><trkpt lat="43.4704203" lon="11.1885266"><ele>162.0</ele><time>2026-03-22T10:05:26.68Z</time></trkpt><trkpt lat="43.4704595" lon="11.188427"><ele>162.0</ele><time>2026-03-22T10:05:27.665Z</time></trkpt><trkpt lat="43.4704836" lon="11.1883405"><ele>162.0</ele><time>2026-03-22T10:05:28.669Z</time></trkpt><trkpt lat="43.4705514" lon="11.188326"><ele>162.0</ele><time>2026-03-22T10:05:33.664Z</time></trkpt><trkpt lat="43.4705999" lon="11.1884377"><ele>164.5</ele><time>2026-03-22T10:05:35.663Z</time></trkpt><trkpt lat="43.4706579" lon="11.1885496"><ele>167.0</ele><time>2026-03-22T10:05:37.661Z</time></trkpt><trkpt lat="43.4707105" lon="11.1886262"><ele>169.5</ele><time>2026-03-22T10:05:39.657Z</time></trkpt><trkpt lat="43.470766" lon="11.1886802"><ele>172.0</ele><time>2026-03-22T10:05:41.671Z</time></trkpt><trkpt lat="43.4707863" lon="11.1885863"><ele>174.5</ele><time>2026-03-22T10:05:44.659Z</time></trkpt><trkpt lat="43.4707187" lon="11.1884524"><ele>177.0</ele><time>2026-03-22T10:05:46.663Z</time></trkpt><trkpt lat="43.4706806" lon="11.1883654"><ele>177.0</ele><time>2026-03-22T10:05:47.663Z</time></trkpt><trkpt lat="43.4706343" lon="11.1882571"><ele>177.0</ele><time>2026-03-22T10:05:48.66Z</time></trkpt><trkpt lat="43.4705843" lon="11.1881461"><ele>177.0</ele><time>2026-03-22T10:05:49.666Z</time></trkpt><trkpt lat="43.4705251" lon="11.1880211"><ele>177.0</ele><time>2026-03-22T10:05:50.667Z</time></trkpt><trkpt lat="43.4704702" lon="11.1879017"><ele>177.0</ele><time>2026-03-22T10:05:51.664Z</time></trkpt><trkpt lat="43.4704137" lon="11.1877722"><ele>175.2</ele><time>2026-03-22T10:05:52.666Z</time></trkpt><trkpt lat="43.470359" lon="11.1876618"><ele>173.39999999999998</ele><time>2026-03-22T10:05:53.67Z</time></trkpt><trkpt lat="43.4703049" lon="11.1875469"><ele>171.60000000000002</ele><time>2026-03-22T10:05:54.665Z</time></trkpt><trkpt lat="43.4702451" lon="11.1874236"><ele>169.8</ele><time>2026-03-22T10:05:55.686Z</time></trkpt><trkpt lat="43.4701949" lon="11.1873011"><ele>168.0</ele><time>2026-03-22T10:05:56.662Z</time></trkpt><trkpt lat="43.470144" lon="11.18719"><ele>168.0</ele><time>2026-03-22T10:05:57.665Z</time></trkpt><trkpt lat="43.4700967" lon="11.1870822"><ele>168.0</ele><time>2026-03-22T10:05:58.672Z</time></trkpt><trkpt lat="43.4700511" lon="11.1869895"><ele>168.0</ele><time>2026-03-22T10:05:59.668Z</time></trkpt><trkpt lat="43.4700067" lon="11.1869131"><ele>168.0</ele><time>2026-03-22T10:06:00.663Z</time></trkpt><trkpt lat="43.469929" lon="11.1867771"><ele>168.0</ele><time>2026-03-22T10:06:02.667Z</time></trkpt><trkpt lat="43.4698787" lon="11.1866867"><ele>168.0</ele><time>2026-03-22T10:06:03.67Z</time></trkpt><trkpt lat="43.469825" lon="11.1865762"><ele>168.0</ele><time>2026-03-22T10:06:04.665Z</time></trkpt><trkpt lat="43.4697661" lon="11.1864631"><ele>168.0</ele><time>2026-03-22T10:06:05.668Z</time></trkpt><trkpt lat="43.4697135" lon="11.1863494"><ele>168.0</ele><time>2026-03-22T10:06:06.665Z</time></trkpt><trkpt lat="43.469661" lon="11.1862451"><ele>168.0</ele><time>2026-03-22T10:06:07.667Z</time></trkpt><trkpt lat="43.469611" lon="11.186148"><ele>167.0</ele><time>2026-03-22T10:06:08.663Z</time></trkpt><trkpt lat="43.4695652" lon="11.1860596"><ele>166.0</ele><time>2026-03-22T10:06:09.66Z</time></trkpt><trkpt lat="43.469517" lon="11.185977"><ele>165.0</ele><time>2026-03-22T10:06:10.658Z</time></trkpt><trkpt lat="43.4694613" lon="11.1858645"><ele>164.0</ele><time>2026-03-22T10:06:11.667Z</time></trkpt><trkpt lat="43.4694036" lon="11.1857473"><ele>163.0</ele><time>2026-03-22T10:06:12.663Z</time></trkpt><trkpt lat="43.4693579" lon="11.1856463"><ele>162.0</ele><time>2026-03-22T10:06:13.665Z</time></trkpt><trkpt lat="43.4693105" lon="11.1855509"><ele>162.0</ele><time>2026-03-22T10:06:14.686Z</time></trkpt><trkpt lat="43.4692719" lon="11.1854634"><ele>162.0</ele><time>2026-03-22T10:06:15.664Z</time></trkpt><trkpt lat="43.4692255" lon="11.1853823"><ele>162.0</ele><time>2026-03-22T10:06:16.66Z</time></trkpt><trkpt lat="43.4691727" lon="11.1852872"><ele>162.0</ele><time>2026-03-22T10:06:17.665Z</time></trkpt><trkpt lat="43.4691211" lon="11.1851891"><ele>162.0</ele><time>2026-03-22T10:06:18.671Z</time></trkpt><trkpt lat="43.4690585" lon="11.1850835"><ele>162.0</ele><time>2026-03-22T10:06:19.665Z</time></trkpt><trkpt lat="43.4689994" lon="11.1849766"><ele>162.0</ele><time>2026-03-22T10:06:20.688Z</time></trkpt><trkpt lat="43.4689504" lon="11.1848678"><ele>162.0</ele><time>2026-03-22T10:06:21.665Z</time></trkpt><trkpt lat="43.4689158" lon="11.1847683"><ele>162.0</ele><time>2026-03-22T10:06:22.672Z</time></trkpt><trkpt lat="43.4688933" lon="11.1846642"><ele>162.0</ele><time>2026-03-22T10:06:23.663Z</time></trkpt><trkpt lat="43.4688606" lon="11.1845678"><ele>162.0</ele><time>2026-03-22T10:06:24.663Z</time></trkpt><trkpt lat="43.4688275" lon="11.184473"><ele>162.0</ele><time>2026-03-22T10:06:25.661Z</time></trkpt><trkpt lat="43.4687865" lon="11.1844051"><ele>162.5</ele><time>2026-03-22T10:06:26.668Z</time></trkpt><trkpt lat="43.4687332" lon="11.1843325"><ele>163.0</ele><time>2026-03-22T10:06:27.665Z</time></trkpt><trkpt lat="43.4686753" lon="11.1842456"><ele>163.5</ele><time>2026-03-22T10:06:28.661Z</time></trkpt><trkpt lat="43.4686131" lon="11.1841684"><ele>164.0</ele><time>2026-03-22T10:06:29.672Z</time></trkpt><trkpt lat="43.4685487" lon="11.1840892"><ele>164.5</ele><time>2026-03-22T10:06:30.666Z</time></trkpt><trkpt lat="43.4684668" lon="11.1840208"><ele>165.0</ele><time>2026-03-22T10:06:31.653Z</time></trkpt><trkpt lat="43.4683856" lon="11.1839576"><ele>165.0</ele><time>2026-03-22T10:06:32.659Z</time></trkpt><trkpt lat="43.468321" lon="11.1838922"><ele>165.0</ele><time>2026-03-22T10:06:33.665Z</time></trkpt><trkpt lat="43.4682533" lon="11.1838219"><ele>165.0</ele><time>2026-03-22T10:06:34.661Z</time></trkpt><trkpt lat="43.4681882" lon="11.1837548"><ele>165.0</ele><time>2026-03-22T10:06:35.663Z</time></trkpt><trkpt lat="43.4681186" lon="11.183688"><ele>165.0</ele><time>2026-03-22T10:06:36.683Z</time></trkpt><trkpt lat="43.4680467" lon="11.183623"><ele>165.0</ele><time>2026-03-22T10:06:37.662Z</time></trkpt><trkpt lat="43.4679727" lon="11.1835614"><ele>164.8</ele><time>2026-03-22T10:06:38.671Z</time></trkpt><trkpt lat="43.4679028" lon="11.1834913"><ele>164.6</ele><time>2026-03-22T10:06:39.662Z</time></trkpt><trkpt lat="43.4678269" lon="11.1834156"><ele>164.39999999999998</ele><time>2026-03-22T10:06:40.67Z</time></trkpt><trkpt lat="43.4677476" lon="11.1833353"><ele>164.2</ele><time>2026-03-22T10:06:41.664Z</time></trkpt><trkpt lat="43.4676677" lon="11.1832495"><ele>164.0</ele><time>2026-03-22T10:06:42.66Z</time></trkpt><trkpt lat="43.4675832" lon="11.1831644"><ele>164.0</ele><time>2026-03-22T10:06:43.677Z</time></trkpt><trkpt lat="43.4674957" lon="11.1830787"><ele>164.0</ele><time>2026-03-22T10:06:44.666Z</time></trkpt><trkpt lat="43.4674017" lon="11.1829904"><ele>164.0</ele><time>2026-03-22T10:06:45.674Z</time></trkpt><trkpt lat="43.4673149" lon="11.1828996"><ele>164.0</ele><time>2026-03-22T10:06:46.66Z</time></trkpt><trkpt lat="43.4672317" lon="11.1828114"><ele>164.0</ele><time>2026-03-22T10:06:47.664Z</time></trkpt><trkpt lat="43.4671546" lon="11.1827299"><ele>163.5</ele><time>2026-03-22T10:06:48.662Z</time></trkpt><trkpt lat="43.4670924" lon="11.1826623"><ele>163.0</ele><time>2026-03-22T10:06:49.663Z</time></trkpt><trkpt lat="43.467036" lon="11.1826097"><ele>162.5</ele><time>2026-03-22T10:06:50.665Z</time></trkpt><trkpt lat="43.4669507" lon="11.1825315"><ele>162.0</ele><time>2026-03-22T10:06:52.665Z</time></trkpt><trkpt lat="43.4668909" lon="11.1824769"><ele>161.5</ele><time>2026-03-22T10:06:54.663Z</time></trkpt><trkpt lat="43.4668262" lon="11.1824261"><ele>161.0</ele><time>2026-03-22T10:06:56.658Z</time></trkpt><trkpt lat="43.4667618" lon="11.1823587"><ele>162.0</ele><time>2026-03-22T10:06:58.661Z</time></trkpt><trkpt lat="43.4666895" lon="11.1822544"><ele>163.0</ele><time>2026-03-22T10:07:00.664Z</time></trkpt><trkpt lat="43.4666237" lon="11.1821404"><ele>164.0</ele><time>2026-03-22T10:07:02.665Z</time></trkpt><trkpt lat="43.4665368" lon="11.1820792"><ele>165.0</ele><time>2026-03-22T10:07:04.665Z</time></trkpt><trkpt lat="43.4664591" lon="11.1819959"><ele>166.0</ele><time>2026-03-22T10:07:06.659Z</time></trkpt><trkpt lat="43.4663829" lon="11.1818934"><ele>166.0</ele><time>2026-03-22T10:07:08.664Z</time></trkpt><trkpt lat="43.4662807" lon="11.1818005"><ele>166.0</ele><time>2026-03-22T10:07:10.691Z</time></trkpt><trkpt lat="43.4662367" lon="11.1817189"><ele>166.0</ele><time>2026-03-22T10:07:11.666Z</time></trkpt><trkpt lat="43.4661935" lon="11.181626"><ele>166.0</ele><time>2026-03-22T10:07:12.662Z</time></trkpt><trkpt lat="43.4661465" lon="11.1815178"><ele>166.0</ele><time>2026-03-22T10:07:13.673Z</time></trkpt><trkpt lat="43.4660947" lon="11.1813968"><ele>165.75</ele><time>2026-03-22T10:07:14.668Z</time></trkpt><trkpt lat="43.4660356" lon="11.1812828"><ele>165.5</ele><time>2026-03-22T10:07:15.685Z</time></trkpt><trkpt lat="43.4659696" lon="11.1811529"><ele>165.25</ele><time>2026-03-22T10:07:16.667Z</time></trkpt><trkpt lat="43.4658867" lon="11.1810122"><ele>165.0</ele><time>2026-03-22T10:07:17.665Z</time></trkpt><trkpt lat="43.4658021" lon="11.1808725"><ele>165.0</ele><time>2026-03-22T10:07:18.663Z</time></trkpt><trkpt lat="43.4657103" lon="11.1807325"><ele>165.0</ele><time>2026-03-22T10:07:19.662Z</time></trkpt><trkpt lat="43.4656234" lon="11.1806013"><ele>165.0</ele><time>2026-03-22T10:07:20.684Z</time></trkpt><trkpt lat="43.4655443" lon="11.1804803"><ele>165.0</ele><time>2026-03-22T10:07:21.659Z</time></trkpt><trkpt lat="43.4654889" lon="11.1803739"><ele>165.25</ele><time>2026-03-22T10:07:22.661Z</time></trkpt><trkpt lat="43.4654285" lon="11.1802723"><ele>165.5</ele><time>2026-03-22T10:07:23.666Z</time></trkpt><trkpt lat="43.4653595" lon="11.1801707"><ele>165.75</ele><time>2026-03-22T10:07:24.666Z</time></trkpt><trkpt lat="43.4652783" lon="11.180038"><ele>166.0</ele><time>2026-03-22T10:07:25.663Z</time></trkpt><trkpt lat="43.4651895" lon="11.1798994"><ele>167.75</ele><time>2026-03-22T10:07:26.664Z</time></trkpt><trkpt lat="43.4651011" lon="11.1797499"><ele>169.5</ele><time>2026-03-22T10:07:27.664Z</time></trkpt><trkpt lat="43.4650134" lon="11.1796026"><ele>171.25</ele><time>2026-03-22T10:07:28.663Z</time></trkpt><trkpt lat="43.4649195" lon="11.1794537"><ele>173.0</ele><time>2026-03-22T10:07:29.691Z</time></trkpt><trkpt lat="43.4648182" lon="11.1792974"><ele>173.0</ele><time>2026-03-22T10:07:30.662Z</time></trkpt><trkpt lat="43.4647016" lon="11.1791201"><ele>173.0</ele><time>2026-03-22T10:07:31.666Z</time></trkpt><trkpt lat="43.4645834" lon="11.1789196"><ele>173.0</ele><time>2026-03-22T10:07:32.661Z</time></trkpt><trkpt lat="43.464469" lon="11.1787194"><ele>176.0</ele><time>2026-03-22T10:07:33.667Z</time></trkpt><trkpt lat="43.4643475" lon="11.1785364"><ele>179.0</ele><time>2026-03-22T10:07:34.667Z</time></trkpt><trkpt lat="43.4642434" lon="11.1783666"><ele>182.0</ele><time>2026-03-22T10:07:35.662Z</time></trkpt><trkpt lat="43.4641535" lon="11.1782173"><ele>183.5</ele><time>2026-03-22T10:07:36.66Z</time></trkpt><trkpt lat="43.4640705" lon="11.1780902"><ele>185.0</ele><time>2026-03-22T10:07:37.662Z</time></trkpt><trkpt lat="43.4639814" lon="11.1779567"><ele>186.5</ele><time>2026-03-22T10:07:38.689Z</time></trkpt><trkpt lat="43.4638831" lon="11.1778125"><ele>188.0</ele><time>2026-03-22T10:07:39.663Z</time></trkpt><trkpt lat="43.4637596" lon="11.1776115"><ele>188.0</ele><time>2026-03-22T10:07:40.662Z</time></trkpt><trkpt lat="43.4636243" lon="11.1773897"><ele>188.0</ele><time>2026-03-22T10:07:41.66Z</time></trkpt><trkpt lat="43.4635056" lon="11.1771855"><ele>188.0</ele><time>2026-03-22T10:07:42.662Z</time></trkpt><trkpt lat="43.4633988" lon="11.1770133"><ele>191.5</ele><time>2026-03-22T10:07:43.665Z</time></trkpt><trkpt lat="43.4633012" lon="11.176867"><ele>195.0</ele><time>2026-03-22T10:07:44.68Z</time></trkpt><trkpt lat="43.4632153" lon="11.1767405"><ele>198.5</ele><time>2026-03-22T10:07:45.664Z</time></trkpt><trkpt lat="43.4631501" lon="11.176639"><ele>202.0</ele><time>2026-03-22T10:07:46.664Z</time></trkpt><trkpt lat="43.4630952" lon="11.1765403"><ele>204.2</ele><time>2026-03-22T10:07:47.659Z</time></trkpt><trkpt lat="43.4630562" lon="11.1764295"><ele>206.39999999999998</ele><time>2026-03-22T10:07:48.669Z</time></trkpt><trkpt lat="43.4630345" lon="11.176304"><ele>208.60000000000002</ele><time>2026-03-22T10:07:49.687Z</time></trkpt><trkpt lat="43.4630154" lon="11.1761756"><ele>210.8</ele><time>2026-03-22T10:07:50.667Z</time></trkpt><trkpt lat="43.4629962" lon="11.1760393"><ele>213.0</ele><time>2026-03-22T10:07:51.658Z</time></trkpt><trkpt lat="43.4629784" lon="11.1758934"><ele>213.0</ele><time>2026-03-22T10:07:52.662Z</time></trkpt><trkpt lat="43.4629512" lon="11.175767"><ele>213.0</ele><time>2026-03-22T10:07:53.668Z</time></trkpt><trkpt lat="43.4629245" lon="11.175661"><ele>213.0</ele><time>2026-03-22T10:07:54.66Z</time></trkpt><trkpt lat="43.4629064" lon="11.175548"><ele>213.0</ele><time>2026-03-22T10:07:55.667Z</time></trkpt><trkpt lat="43.4628851" lon="11.1754244"><ele>213.0</ele><time>2026-03-22T10:07:56.663Z</time></trkpt><trkpt lat="43.4628732" lon="11.1753146"><ele>213.0</ele><time>2026-03-22T10:07:57.66Z</time></trkpt><trkpt lat="43.4628769" lon="11.1751726"><ele>212.4</ele><time>2026-03-22T10:07:59.669Z</time></trkpt><trkpt lat="43.462924" lon="11.1750861"><ele>211.8</ele><time>2026-03-22T10:08:02.674Z</time></trkpt><trkpt lat="43.4629976" lon="11.1751064"><ele>211.2</ele><time>2026-03-22T10:08:05.666Z</time></trkpt><trkpt lat="43.463001" lon="11.1752341"><ele>210.6</ele><time>2026-03-22T10:08:07.661Z</time></trkpt><trkpt lat="43.4630574" lon="11.1753968"><ele>210.0</ele><time>2026-03-22T10:08:09.7Z</time></trkpt><trkpt lat="43.4631246" lon="11.1754685"><ele>209.6</ele><time>2026-03-22T10:08:10.664Z</time></trkpt><trkpt lat="43.4631833" lon="11.1755284"><ele>209.2</ele><time>2026-03-22T10:08:11.655Z</time></trkpt><trkpt lat="43.46328" lon="11.1756307"><ele>208.8</ele><time>2026-03-22T10:08:13.669Z</time></trkpt><trkpt lat="43.4633893" lon="11.1757251"><ele>208.4</ele><time>2026-03-22T10:08:15.69Z</time></trkpt><trkpt lat="43.4634638" lon="11.1758138"><ele>208.0</ele><time>2026-03-22T10:08:17.669Z</time></trkpt><trkpt lat="43.4635106" lon="11.1759064"><ele>209.0</ele><time>2026-03-22T10:08:19.663Z</time></trkpt><trkpt lat="43.4635836" lon="11.1759931"><ele>210.0</ele><time>2026-03-22T10:08:21.666Z</time></trkpt><trkpt lat="43.4636707" lon="11.1761004"><ele>211.0</ele><time>2026-03-22T10:08:23.662Z</time></trkpt><trkpt lat="43.4637169" lon="11.1761621"><ele>212.0</ele><time>2026-03-22T10:08:24.665Z</time></trkpt><trkpt lat="43.4638028" lon="11.1762714"><ele>213.0</ele><time>2026-03-22T10:08:26.668Z</time></trkpt><trkpt lat="43.4638868" lon="11.1763878"><ele>215.66666666666666</ele><time>2026-03-22T10:08:28.662Z</time></trkpt><trkpt lat="43.4639306" lon="11.1764555"><ele>218.33333333333331</ele><time>2026-03-22T10:08:29.667Z</time></trkpt><trkpt lat="43.4640099" lon="11.1765761"><ele>221.0</ele><time>2026-03-22T10:08:31.669Z</time></trkpt><trkpt lat="43.4640612" lon="11.1766417"><ele>223.66666666666666</ele><time>2026-03-22T10:08:32.67Z</time></trkpt><trkpt lat="43.4641189" lon="11.1767061"><ele>226.33333333333331</ele><time>2026-03-22T10:08:33.666Z</time></trkpt><trkpt lat="43.4641831" lon="11.1767686"><ele>229.0</ele><time>2026-03-22T10:08:34.692Z</time></trkpt><trkpt lat="43.4642672" lon="11.1768478"><ele>229.0</ele><time>2026-03-22T10:08:35.67Z</time></trkpt><trkpt lat="43.4643506" lon="11.1769282"><ele>228.99999999999997</ele><time>2026-03-22T10:08:36.665Z</time></trkpt><trkpt lat="43.4644358" lon="11.1770025"><ele>228.99999999999997</ele><time>2026-03-22T10:08:37.665Z</time></trkpt><trkpt lat="43.4645259" lon="11.177063"><ele>229.0</ele><time>2026-03-22T10:08:38.666Z</time></trkpt><trkpt lat="43.4646288" lon="11.1771283"><ele>229.0</ele><time>2026-03-22T10:08:39.669Z</time></trkpt><trkpt lat="43.4647282" lon="11.1771621"><ele>229.79999999999998</ele><time>2026-03-22T10:08:40.667Z</time></trkpt><trkpt lat="43.4648128" lon="11.1771763"><ele>230.59999999999997</ele><time>2026-03-22T10:08:41.665Z</time></trkpt><trkpt lat="43.4648797" lon="11.1771865"><ele>231.4</ele><time>2026-03-22T10:08:42.656Z</time></trkpt><trkpt lat="43.4649997" lon="11.1772184"><ele>232.2</ele><time>2026-03-22T10:08:44.668Z</time></trkpt><trkpt lat="43.4650831" lon="11.1772304"><ele>233.0</ele><time>2026-03-22T10:08:45.664Z</time></trkpt><trkpt lat="43.4651935" lon="11.1772249"><ele>233.00000000000003</ele><time>2026-03-22T10:08:46.67Z</time></trkpt><trkpt lat="43.4652914" lon="11.177224"><ele>233.0</ele><time>2026-03-22T10:08:47.673Z</time></trkpt><trkpt lat="43.4653818" lon="11.1772202"><ele>233.0</ele><time>2026-03-22T10:08:48.687Z</time></trkpt><trkpt lat="43.4654719" lon="11.1772106"><ele>233.0</ele><time>2026-03-22T10:08:49.669Z</time></trkpt><trkpt lat="43.4655467" lon="11.177226"><ele>233.00000000000003</ele><time>2026-03-22T10:08:50.665Z</time></trkpt><trkpt lat="43.4656118" lon="11.1772326"><ele>233.0</ele><time>2026-03-22T10:08:51.674Z</time></trkpt><trkpt lat="43.4657142" lon="11.177234"><ele>232.0</ele><time>2026-03-22T10:08:53.678Z</time></trkpt><trkpt lat="43.4657837" lon="11.1772878"><ele>231.0</ele><time>2026-03-22T10:08:57.666Z</time></trkpt><trkpt lat="43.4657145" lon="11.1772399"><ele>230.0</ele><time>2026-03-22T10:09:09.681Z</time></trkpt><trkpt lat="43.4657439" lon="11.1771417"><ele>229.0</ele><time>2026-03-22T10:09:18.658Z</time></trkpt><trkpt lat="43.4658117" lon="11.1770933"><ele>228.0</ele><time>2026-03-22T10:09:21.665Z</time></trkpt><trkpt lat="43.4657915" lon="11.1771777"><ele>227.0</ele><time>2026-03-22T10:09:36.673Z</time></trkpt><trkpt lat="43.4657853" lon="11.1772654"><ele>226.0</ele><time>2026-03-22T10:09:39.668Z</time></trkpt><trkpt lat="43.4658543" lon="11.1773684"><ele>225.4</ele><time>2026-03-22T10:09:42.667Z</time></trkpt><trkpt lat="43.465932" lon="11.177465"><ele>224.8</ele><time>2026-03-22T10:09:44.672Z</time></trkpt><trkpt lat="43.4660155" lon="11.1775429"><ele>224.20000000000002</ele><time>2026-03-22T10:09:46.682Z</time></trkpt><trkpt lat="43.4660885" lon="11.1776234"><ele>223.60000000000002</ele><time>2026-03-22T10:09:48.672Z</time></trkpt><trkpt lat="43.4661575" lon="11.177699"><ele>223.0</ele><time>2026-03-22T10:09:50.67Z</time></trkpt><trkpt lat="43.4662187" lon="11.1777558"><ele>223.83333333333331</ele><time>2026-03-22T10:09:52.674Z</time></trkpt><trkpt lat="43.4662799" lon="11.1778179"><ele>224.66666666666666</ele><time>2026-03-22T10:09:54.669Z</time></trkpt><trkpt lat="43.4663374" lon="11.1778813"><ele>225.5</ele><time>2026-03-22T10:09:56.67Z</time></trkpt><trkpt lat="43.4663983" lon="11.1779468"><ele>226.33333333333331</ele><time>2026-03-22T10:09:58.67Z</time></trkpt><trkpt lat="43.4664649" lon="11.1780262"><ele>227.16666666666666</ele><time>2026-03-22T10:10:00.669Z</time></trkpt><trkpt lat="43.4665386" lon="11.1781066"><ele>228.0</ele><time>2026-03-22T10:10:02.67Z</time></trkpt><trkpt lat="43.4666086" lon="11.1781792"><ele>227.60000000000002</ele><time>2026-03-22T10:10:04.68Z</time></trkpt><trkpt lat="43.4666886" lon="11.1782548"><ele>227.20000000000002</ele><time>2026-03-22T10:10:06.666Z</time></trkpt><trkpt lat="43.4667681" lon="11.1783292"><ele>226.8</ele><time>2026-03-22T10:10:08.676Z</time></trkpt><trkpt lat="43.4668376" lon="11.1784055"><ele>226.4</ele><time>2026-03-22T10:10:10.667Z</time></trkpt><trkpt lat="43.4668881" lon="11.1784636"><ele>226.0</ele><time>2026-03-22T10:10:11.672Z</time></trkpt><trkpt lat="43.4669715" lon="11.1785561"><ele>226.0</ele><time>2026-03-22T10:10:13.664Z</time></trkpt><trkpt lat="43.4670662" lon="11.1786376"><ele>226.00000000000003</ele><time>2026-03-22T10:10:15.672Z</time></trkpt><trkpt lat="43.4671605" lon="11.1787098"><ele>226.00000000000003</ele><time>2026-03-22T10:10:17.667Z</time></trkpt><trkpt lat="43.4672643" lon="11.1787802"><ele>226.0</ele><time>2026-03-22T10:10:19.667Z</time></trkpt><trkpt lat="43.4673197" lon="11.1788303"><ele>226.0</ele><time>2026-03-22T10:10:20.667Z</time></trkpt><trkpt lat="43.4673737" lon="11.1788864"><ele>226.33333333333331</ele><time>2026-03-22T10:10:21.7Z</time></trkpt><trkpt lat="43.4674371" lon="11.1789628"><ele>226.66666666666666</ele><time>2026-03-22T10:10:22.676Z</time></trkpt><trkpt lat="43.4675055" lon="11.1790411"><ele>227.0</ele><time>2026-03-22T10:10:23.667Z</time></trkpt><trkpt lat="43.467569" lon="11.1791176"><ele>227.33333333333331</ele><time>2026-03-22T10:10:24.658Z</time></trkpt><trkpt lat="43.4676263" lon="11.179191"><ele>227.66666666666666</ele><time>2026-03-22T10:10:25.663Z</time></trkpt><trkpt lat="43.4676871" lon="11.1792862"><ele>228.0</ele><time>2026-03-22T10:10:26.669Z</time></trkpt><trkpt lat="43.467743" lon="11.1793944"><ele>228.0</ele><time>2026-03-22T10:10:27.671Z</time></trkpt><trkpt lat="43.4678037" lon="11.1795091"><ele>228.0</ele><time>2026-03-22T10:10:28.673Z</time></trkpt><trkpt lat="43.4678609" lon="11.1796187"><ele>228.0</ele><time>2026-03-22T10:10:29.664Z</time></trkpt><trkpt lat="43.4679198" lon="11.1797312"><ele>228.0</ele><time>2026-03-22T10:10:30.693Z</time></trkpt><trkpt lat="43.468002" lon="11.1798422"><ele>228.0</ele><time>2026-03-22T10:10:31.671Z</time></trkpt><trkpt lat="43.468093" lon="11.1799639"><ele>229.8</ele><time>2026-03-22T10:10:32.666Z</time></trkpt><trkpt lat="43.4681831" lon="11.1800829"><ele>231.60000000000002</ele><time>2026-03-22T10:10:33.666Z</time></trkpt><trkpt lat="43.4682583" lon="11.1801925"><ele>233.39999999999998</ele><time>2026-03-22T10:10:34.665Z</time></trkpt><trkpt lat="43.4683151" lon="11.1802844"><ele>235.2</ele><time>2026-03-22T10:10:35.664Z</time></trkpt><trkpt lat="43.4683481" lon="11.1803813"><ele>237.0</ele><time>2026-03-22T10:10:36.668Z</time></trkpt><trkpt lat="43.468368" lon="11.1804671"><ele>237.0</ele><time>2026-03-22T10:10:37.667Z</time></trkpt><trkpt lat="43.4683796" lon="11.1806447"><ele>237.0</ele><time>2026-03-22T10:10:39.663Z</time></trkpt><trkpt lat="43.4684172" lon="11.1807974"><ele>237.0</ele><time>2026-03-22T10:10:41.662Z</time></trkpt><trkpt lat="43.4684734" lon="11.180878"><ele>237.0</ele><time>2026-03-22T10:10:42.67Z</time></trkpt><trkpt lat="43.4685351" lon="11.180975"><ele>237.0</ele><time>2026-03-22T10:10:43.659Z</time></trkpt><trkpt lat="43.4685963" lon="11.1810505"><ele>239.2</ele><time>2026-03-22T10:10:44.667Z</time></trkpt><trkpt lat="43.4686706" lon="11.1811259"><ele>241.39999999999998</ele><time>2026-03-22T10:10:45.665Z</time></trkpt><trkpt lat="43.4687486" lon="11.1811978"><ele>243.60000000000002</ele><time>2026-03-22T10:10:46.665Z</time></trkpt><trkpt lat="43.4688344" lon="11.1812702"><ele>245.8</ele><time>2026-03-22T10:10:47.678Z</time></trkpt><trkpt lat="43.4689309" lon="11.1813492"><ele>248.0</ele><time>2026-03-22T10:10:48.667Z</time></trkpt><trkpt lat="43.4690289" lon="11.1814184"><ele>248.0</ele><time>2026-03-22T10:10:49.667Z</time></trkpt><trkpt lat="43.4691325" lon="11.1814832"><ele>248.0</ele><time>2026-03-22T10:10:50.675Z</time></trkpt><trkpt lat="43.4692369" lon="11.1815495"><ele>248.0</ele><time>2026-03-22T10:10:51.665Z</time></trkpt><trkpt lat="43.4693442" lon="11.1816147"><ele>248.0</ele><time>2026-03-22T10:10:52.689Z</time></trkpt><trkpt lat="43.4694538" lon="11.1816776"><ele>246.8</ele><time>2026-03-22T10:10:53.667Z</time></trkpt><trkpt lat="43.4695571" lon="11.1817311"><ele>245.60000000000002</ele><time>2026-03-22T10:10:54.667Z</time></trkpt><trkpt lat="43.4696511" lon="11.1817929"><ele>244.39999999999998</ele><time>2026-03-22T10:10:55.668Z</time></trkpt><trkpt lat="43.4697327" lon="11.1818655"><ele>243.2</ele><time>2026-03-22T10:10:56.666Z</time></trkpt><trkpt lat="43.4697998" lon="11.1819354"><ele>242.0</ele><time>2026-03-22T10:10:57.664Z</time></trkpt><trkpt lat="43.469862" lon="11.1819902"><ele>242.0</ele><time>2026-03-22T10:10:58.664Z</time></trkpt><trkpt lat="43.4699523" lon="11.1820537"><ele>242.0</ele><time>2026-03-22T10:10:59.665Z</time></trkpt><trkpt lat="43.4700699" lon="11.1821179"><ele>242.0</ele><time>2026-03-22T10:11:00.663Z</time></trkpt><trkpt lat="43.4701854" lon="11.1821753"><ele>242.0</ele><time>2026-03-22T10:11:01.657Z</time></trkpt><trkpt lat="43.4702829" lon="11.1822287"><ele>242.0</ele><time>2026-03-22T10:11:02.664Z</time></trkpt><trkpt lat="43.4703714" lon="11.1822842"><ele>242.0</ele><time>2026-03-22T10:11:03.659Z</time></trkpt><trkpt lat="43.4704596" lon="11.1823489"><ele>242.0</ele><time>2026-03-22T10:11:04.674Z</time></trkpt><trkpt lat="43.4705365" lon="11.1824162"><ele>242.0</ele><time>2026-03-22T10:11:05.665Z</time></trkpt><trkpt lat="43.4706014" lon="11.1825035"><ele>242.0</ele><time>2026-03-22T10:11:06.664Z</time></trkpt><trkpt lat="43.4706436" lon="11.1826022"><ele>240.6</ele><time>2026-03-22T10:11:07.667Z</time></trkpt><trkpt lat="43.4706766" lon="11.1827012"><ele>239.2</ele><time>2026-03-22T10:11:08.661Z</time></trkpt><trkpt lat="43.4706909" lon="11.1827905"><ele>237.8</ele><time>2026-03-22T10:11:09.659Z</time></trkpt><trkpt lat="43.4706361" lon="11.1829652"><ele>236.4</ele><time>2026-03-22T10:11:11.673Z</time></trkpt><trkpt lat="43.4705651" lon="11.1830772"><ele>235.0</ele><time>2026-03-22T10:11:12.653Z</time></trkpt><trkpt lat="43.4704937" lon="11.1831613"><ele>231.0</ele><time>2026-03-22T10:11:13.66Z</time></trkpt><trkpt lat="43.4704323" lon="11.1832148"><ele>227.0</ele><time>2026-03-22T10:11:14.659Z</time></trkpt><trkpt lat="43.470365" lon="11.1833526"><ele>223.0</ele><time>2026-03-22T10:11:16.662Z</time></trkpt><trkpt lat="43.4703575" lon="11.183459"><ele>219.0</ele><time>2026-03-22T10:11:17.681Z</time></trkpt><trkpt lat="43.470386" lon="11.1835772"><ele>215.0</ele><time>2026-03-22T10:11:18.675Z</time></trkpt><trkpt lat="43.4704374" lon="11.1836856"><ele>216.50000000000003</ele><time>2026-03-22T10:11:19.662Z</time></trkpt><trkpt lat="43.470495" lon="11.183777"><ele>218.0</ele><time>2026-03-22T10:11:20.662Z</time></trkpt><trkpt lat="43.4705554" lon="11.1838503"><ele>219.5</ele><time>2026-03-22T10:11:21.664Z</time></trkpt><trkpt lat="43.4706136" lon="11.1839281"><ele>221.0</ele><time>2026-03-22T10:11:22.679Z</time></trkpt><trkpt lat="43.4706781" lon="11.1839965"><ele>222.50000000000003</ele><time>2026-03-22T10:11:23.664Z</time></trkpt><trkpt lat="43.47074" lon="11.1840585"><ele>224.0</ele><time>2026-03-22T10:11:24.667Z</time></trkpt><trkpt lat="43.4708142" lon="11.184116"><ele>224.00000000000003</ele><time>2026-03-22T10:11:25.67Z</time></trkpt><trkpt lat="43.4708934" lon="11.1841662"><ele>224.0</ele><time>2026-03-22T10:11:26.668Z</time></trkpt><trkpt lat="43.4709608" lon="11.1842042"><ele>224.0</ele><time>2026-03-22T10:11:27.668Z</time></trkpt><trkpt lat="43.4710559" lon="11.1843144"><ele>224.0</ele><time>2026-03-22T10:11:29.675Z</time></trkpt><trkpt lat="43.4710944" lon="11.1843906"><ele>224.00000000000003</ele><time>2026-03-22T10:11:30.662Z</time></trkpt><trkpt lat="43.4711369" lon="11.1845103"><ele>224.0</ele><time>2026-03-22T10:11:31.661Z</time></trkpt><trkpt lat="43.471185" lon="11.184664"><ele>224.0</ele><time>2026-03-22T10:11:32.663Z</time></trkpt><trkpt lat="43.4712302" lon="11.1848061"><ele>223.99999999999997</ele><time>2026-03-22T10:11:33.662Z</time></trkpt><trkpt lat="43.4712739" lon="11.1849192"><ele>223.99999999999997</ele><time>2026-03-22T10:11:34.667Z</time></trkpt><trkpt lat="43.4713326" lon="11.1850219"><ele>224.0</ele><time>2026-03-22T10:11:35.661Z</time></trkpt><trkpt lat="43.471394" lon="11.1851205"><ele>224.0</ele><time>2026-03-22T10:11:36.671Z</time></trkpt><trkpt lat="43.4714421" lon="11.1852287"><ele>224.00000000000003</ele><time>2026-03-22T10:11:37.658Z</time></trkpt><trkpt lat="43.4714686" lon="11.1853469"><ele>224.0</ele><time>2026-03-22T10:11:38.66Z</time></trkpt><trkpt lat="43.4715035" lon="11.1854795"><ele>224.0</ele><time>2026-03-22T10:11:39.671Z</time></trkpt><trkpt lat="43.4715437" lon="11.1856121"><ele>224.0</ele><time>2026-03-22T10:11:40.663Z</time></trkpt><trkpt lat="43.4715758" lon="11.1857121"><ele>224.00000000000003</ele><time>2026-03-22T10:11:41.678Z</time></trkpt><trkpt lat="43.4715961" lon="11.1858081"><ele>224.0</ele><time>2026-03-22T10:11:42.664Z</time></trkpt><trkpt lat="43.4716138" lon="11.1859168"><ele>224.00000000000003</ele><time>2026-03-22T10:11:43.664Z</time></trkpt><trkpt lat="43.4716342" lon="11.1860354"><ele>224.0</ele><time>2026-03-22T10:11:44.665Z</time></trkpt><trkpt lat="43.4716662" lon="11.1861534"><ele>224.0</ele><time>2026-03-22T10:11:45.661Z</time></trkpt><trkpt lat="43.4717082" lon="11.1862542"><ele>224.0</ele><time>2026-03-22T10:11:46.677Z</time></trkpt><trkpt lat="43.4717548" lon="11.1863317"><ele>224.00000000000003</ele><time>2026-03-22T10:11:47.663Z</time></trkpt><trkpt lat="43.4718184" lon="11.1863928"><ele>224.0</ele><time>2026-03-22T10:11:48.67Z</time></trkpt><trkpt lat="43.47189" lon="11.1864498"><ele>223.39999999999998</ele><time>2026-03-22T10:11:49.669Z</time></trkpt><trkpt lat="43.47197" lon="11.1865161"><ele>222.79999999999998</ele><time>2026-03-22T10:11:50.675Z</time></trkpt><trkpt lat="43.4720496" lon="11.1865932"><ele>222.20000000000002</ele><time>2026-03-22T10:11:51.661Z</time></trkpt><trkpt lat="43.4721189" lon="11.1866788"><ele>221.60000000000002</ele><time>2026-03-22T10:11:52.694Z</time></trkpt><trkpt lat="43.4721821" lon="11.1867616"><ele>221.0</ele><time>2026-03-22T10:11:53.665Z</time></trkpt><trkpt lat="43.4722451" lon="11.1868405"><ele>223.5</ele><time>2026-03-22T10:11:54.672Z</time></trkpt><trkpt lat="43.4723364" lon="11.18691"><ele>226.0</ele><time>2026-03-22T10:11:55.666Z</time></trkpt><trkpt lat="43.4724251" lon="11.1870212"><ele>228.5</ele><time>2026-03-22T10:11:56.67Z</time></trkpt><trkpt lat="43.4725146" lon="11.1871412"><ele>231.0</ele><time>2026-03-22T10:11:57.668Z</time></trkpt><trkpt lat="43.4726054" lon="11.1872723"><ele>230.0</ele><time>2026-03-22T10:11:58.665Z</time></trkpt><trkpt lat="43.4727074" lon="11.1874031"><ele>229.0</ele><time>2026-03-22T10:11:59.662Z</time></trkpt><trkpt lat="43.4727986" lon="11.1875154"><ele>228.0</ele><time>2026-03-22T10:12:00.662Z</time></trkpt><trkpt lat="43.4728704" lon="11.1876158"><ele>227.0</ele><time>2026-03-22T10:12:01.665Z</time></trkpt><trkpt lat="43.4729297" lon="11.1877137"><ele>226.5</ele><time>2026-03-22T10:12:02.662Z</time></trkpt><trkpt lat="43.4730085" lon="11.1878508"><ele>226.0</ele><time>2026-03-22T10:12:03.663Z</time></trkpt><trkpt lat="43.4730962" lon="11.1880159"><ele>225.5</ele><time>2026-03-22T10:12:04.663Z</time></trkpt><trkpt lat="43.4731736" lon="11.1881673"><ele>225.0</ele><time>2026-03-22T10:12:05.667Z</time></trkpt><trkpt lat="43.4732433" lon="11.188313"><ele>227.0</ele><time>2026-03-22T10:12:06.674Z</time></trkpt><trkpt lat="43.473321" lon="11.1884554"><ele>229.0</ele><time>2026-03-22T10:12:07.661Z</time></trkpt><trkpt lat="43.4734056" lon="11.1886016"><ele>231.0</ele><time>2026-03-22T10:12:08.657Z</time></trkpt><trkpt lat="43.4735023" lon="11.1887715"><ele>233.0</ele><time>2026-03-22T10:12:09.67Z</time></trkpt><trkpt lat="43.4736043" lon="11.1889396"><ele>231.4</ele><time>2026-03-22T10:12:10.665Z</time></trkpt><trkpt lat="43.4736821" lon="11.1890709"><ele>229.8</ele><time>2026-03-22T10:12:11.67Z</time></trkpt><trkpt lat="43.4737441" lon="11.1891728"><ele>228.2</ele><time>2026-03-22T10:12:12.662Z</time></trkpt><trkpt lat="43.4738149" lon="11.1892589"><ele>226.6</ele><time>2026-03-22T10:12:13.653Z</time></trkpt><trkpt lat="43.4738677" lon="11.189342"><ele>225.0</ele><time>2026-03-22T10:12:14.67Z</time></trkpt><trkpt lat="43.4739089" lon="11.1894159"><ele>225.0</ele><time>2026-03-22T10:12:15.669Z</time></trkpt><trkpt lat="43.4739542" lon="11.18949"><ele>225.0</ele><time>2026-03-22T10:12:16.667Z</time></trkpt><trkpt lat="43.4740108" lon="11.1895599"><ele>225.0</ele><time>2026-03-22T10:12:17.67Z</time></trkpt><trkpt lat="43.4740744" lon="11.1896191"><ele>225.0</ele><time>2026-03-22T10:12:18.689Z</time></trkpt><trkpt lat="43.4741522" lon="11.1896874"><ele>225.0</ele><time>2026-03-22T10:12:19.663Z</time></trkpt><trkpt lat="43.4742263" lon="11.1897699"><ele>225.0</ele><time>2026-03-22T10:12:20.664Z</time></trkpt><trkpt lat="43.4742898" lon="11.1898562"><ele>225.0</ele><time>2026-03-22T10:12:21.668Z</time></trkpt><trkpt lat="43.4743458" lon="11.1899382"><ele>225.0</ele><time>2026-03-22T10:12:22.664Z</time></trkpt><trkpt lat="43.4743968" lon="11.1900203"><ele>225.0</ele><time>2026-03-22T10:12:23.665Z</time></trkpt><trkpt lat="43.4744404" lon="11.1901044"><ele>225.0</ele><time>2026-03-22T10:12:24.668Z</time></trkpt><trkpt lat="43.4744914" lon="11.1901884"><ele>225.0</ele><time>2026-03-22T10:12:25.665Z</time></trkpt><trkpt lat="43.4745481" lon="11.1902618"><ele>225.0</ele><time>2026-03-22T10:12:26.683Z</time></trkpt><trkpt lat="43.4746144" lon="11.190341"><ele>224.0</ele><time>2026-03-22T10:12:27.667Z</time></trkpt><trkpt lat="43.4746856" lon="11.1904322"><ele>223.0</ele><time>2026-03-22T10:12:28.671Z</time></trkpt><trkpt lat="43.4747501" lon="11.190526"><ele>222.0</ele><time>2026-03-22T10:12:29.667Z</time></trkpt><trkpt lat="43.4747936" lon="11.1906154"><ele>221.0</ele><time>2026-03-22T10:12:30.671Z</time></trkpt><trkpt lat="43.4748579" lon="11.1907678"><ele>220.0</ele><time>2026-03-22T10:12:32.666Z</time></trkpt><trkpt lat="43.4749233" lon="11.1908503"><ele>220.0</ele><time>2026-03-22T10:12:34.668Z</time></trkpt><trkpt lat="43.4750404" lon="11.1909247"><ele>220.0</ele><time>2026-03-22T10:12:36.669Z</time></trkpt><trkpt lat="43.4751225" lon="11.1909614"><ele>220.0</ele><time>2026-03-22T10:12:37.671Z</time></trkpt><trkpt lat="43.4751889" lon="11.191015"><ele>220.0</ele><time>2026-03-22T10:12:38.679Z</time></trkpt><trkpt lat="43.4752614" lon="11.1910813"><ele>220.0</ele><time>2026-03-22T10:12:39.664Z</time></trkpt><trkpt lat="43.4753498" lon="11.1911737"><ele>220.16666666666666</ele><time>2026-03-22T10:12:40.666Z</time></trkpt><trkpt lat="43.4754403" lon="11.1912508"><ele>220.33333333333331</ele><time>2026-03-22T10:12:41.666Z</time></trkpt><trkpt lat="43.4755099" lon="11.1913032"><ele>220.5</ele><time>2026-03-22T10:12:42.661Z</time></trkpt><trkpt lat="43.4755792" lon="11.1913398"><ele>220.66666666666669</ele><time>2026-03-22T10:12:43.667Z</time></trkpt><trkpt lat="43.4756585" lon="11.191358"><ele>220.83333333333334</ele><time>2026-03-22T10:12:44.666Z</time></trkpt><trkpt lat="43.4757416" lon="11.1913767"><ele>221.0</ele><time>2026-03-22T10:12:45.67Z</time></trkpt><trkpt lat="43.4758278" lon="11.191389"><ele>221.0</ele><time>2026-03-22T10:12:46.667Z</time></trkpt><trkpt lat="43.4759183" lon="11.1914153"><ele>221.00000000000003</ele><time>2026-03-22T10:12:47.694Z</time></trkpt><trkpt lat="43.4760081" lon="11.1914515"><ele>221.00000000000003</ele><time>2026-03-22T10:12:48.668Z</time></trkpt><trkpt lat="43.4761103" lon="11.1915043"><ele>221.0</ele><time>2026-03-22T10:12:49.67Z</time></trkpt><trkpt lat="43.4762199" lon="11.1915698"><ele>221.0</ele><time>2026-03-22T10:12:50.674Z</time></trkpt><trkpt lat="43.476316" lon="11.191629"><ele>224.0</ele><time>2026-03-22T10:12:51.666Z</time></trkpt><trkpt lat="43.4764068" lon="11.1916841"><ele>227.00000000000003</ele><time>2026-03-22T10:12:52.684Z</time></trkpt><trkpt lat="43.476501" lon="11.1917427"><ele>230.00000000000003</ele><time>2026-03-22T10:12:53.666Z</time></trkpt><trkpt lat="43.4766036" lon="11.1917982"><ele>233.0</ele><time>2026-03-22T10:12:54.659Z</time></trkpt><trkpt lat="43.4766904" lon="11.19186"><ele>236.0</ele><time>2026-03-22T10:12:55.665Z</time></trkpt><trkpt lat="43.4767737" lon="11.1919118"><ele>236.00000000000003</ele><time>2026-03-22T10:12:56.664Z</time></trkpt><trkpt lat="43.4768411" lon="11.1919614"><ele>236.0</ele><time>2026-03-22T10:12:57.674Z</time></trkpt><trkpt lat="43.4769014" lon="11.19204"><ele>236.0</ele><time>2026-03-22T10:12:58.661Z</time></trkpt><trkpt lat="43.4769552" lon="11.1921328"><ele>236.0</ele><time>2026-03-22T10:12:59.666Z</time></trkpt><trkpt lat="43.4770108" lon="11.1922247"><ele>236.00000000000003</ele><time>2026-03-22T10:13:00.668Z</time></trkpt><trkpt lat="43.477067" lon="11.1923297"><ele>236.0</ele><time>2026-03-22T10:13:01.671Z</time></trkpt><trkpt lat="43.4771141" lon="11.1924307"><ele>236.8</ele><time>2026-03-22T10:13:02.672Z</time></trkpt><trkpt lat="43.4771613" lon="11.1925315"><ele>237.60000000000002</ele><time>2026-03-22T10:13:03.666Z</time></trkpt><trkpt lat="43.4772148" lon="11.192627"><ele>238.4</ele><time>2026-03-22T10:13:04.663Z</time></trkpt><trkpt lat="43.477277" lon="11.1926974"><ele>239.2</ele><time>2026-03-22T10:13:05.663Z</time></trkpt><trkpt lat="43.4773715" lon="11.1927455"><ele>240.0</ele><time>2026-03-22T10:13:06.663Z</time></trkpt><trkpt lat="43.4774692" lon="11.1927954"><ele>240.0</ele><time>2026-03-22T10:13:07.666Z</time></trkpt><trkpt lat="43.477583" lon="11.1928637"><ele>240.0</ele><time>2026-03-22T10:13:08.703Z</time></trkpt><trkpt lat="43.4777129" lon="11.1929568"><ele>240.0</ele><time>2026-03-22T10:13:09.663Z</time></trkpt><trkpt lat="43.4778266" lon="11.1930435"><ele>240.0</ele><time>2026-03-22T10:13:10.663Z</time></trkpt><trkpt lat="43.4779157" lon="11.1931016"><ele>240.4</ele><time>2026-03-22T10:13:11.665Z</time></trkpt><trkpt lat="43.4779964" lon="11.1931702"><ele>240.8</ele><time>2026-03-22T10:13:12.665Z</time></trkpt><trkpt lat="43.4780568" lon="11.193227"><ele>241.2</ele><time>2026-03-22T10:13:13.662Z</time></trkpt><trkpt lat="43.4781517" lon="11.1933009"><ele>241.6</ele><time>2026-03-22T10:13:15.69Z</time></trkpt><trkpt lat="43.4782059" lon="11.1933946"><ele>242.0</ele><time>2026-03-22T10:13:17.657Z</time></trkpt><trkpt lat="43.4781941" lon="11.1935642"><ele>244.2</ele><time>2026-03-22T10:13:19.662Z</time></trkpt><trkpt lat="43.4782014" lon="11.1936896"><ele>246.39999999999998</ele><time>2026-03-22T10:13:20.679Z</time></trkpt><trkpt lat="43.4782189" lon="11.1938447"><ele>248.60000000000002</ele><time>2026-03-22T10:13:21.667Z</time></trkpt><trkpt lat="43.4782423" lon="11.1940066"><ele>250.8</ele><time>2026-03-22T10:13:22.663Z</time></trkpt><trkpt lat="43.4782641" lon="11.1941485"><ele>253.0</ele><time>2026-03-22T10:13:23.665Z</time></trkpt><trkpt lat="43.4782866" lon="11.1942937"><ele>256.0</ele><time>2026-03-22T10:13:24.661Z</time></trkpt><trkpt lat="43.4783025" lon="11.1944564"><ele>259.0</ele><time>2026-03-22T10:13:25.658Z</time></trkpt><trkpt lat="43.4783238" lon="11.1946284"><ele>262.0</ele><time>2026-03-22T10:13:26.664Z</time></trkpt><trkpt lat="43.4783538" lon="11.1947897"><ele>265.0</ele><time>2026-03-22T10:13:27.66Z</time></trkpt><trkpt lat="43.4783846" lon="11.1949254"><ele>265.25</ele><time>2026-03-22T10:13:28.662Z</time></trkpt><trkpt lat="43.4784222" lon="11.1950584"><ele>265.5</ele><time>2026-03-22T10:13:29.658Z</time></trkpt><trkpt lat="43.478469" lon="11.1951996"><ele>265.75</ele><time>2026-03-22T10:13:30.689Z</time></trkpt><trkpt lat="43.4785241" lon="11.1953537"><ele>266.0</ele><time>2026-03-22T10:13:31.663Z</time></trkpt><trkpt lat="43.4785705" lon="11.1954948"><ele>266.0</ele><time>2026-03-22T10:13:32.659Z</time></trkpt><trkpt lat="43.4786011" lon="11.1956057"><ele>266.0</ele><time>2026-03-22T10:13:33.668Z</time></trkpt><trkpt lat="43.4786254" lon="11.1957101"><ele>266.0</ele><time>2026-03-22T10:13:34.668Z</time></trkpt><trkpt lat="43.4786567" lon="11.1958038"><ele>266.0</ele><time>2026-03-22T10:13:35.666Z</time></trkpt><trkpt lat="43.4786804" lon="11.1959012"><ele>266.0</ele><time>2026-03-22T10:13:36.678Z</time></trkpt><trkpt lat="43.4786991" lon="11.1960012"><ele>266.0</ele><time>2026-03-22T10:13:37.661Z</time></trkpt><trkpt lat="43.4787031" lon="11.1961149"><ele>266.0</ele><time>2026-03-22T10:13:38.664Z</time></trkpt><trkpt lat="43.4787139" lon="11.1962195"><ele>266.0</ele><time>2026-03-22T10:13:39.661Z</time></trkpt><trkpt lat="43.4787223" lon="11.196332"><ele>266.0</ele><time>2026-03-22T10:13:40.665Z</time></trkpt><trkpt lat="43.4787255" lon="11.1964508"><ele>266.0</ele><time>2026-03-22T10:13:41.658Z</time></trkpt><trkpt lat="43.4787298" lon="11.1965582"><ele>266.0</ele><time>2026-03-22T10:13:42.661Z</time></trkpt><trkpt lat="43.4787338" lon="11.1966595"><ele>266.0</ele><time>2026-03-22T10:13:43.659Z</time></trkpt><trkpt lat="43.4787392" lon="11.196832"><ele>266.83333333333337</ele><time>2026-03-22T10:13:45.664Z</time></trkpt><trkpt lat="43.4787347" lon="11.1969316"><ele>267.6666666666667</ele><time>2026-03-22T10:13:46.661Z</time></trkpt><trkpt lat="43.4787231" lon="11.1970332"><ele>268.5</ele><time>2026-03-22T10:13:47.671Z</time></trkpt><trkpt lat="43.4787088" lon="11.1971472"><ele>269.3333333333333</ele><time>2026-03-22T10:13:48.664Z</time></trkpt><trkpt lat="43.4786984" lon="11.1972682"><ele>270.16666666666663</ele><time>2026-03-22T10:13:49.665Z</time></trkpt><trkpt lat="43.4786846" lon="11.1973776"><ele>271.0</ele><time>2026-03-22T10:13:50.668Z</time></trkpt><trkpt lat="43.4786793" lon="11.1974961"><ele>272.5</ele><time>2026-03-22T10:13:52.664Z</time></trkpt><trkpt lat="43.4786554" lon="11.1976049"><ele>274.0</ele><time>2026-03-22T10:13:56.66Z</time></trkpt><trkpt lat="43.4786633" lon="11.1977082"><ele>275.5</ele><time>2026-03-22T10:13:59.67Z</time></trkpt><trkpt lat="43.4786587" lon="11.1978123"><ele>277.0</ele><time>2026-03-22T10:14:01.674Z</time></trkpt><trkpt lat="43.4786407" lon="11.1979427"><ele>278.5</ele><time>2026-03-22T10:14:04.668Z</time></trkpt><trkpt lat="43.4786389" lon="11.1980497"><ele>280.0</ele><time>2026-03-22T10:14:06.661Z</time></trkpt><trkpt lat="43.4786644" lon="11.1981427"><ele>280.0</ele><time>2026-03-22T10:14:09.667Z</time></trkpt><trkpt lat="43.4787347" lon="11.198079"><ele>280.0</ele><time>2026-03-22T10:14:13.663Z</time></trkpt><trkpt lat="43.4787862" lon="11.19801"><ele>280.0</ele><time>2026-03-22T10:14:15.667Z</time></trkpt><trkpt lat="43.478845" lon="11.1979374"><ele>280.0</ele><time>2026-03-22T10:14:17.661Z</time></trkpt><trkpt lat="43.4789155" lon="11.1978585"><ele>280.0</ele><time>2026-03-22T10:14:19.665Z</time></trkpt><trkpt lat="43.4789833" lon="11.1978671"><ele>280.0</ele><time>2026-03-22T10:14:22.653Z</time></trkpt><trkpt lat="43.4789789" lon="11.1979573"><ele>283.8</ele><time>2026-03-22T10:14:24.665Z</time></trkpt><trkpt lat="43.4789822" lon="11.1980751"><ele>287.6</ele><time>2026-03-22T10:14:26.67Z</time></trkpt><trkpt lat="43.4789969" lon="11.1982318"><ele>291.4</ele><time>2026-03-22T10:14:28.663Z</time></trkpt><trkpt lat="43.4790319" lon="11.1983509"><ele>295.2</ele><time>2026-03-22T10:14:30.677Z</time></trkpt><trkpt lat="43.479118" lon="11.198428"><ele>299.0</ele><time>2026-03-22T10:14:32.662Z</time></trkpt><trkpt lat="43.4791885" lon="11.1985124"><ele>300.1666666666667</ele><time>2026-03-22T10:14:34.667Z</time></trkpt><trkpt lat="43.4792014" lon="11.1986087"><ele>301.33333333333337</ele><time>2026-03-22T10:14:37.669Z</time></trkpt><trkpt lat="43.4791646" lon="11.1987088"><ele>302.5</ele><time>2026-03-22T10:14:44.682Z</time></trkpt><trkpt lat="43.4790807" lon="11.1988144"><ele>303.6666666666667</ele><time>2026-03-22T10:14:46.669Z</time></trkpt><trkpt lat="43.479036" lon="11.1988786"><ele>304.8333333333333</ele><time>2026-03-22T10:14:47.683Z</time></trkpt><trkpt lat="43.4789911" lon="11.198965"><ele>306.0</ele><time>2026-03-22T10:14:48.67Z</time></trkpt><trkpt lat="43.4789442" lon="11.1990596"><ele>307.1666666666667</ele><time>2026-03-22T10:14:49.671Z</time></trkpt><trkpt lat="43.4789068" lon="11.1991567"><ele>308.3333333333333</ele><time>2026-03-22T10:14:50.666Z</time></trkpt><trkpt lat="43.4788826" lon="11.1992491"><ele>309.5</ele><time>2026-03-22T10:14:51.662Z</time></trkpt><trkpt lat="43.4788728" lon="11.1993467"><ele>310.66666666666663</ele><time>2026-03-22T10:14:52.668Z</time></trkpt><trkpt lat="43.4788731" lon="11.1994496"><ele>311.8333333333333</ele><time>2026-03-22T10:14:53.66Z</time></trkpt><trkpt lat="43.4788817" lon="11.1995671"><ele>313.0</ele><time>2026-03-22T10:14:54.671Z</time></trkpt><trkpt lat="43.4789036" lon="11.1997179"><ele>312.8</ele><time>2026-03-22T10:14:55.662Z</time></trkpt><trkpt lat="43.4789444" lon="11.1998755"><ele>312.6</ele><time>2026-03-22T10:14:56.663Z</time></trkpt><trkpt lat="43.4789875" lon="11.2000161"><ele>312.4</ele><time>2026-03-22T10:14:57.661Z</time></trkpt><trkpt lat="43.4790276" lon="11.2001374"><ele>312.2</ele><time>2026-03-22T10:14:58.663Z</time></trkpt><trkpt lat="43.4790575" lon="11.2002416"><ele>312.0</ele><time>2026-03-22T10:14:59.665Z</time></trkpt><trkpt lat="43.4790765" lon="11.2003481"><ele>312.0</ele><time>2026-03-22T10:15:00.661Z</time></trkpt><trkpt lat="43.4790841" lon="11.200451"><ele>312.0</ele><time>2026-03-22T10:15:01.68Z</time></trkpt><trkpt lat="43.479089" lon="11.2005731"><ele>312.0</ele><time>2026-03-22T10:15:02.662Z</time></trkpt><trkpt lat="43.4790896" lon="11.2006795"><ele>312.0</ele><time>2026-03-22T10:15:03.666Z</time></trkpt><trkpt lat="43.4790828" lon="11.200772"><ele>312.0</ele><time>2026-03-22T10:15:04.667Z</time></trkpt><trkpt lat="43.479066" lon="11.2008635"><ele>312.0</ele><time>2026-03-22T10:15:05.666Z</time></trkpt><trkpt lat="43.4790544" lon="11.2009544"><ele>312.0</ele><time>2026-03-22T10:15:06.689Z</time></trkpt><trkpt lat="43.4790201" lon="11.2011172"><ele>311.6666666666667</ele><time>2026-03-22T10:15:08.665Z</time></trkpt><trkpt lat="43.4789993" lon="11.201204"><ele>311.3333333333333</ele><time>2026-03-22T10:15:09.674Z</time></trkpt><trkpt lat="43.4789698" lon="11.2013043"><ele>311.0</ele><time>2026-03-22T10:15:10.663Z</time></trkpt><trkpt lat="43.478938" lon="11.2014101"><ele>310.66666666666663</ele><time>2026-03-22T10:15:11.688Z</time></trkpt><trkpt lat="43.4789096" lon="11.2015153"><ele>310.3333333333333</ele><time>2026-03-22T10:15:12.664Z</time></trkpt><trkpt lat="43.4788836" lon="11.2016057"><ele>310.0</ele><time>2026-03-22T10:15:13.67Z</time></trkpt><trkpt lat="43.4788555" lon="11.201698"><ele>309.3333333333333</ele><time>2026-03-22T10:15:14.67Z</time></trkpt><trkpt lat="43.4788308" lon="11.2017984"><ele>308.66666666666663</ele><time>2026-03-22T10:15:15.664Z</time></trkpt><trkpt lat="43.4788103" lon="11.2018968"><ele>308.0</ele><time>2026-03-22T10:15:16.668Z</time></trkpt><trkpt lat="43.4787857" lon="11.2019954"><ele>307.3333333333333</ele><time>2026-03-22T10:15:17.665Z</time></trkpt><trkpt lat="43.4787599" lon="11.2020753"><ele>306.6666666666667</ele><time>2026-03-22T10:15:18.666Z</time></trkpt><trkpt lat="43.478686" lon="11.2022169"><ele>306.0</ele><time>2026-03-22T10:15:20.668Z</time></trkpt><trkpt lat="43.4786281" lon="11.2022829"><ele>305.6666666666667</ele><time>2026-03-22T10:15:21.691Z</time></trkpt><trkpt lat="43.4785496" lon="11.202356"><ele>305.3333333333333</ele><time>2026-03-22T10:15:22.67Z</time></trkpt><trkpt lat="43.4784769" lon="11.2024319"><ele>305.0</ele><time>2026-03-22T10:15:23.664Z</time></trkpt><trkpt lat="43.4784117" lon="11.2024939"><ele>304.66666666666663</ele><time>2026-03-22T10:15:24.667Z</time></trkpt><trkpt lat="43.4783595" lon="11.2025496"><ele>304.3333333333333</ele><time>2026-03-22T10:15:25.663Z</time></trkpt><trkpt lat="43.4782685" lon="11.2026391"><ele>304.0</ele><time>2026-03-22T10:15:27.67Z</time></trkpt><trkpt lat="43.4782081" lon="11.2026949"><ele>304.0</ele><time>2026-03-22T10:15:29.672Z</time></trkpt><trkpt lat="43.4782119" lon="11.202785"><ele>304.0</ele><time>2026-03-22T10:15:32.657Z</time></trkpt><trkpt lat="43.4782024" lon="11.202881"><ele>304.0</ele><time>2026-03-22T10:15:34.666Z</time></trkpt><trkpt lat="43.4781422" lon="11.202931"><ele>304.0</ele><time>2026-03-22T10:15:36.668Z</time></trkpt><trkpt lat="43.4780502" lon="11.2029464"><ele>304.0</ele><time>2026-03-22T10:15:38.665Z</time></trkpt><trkpt lat="43.4779566" lon="11.202956"><ele>304.0</ele><time>2026-03-22T10:15:40.671Z</time></trkpt><trkpt lat="43.4778953" lon="11.2029909"><ele>303.66666666666663</ele><time>2026-03-22T10:15:42.675Z</time></trkpt><trkpt lat="43.4778649" lon="11.2030994"><ele>303.3333333333333</ele><time>2026-03-22T10:15:45.666Z</time></trkpt><trkpt lat="43.4778641" lon="11.2031889"><ele>303.0</ele><time>2026-03-22T10:15:47.669Z</time></trkpt><trkpt lat="43.477894" lon="11.2032887"><ele>302.6666666666667</ele><time>2026-03-22T10:15:50.668Z</time></trkpt><trkpt lat="43.4778269" lon="11.2033483"><ele>302.33333333333337</ele><time>2026-03-22T10:16:09.665Z</time></trkpt><trkpt lat="43.4777022" lon="11.2034064"><ele>302.0</ele><time>2026-03-22T10:16:11.678Z</time></trkpt><trkpt lat="43.4776103" lon="11.2034735"><ele>302.0</ele><time>2026-03-22T10:16:12.664Z</time></trkpt><trkpt lat="43.4775071" lon="11.2035778"><ele>302.0</ele><time>2026-03-22T10:16:13.659Z</time></trkpt><trkpt lat="43.4774132" lon="11.2037136"><ele>302.0</ele><time>2026-03-22T10:16:14.671Z</time></trkpt><trkpt lat="43.4773407" lon="11.2038777"><ele>302.0</ele><time>2026-03-22T10:16:15.668Z</time></trkpt><trkpt lat="43.4772902" lon="11.2040406"><ele>300.0</ele><time>2026-03-22T10:16:16.69Z</time></trkpt><trkpt lat="43.4772617" lon="11.2042138"><ele>298.0</ele><time>2026-03-22T10:16:17.663Z</time></trkpt><trkpt lat="43.4772617" lon="11.2043764"><ele>296.0</ele><time>2026-03-22T10:16:18.664Z</time></trkpt><trkpt lat="43.4772815" lon="11.2045545"><ele>294.0</ele><time>2026-03-22T10:16:19.669Z</time></trkpt><trkpt lat="43.4773168" lon="11.2047223"><ele>294.5</ele><time>2026-03-22T10:16:20.665Z</time></trkpt><trkpt lat="43.4773593" lon="11.2048979"><ele>295.0</ele><time>2026-03-22T10:16:21.669Z</time></trkpt><trkpt lat="43.4774164" lon="11.2050818"><ele>295.5</ele><time>2026-03-22T10:16:22.669Z</time></trkpt><trkpt lat="43.4774871" lon="11.2052754"><ele>296.0</ele><time>2026-03-22T10:16:23.668Z</time></trkpt><trkpt lat="43.4775582" lon="11.2054587"><ele>296.0</ele><time>2026-03-22T10:16:24.669Z</time></trkpt><trkpt lat="43.477628" lon="11.2056498"><ele>296.0</ele><time>2026-03-22T10:16:25.662Z</time></trkpt><trkpt lat="43.4776983" lon="11.205843"><ele>296.0</ele><time>2026-03-22T10:16:26.699Z</time></trkpt><trkpt lat="43.4777639" lon="11.2060346"><ele>295.6666666666667</ele><time>2026-03-22T10:16:27.662Z</time></trkpt><trkpt lat="43.4778295" lon="11.2062284"><ele>295.3333333333333</ele><time>2026-03-22T10:16:28.669Z</time></trkpt><trkpt lat="43.4778896" lon="11.2064284"><ele>295.0</ele><time>2026-03-22T10:16:29.668Z</time></trkpt><trkpt lat="43.4779474" lon="11.2066376"><ele>296.3333333333333</ele><time>2026-03-22T10:16:30.669Z</time></trkpt><trkpt lat="43.4779991" lon="11.206846"><ele>297.6666666666667</ele><time>2026-03-22T10:16:31.665Z</time></trkpt><trkpt lat="43.4780393" lon="11.2070611"><ele>299.0</ele><time>2026-03-22T10:16:32.668Z</time></trkpt><trkpt lat="43.4780765" lon="11.2072729"><ele>300.6666666666667</ele><time>2026-03-22T10:16:33.707Z</time></trkpt><trkpt lat="43.4780965" lon="11.2074952"><ele>302.3333333333333</ele><time>2026-03-22T10:16:34.663Z</time></trkpt><trkpt lat="43.478103" lon="11.2077228"><ele>304.0</ele><time>2026-03-22T10:16:35.685Z</time></trkpt><trkpt lat="43.4781054" lon="11.2079596"><ele>304.66666666666663</ele><time>2026-03-22T10:16:36.671Z</time></trkpt><trkpt lat="43.4781049" lon="11.2082046"><ele>305.3333333333333</ele><time>2026-03-22T10:16:37.668Z</time></trkpt><trkpt lat="43.4780996" lon="11.2084364"><ele>306.0</ele><time>2026-03-22T10:16:38.67Z</time></trkpt><trkpt lat="43.4780872" lon="11.2086359"><ele>306.0</ele><time>2026-03-22T10:16:39.665Z</time></trkpt><trkpt lat="43.478055" lon="11.2088282"><ele>306.0</ele><time>2026-03-22T10:16:40.668Z</time></trkpt><trkpt lat="43.4780087" lon="11.2090232"><ele>306.0</ele><time>2026-03-22T10:16:41.665Z</time></trkpt><trkpt lat="43.4779461" lon="11.2092247"><ele>303.3333333333333</ele><time>2026-03-22T10:16:42.684Z</time></trkpt><trkpt lat="43.4778801" lon="11.2094131"><ele>300.66666666666663</ele><time>2026-03-22T10:16:43.663Z</time></trkpt><trkpt lat="43.4778068" lon="11.2095918"><ele>298.0</ele><time>2026-03-22T10:16:44.67Z</time></trkpt><trkpt lat="43.4777161" lon="11.2097719"><ele>299.0</ele><time>2026-03-22T10:16:45.663Z</time></trkpt><trkpt lat="43.477623" lon="11.2099514"><ele>300.0</ele><time>2026-03-22T10:16:46.668Z</time></trkpt><trkpt lat="43.4775261" lon="11.2101164"><ele>301.0</ele><time>2026-03-22T10:16:47.663Z</time></trkpt><trkpt lat="43.4774213" lon="11.2102666"><ele>301.0</ele><time>2026-03-22T10:16:48.667Z</time></trkpt><trkpt lat="43.4773101" lon="11.2104079"><ele>301.0</ele><time>2026-03-22T10:16:49.668Z</time></trkpt><trkpt lat="43.4772002" lon="11.210559"><ele>301.0</ele><time>2026-03-22T10:16:50.664Z</time></trkpt><trkpt lat="43.4770927" lon="11.2106983"><ele>302.5</ele><time>2026-03-22T10:16:51.673Z</time></trkpt><trkpt lat="43.4769966" lon="11.2108289"><ele>304.0</ele><time>2026-03-22T10:16:52.662Z</time></trkpt><trkpt lat="43.4769118" lon="11.2109573"><ele>305.5</ele><time>2026-03-22T10:16:53.663Z</time></trkpt><trkpt lat="43.4768482" lon="11.2110794"><ele>307.0</ele><time>2026-03-22T10:16:54.663Z</time></trkpt><trkpt lat="43.4767946" lon="11.2112103"><ele>307.0</ele><time>2026-03-22T10:16:55.697Z</time></trkpt><trkpt lat="43.4767615" lon="11.2113404"><ele>307.0</ele><time>2026-03-22T10:16:56.666Z</time></trkpt><trkpt lat="43.4767572" lon="11.2114716"><ele>307.0</ele><time>2026-03-22T10:16:57.686Z</time></trkpt><trkpt lat="43.4767648" lon="11.2115645"><ele>307.0</ele><time>2026-03-22T10:16:58.667Z</time></trkpt><trkpt lat="43.4768102" lon="11.2116318"><ele>307.0</ele><time>2026-03-22T10:17:02.658Z</time></trkpt><trkpt lat="43.476863" lon="11.2117666"><ele>307.0</ele><time>2026-03-22T10:17:05.689Z</time></trkpt><trkpt lat="43.4769002" lon="11.2118692"><ele>305.8333333333333</ele><time>2026-03-22T10:17:07.66Z</time></trkpt><trkpt lat="43.4769926" lon="11.2118659"><ele>304.66666666666663</ele><time>2026-03-22T10:17:09.675Z</time></trkpt><trkpt lat="43.477055" lon="11.2118371"><ele>303.5</ele><time>2026-03-22T10:17:10.663Z</time></trkpt><trkpt lat="43.4771226" lon="11.2118041"><ele>302.3333333333333</ele><time>2026-03-22T10:17:11.667Z</time></trkpt><trkpt lat="43.4772193" lon="11.2117869"><ele>301.1666666666667</ele><time>2026-03-22T10:17:13.66Z</time></trkpt><trkpt lat="43.4772747" lon="11.2118965"><ele>300.0</ele><time>2026-03-22T10:17:15.663Z</time></trkpt><trkpt lat="43.4772924" lon="11.2119872"><ele>300.4</ele><time>2026-03-22T10:17:16.664Z</time></trkpt><trkpt lat="43.4773114" lon="11.2121095"><ele>300.8</ele><time>2026-03-22T10:17:17.666Z</time></trkpt><trkpt lat="43.4773387" lon="11.2122526"><ele>301.2</ele><time>2026-03-22T10:17:18.668Z</time></trkpt><trkpt lat="43.4773733" lon="11.2124247"><ele>301.6</ele><time>2026-03-22T10:17:19.666Z</time></trkpt><trkpt lat="43.4773877" lon="11.2125813"><ele>302.0</ele><time>2026-03-22T10:17:20.665Z</time></trkpt><trkpt lat="43.477389" lon="11.2127247"><ele>302.0</ele><time>2026-03-22T10:17:21.672Z</time></trkpt><trkpt lat="43.4773926" lon="11.2128776"><ele>302.0</ele><time>2026-03-22T10:17:22.667Z</time></trkpt><trkpt lat="43.4774086" lon="11.2130419"><ele>302.0</ele><time>2026-03-22T10:17:23.663Z</time></trkpt><trkpt lat="43.477418" lon="11.2131805"><ele>302.0</ele><time>2026-03-22T10:17:24.665Z</time></trkpt><trkpt lat="43.4774082" lon="11.2133264"><ele>302.0</ele><time>2026-03-22T10:17:25.662Z</time></trkpt><trkpt lat="43.4773879" lon="11.2134756"><ele>302.75</ele><time>2026-03-22T10:17:26.681Z</time></trkpt><trkpt lat="43.4773583" lon="11.2136349"><ele>303.5</ele><time>2026-03-22T10:17:27.664Z</time></trkpt><trkpt lat="43.4773186" lon="11.2137904"><ele>304.25</ele><time>2026-03-22T10:17:28.67Z</time></trkpt><trkpt lat="43.4772734" lon="11.2139443"><ele>305.0</ele><time>2026-03-22T10:17:29.668Z</time></trkpt><trkpt lat="43.4772282" lon="11.2140718"><ele>306.0</ele><time>2026-03-22T10:17:30.668Z</time></trkpt><trkpt lat="43.4771623" lon="11.2141897"><ele>307.0</ele><time>2026-03-22T10:17:31.677Z</time></trkpt><trkpt lat="43.4770768" lon="11.2143148"><ele>308.0</ele><time>2026-03-22T10:17:32.664Z</time></trkpt><trkpt lat="43.476972" lon="11.2144509"><ele>309.0</ele><time>2026-03-22T10:17:33.672Z</time></trkpt><trkpt lat="43.4768635" lon="11.2145897"><ele>310.25</ele><time>2026-03-22T10:17:34.669Z</time></trkpt><trkpt lat="43.4767591" lon="11.2147447"><ele>311.5</ele><time>2026-03-22T10:17:35.658Z</time></trkpt><trkpt lat="43.4766496" lon="11.2148978"><ele>312.75</ele><time>2026-03-22T10:17:36.692Z</time></trkpt><trkpt lat="43.4765531" lon="11.2150309"><ele>314.0</ele><time>2026-03-22T10:17:37.66Z</time></trkpt><trkpt lat="43.4764689" lon="11.2151388"><ele>315.4</ele><time>2026-03-22T10:17:38.663Z</time></trkpt><trkpt lat="43.4763908" lon="11.2152513"><ele>316.79999999999995</ele><time>2026-03-22T10:17:39.666Z</time></trkpt><trkpt lat="43.4763238" lon="11.2153583"><ele>318.20000000000005</ele><time>2026-03-22T10:17:40.666Z</time></trkpt><trkpt lat="43.4762642" lon="11.215455"><ele>319.6</ele><time>2026-03-22T10:17:41.663Z</time></trkpt><trkpt lat="43.4762126" lon="11.2155496"><ele>321.0</ele><time>2026-03-22T10:17:42.668Z</time></trkpt><trkpt lat="43.4761878" lon="11.2156499"><ele>321.8</ele><time>2026-03-22T10:17:43.662Z</time></trkpt><trkpt lat="43.4761671" lon="11.215742"><ele>322.6</ele><time>2026-03-22T10:17:44.655Z</time></trkpt><trkpt lat="43.4761643" lon="11.215853"><ele>323.4</ele><time>2026-03-22T10:17:45.662Z</time></trkpt><trkpt lat="43.4761672" lon="11.2159925"><ele>324.2</ele><time>2026-03-22T10:17:46.667Z</time></trkpt><trkpt lat="43.4761636" lon="11.2161431"><ele>325.0</ele><time>2026-03-22T10:17:47.663Z</time></trkpt><trkpt lat="43.4761602" lon="11.2162953"><ele>325.0</ele><time>2026-03-22T10:17:48.667Z</time></trkpt><trkpt lat="43.4761452" lon="11.2164438"><ele>325.0</ele><time>2026-03-22T10:17:49.665Z</time></trkpt><trkpt lat="43.4761409" lon="11.216577"><ele>325.0</ele><time>2026-03-22T10:17:50.663Z</time></trkpt><trkpt lat="43.4761364" lon="11.2166824"><ele>325.0</ele><time>2026-03-22T10:17:51.687Z</time></trkpt><trkpt lat="43.4761363" lon="11.2167861"><ele>325.0</ele><time>2026-03-22T10:17:52.667Z</time></trkpt><trkpt lat="43.4761584" lon="11.2169205"><ele>325.3333333333333</ele><time>2026-03-22T10:17:54.662Z</time></trkpt><trkpt lat="43.4762491" lon="11.2169766"><ele>325.66666666666663</ele><time>2026-03-22T10:17:56.674Z</time></trkpt><trkpt lat="43.476324" lon="11.2169694"><ele>326.0</ele><time>2026-03-22T10:17:57.665Z</time></trkpt><trkpt lat="43.4763891" lon="11.2169623"><ele>326.3333333333333</ele><time>2026-03-22T10:17:58.674Z</time></trkpt><trkpt lat="43.476488" lon="11.2169861"><ele>326.6666666666667</ele><time>2026-03-22T10:18:00.663Z</time></trkpt><trkpt lat="43.4765261" lon="11.217082"><ele>327.0</ele><time>2026-03-22T10:18:02.662Z</time></trkpt><trkpt lat="43.4765375" lon="11.2171852"><ele>327.0</ele><time>2026-03-22T10:18:04.677Z</time></trkpt><trkpt lat="43.4765509" lon="11.2172869"><ele>327.0</ele><time>2026-03-22T10:18:06.664Z</time></trkpt><trkpt lat="43.4765658" lon="11.2173748"><ele>327.0</ele><time>2026-03-22T10:18:08.661Z</time></trkpt><trkpt lat="43.4766251" lon="11.2174081"><ele>327.0</ele><time>2026-03-22T10:18:10.657Z</time></trkpt><trkpt lat="43.4767086" lon="11.2173912"><ele>327.0</ele><time>2026-03-22T10:18:12.667Z</time></trkpt><trkpt lat="43.4767963" lon="11.2173943"><ele>327.0</ele><time>2026-03-22T10:18:14.666Z</time></trkpt><trkpt lat="43.4768904" lon="11.2174097"><ele>327.0</ele><time>2026-03-22T10:18:16.673Z</time></trkpt><trkpt lat="43.4769731" lon="11.2174129"><ele>327.0</ele><time>2026-03-22T10:18:18.667Z</time></trkpt><trkpt lat="43.4770377" lon="11.2174578"><ele>327.0</ele><time>2026-03-22T10:18:21.659Z</time></trkpt><trkpt lat="43.4769961" lon="11.2175515"><ele>327.0</ele><time>2026-03-22T10:18:25.671Z</time></trkpt><trkpt lat="43.4769015" lon="11.217522"><ele>327.0</ele><time>2026-03-22T10:18:27.669Z</time></trkpt><trkpt lat="43.4768004" lon="11.2174833"><ele>327.0</ele><time>2026-03-22T10:18:29.675Z</time></trkpt><trkpt lat="43.4767121" lon="11.2174958"><ele>327.0</ele><time>2026-03-22T10:18:31.661Z</time></trkpt><trkpt lat="43.4766467" lon="11.2175704"><ele>327.0</ele><time>2026-03-22T10:18:33.673Z</time></trkpt><trkpt lat="43.4767357" lon="11.2175141"><ele>327.0</ele><time>2026-03-22T10:18:44.662Z</time></trkpt><trkpt lat="43.4768466" lon="11.2174804"><ele>327.0</ele><time>2026-03-22T10:18:46.664Z</time></trkpt><trkpt lat="43.4769437" lon="11.2175138"><ele>327.0</ele><time>2026-03-22T10:18:48.662Z</time></trkpt><trkpt lat="43.4770133" lon="11.2175006"><ele>327.0</ele><time>2026-03-22T10:18:50.66Z</time></trkpt><trkpt lat="43.4770425" lon="11.2173877"><ele>327.0</ele><time>2026-03-22T10:18:53.661Z</time></trkpt><trkpt lat="43.4771291" lon="11.2173516"><ele>327.0</ele><time>2026-03-22T10:18:55.666Z</time></trkpt><trkpt lat="43.4771959" lon="11.2173521"><ele>327.0</ele><time>2026-03-22T10:18:56.664Z</time></trkpt><trkpt lat="43.4773019" lon="11.2173541"><ele>327.0</ele><time>2026-03-22T10:18:58.666Z</time></trkpt><trkpt lat="43.4773626" lon="11.2172626"><ele>327.0</ele><time>2026-03-22T10:19:00.669Z</time></trkpt><trkpt lat="43.4774218" lon="11.2170595"><ele>324.5</ele><time>2026-03-22T10:19:02.662Z</time></trkpt><trkpt lat="43.4774792" lon="11.2168877"><ele>322.0</ele><time>2026-03-22T10:19:03.663Z</time></trkpt><trkpt lat="43.4775477" lon="11.2167174"><ele>319.5</ele><time>2026-03-22T10:19:04.662Z</time></trkpt><trkpt lat="43.4776137" lon="11.2165536"><ele>317.0</ele><time>2026-03-22T10:19:05.669Z</time></trkpt><trkpt lat="43.4776763" lon="11.2164101"><ele>315.6</ele><time>2026-03-22T10:19:06.662Z</time></trkpt><trkpt lat="43.4777289" lon="11.2162866"><ele>314.2</ele><time>2026-03-22T10:19:07.666Z</time></trkpt><trkpt lat="43.4777938" lon="11.2161745"><ele>312.8</ele><time>2026-03-22T10:19:08.663Z</time></trkpt><trkpt lat="43.4778502" lon="11.2160713"><ele>311.4</ele><time>2026-03-22T10:19:09.692Z</time></trkpt><trkpt lat="43.4779105" lon="11.2159807"><ele>310.0</ele><time>2026-03-22T10:19:10.664Z</time></trkpt><trkpt lat="43.4779644" lon="11.2158998"><ele>309.57142857142856</ele><time>2026-03-22T10:19:11.663Z</time></trkpt><trkpt lat="43.4780158" lon="11.2158108"><ele>309.1428571428571</ele><time>2026-03-22T10:19:12.665Z</time></trkpt><trkpt lat="43.4780749" lon="11.2157313"><ele>308.71428571428567</ele><time>2026-03-22T10:19:13.663Z</time></trkpt><trkpt lat="43.47813" lon="11.2156676"><ele>308.2857142857143</ele><time>2026-03-22T10:19:14.665Z</time></trkpt><trkpt lat="43.4781773" lon="11.215598"><ele>307.85714285714283</ele><time>2026-03-22T10:19:15.665Z</time></trkpt><trkpt lat="43.4782254" lon="11.2155399"><ele>307.4285714285714</ele><time>2026-03-22T10:19:16.663Z</time></trkpt><trkpt lat="43.4782761" lon="11.2154651"><ele>307.0</ele><time>2026-03-22T10:19:18.665Z</time></trkpt><trkpt lat="43.4782219" lon="11.2153351"><ele>305.66666666666663</ele><time>2026-03-22T10:19:21.669Z</time></trkpt><trkpt lat="43.4781639" lon="11.2152464"><ele>304.3333333333333</ele><time>2026-03-22T10:19:22.664Z</time></trkpt><trkpt lat="43.4781196" lon="11.2151586"><ele>303.0</ele><time>2026-03-22T10:19:23.686Z</time></trkpt><trkpt lat="43.4780821" lon="11.2150703"><ele>301.6666666666667</ele><time>2026-03-22T10:19:24.664Z</time></trkpt><trkpt lat="43.4780466" lon="11.214977"><ele>300.33333333333337</ele><time>2026-03-22T10:19:25.664Z</time></trkpt><trkpt lat="43.4780301" lon="11.2148757"><ele>299.0</ele><time>2026-03-22T10:19:26.663Z</time></trkpt><trkpt lat="43.4780229" lon="11.2147471"><ele>298.0</ele><time>2026-03-22T10:19:27.665Z</time></trkpt><trkpt lat="43.4780271" lon="11.2146202"><ele>297.0</ele><time>2026-03-22T10:19:28.663Z</time></trkpt><trkpt lat="43.4780246" lon="11.2144981"><ele>296.0</ele><time>2026-03-22T10:19:29.666Z</time></trkpt><trkpt lat="43.4780211" lon="11.214376"><ele>295.0</ele><time>2026-03-22T10:19:30.664Z</time></trkpt><trkpt lat="43.4780203" lon="11.214247"><ele>294.0</ele><time>2026-03-22T10:19:31.664Z</time></trkpt><trkpt lat="43.4780097" lon="11.2141093"><ele>293.4</ele><time>2026-03-22T10:19:32.666Z</time></trkpt><trkpt lat="43.4779894" lon="11.2139636"><ele>292.79999999999995</ele><time>2026-03-22T10:19:33.663Z</time></trkpt><trkpt lat="43.477982" lon="11.2138174"><ele>292.20000000000005</ele><time>2026-03-22T10:19:34.692Z</time></trkpt><trkpt lat="43.4779743" lon="11.2136705"><ele>291.6</ele><time>2026-03-22T10:19:35.664Z</time></trkpt><trkpt lat="43.4779766" lon="11.2135282"><ele>291.0</ele><time>2026-03-22T10:19:36.663Z</time></trkpt><trkpt lat="43.4779791" lon="11.2133853"><ele>291.0</ele><time>2026-03-22T10:19:37.664Z</time></trkpt><trkpt lat="43.4779859" lon="11.2132482"><ele>291.0</ele><time>2026-03-22T10:19:38.664Z</time></trkpt><trkpt lat="43.4779869" lon="11.2131291"><ele>291.0</ele><time>2026-03-22T10:19:39.691Z</time></trkpt><trkpt lat="43.477999" lon="11.2130239"><ele>291.0</ele><time>2026-03-22T10:19:40.66Z</time></trkpt><trkpt lat="43.4780286" lon="11.2128843"><ele>291.0</ele><time>2026-03-22T10:19:42.667Z</time></trkpt><trkpt lat="43.4780217" lon="11.212775"><ele>291.0</ele><time>2026-03-22T10:19:44.678Z</time></trkpt><trkpt lat="43.4779491" lon="11.2127543"><ele>292.8333333333333</ele><time>2026-03-22T10:19:46.661Z</time></trkpt><trkpt lat="43.4778735" lon="11.2127747"><ele>294.6666666666667</ele><time>2026-03-22T10:19:47.666Z</time></trkpt><trkpt lat="43.4777943" lon="11.2127872"><ele>296.5</ele><time>2026-03-22T10:19:48.668Z</time></trkpt><trkpt lat="43.4776981" lon="11.2127874"><ele>298.33333333333337</ele><time>2026-03-22T10:19:49.664Z</time></trkpt><trkpt lat="43.4776003" lon="11.2128017"><ele>300.1666666666667</ele><time>2026-03-22T10:19:50.669Z</time></trkpt><trkpt lat="43.4775103" lon="11.2128105"><ele>302.0</ele><time>2026-03-22T10:19:51.666Z</time></trkpt><trkpt lat="43.4774466" lon="11.2127989"><ele>302.0</ele><time>2026-03-22T10:19:52.659Z</time></trkpt><trkpt lat="43.4773713" lon="11.2128268"><ele>302.0</ele><time>2026-03-22T10:19:59.67Z</time></trkpt><trkpt lat="43.4773682" lon="11.2129704"><ele>302.0</ele><time>2026-03-22T10:20:02.687Z</time></trkpt><trkpt lat="43.4774051" lon="11.2131281"><ele>302.0</ele><time>2026-03-22T10:20:04.663Z</time></trkpt><trkpt lat="43.4774198" lon="11.2132195"><ele>302.0</ele><time>2026-03-22T10:20:05.667Z</time></trkpt><trkpt lat="43.4774128" lon="11.2133204"><ele>302.0</ele><time>2026-03-22T10:20:06.664Z</time></trkpt><trkpt lat="43.4773889" lon="11.2134396"><ele>302.5</ele><time>2026-03-22T10:20:07.663Z</time></trkpt><trkpt lat="43.4773592" lon="11.2135619"><ele>303.0</ele><time>2026-03-22T10:20:08.664Z</time></trkpt><trkpt lat="43.4773345" lon="11.213669"><ele>303.5</ele><time>2026-03-22T10:20:09.701Z</time></trkpt><trkpt lat="43.4773146" lon="11.2137603"><ele>304.0</ele><time>2026-03-22T10:20:10.666Z</time></trkpt><trkpt lat="43.4772694" lon="11.2138396"><ele>304.5</ele><time>2026-03-22T10:20:12.664Z</time></trkpt><trkpt lat="43.4771461" lon="11.2137996"><ele>305.0</ele><time>2026-03-22T10:20:14.684Z</time></trkpt><trkpt lat="43.47707" lon="11.2137488"><ele>305.2</ele><time>2026-03-22T10:20:15.662Z</time></trkpt><trkpt lat="43.4770011" lon="11.213694"><ele>305.4</ele><time>2026-03-22T10:20:16.664Z</time></trkpt><trkpt lat="43.4769222" lon="11.2136487"><ele>305.6</ele><time>2026-03-22T10:20:18.661Z</time></trkpt><trkpt lat="43.47681" lon="11.2136872"><ele>305.8</ele><time>2026-03-22T10:20:20.664Z</time></trkpt><trkpt lat="43.4767315" lon="11.2137354"><ele>306.0</ele><time>2026-03-22T10:20:21.665Z</time></trkpt><trkpt lat="43.4766483" lon="11.2137984"><ele>306.0</ele><time>2026-03-22T10:20:22.664Z</time></trkpt><trkpt lat="43.4765687" lon="11.2138566"><ele>306.0</ele><time>2026-03-22T10:20:23.668Z</time></trkpt><trkpt lat="43.4764705" lon="11.2139042"><ele>306.0</ele><time>2026-03-22T10:20:24.657Z</time></trkpt><trkpt lat="43.4763666" lon="11.2139434"><ele>306.0</ele><time>2026-03-22T10:20:25.679Z</time></trkpt><trkpt lat="43.4762656" lon="11.213974"><ele>306.0</ele><time>2026-03-22T10:20:26.662Z</time></trkpt><trkpt lat="43.476178" lon="11.213989"><ele>306.8333333333333</ele><time>2026-03-22T10:20:27.665Z</time></trkpt><trkpt lat="43.4760962" lon="11.2140161"><ele>307.6666666666667</ele><time>2026-03-22T10:20:28.661Z</time></trkpt><trkpt lat="43.4760264" lon="11.2140681"><ele>308.5</ele><time>2026-03-22T10:20:29.659Z</time></trkpt><trkpt lat="43.4759614" lon="11.2141219"><ele>309.33333333333337</ele><time>2026-03-22T10:20:30.669Z</time></trkpt><trkpt lat="43.4759026" lon="11.2142014"><ele>310.1666666666667</ele><time>2026-03-22T10:20:31.662Z</time></trkpt><trkpt lat="43.475851" lon="11.2142856"><ele>311.0</ele><time>2026-03-22T10:20:32.659Z</time></trkpt><trkpt lat="43.4757985" lon="11.2143888"><ele>311.0</ele><time>2026-03-22T10:20:33.661Z</time></trkpt><trkpt lat="43.4757507" lon="11.2145251"><ele>311.0</ele><time>2026-03-22T10:20:34.664Z</time></trkpt><trkpt lat="43.4756994" lon="11.2146704"><ele>311.0</ele><time>2026-03-22T10:20:35.666Z</time></trkpt><trkpt lat="43.4756498" lon="11.2147991"><ele>311.0</ele><time>2026-03-22T10:20:36.664Z</time></trkpt><trkpt lat="43.47561" lon="11.2149189"><ele>311.0</ele><time>2026-03-22T10:20:37.665Z</time></trkpt><trkpt lat="43.4755707" lon="11.2150379"><ele>309.6</ele><time>2026-03-22T10:20:38.67Z</time></trkpt><trkpt lat="43.4755276" lon="11.2151532"><ele>308.20000000000005</ele><time>2026-03-22T10:20:39.664Z</time></trkpt><trkpt lat="43.4754941" lon="11.2152719"><ele>306.79999999999995</ele><time>2026-03-22T10:20:40.661Z</time></trkpt><trkpt lat="43.4754616" lon="11.2153795"><ele>305.4</ele><time>2026-03-22T10:20:41.666Z</time></trkpt><trkpt lat="43.4754306" lon="11.2154915"><ele>304.0</ele><time>2026-03-22T10:20:43.682Z</time></trkpt><trkpt lat="43.4755058" lon="11.2155723"><ele>307.4</ele><time>2026-03-22T10:20:46.665Z</time></trkpt><trkpt lat="43.4755862" lon="11.2155041"><ele>310.79999999999995</ele><time>2026-03-22T10:20:48.663Z</time></trkpt><trkpt lat="43.4756668" lon="11.2154079"><ele>314.20000000000005</ele><time>2026-03-22T10:20:50.666Z</time></trkpt><trkpt lat="43.4757547" lon="11.2153028"><ele>317.6</ele><time>2026-03-22T10:20:52.667Z</time></trkpt><trkpt lat="43.4758457" lon="11.2152021"><ele>321.0</ele><time>2026-03-22T10:20:54.695Z</time></trkpt><trkpt lat="43.4759295" lon="11.2150934"><ele>321.0</ele><time>2026-03-22T10:20:56.67Z</time></trkpt><trkpt lat="43.4760171" lon="11.2149944"><ele>321.0</ele><time>2026-03-22T10:20:58.668Z</time></trkpt><trkpt lat="43.4760669" lon="11.214938"><ele>321.0</ele><time>2026-03-22T10:21:00.664Z</time></trkpt><trkpt lat="43.476165" lon="11.214899"><ele>321.0</ele><time>2026-03-22T10:21:03.667Z</time></trkpt><trkpt lat="43.4762152" lon="11.2148382"><ele>321.0</ele><time>2026-03-22T10:21:05.661Z</time></trkpt><trkpt lat="43.4762141" lon="11.2147363"><ele>321.0</ele><time>2026-03-22T10:21:07.666Z</time></trkpt><trkpt lat="43.4762235" lon="11.2146474"><ele>319.6</ele><time>2026-03-22T10:21:08.686Z</time></trkpt><trkpt lat="43.4762396" lon="11.2145539"><ele>318.20000000000005</ele><time>2026-03-22T10:21:09.658Z</time></trkpt><trkpt lat="43.4762631" lon="11.2144113"><ele>316.79999999999995</ele><time>2026-03-22T10:21:11.665Z</time></trkpt><trkpt lat="43.4762776" lon="11.2142887"><ele>315.4</ele><time>2026-03-22T10:21:13.668Z</time></trkpt><trkpt lat="43.4763008" lon="11.2141454"><ele>314.0</ele><time>2026-03-22T10:21:15.693Z</time></trkpt><trkpt lat="43.4763203" lon="11.214023"><ele>312.6666666666667</ele><time>2026-03-22T10:21:17.66Z</time></trkpt><trkpt lat="43.4763608" lon="11.2139467"><ele>311.33333333333337</ele><time>2026-03-22T10:21:19.658Z</time></trkpt><trkpt lat="43.4764787" lon="11.2138983"><ele>310.0</ele><time>2026-03-22T10:21:21.667Z</time></trkpt><trkpt lat="43.4765585" lon="11.2138825"><ele>308.6666666666667</ele><time>2026-03-22T10:21:22.699Z</time></trkpt><trkpt lat="43.4766307" lon="11.2138564"><ele>307.3333333333333</ele><time>2026-03-22T10:21:23.669Z</time></trkpt><trkpt lat="43.4767015" lon="11.2138098"><ele>306.0</ele><time>2026-03-22T10:21:24.669Z</time></trkpt><trkpt lat="43.4767558" lon="11.2137442"><ele>306.0</ele><time>2026-03-22T10:21:25.666Z</time></trkpt><trkpt lat="43.4768211" lon="11.2136334"><ele>306.0</ele><time>2026-03-22T10:21:27.664Z</time></trkpt><trkpt lat="43.476832" lon="11.2135324"><ele>306.0</ele><time>2026-03-22T10:21:29.667Z</time></trkpt><trkpt lat="43.4767531" lon="11.213523"><ele>306.0</ele><time>2026-03-22T10:21:32.666Z</time></trkpt><trkpt lat="43.4766494" lon="11.2136282"><ele>306.0</ele><time>2026-03-22T10:21:34.666Z</time></trkpt><trkpt lat="43.4765774" lon="11.2137113"><ele>306.0</ele><time>2026-03-22T10:21:35.687Z</time></trkpt><trkpt lat="43.4764782" lon="11.2137648"><ele>306.0</ele><time>2026-03-22T10:21:36.669Z</time></trkpt><trkpt lat="43.4763511" lon="11.2137961"><ele>306.0</ele><time>2026-03-22T10:21:37.666Z</time></trkpt><trkpt lat="43.4762085" lon="11.2138144"><ele>306.0</ele><time>2026-03-22T10:21:38.666Z</time></trkpt><trkpt lat="43.4760753" lon="11.2138522"><ele>307.25</ele><time>2026-03-22T10:21:39.676Z</time></trkpt><trkpt lat="43.4759714" lon="11.2139159"><ele>308.5</ele><time>2026-03-22T10:21:40.662Z</time></trkpt><trkpt lat="43.4758782" lon="11.214005"><ele>309.75</ele><time>2026-03-22T10:21:41.693Z</time></trkpt><trkpt lat="43.4757887" lon="11.2141373"><ele>311.0</ele><time>2026-03-22T10:21:42.666Z</time></trkpt><trkpt lat="43.4757209" lon="11.2143052"><ele>311.0</ele><time>2026-03-22T10:21:43.664Z</time></trkpt><trkpt lat="43.4756557" lon="11.2144707"><ele>311.0</ele><time>2026-03-22T10:21:44.666Z</time></trkpt><trkpt lat="43.475588" lon="11.2146397"><ele>311.0</ele><time>2026-03-22T10:21:45.662Z</time></trkpt><trkpt lat="43.4755136" lon="11.2148212"><ele>311.0</ele><time>2026-03-22T10:21:46.662Z</time></trkpt><trkpt lat="43.4754397" lon="11.2150057"><ele>310.75</ele><time>2026-03-22T10:21:47.668Z</time></trkpt><trkpt lat="43.4753753" lon="11.2151798"><ele>310.5</ele><time>2026-03-22T10:21:48.667Z</time></trkpt><trkpt lat="43.4753311" lon="11.2153496"><ele>310.25</ele><time>2026-03-22T10:21:49.667Z</time></trkpt><trkpt lat="43.4752984" lon="11.2155278"><ele>310.0</ele><time>2026-03-22T10:21:50.666Z</time></trkpt><trkpt lat="43.4752789" lon="11.2157251"><ele>310.0</ele><time>2026-03-22T10:21:51.667Z</time></trkpt><trkpt lat="43.4752723" lon="11.2159173"><ele>310.0</ele><time>2026-03-22T10:21:52.696Z</time></trkpt><trkpt lat="43.4752671" lon="11.2160951"><ele>310.0</ele><time>2026-03-22T10:21:53.667Z</time></trkpt><trkpt lat="43.4752617" lon="11.2162452"><ele>310.0</ele><time>2026-03-22T10:21:54.664Z</time></trkpt><trkpt lat="43.4752483" lon="11.2163868"><ele>311.3333333333333</ele><time>2026-03-22T10:21:55.661Z</time></trkpt><trkpt lat="43.4752158" lon="11.2164912"><ele>312.66666666666663</ele><time>2026-03-22T10:21:56.667Z</time></trkpt><trkpt lat="43.4751793" lon="11.2165798"><ele>314.0</ele><time>2026-03-22T10:21:57.659Z</time></trkpt><trkpt lat="43.475106" lon="11.2166919"><ele>315.3333333333333</ele><time>2026-03-22T10:21:59.666Z</time></trkpt><trkpt lat="43.4750928" lon="11.2167819"><ele>316.6666666666667</ele><time>2026-03-22T10:22:01.664Z</time></trkpt><trkpt lat="43.4751219" lon="11.2168636"><ele>318.0</ele><time>2026-03-22T10:22:03.662Z</time></trkpt><trkpt lat="43.4751894" lon="11.2169414"><ele>318.0</ele><time>2026-03-22T10:22:05.661Z</time></trkpt><trkpt lat="43.4752614" lon="11.2170449"><ele>318.0</ele><time>2026-03-22T10:22:07.664Z</time></trkpt><trkpt lat="43.475344" lon="11.2171734"><ele>318.0</ele><time>2026-03-22T10:22:09.667Z</time></trkpt><trkpt lat="43.4753884" lon="11.2172499"><ele>318.0</ele><time>2026-03-22T10:22:10.666Z</time></trkpt><trkpt lat="43.4754439" lon="11.2173335"><ele>318.0</ele><time>2026-03-22T10:22:11.668Z</time></trkpt><trkpt lat="43.4755011" lon="11.2174134"><ele>321.6</ele><time>2026-03-22T10:22:12.663Z</time></trkpt><trkpt lat="43.4755567" lon="11.2175107"><ele>325.20000000000005</ele><time>2026-03-22T10:22:13.661Z</time></trkpt><trkpt lat="43.4756185" lon="11.2176225"><ele>328.8</ele><time>2026-03-22T10:22:14.672Z</time></trkpt><trkpt lat="43.4756839" lon="11.2177178"><ele>332.40000000000003</ele><time>2026-03-22T10:22:15.662Z</time></trkpt><trkpt lat="43.4757714" lon="11.2177899"><ele>336.0</ele><time>2026-03-22T10:22:16.654Z</time></trkpt><trkpt lat="43.4758925" lon="11.2178479"><ele>336.0</ele><time>2026-03-22T10:22:17.664Z</time></trkpt><trkpt lat="43.4760248" lon="11.2179176"><ele>336.0</ele><time>2026-03-22T10:22:18.667Z</time></trkpt><trkpt lat="43.4761615" lon="11.2179867"><ele>336.0</ele><time>2026-03-22T10:22:19.665Z</time></trkpt><trkpt lat="43.4762964" lon="11.2180556"><ele>336.0</ele><time>2026-03-22T10:22:20.66Z</time></trkpt><trkpt lat="43.4764219" lon="11.218133"><ele>335.5</ele><time>2026-03-22T10:22:21.686Z</time></trkpt><trkpt lat="43.4765491" lon="11.2182139"><ele>335.0</ele><time>2026-03-22T10:22:22.666Z</time></trkpt><trkpt lat="43.4766891" lon="11.2182857"><ele>334.5</ele><time>2026-03-22T10:22:23.667Z</time></trkpt><trkpt lat="43.4768314" lon="11.218369"><ele>334.0</ele><time>2026-03-22T10:22:24.67Z</time></trkpt><trkpt lat="43.4769833" lon="11.2184483"><ele>334.25</ele><time>2026-03-22T10:22:25.662Z</time></trkpt><trkpt lat="43.477137" lon="11.218506"><ele>334.5</ele><time>2026-03-22T10:22:26.68Z</time></trkpt><trkpt lat="43.4772822" lon="11.2185712"><ele>334.75</ele><time>2026-03-22T10:22:27.667Z</time></trkpt><trkpt lat="43.4774102" lon="11.2185898"><ele>335.0</ele><time>2026-03-22T10:22:28.671Z</time></trkpt><trkpt lat="43.477539" lon="11.2186119"><ele>335.0</ele><time>2026-03-22T10:22:29.664Z</time></trkpt><trkpt lat="43.4776634" lon="11.2186171"><ele>335.0</ele><time>2026-03-22T10:22:30.671Z</time></trkpt><trkpt lat="43.4777798" lon="11.2186104"><ele>335.0</ele><time>2026-03-22T10:22:31.663Z</time></trkpt><trkpt lat="43.4779007" lon="11.2185866"><ele>335.0</ele><time>2026-03-22T10:22:32.663Z</time></trkpt><trkpt lat="43.478038" lon="11.2185495"><ele>336.2</ele><time>2026-03-22T10:22:33.667Z</time></trkpt><trkpt lat="43.4781634" lon="11.2185054"><ele>337.4</ele><time>2026-03-22T10:22:34.663Z</time></trkpt><trkpt lat="43.4782756" lon="11.218456"><ele>338.6</ele><time>2026-03-22T10:22:35.693Z</time></trkpt><trkpt lat="43.4783805" lon="11.2184098"><ele>339.8</ele><time>2026-03-22T10:22:36.655Z</time></trkpt><trkpt lat="43.478471" lon="11.2183867"><ele>341.0</ele><time>2026-03-22T10:22:37.672Z</time></trkpt><trkpt lat="43.4785929" lon="11.2183072"><ele>341.0</ele><time>2026-03-22T10:22:39.67Z</time></trkpt><trkpt lat="43.4786373" lon="11.218211"><ele>341.0</ele><time>2026-03-22T10:22:40.66Z</time></trkpt><trkpt lat="43.4787126" lon="11.2180773"><ele>341.0</ele><time>2026-03-22T10:22:41.668Z</time></trkpt><trkpt lat="43.4787922" lon="11.2179481"><ele>341.0</ele><time>2026-03-22T10:22:42.666Z</time></trkpt><trkpt lat="43.4788706" lon="11.2178256"><ele>341.0</ele><time>2026-03-22T10:22:43.662Z</time></trkpt><trkpt lat="43.4789583" lon="11.2176842"><ele>338.0</ele><time>2026-03-22T10:22:44.666Z</time></trkpt><trkpt lat="43.4790596" lon="11.2175524"><ele>335.0</ele><time>2026-03-22T10:22:45.662Z</time></trkpt><trkpt lat="43.4791773" lon="11.2174306"><ele>332.0</ele><time>2026-03-22T10:22:46.674Z</time></trkpt><trkpt lat="43.4792795" lon="11.2173376"><ele>329.0</ele><time>2026-03-22T10:22:47.665Z</time></trkpt><trkpt lat="43.4793606" lon="11.2172363"><ele>328.0</ele><time>2026-03-22T10:22:48.686Z</time></trkpt><trkpt lat="43.4794247" lon="11.2171248"><ele>327.0</ele><time>2026-03-22T10:22:49.674Z</time></trkpt><trkpt lat="43.4794809" lon="11.2170076"><ele>326.0</ele><time>2026-03-22T10:22:50.663Z</time></trkpt><trkpt lat="43.4795117" lon="11.2168508"><ele>325.0</ele><time>2026-03-22T10:22:51.667Z</time></trkpt><trkpt lat="43.4795493" lon="11.2166715"><ele>324.5</ele><time>2026-03-22T10:22:52.671Z</time></trkpt><trkpt lat="43.4796038" lon="11.2164772"><ele>324.0</ele><time>2026-03-22T10:22:53.712Z</time></trkpt><trkpt lat="43.4796564" lon="11.2162983"><ele>323.5</ele><time>2026-03-22T10:22:54.664Z</time></trkpt><trkpt lat="43.4797033" lon="11.2161326"><ele>323.0</ele><time>2026-03-22T10:22:55.689Z</time></trkpt><trkpt lat="43.4797565" lon="11.2159934"><ele>323.0</ele><time>2026-03-22T10:22:56.662Z</time></trkpt><trkpt lat="43.4798046" lon="11.2158941"><ele>323.0</ele><time>2026-03-22T10:22:57.666Z</time></trkpt><trkpt lat="43.4798663" lon="11.2158347"><ele>323.0</ele><time>2026-03-22T10:22:58.661Z</time></trkpt><trkpt lat="43.4799295" lon="11.2158078"><ele>323.0</ele><time>2026-03-22T10:22:59.664Z</time></trkpt><trkpt lat="43.4800092" lon="11.2158033"><ele>323.0</ele><time>2026-03-22T10:23:00.658Z</time></trkpt><trkpt lat="43.4800881" lon="11.2158309"><ele>323.0</ele><time>2026-03-22T10:23:01.696Z</time></trkpt><trkpt lat="43.4801611" lon="11.2158831"><ele>323.0</ele><time>2026-03-22T10:23:02.664Z</time></trkpt><trkpt lat="43.4802271" lon="11.2159742"><ele>323.0</ele><time>2026-03-22T10:23:03.663Z</time></trkpt><trkpt lat="43.4802972" lon="11.2160913"><ele>323.0</ele><time>2026-03-22T10:23:04.663Z</time></trkpt><trkpt lat="43.4803704" lon="11.2162465"><ele>323.0</ele><time>2026-03-22T10:23:05.659Z</time></trkpt><trkpt lat="43.480448" lon="11.2164202"><ele>321.5</ele><time>2026-03-22T10:23:06.683Z</time></trkpt><trkpt lat="43.4805182" lon="11.2165747"><ele>320.0</ele><time>2026-03-22T10:23:07.651Z</time></trkpt><trkpt lat="43.4805905" lon="11.216704"><ele>318.5</ele><time>2026-03-22T10:23:08.672Z</time></trkpt><trkpt lat="43.4806702" lon="11.2168366"><ele>317.0</ele><time>2026-03-22T10:23:09.703Z</time></trkpt><trkpt lat="43.4807683" lon="11.2169595"><ele>317.0</ele><time>2026-03-22T10:23:10.664Z</time></trkpt><trkpt lat="43.4808753" lon="11.2170384"><ele>317.0</ele><time>2026-03-22T10:23:11.691Z</time></trkpt><trkpt lat="43.4810036" lon="11.2170934"><ele>317.0</ele><time>2026-03-22T10:23:12.665Z</time></trkpt><trkpt lat="43.4811427" lon="11.2171522"><ele>317.0</ele><time>2026-03-22T10:23:13.664Z</time></trkpt><trkpt lat="43.4812652" lon="11.2172219"><ele>316.0</ele><time>2026-03-22T10:23:14.661Z</time></trkpt><trkpt lat="43.4813762" lon="11.2172915"><ele>315.0</ele><time>2026-03-22T10:23:15.67Z</time></trkpt><trkpt lat="43.4814645" lon="11.2173993"><ele>314.0</ele><time>2026-03-22T10:23:16.669Z</time></trkpt><trkpt lat="43.4815559" lon="11.2175315"><ele>313.0</ele><time>2026-03-22T10:23:17.665Z</time></trkpt><trkpt lat="43.4816541" lon="11.2176931"><ele>313.0</ele><time>2026-03-22T10:23:18.667Z</time></trkpt><trkpt lat="43.4817453" lon="11.217879"><ele>313.0</ele><time>2026-03-22T10:23:19.665Z</time></trkpt><trkpt lat="43.4818303" lon="11.2180573"><ele>313.0</ele><time>2026-03-22T10:23:20.683Z</time></trkpt><trkpt lat="43.4818977" lon="11.2181968"><ele>313.0</ele><time>2026-03-22T10:23:21.662Z</time></trkpt><trkpt lat="43.4819305" lon="11.218312"><ele>314.5</ele><time>2026-03-22T10:23:22.667Z</time></trkpt><trkpt lat="43.4819486" lon="11.2184454"><ele>316.0</ele><time>2026-03-22T10:23:23.663Z</time></trkpt><trkpt lat="43.4819528" lon="11.2185778"><ele>317.5</ele><time>2026-03-22T10:23:24.69Z</time></trkpt><trkpt lat="43.4819444" lon="11.2187057"><ele>319.0</ele><time>2026-03-22T10:23:25.665Z</time></trkpt><trkpt lat="43.481958" lon="11.2188127"><ele>320.5</ele><time>2026-03-22T10:23:26.671Z</time></trkpt><trkpt lat="43.4819879" lon="11.2189057"><ele>322.0</ele><time>2026-03-22T10:23:27.664Z</time></trkpt><trkpt lat="43.4820482" lon="11.2189713"><ele>319.0</ele><time>2026-03-22T10:23:28.664Z</time></trkpt><trkpt lat="43.4821217" lon="11.2190248"><ele>316.0</ele><time>2026-03-22T10:23:29.663Z</time></trkpt><trkpt lat="43.4822235" lon="11.2190814"><ele>313.0</ele><time>2026-03-22T10:23:30.663Z</time></trkpt><trkpt lat="43.4823359" lon="11.2191728"><ele>310.0</ele><time>2026-03-22T10:23:31.67Z</time></trkpt><trkpt lat="43.4824424" lon="11.2192837"><ele>310.0</ele><time>2026-03-22T10:23:32.663Z</time></trkpt><trkpt lat="43.482535" lon="11.2193938"><ele>310.0</ele><time>2026-03-22T10:23:33.689Z</time></trkpt><trkpt lat="43.4826103" lon="11.2195223"><ele>310.0</ele><time>2026-03-22T10:23:34.668Z</time></trkpt><trkpt lat="43.4826845" lon="11.2196498"><ele>310.0</ele><time>2026-03-22T10:23:35.666Z</time></trkpt><trkpt lat="43.4827544" lon="11.2197728"><ele>312.75</ele><time>2026-03-22T10:23:36.666Z</time></trkpt><trkpt lat="43.4828319" lon="11.2198997"><ele>315.5</ele><time>2026-03-22T10:23:37.66Z</time></trkpt><trkpt lat="43.4829086" lon="11.2200212"><ele>318.25</ele><time>2026-03-22T10:23:38.66Z</time></trkpt><trkpt lat="43.483002" lon="11.2201243"><ele>321.0</ele><time>2026-03-22T10:23:39.663Z</time></trkpt><trkpt lat="43.4830989" lon="11.2202049"><ele>321.5</ele><time>2026-03-22T10:23:40.661Z</time></trkpt><trkpt lat="43.4832108" lon="11.2202319"><ele>322.0</ele><time>2026-03-22T10:23:41.664Z</time></trkpt><trkpt lat="43.4833351" lon="11.2202621"><ele>322.5</ele><time>2026-03-22T10:23:42.667Z</time></trkpt><trkpt lat="43.4834675" lon="11.2202987"><ele>323.0</ele><time>2026-03-22T10:23:43.652Z</time></trkpt><trkpt lat="43.4835951" lon="11.2203597"><ele>323.0</ele><time>2026-03-22T10:23:44.66Z</time></trkpt><trkpt lat="43.4837623" lon="11.2204322"><ele>323.0</ele><time>2026-03-22T10:23:45.668Z</time></trkpt><trkpt lat="43.4839307" lon="11.2205092"><ele>323.0</ele><time>2026-03-22T10:23:46.664Z</time></trkpt><trkpt lat="43.484062" lon="11.2205612"><ele>325.83333333333337</ele><time>2026-03-22T10:23:47.655Z</time></trkpt><trkpt lat="43.4841382" lon="11.2205875"><ele>328.6666666666667</ele><time>2026-03-22T10:23:48.683Z</time></trkpt><trkpt lat="43.4842472" lon="11.2205177"><ele>331.5</ele><time>2026-03-22T10:23:50.665Z</time></trkpt><trkpt lat="43.4842872" lon="11.2204399"><ele>334.3333333333333</ele><time>2026-03-22T10:23:51.656Z</time></trkpt><trkpt lat="43.484307" lon="11.2203359"><ele>337.16666666666663</ele><time>2026-03-22T10:23:52.664Z</time></trkpt><trkpt lat="43.4843115" lon="11.2202339"><ele>340.0</ele><time>2026-03-22T10:23:53.658Z</time></trkpt><trkpt lat="43.4842951" lon="11.2201418"><ele>340.0</ele><time>2026-03-22T10:23:54.666Z</time></trkpt><trkpt lat="43.4842694" lon="11.2200513"><ele>340.0</ele><time>2026-03-22T10:23:55.664Z</time></trkpt><trkpt lat="43.4842179" lon="11.2199377"><ele>340.0</ele><time>2026-03-22T10:23:56.663Z</time></trkpt><trkpt lat="43.4841467" lon="11.2197953"><ele>340.0</ele><time>2026-03-22T10:23:57.665Z</time></trkpt><trkpt lat="43.4840678" lon="11.2196544"><ele>340.0</ele><time>2026-03-22T10:23:58.661Z</time></trkpt><trkpt lat="43.4840009" lon="11.2195247"><ele>342.0</ele><time>2026-03-22T10:23:59.675Z</time></trkpt><trkpt lat="43.4839715" lon="11.2194031"><ele>344.0</ele><time>2026-03-22T10:24:00.664Z</time></trkpt><trkpt lat="43.4839516" lon="11.2192916"><ele>346.0</ele><time>2026-03-22T10:24:01.659Z</time></trkpt><trkpt lat="43.4839413" lon="11.2191662"><ele>348.0</ele><time>2026-03-22T10:24:02.664Z</time></trkpt><trkpt lat="43.4839317" lon="11.2190116"><ele>350.0</ele><time>2026-03-22T10:24:03.664Z</time></trkpt><trkpt lat="43.4839091" lon="11.2188292"><ele>351.0</ele><time>2026-03-22T10:24:04.662Z</time></trkpt><trkpt lat="43.4838864" lon="11.2186319"><ele>352.0</ele><time>2026-03-22T10:24:05.683Z</time></trkpt><trkpt lat="43.4838617" lon="11.2184154"><ele>353.0</ele><time>2026-03-22T10:24:06.662Z</time></trkpt><trkpt lat="43.4838344" lon="11.2182038"><ele>353.5</ele><time>2026-03-22T10:24:07.663Z</time></trkpt><trkpt lat="43.4837996" lon="11.2180157"><ele>354.0</ele><time>2026-03-22T10:24:08.658Z</time></trkpt><trkpt lat="43.483756" lon="11.217843"><ele>354.5</ele><time>2026-03-22T10:24:09.659Z</time></trkpt><trkpt lat="43.4837099" lon="11.2176743"><ele>355.0</ele><time>2026-03-22T10:24:10.656Z</time></trkpt><trkpt lat="43.4836622" lon="11.2175283"><ele>351.8</ele><time>2026-03-22T10:24:11.667Z</time></trkpt><trkpt lat="43.4836294" lon="11.2173964"><ele>348.6</ele><time>2026-03-22T10:24:12.661Z</time></trkpt><trkpt lat="43.4836082" lon="11.2172726"><ele>345.4</ele><time>2026-03-22T10:24:13.671Z</time></trkpt><trkpt lat="43.4835918" lon="11.2171504"><ele>342.2</ele><time>2026-03-22T10:24:14.66Z</time></trkpt><trkpt lat="43.4835968" lon="11.2169963"><ele>339.0</ele><time>2026-03-22T10:24:15.65Z</time></trkpt><trkpt lat="43.4836112" lon="11.2168445"><ele>339.0</ele><time>2026-03-22T10:24:16.657Z</time></trkpt><trkpt lat="43.4836302" lon="11.2167203"><ele>339.0</ele><time>2026-03-22T10:24:17.659Z</time></trkpt><trkpt lat="43.4836559" lon="11.2166189"><ele>339.0</ele><time>2026-03-22T10:24:18.666Z</time></trkpt><trkpt lat="43.4836808" lon="11.2165351"><ele>339.0</ele><time>2026-03-22T10:24:19.66Z</time></trkpt><trkpt lat="43.4837477" lon="11.2164149"><ele>339.0</ele><time>2026-03-22T10:24:21.668Z</time></trkpt><trkpt lat="43.4838499" lon="11.2163678"><ele>340.79999999999995</ele><time>2026-03-22T10:24:23.663Z</time></trkpt><trkpt lat="43.4839591" lon="11.2163573"><ele>342.59999999999997</ele><time>2026-03-22T10:24:25.668Z</time></trkpt><trkpt lat="43.4840899" lon="11.2163747"><ele>344.4</ele><time>2026-03-22T10:24:27.682Z</time></trkpt><trkpt lat="43.4841549" lon="11.2164076"><ele>346.2</ele><time>2026-03-22T10:24:28.665Z</time></trkpt><trkpt lat="43.4842179" lon="11.2164598"><ele>348.0</ele><time>2026-03-22T10:24:29.664Z</time></trkpt><trkpt lat="43.4842815" lon="11.2165018"><ele>349.1666666666667</ele><time>2026-03-22T10:24:30.661Z</time></trkpt><trkpt lat="43.4843454" lon="11.2165176"><ele>350.3333333333333</ele><time>2026-03-22T10:24:31.665Z</time></trkpt><trkpt lat="43.4844079" lon="11.2165348"><ele>351.5</ele><time>2026-03-22T10:24:32.675Z</time></trkpt><trkpt lat="43.4845284" lon="11.2166206"><ele>352.66666666666663</ele><time>2026-03-22T10:24:34.68Z</time></trkpt><trkpt lat="43.4845799" lon="11.2166948"><ele>353.8333333333333</ele><time>2026-03-22T10:24:35.667Z</time></trkpt><trkpt lat="43.4846289" lon="11.216782"><ele>355.0</ele><time>2026-03-22T10:24:36.662Z</time></trkpt><trkpt lat="43.4846706" lon="11.2168867"><ele>352.8</ele><time>2026-03-22T10:24:37.666Z</time></trkpt><trkpt lat="43.4847097" lon="11.2169894"><ele>350.6</ele><time>2026-03-22T10:24:38.667Z</time></trkpt><trkpt lat="43.4847437" lon="11.2171075"><ele>348.4</ele><time>2026-03-22T10:24:39.657Z</time></trkpt><trkpt lat="43.4847733" lon="11.2172373"><ele>346.2</ele><time>2026-03-22T10:24:40.665Z</time></trkpt><trkpt lat="43.4848037" lon="11.2173756"><ele>344.0</ele><time>2026-03-22T10:24:41.663Z</time></trkpt><trkpt lat="43.48483" lon="11.2175616"><ele>344.0</ele><time>2026-03-22T10:24:42.661Z</time></trkpt><trkpt lat="43.4848558" lon="11.2177594"><ele>344.0</ele><time>2026-03-22T10:24:43.662Z</time></trkpt><trkpt lat="43.4848821" lon="11.2179594"><ele>344.0</ele><time>2026-03-22T10:24:44.667Z</time></trkpt><trkpt lat="43.4849124" lon="11.2181486"><ele>344.0</ele><time>2026-03-22T10:24:45.656Z</time></trkpt><trkpt lat="43.4849471" lon="11.2183232"><ele>344.1666666666667</ele><time>2026-03-22T10:24:46.678Z</time></trkpt><trkpt lat="43.4849814" lon="11.2184612"><ele>344.33333333333337</ele><time>2026-03-22T10:24:47.665Z</time></trkpt><trkpt lat="43.485015" lon="11.218574"><ele>344.5</ele><time>2026-03-22T10:24:48.668Z</time></trkpt><trkpt lat="43.4850459" lon="11.2186652"><ele>344.6666666666667</ele><time>2026-03-22T10:24:49.666Z</time></trkpt><trkpt lat="43.4851296" lon="11.2187551"><ele>344.8333333333333</ele><time>2026-03-22T10:24:51.665Z</time></trkpt><trkpt lat="43.4851946" lon="11.2187525"><ele>345.0</ele><time>2026-03-22T10:24:52.659Z</time></trkpt><trkpt lat="43.485263" lon="11.2187027"><ele>345.0</ele><time>2026-03-22T10:24:53.697Z</time></trkpt><trkpt lat="43.4853461" lon="11.2186255"><ele>345.0</ele><time>2026-03-22T10:24:54.661Z</time></trkpt><trkpt lat="43.4854436" lon="11.2185253"><ele>345.0</ele><time>2026-03-22T10:24:55.66Z</time></trkpt><trkpt lat="43.4855592" lon="11.2184102"><ele>345.0</ele><time>2026-03-22T10:24:56.661Z</time></trkpt><trkpt lat="43.4856727" lon="11.218295"><ele>342.0</ele><time>2026-03-22T10:24:57.664Z</time></trkpt><trkpt lat="43.4857734" lon="11.2181975"><ele>339.0</ele><time>2026-03-22T10:24:58.662Z</time></trkpt><trkpt lat="43.4858624" lon="11.2181137"><ele>336.0</ele><time>2026-03-22T10:24:59.703Z</time></trkpt><trkpt lat="43.4859485" lon="11.2180439"><ele>333.0</ele><time>2026-03-22T10:25:00.661Z</time></trkpt><trkpt lat="43.4860211" lon="11.2179896"><ele>330.0</ele><time>2026-03-22T10:25:01.666Z</time></trkpt><trkpt lat="43.4861052" lon="11.2179644"><ele>328.75</ele><time>2026-03-22T10:25:02.66Z</time></trkpt><trkpt lat="43.486186" lon="11.2179947"><ele>327.5</ele><time>2026-03-22T10:25:03.664Z</time></trkpt><trkpt lat="43.4862922" lon="11.2180668"><ele>326.25</ele><time>2026-03-22T10:25:04.663Z</time></trkpt><trkpt lat="43.4864438" lon="11.2181612"><ele>325.0</ele><time>2026-03-22T10:25:05.666Z</time></trkpt><trkpt lat="43.4865832" lon="11.2182266"><ele>323.6</ele><time>2026-03-22T10:25:06.662Z</time></trkpt><trkpt lat="43.4867109" lon="11.2182898"><ele>322.2</ele><time>2026-03-22T10:25:07.696Z</time></trkpt><trkpt lat="43.4868173" lon="11.2183485"><ele>320.8</ele><time>2026-03-22T10:25:08.666Z</time></trkpt><trkpt lat="43.4869044" lon="11.2184184"><ele>319.4</ele><time>2026-03-22T10:25:09.672Z</time></trkpt><trkpt lat="43.4869717" lon="11.2185073"><ele>318.0</ele><time>2026-03-22T10:25:10.669Z</time></trkpt><trkpt lat="43.4870413" lon="11.2186242"><ele>318.0</ele><time>2026-03-22T10:25:11.664Z</time></trkpt><trkpt lat="43.4871027" lon="11.2187603"><ele>318.0</ele><time>2026-03-22T10:25:12.659Z</time></trkpt><trkpt lat="43.4871492" lon="11.2188989"><ele>318.0</ele><time>2026-03-22T10:25:13.663Z</time></trkpt><trkpt lat="43.4871859" lon="11.2190149"><ele>318.0</ele><time>2026-03-22T10:25:14.665Z</time></trkpt><trkpt lat="43.4872267" lon="11.2191093"><ele>318.0</ele><time>2026-03-22T10:25:15.664Z</time></trkpt><trkpt lat="43.4872982" lon="11.2191852"><ele>318.0</ele><time>2026-03-22T10:25:17.669Z</time></trkpt><trkpt lat="43.4873467" lon="11.2190593"><ele>318.0</ele><time>2026-03-22T10:25:20.665Z</time></trkpt><trkpt lat="43.4873207" lon="11.2189577"><ele>318.0</ele><time>2026-03-22T10:25:21.663Z</time></trkpt><trkpt lat="43.4872886" lon="11.2188279"><ele>318.0</ele><time>2026-03-22T10:25:22.663Z</time></trkpt><trkpt lat="43.4872954" lon="11.2186954"><ele>318.0</ele><time>2026-03-22T10:25:23.664Z</time></trkpt><trkpt lat="43.4873144" lon="11.2185362"><ele>318.0</ele><time>2026-03-22T10:25:24.665Z</time></trkpt><trkpt lat="43.4873428" lon="11.2183574"><ele>318.0</ele><time>2026-03-22T10:25:25.667Z</time></trkpt><trkpt lat="43.4873847" lon="11.2181432"><ele>318.0</ele><time>2026-03-22T10:25:26.659Z</time></trkpt><trkpt lat="43.4874193" lon="11.2179428"><ele>318.0</ele><time>2026-03-22T10:25:27.659Z</time></trkpt><trkpt lat="43.4874295" lon="11.2177764"><ele>320.0</ele><time>2026-03-22T10:25:28.664Z</time></trkpt><trkpt lat="43.4874297" lon="11.2176213"><ele>322.0</ele><time>2026-03-22T10:25:29.662Z</time></trkpt><trkpt lat="43.4874152" lon="11.2174709"><ele>324.0</ele><time>2026-03-22T10:25:30.665Z</time></trkpt><trkpt lat="43.4873845" lon="11.2173148"><ele>326.0</ele><time>2026-03-22T10:25:31.684Z</time></trkpt><trkpt lat="43.4873371" lon="11.2171491"><ele>326.25</ele><time>2026-03-22T10:25:32.66Z</time></trkpt><trkpt lat="43.4872853" lon="11.2169835"><ele>326.5</ele><time>2026-03-22T10:25:33.664Z</time></trkpt><trkpt lat="43.4872239" lon="11.2167952"><ele>326.75</ele><time>2026-03-22T10:25:34.66Z</time></trkpt><trkpt lat="43.4871464" lon="11.2166017"><ele>327.0</ele><time>2026-03-22T10:25:35.665Z</time></trkpt><trkpt lat="43.4870805" lon="11.2164021"><ele>327.0</ele><time>2026-03-22T10:25:36.709Z</time></trkpt><trkpt lat="43.487044" lon="11.2162523"><ele>327.0</ele><time>2026-03-22T10:25:37.657Z</time></trkpt><trkpt lat="43.4870234" lon="11.2161689"><ele>327.0</ele><time>2026-03-22T10:25:38.68Z</time></trkpt><trkpt lat="43.4870125" lon="11.2160708"><ele>327.0</ele><time>2026-03-22T10:25:40.664Z</time></trkpt><trkpt lat="43.4870852" lon="11.2160359"><ele>327.0</ele><time>2026-03-22T10:25:43.666Z</time></trkpt><trkpt lat="43.4871764" lon="11.2161426"><ele>327.0</ele><time>2026-03-22T10:25:45.661Z</time></trkpt><trkpt lat="43.4872402" lon="11.2162101"><ele>330.25</ele><time>2026-03-22T10:25:46.661Z</time></trkpt><trkpt lat="43.4873159" lon="11.216283"><ele>333.5</ele><time>2026-03-22T10:25:47.688Z</time></trkpt><trkpt lat="43.487404" lon="11.2163569"><ele>336.75</ele><time>2026-03-22T10:25:48.667Z</time></trkpt><trkpt lat="43.4875095" lon="11.2164681"><ele>340.0</ele><time>2026-03-22T10:25:49.663Z</time></trkpt><trkpt lat="43.4876281" lon="11.2165985"><ele>340.0</ele><time>2026-03-22T10:25:50.661Z</time></trkpt><trkpt lat="43.4877395" lon="11.2167355"><ele>340.0</ele><time>2026-03-22T10:25:51.665Z</time></trkpt><trkpt lat="43.4878379" lon="11.2168625"><ele>340.0</ele><time>2026-03-22T10:25:52.659Z</time></trkpt><trkpt lat="43.4879155" lon="11.2169664"><ele>340.0</ele><time>2026-03-22T10:25:53.661Z</time></trkpt><trkpt lat="43.4879772" lon="11.2170491"><ele>343.8333333333333</ele><time>2026-03-22T10:25:54.664Z</time></trkpt><trkpt lat="43.4880299" lon="11.2171138"><ele>347.66666666666663</ele><time>2026-03-22T10:25:55.659Z</time></trkpt><trkpt lat="43.4880923" lon="11.2171651"><ele>351.5</ele><time>2026-03-22T10:25:56.676Z</time></trkpt><trkpt lat="43.4881555" lon="11.2171837"><ele>355.3333333333333</ele><time>2026-03-22T10:25:57.652Z</time></trkpt><trkpt lat="43.4882394" lon="11.2171723"><ele>359.1666666666667</ele><time>2026-03-22T10:25:58.667Z</time></trkpt><trkpt lat="43.4883477" lon="11.217152"><ele>363.0</ele><time>2026-03-22T10:25:59.664Z</time></trkpt><trkpt lat="43.4884792" lon="11.2171028"><ele>363.0</ele><time>2026-03-22T10:26:00.661Z</time></trkpt><trkpt lat="43.4886001" lon="11.2170771"><ele>363.0</ele><time>2026-03-22T10:26:01.658Z</time></trkpt><trkpt lat="43.488723" lon="11.2170886"><ele>363.0</ele><time>2026-03-22T10:26:02.663Z</time></trkpt><trkpt lat="43.4888832" lon="11.2170938"><ele>363.0</ele><time>2026-03-22T10:26:03.662Z</time></trkpt><trkpt lat="43.4890664" lon="11.2170906"><ele>364.6666666666667</ele><time>2026-03-22T10:26:04.658Z</time></trkpt><trkpt lat="43.489252" lon="11.2170741"><ele>366.33333333333337</ele><time>2026-03-22T10:26:05.666Z</time></trkpt><trkpt lat="43.4894282" lon="11.2170636"><ele>368.0</ele><time>2026-03-22T10:26:06.665Z</time></trkpt><trkpt lat="43.4895747" lon="11.2170641"><ele>369.75</ele><time>2026-03-22T10:26:07.666Z</time></trkpt><trkpt lat="43.489709" lon="11.2170818"><ele>371.5</ele><time>2026-03-22T10:26:08.663Z</time></trkpt><trkpt lat="43.4898466" lon="11.217085"><ele>373.25</ele><time>2026-03-22T10:26:09.685Z</time></trkpt><trkpt lat="43.4899721" lon="11.2170776"><ele>375.0</ele><time>2026-03-22T10:26:10.668Z</time></trkpt><trkpt lat="43.490069" lon="11.2170758"><ele>375.0</ele><time>2026-03-22T10:26:11.663Z</time></trkpt><trkpt lat="43.4901459" lon="11.2170822"><ele>375.0</ele><time>2026-03-22T10:26:12.66Z</time></trkpt><trkpt lat="43.4902094" lon="11.2170782"><ele>375.0</ele><time>2026-03-22T10:26:13.665Z</time></trkpt><trkpt lat="43.4903092" lon="11.2171916"><ele>375.0</ele><time>2026-03-22T10:26:15.66Z</time></trkpt><trkpt lat="43.4903583" lon="11.2172921"><ele>375.0</ele><time>2026-03-22T10:26:16.696Z</time></trkpt><trkpt lat="43.4903929" lon="11.2174205"><ele>375.6</ele><time>2026-03-22T10:26:17.663Z</time></trkpt><trkpt lat="43.4903945" lon="11.2175566"><ele>376.2</ele><time>2026-03-22T10:26:18.665Z</time></trkpt><trkpt lat="43.4903895" lon="11.2176676"><ele>376.79999999999995</ele><time>2026-03-22T10:26:19.663Z</time></trkpt><trkpt lat="43.4904139" lon="11.2177663"><ele>377.4</ele><time>2026-03-22T10:26:20.667Z</time></trkpt><trkpt lat="43.4904656" lon="11.2178956"><ele>378.0</ele><time>2026-03-22T10:26:21.666Z</time></trkpt><trkpt lat="43.4905524" lon="11.2180532"><ele>380.5</ele><time>2026-03-22T10:26:22.688Z</time></trkpt><trkpt lat="43.4906364" lon="11.2182239"><ele>383.0</ele><time>2026-03-22T10:26:23.668Z</time></trkpt><trkpt lat="43.4907244" lon="11.2183806"><ele>385.5</ele><time>2026-03-22T10:26:24.663Z</time></trkpt><trkpt lat="43.4907998" lon="11.2185211"><ele>388.0</ele><time>2026-03-22T10:26:25.665Z</time></trkpt><trkpt lat="43.4908619" lon="11.2186477"><ele>388.0</ele><time>2026-03-22T10:26:26.666Z</time></trkpt><trkpt lat="43.4909408" lon="11.2187593"><ele>388.0</ele><time>2026-03-22T10:26:27.668Z</time></trkpt><trkpt lat="43.4910312" lon="11.2188811"><ele>388.0</ele><time>2026-03-22T10:26:28.662Z</time></trkpt><trkpt lat="43.4911354" lon="11.2189991"><ele>388.0</ele><time>2026-03-22T10:26:29.667Z</time></trkpt><trkpt lat="43.4912392" lon="11.2191335"><ele>388.25</ele><time>2026-03-22T10:26:30.67Z</time></trkpt><trkpt lat="43.4913481" lon="11.2192771"><ele>388.5</ele><time>2026-03-22T10:26:31.666Z</time></trkpt><trkpt lat="43.4914347" lon="11.2194227"><ele>388.75</ele><time>2026-03-22T10:26:32.661Z</time></trkpt><trkpt lat="43.4915174" lon="11.2195703"><ele>389.0</ele><time>2026-03-22T10:26:33.655Z</time></trkpt><trkpt lat="43.4916084" lon="11.2197227"><ele>391.0</ele><time>2026-03-22T10:26:34.669Z</time></trkpt><trkpt lat="43.4916951" lon="11.2198928"><ele>393.0</ele><time>2026-03-22T10:26:35.668Z</time></trkpt><trkpt lat="43.4917651" lon="11.220038"><ele>395.0</ele><time>2026-03-22T10:26:36.663Z</time></trkpt><trkpt lat="43.4918383" lon="11.2201798"><ele>397.0</ele><time>2026-03-22T10:26:37.666Z</time></trkpt><trkpt lat="43.4919412" lon="11.2203063"><ele>397.0</ele><time>2026-03-22T10:26:38.669Z</time></trkpt><trkpt lat="43.4920724" lon="11.2204568"><ele>397.0</ele><time>2026-03-22T10:26:39.671Z</time></trkpt><trkpt lat="43.4922075" lon="11.2206166"><ele>397.0</ele><time>2026-03-22T10:26:40.667Z</time></trkpt><trkpt lat="43.4923325" lon="11.2207581"><ele>396.0</ele><time>2026-03-22T10:26:41.664Z</time></trkpt><trkpt lat="43.492443" lon="11.2208949"><ele>395.0</ele><time>2026-03-22T10:26:42.665Z</time></trkpt><trkpt lat="43.4925378" lon="11.2210321"><ele>394.0</ele><time>2026-03-22T10:26:43.693Z</time></trkpt><trkpt lat="43.4926228" lon="11.2211682"><ele>393.0</ele><time>2026-03-22T10:26:44.666Z</time></trkpt><trkpt lat="43.4927065" lon="11.221302"><ele>393.0</ele><time>2026-03-22T10:26:45.666Z</time></trkpt><trkpt lat="43.4927939" lon="11.2214275"><ele>393.0</ele><time>2026-03-22T10:26:46.665Z</time></trkpt><trkpt lat="43.4928798" lon="11.2215412"><ele>393.0</ele><time>2026-03-22T10:26:47.665Z</time></trkpt><trkpt lat="43.4929743" lon="11.2216338"><ele>393.0</ele><time>2026-03-22T10:26:48.681Z</time></trkpt><trkpt lat="43.493069" lon="11.2217081"><ele>394.79999999999995</ele><time>2026-03-22T10:26:49.656Z</time></trkpt><trkpt lat="43.4931622" lon="11.2217641"><ele>396.6</ele><time>2026-03-22T10:26:50.663Z</time></trkpt><trkpt lat="43.4932584" lon="11.2217915"><ele>398.4</ele><time>2026-03-22T10:26:51.662Z</time></trkpt><trkpt lat="43.4933536" lon="11.221791"><ele>400.20000000000005</ele><time>2026-03-22T10:26:52.662Z</time></trkpt><trkpt lat="43.4934469" lon="11.2217525"><ele>402.0</ele><time>2026-03-22T10:26:53.668Z</time></trkpt><trkpt lat="43.4935554" lon="11.2216628"><ele>402.0</ele><time>2026-03-22T10:26:54.664Z</time></trkpt><trkpt lat="43.4936649" lon="11.221568"><ele>402.0</ele><time>2026-03-22T10:26:55.658Z</time></trkpt><trkpt lat="43.4937685" lon="11.2214734"><ele>402.0</ele><time>2026-03-22T10:26:56.662Z</time></trkpt><trkpt lat="43.4938821" lon="11.2213719"><ele>402.0</ele><time>2026-03-22T10:26:57.66Z</time></trkpt><trkpt lat="43.4940243" lon="11.2212969"><ele>401.20000000000005</ele><time>2026-03-22T10:26:58.689Z</time></trkpt><trkpt lat="43.4941517" lon="11.2212321"><ele>400.4</ele><time>2026-03-22T10:26:59.661Z</time></trkpt><trkpt lat="43.4942608" lon="11.2211785"><ele>399.6</ele><time>2026-03-22T10:27:00.663Z</time></trkpt><trkpt lat="43.494343" lon="11.2211419"><ele>398.79999999999995</ele><time>2026-03-22T10:27:01.662Z</time></trkpt><trkpt lat="43.4944384" lon="11.2211406"><ele>398.0</ele><time>2026-03-22T10:27:03.66Z</time></trkpt><trkpt lat="43.4944911" lon="11.221196"><ele>398.0</ele><time>2026-03-22T10:27:05.664Z</time></trkpt><trkpt lat="43.4944694" lon="11.221289"><ele>398.0</ele><time>2026-03-22T10:27:07.672Z</time></trkpt><trkpt lat="43.4943949" lon="11.2214356"><ele>398.0</ele><time>2026-03-22T10:27:09.652Z</time></trkpt><trkpt lat="43.4943688" lon="11.2216138"><ele>398.0</ele><time>2026-03-22T10:27:11.657Z</time></trkpt><trkpt lat="43.4943687" lon="11.2217454"><ele>398.0</ele><time>2026-03-22T10:27:12.662Z</time></trkpt><trkpt lat="43.4943592" lon="11.2219188"><ele>400.5</ele><time>2026-03-22T10:27:13.665Z</time></trkpt><trkpt lat="43.4943386" lon="11.2221028"><ele>403.0</ele><time>2026-03-22T10:27:14.666Z</time></trkpt><trkpt lat="43.4943109" lon="11.2222878"><ele>405.5</ele><time>2026-03-22T10:27:15.684Z</time></trkpt><trkpt lat="43.4942791" lon="11.222454"><ele>408.0</ele><time>2026-03-22T10:27:16.668Z</time></trkpt><trkpt lat="43.4942443" lon="11.2225859"><ele>408.59999999999997</ele><time>2026-03-22T10:27:17.665Z</time></trkpt><trkpt lat="43.494218" lon="11.2227219"><ele>409.2</ele><time>2026-03-22T10:27:18.665Z</time></trkpt><trkpt lat="43.4941947" lon="11.2228565"><ele>409.8</ele><time>2026-03-22T10:27:19.666Z</time></trkpt><trkpt lat="43.494186" lon="11.2229977"><ele>410.4</ele><time>2026-03-22T10:27:20.668Z</time></trkpt><trkpt lat="43.4941886" lon="11.2231671"><ele>411.0</ele><time>2026-03-22T10:27:21.664Z</time></trkpt><trkpt lat="43.4942134" lon="11.2233633"><ele>412.25</ele><time>2026-03-22T10:27:22.686Z</time></trkpt><trkpt lat="43.4942505" lon="11.2235863"><ele>413.5</ele><time>2026-03-22T10:27:23.662Z</time></trkpt><trkpt lat="43.4942967" lon="11.2237838"><ele>414.75</ele><time>2026-03-22T10:27:24.663Z</time></trkpt><trkpt lat="43.4943419" lon="11.2239437"><ele>416.0</ele><time>2026-03-22T10:27:25.664Z</time></trkpt><trkpt lat="43.49438" lon="11.2240995"><ele>416.66666666666663</ele><time>2026-03-22T10:27:26.673Z</time></trkpt><trkpt lat="43.4944076" lon="11.2242324"><ele>417.3333333333333</ele><time>2026-03-22T10:27:27.671Z</time></trkpt><trkpt lat="43.494409" lon="11.2243507"><ele>418.0</ele><time>2026-03-22T10:27:28.7Z</time></trkpt><trkpt lat="43.4943856" lon="11.2244423"><ele>418.66666666666663</ele><time>2026-03-22T10:27:29.667Z</time></trkpt><trkpt lat="43.4943667" lon="11.2245525"><ele>419.3333333333333</ele><time>2026-03-22T10:27:30.666Z</time></trkpt><trkpt lat="43.494358" lon="11.224646"><ele>420.0</ele><time>2026-03-22T10:27:31.67Z</time></trkpt><trkpt lat="43.4943847" lon="11.2247961"><ele>419.8</ele><time>2026-03-22T10:27:33.663Z</time></trkpt><trkpt lat="43.494491" lon="11.2248582"><ele>419.6</ele><time>2026-03-22T10:27:35.678Z</time></trkpt><trkpt lat="43.4945751" lon="11.2248947"><ele>419.4</ele><time>2026-03-22T10:27:36.668Z</time></trkpt><trkpt lat="43.4946585" lon="11.2249394"><ele>419.2</ele><time>2026-03-22T10:27:37.667Z</time></trkpt><trkpt lat="43.4947408" lon="11.224997"><ele>419.0</ele><time>2026-03-22T10:27:38.668Z</time></trkpt><trkpt lat="43.4948053" lon="11.2250632"><ele>419.49999999999994</ele><time>2026-03-22T10:27:39.67Z</time></trkpt><trkpt lat="43.4948602" lon="11.2251503"><ele>420.0</ele><time>2026-03-22T10:27:40.684Z</time></trkpt><trkpt lat="43.4948913" lon="11.2252427"><ele>420.5</ele><time>2026-03-22T10:27:41.658Z</time></trkpt><trkpt lat="43.4948793" lon="11.2254132"><ele>421.0</ele><time>2026-03-22T10:27:43.665Z</time></trkpt><trkpt lat="43.4948362" lon="11.2254843"><ele>421.49999999999994</ele><time>2026-03-22T10:27:44.663Z</time></trkpt><trkpt lat="43.4947796" lon="11.2255553"><ele>422.0</ele><time>2026-03-22T10:27:45.666Z</time></trkpt><trkpt lat="43.4946977" lon="11.2256724"><ele>422.49999999999994</ele><time>2026-03-22T10:27:47.67Z</time></trkpt><trkpt lat="43.4946443" lon="11.2258337"><ele>423.0</ele><time>2026-03-22T10:27:49.672Z</time></trkpt><trkpt lat="43.4946261" lon="11.2259366"><ele>423.5</ele><time>2026-03-22T10:27:50.667Z</time></trkpt><trkpt lat="43.494614" lon="11.2260457"><ele>424.0</ele><time>2026-03-22T10:27:51.683Z</time></trkpt><trkpt lat="43.4945928" lon="11.2261278"><ele>424.49999999999994</ele><time>2026-03-22T10:27:52.66Z</time></trkpt><trkpt lat="43.4945615" lon="11.2262031"><ele>425.0</ele><time>2026-03-22T10:27:53.662Z</time></trkpt><trkpt lat="43.4945153" lon="11.2262827"><ele>425.0</ele><time>2026-03-22T10:27:54.665Z</time></trkpt><trkpt lat="43.4944151" lon="11.2263508"><ele>425.0</ele><time>2026-03-22T10:27:55.663Z</time></trkpt><trkpt lat="43.4942807" lon="11.2264169"><ele>425.0</ele><time>2026-03-22T10:27:56.66Z</time></trkpt><trkpt lat="43.4941543" lon="11.2264809"><ele>425.0</ele><time>2026-03-22T10:27:57.694Z</time></trkpt><trkpt lat="43.4940434" lon="11.226544"><ele>426.8</ele><time>2026-03-22T10:27:58.666Z</time></trkpt><trkpt lat="43.4939388" lon="11.226594"><ele>428.6</ele><time>2026-03-22T10:27:59.665Z</time></trkpt><trkpt lat="43.4938415" lon="11.2266351"><ele>430.4</ele><time>2026-03-22T10:28:00.667Z</time></trkpt><trkpt lat="43.4937431" lon="11.2266529"><ele>432.2</ele><time>2026-03-22T10:28:01.665Z</time></trkpt><trkpt lat="43.4936685" lon="11.2266577"><ele>434.0</ele><time>2026-03-22T10:28:02.663Z</time></trkpt><trkpt lat="43.4936028" lon="11.2266879"><ele>434.16666666666663</ele><time>2026-03-22T10:28:03.665Z</time></trkpt><trkpt lat="43.4935218" lon="11.2267247"><ele>434.3333333333333</ele><time>2026-03-22T10:28:04.665Z</time></trkpt><trkpt lat="43.4934574" lon="11.2267872"><ele>434.5</ele><time>2026-03-22T10:28:05.666Z</time></trkpt><trkpt lat="43.4934087" lon="11.22688"><ele>434.66666666666663</ele><time>2026-03-22T10:28:06.662Z</time></trkpt><trkpt lat="43.4933713" lon="11.2269839"><ele>434.8333333333333</ele><time>2026-03-22T10:28:07.663Z</time></trkpt><trkpt lat="43.4933474" lon="11.2270973"><ele>435.0</ele><time>2026-03-22T10:28:08.663Z</time></trkpt><trkpt lat="43.4933403" lon="11.2272162"><ele>435.2</ele><time>2026-03-22T10:28:09.664Z</time></trkpt><trkpt lat="43.4933483" lon="11.2273277"><ele>435.4</ele><time>2026-03-22T10:28:10.67Z</time></trkpt><trkpt lat="43.4933721" lon="11.2274425"><ele>435.6</ele><time>2026-03-22T10:28:11.666Z</time></trkpt><trkpt lat="43.4933925" lon="11.2275722"><ele>435.8</ele><time>2026-03-22T10:28:12.668Z</time></trkpt><trkpt lat="43.4934205" lon="11.2277015"><ele>436.0</ele><time>2026-03-22T10:28:13.663Z</time></trkpt><trkpt lat="43.4934516" lon="11.2278299"><ele>436.00000000000006</ele><time>2026-03-22T10:28:14.686Z</time></trkpt><trkpt lat="43.4934862" lon="11.2279504"><ele>436.0</ele><time>2026-03-22T10:28:15.663Z</time></trkpt><trkpt lat="43.4935336" lon="11.2280498"><ele>436.0</ele><time>2026-03-22T10:28:16.657Z</time></trkpt><trkpt lat="43.4936049" lon="11.2281025"><ele>436.0</ele><time>2026-03-22T10:28:17.665Z</time></trkpt><trkpt lat="43.4936666" lon="11.2281533"><ele>436.00000000000006</ele><time>2026-03-22T10:28:18.661Z</time></trkpt><trkpt lat="43.4937426" lon="11.2281957"><ele>436.0</ele><time>2026-03-22T10:28:19.676Z</time></trkpt><trkpt lat="43.4938049" lon="11.228247"><ele>434.75</ele><time>2026-03-22T10:28:20.661Z</time></trkpt><trkpt lat="43.4938593" lon="11.2283329"><ele>433.5</ele><time>2026-03-22T10:28:21.663Z</time></trkpt><trkpt lat="43.4939054" lon="11.2284688"><ele>432.25</ele><time>2026-03-22T10:28:22.666Z</time></trkpt><trkpt lat="43.4939764" lon="11.228676"><ele>431.0</ele><time>2026-03-22T10:28:23.667Z</time></trkpt><trkpt lat="43.4940362" lon="11.2288763"><ele>432.0</ele><time>2026-03-22T10:28:24.663Z</time></trkpt><trkpt lat="43.4940821" lon="11.2290214"><ele>433.0</ele><time>2026-03-22T10:28:25.66Z</time></trkpt><trkpt lat="43.4941326" lon="11.2291612"><ele>434.0</ele><time>2026-03-22T10:28:26.658Z</time></trkpt><trkpt lat="43.4941694" lon="11.2293243"><ele>435.0</ele><time>2026-03-22T10:28:27.658Z</time></trkpt><trkpt lat="43.4942094" lon="11.2294663"><ele>435.0</ele><time>2026-03-22T10:28:28.663Z</time></trkpt><trkpt lat="43.494268" lon="11.2295803"><ele>435.0</ele><time>2026-03-22T10:28:29.682Z</time></trkpt><trkpt lat="43.4943669" lon="11.2296856"><ele>435.0</ele><time>2026-03-22T10:28:30.664Z</time></trkpt><trkpt lat="43.4944798" lon="11.2297917"><ele>435.0</ele><time>2026-03-22T10:28:31.666Z</time></trkpt><trkpt lat="43.4945705" lon="11.2298639"><ele>432.8333333333333</ele><time>2026-03-22T10:28:32.666Z</time></trkpt><trkpt lat="43.4946379" lon="11.2299142"><ele>430.66666666666663</ele><time>2026-03-22T10:28:33.67Z</time></trkpt><trkpt lat="43.4946855" lon="11.2299733"><ele>428.5</ele><time>2026-03-22T10:28:34.677Z</time></trkpt><trkpt lat="43.4947385" lon="11.230052"><ele>426.3333333333333</ele><time>2026-03-22T10:28:36.661Z</time></trkpt><trkpt lat="43.4947467" lon="11.2301471"><ele>424.16666666666663</ele><time>2026-03-22T10:28:37.66Z</time></trkpt><trkpt lat="43.4947269" lon="11.2302871"><ele>422.0</ele><time>2026-03-22T10:28:38.663Z</time></trkpt><trkpt lat="43.494688" lon="11.2304555"><ele>422.66666666666663</ele><time>2026-03-22T10:28:39.657Z</time></trkpt><trkpt lat="43.4946347" lon="11.2306614"><ele>423.33333333333337</ele><time>2026-03-22T10:28:40.659Z</time></trkpt><trkpt lat="43.494573" lon="11.2309007"><ele>424.0</ele><time>2026-03-22T10:28:41.669Z</time></trkpt><trkpt lat="43.494516" lon="11.2311804"><ele>422.6666666666667</ele><time>2026-03-22T10:28:42.663Z</time></trkpt><trkpt lat="43.494476" lon="11.2314788"><ele>421.33333333333337</ele><time>2026-03-22T10:28:43.669Z</time></trkpt><trkpt lat="43.4944442" lon="11.2317485"><ele>420.0</ele><time>2026-03-22T10:28:44.663Z</time></trkpt><trkpt lat="43.4944258" lon="11.2319622"><ele>420.0</ele><time>2026-03-22T10:28:45.661Z</time></trkpt><trkpt lat="43.4944032" lon="11.232163"><ele>420.0</ele><time>2026-03-22T10:28:46.66Z</time></trkpt><trkpt lat="43.494378" lon="11.2323429"><ele>420.0</ele><time>2026-03-22T10:28:47.652Z</time></trkpt><trkpt lat="43.4943494" lon="11.232512"><ele>420.0</ele><time>2026-03-22T10:28:48.666Z</time></trkpt><trkpt lat="43.4943012" lon="11.2326688"><ele>419.75</ele><time>2026-03-22T10:28:49.669Z</time></trkpt><trkpt lat="43.4942343" lon="11.2328166"><ele>419.5</ele><time>2026-03-22T10:28:50.665Z</time></trkpt><trkpt lat="43.4941621" lon="11.2329565"><ele>419.25</ele><time>2026-03-22T10:28:51.691Z</time></trkpt><trkpt lat="43.4941014" lon="11.2330918"><ele>419.0</ele><time>2026-03-22T10:28:52.666Z</time></trkpt><trkpt lat="43.4940607" lon="11.2332407"><ele>419.0</ele><time>2026-03-22T10:28:53.665Z</time></trkpt><trkpt lat="43.4940344" lon="11.2334131"><ele>419.0</ele><time>2026-03-22T10:28:54.669Z</time></trkpt><trkpt lat="43.4940074" lon="11.2336091"><ele>419.0</ele><time>2026-03-22T10:28:55.658Z</time></trkpt><trkpt lat="43.4939891" lon="11.2338368"><ele>419.0</ele><time>2026-03-22T10:28:56.687Z</time></trkpt><trkpt lat="43.4939749" lon="11.2340947"><ele>421.3333333333333</ele><time>2026-03-22T10:28:57.659Z</time></trkpt><trkpt lat="43.4939675" lon="11.2343245"><ele>423.66666666666663</ele><time>2026-03-22T10:28:58.664Z</time></trkpt><trkpt lat="43.4939852" lon="11.2345274"><ele>426.0</ele><time>2026-03-22T10:28:59.666Z</time></trkpt><trkpt lat="43.4940224" lon="11.2347465"><ele>428.66666666666663</ele><time>2026-03-22T10:29:00.667Z</time></trkpt><trkpt lat="43.4940758" lon="11.2349825"><ele>431.3333333333333</ele><time>2026-03-22T10:29:01.659Z</time></trkpt><trkpt lat="43.494134" lon="11.2352501"><ele>434.0</ele><time>2026-03-22T10:29:02.692Z</time></trkpt><trkpt lat="43.4941928" lon="11.235521"><ele>436.75</ele><time>2026-03-22T10:29:03.661Z</time></trkpt><trkpt lat="43.4942343" lon="11.2357354"><ele>439.5</ele><time>2026-03-22T10:29:04.666Z</time></trkpt><trkpt lat="43.4942688" lon="11.2359063"><ele>442.25</ele><time>2026-03-22T10:29:05.666Z</time></trkpt><trkpt lat="43.4943014" lon="11.2360468"><ele>445.0</ele><time>2026-03-22T10:29:06.669Z</time></trkpt><trkpt lat="43.4943176" lon="11.2361724"><ele>445.00000000000006</ele><time>2026-03-22T10:29:07.698Z</time></trkpt><trkpt lat="43.4943278" lon="11.2363039"><ele>445.0</ele><time>2026-03-22T10:29:08.663Z</time></trkpt><trkpt lat="43.4943214" lon="11.2364232"><ele>445.0</ele><time>2026-03-22T10:29:09.682Z</time></trkpt><trkpt lat="43.4943211" lon="11.2365283"><ele>445.0</ele><time>2026-03-22T10:29:10.667Z</time></trkpt><trkpt lat="43.4943253" lon="11.2366166"><ele>445.00000000000006</ele><time>2026-03-22T10:29:11.669Z</time></trkpt><trkpt lat="43.4944072" lon="11.2367421"><ele>445.0</ele><time>2026-03-22T10:29:13.662Z</time></trkpt><trkpt lat="43.4944767" lon="11.2367936"><ele>445.1666666666667</ele><time>2026-03-22T10:29:14.688Z</time></trkpt><trkpt lat="43.494555" lon="11.2368533"><ele>445.33333333333337</ele><time>2026-03-22T10:29:15.665Z</time></trkpt><trkpt lat="43.4946211" lon="11.2369162"><ele>445.5</ele><time>2026-03-22T10:29:16.665Z</time></trkpt><trkpt lat="43.4946817" lon="11.2369796"><ele>445.66666666666663</ele><time>2026-03-22T10:29:17.661Z</time></trkpt><trkpt lat="43.4947355" lon="11.2370496"><ele>445.8333333333333</ele><time>2026-03-22T10:29:18.661Z</time></trkpt><trkpt lat="43.4947862" lon="11.2371257"><ele>446.0</ele><time>2026-03-22T10:29:19.67Z</time></trkpt><trkpt lat="43.4948384" lon="11.2371964"><ele>445.99999999999994</ele><time>2026-03-22T10:29:20.662Z</time></trkpt><trkpt lat="43.4948992" lon="11.2372743"><ele>446.0</ele><time>2026-03-22T10:29:21.661Z</time></trkpt><trkpt lat="43.4949659" lon="11.2373451"><ele>446.0</ele><time>2026-03-22T10:29:22.686Z</time></trkpt><trkpt lat="43.495034" lon="11.2374223"><ele>446.0</ele><time>2026-03-22T10:29:23.658Z</time></trkpt><trkpt lat="43.4950967" lon="11.2375074"><ele>445.99999999999994</ele><time>2026-03-22T10:29:24.662Z</time></trkpt><trkpt lat="43.4951614" lon="11.2376025"><ele>446.0</ele><time>2026-03-22T10:29:25.666Z</time></trkpt><trkpt lat="43.4952249" lon="11.2376882"><ele>447.66666666666663</ele><time>2026-03-22T10:29:26.667Z</time></trkpt><trkpt lat="43.495277" lon="11.2377793"><ele>449.3333333333333</ele><time>2026-03-22T10:29:27.682Z</time></trkpt><trkpt lat="43.4953228" lon="11.2378856"><ele>451.0</ele><time>2026-03-22T10:29:28.661Z</time></trkpt><trkpt lat="43.4953648" lon="11.2380017"><ele>452.66666666666663</ele><time>2026-03-22T10:29:29.658Z</time></trkpt><trkpt lat="43.4954058" lon="11.2381133"><ele>454.3333333333333</ele><time>2026-03-22T10:29:30.668Z</time></trkpt><trkpt lat="43.4954624" lon="11.2382051"><ele>456.0</ele><time>2026-03-22T10:29:31.665Z</time></trkpt><trkpt lat="43.4955231" lon="11.2382892"><ele>457.1666666666667</ele><time>2026-03-22T10:29:32.687Z</time></trkpt><trkpt lat="43.4955953" lon="11.2383674"><ele>458.33333333333337</ele><time>2026-03-22T10:29:33.67Z</time></trkpt><trkpt lat="43.4956615" lon="11.2384326"><ele>459.5</ele><time>2026-03-22T10:29:34.665Z</time></trkpt><trkpt lat="43.4957226" lon="11.2385044"><ele>460.6666666666667</ele><time>2026-03-22T10:29:35.666Z</time></trkpt><trkpt lat="43.495765" lon="11.2385845"><ele>461.83333333333337</ele><time>2026-03-22T10:29:36.665Z</time></trkpt><trkpt lat="43.4957985" lon="11.2386798"><ele>463.0</ele><time>2026-03-22T10:29:37.665Z</time></trkpt><trkpt lat="43.4958052" lon="11.2387865"><ele>463.0</ele><time>2026-03-22T10:29:38.686Z</time></trkpt><trkpt lat="43.4957902" lon="11.2389344"><ele>463.0</ele><time>2026-03-22T10:29:39.666Z</time></trkpt><trkpt lat="43.4957802" lon="11.239103"><ele>463.0</ele><time>2026-03-22T10:29:40.663Z</time></trkpt><trkpt lat="43.4957735" lon="11.2392663"><ele>463.0</ele><time>2026-03-22T10:29:41.666Z</time></trkpt><trkpt lat="43.4957608" lon="11.2394385"><ele>463.0</ele><time>2026-03-22T10:29:42.663Z</time></trkpt><trkpt lat="43.4957542" lon="11.2396056"><ele>462.99999999999994</ele><time>2026-03-22T10:29:43.67Z</time></trkpt><trkpt lat="43.4957679" lon="11.2397365"><ele>462.99999999999994</ele><time>2026-03-22T10:29:44.664Z</time></trkpt><trkpt lat="43.4957825" lon="11.23984"><ele>463.0</ele><time>2026-03-22T10:29:45.662Z</time></trkpt><trkpt lat="43.4958279" lon="11.2399545"><ele>463.0</ele><time>2026-03-22T10:29:46.69Z</time></trkpt><trkpt lat="43.4958543" lon="11.2400829"><ele>461.5</ele><time>2026-03-22T10:29:47.66Z</time></trkpt><trkpt lat="43.4958759" lon="11.2402329"><ele>460.0</ele><time>2026-03-22T10:29:48.659Z</time></trkpt><trkpt lat="43.4958805" lon="11.2404078"><ele>458.5</ele><time>2026-03-22T10:29:49.663Z</time></trkpt><trkpt lat="43.4958821" lon="11.2405754"><ele>457.0</ele><time>2026-03-22T10:29:50.661Z</time></trkpt><trkpt lat="43.4958876" lon="11.2407649"><ele>456.8</ele><time>2026-03-22T10:29:51.681Z</time></trkpt><trkpt lat="43.495901" lon="11.2409615"><ele>456.6</ele><time>2026-03-22T10:29:52.667Z</time></trkpt><trkpt lat="43.4959285" lon="11.241112"><ele>456.40000000000003</ele><time>2026-03-22T10:29:53.666Z</time></trkpt><trkpt lat="43.4959459" lon="11.2412424"><ele>456.20000000000005</ele><time>2026-03-22T10:29:54.651Z</time></trkpt><trkpt lat="43.4959588" lon="11.2413612"><ele>456.0</ele><time>2026-03-22T10:29:55.66Z</time></trkpt><trkpt lat="43.4959644" lon="11.2414961"><ele>456.0</ele><time>2026-03-22T10:29:56.663Z</time></trkpt><trkpt lat="43.4959595" lon="11.2416392"><ele>456.0</ele><time>2026-03-22T10:29:57.657Z</time></trkpt><trkpt lat="43.4959467" lon="11.2417893"><ele>456.0</ele><time>2026-03-22T10:29:58.68Z</time></trkpt><trkpt lat="43.4959217" lon="11.2419245"><ele>456.0</ele><time>2026-03-22T10:29:59.658Z</time></trkpt><trkpt lat="43.4958906" lon="11.2420314"><ele>456.0</ele><time>2026-03-22T10:30:00.663Z</time></trkpt><trkpt lat="43.4958682" lon="11.2421347"><ele>456.0</ele><time>2026-03-22T10:30:01.668Z</time></trkpt><trkpt lat="43.4958795" lon="11.2422407"><ele>456.0</ele><time>2026-03-22T10:30:02.662Z</time></trkpt><trkpt lat="43.4958933" lon="11.2423495"><ele>456.0</ele><time>2026-03-22T10:30:03.663Z</time></trkpt><trkpt lat="43.4959226" lon="11.2424647"><ele>456.0</ele><time>2026-03-22T10:30:04.661Z</time></trkpt><trkpt lat="43.4959589" lon="11.2425832"><ele>456.0</ele><time>2026-03-22T10:30:05.691Z</time></trkpt><trkpt lat="43.4960027" lon="11.2427047"><ele>456.0</ele><time>2026-03-22T10:30:06.659Z</time></trkpt><trkpt lat="43.4960381" lon="11.2428336"><ele>456.4</ele><time>2026-03-22T10:30:07.668Z</time></trkpt><trkpt lat="43.4960822" lon="11.2429672"><ele>456.8</ele><time>2026-03-22T10:30:08.662Z</time></trkpt><trkpt lat="43.4961312" lon="11.2430975"><ele>457.19999999999993</ele><time>2026-03-22T10:30:09.66Z</time></trkpt><trkpt lat="43.4961773" lon="11.2432369"><ele>457.59999999999997</ele><time>2026-03-22T10:30:10.68Z</time></trkpt><trkpt lat="43.4962231" lon="11.2433677"><ele>458.0</ele><time>2026-03-22T10:30:11.662Z</time></trkpt><trkpt lat="43.4962759" lon="11.2434886"><ele>458.2</ele><time>2026-03-22T10:30:12.664Z</time></trkpt><trkpt lat="43.4963344" lon="11.2435966"><ele>458.4</ele><time>2026-03-22T10:30:13.666Z</time></trkpt><trkpt lat="43.4963892" lon="11.2437015"><ele>458.59999999999997</ele><time>2026-03-22T10:30:14.665Z</time></trkpt><trkpt lat="43.4964367" lon="11.2438044"><ele>458.79999999999995</ele><time>2026-03-22T10:30:15.661Z</time></trkpt><trkpt lat="43.4964839" lon="11.2439094"><ele>459.0</ele><time>2026-03-22T10:30:16.704Z</time></trkpt><trkpt lat="43.4965407" lon="11.244001"><ele>462.79999999999995</ele><time>2026-03-22T10:30:17.663Z</time></trkpt><trkpt lat="43.496609" lon="11.2440702"><ele>466.59999999999997</ele><time>2026-03-22T10:30:18.664Z</time></trkpt><trkpt lat="43.496695" lon="11.2441387"><ele>470.4</ele><time>2026-03-22T10:30:19.663Z</time></trkpt><trkpt lat="43.4967936" lon="11.2441839"><ele>474.2</ele><time>2026-03-22T10:30:20.669Z</time></trkpt><trkpt lat="43.4968912" lon="11.2441957"><ele>478.0</ele><time>2026-03-22T10:30:21.664Z</time></trkpt><trkpt lat="43.4969922" lon="11.2441949"><ele>477.79999999999995</ele><time>2026-03-22T10:30:22.688Z</time></trkpt><trkpt lat="43.497098" lon="11.2441789"><ele>477.59999999999997</ele><time>2026-03-22T10:30:23.659Z</time></trkpt><trkpt lat="43.4971944" lon="11.2441691"><ele>477.40000000000003</ele><time>2026-03-22T10:30:24.665Z</time></trkpt><trkpt lat="43.4973027" lon="11.2441769"><ele>477.20000000000005</ele><time>2026-03-22T10:30:25.667Z</time></trkpt><trkpt lat="43.4973971" lon="11.2441924"><ele>477.0</ele><time>2026-03-22T10:30:26.662Z</time></trkpt><trkpt lat="43.4974891" lon="11.2442307"><ele>477.0</ele><time>2026-03-22T10:30:27.663Z</time></trkpt><trkpt lat="43.497576" lon="11.2442726"><ele>477.00000000000006</ele><time>2026-03-22T10:30:28.663Z</time></trkpt><trkpt lat="43.4976586" lon="11.244347"><ele>477.00000000000006</ele><time>2026-03-22T10:30:29.667Z</time></trkpt><trkpt lat="43.4977429" lon="11.2444317"><ele>477.0</ele><time>2026-03-22T10:30:30.687Z</time></trkpt><trkpt lat="43.4978167" lon="11.2445171"><ele>477.0</ele><time>2026-03-22T10:30:31.687Z</time></trkpt><trkpt lat="43.4978787" lon="11.2446104"><ele>477.40000000000003</ele><time>2026-03-22T10:30:32.665Z</time></trkpt><trkpt lat="43.4979222" lon="11.2447091"><ele>477.80000000000007</ele><time>2026-03-22T10:30:33.668Z</time></trkpt><trkpt lat="43.4979602" lon="11.2448126"><ele>478.2</ele><time>2026-03-22T10:30:34.666Z</time></trkpt><trkpt lat="43.4979848" lon="11.2449291"><ele>478.6</ele><time>2026-03-22T10:30:35.669Z</time></trkpt><trkpt lat="43.4980039" lon="11.2450704"><ele>479.0</ele><time>2026-03-22T10:30:36.659Z</time></trkpt><trkpt lat="43.4980202" lon="11.2452289"><ele>479.0</ele><time>2026-03-22T10:30:37.657Z</time></trkpt><trkpt lat="43.4980304" lon="11.245399"><ele>479.0</ele><time>2026-03-22T10:30:38.664Z</time></trkpt><trkpt lat="43.4980506" lon="11.2455779"><ele>479.0</ele><time>2026-03-22T10:30:39.661Z</time></trkpt><trkpt lat="43.498071" lon="11.245758"><ele>479.0</ele><time>2026-03-22T10:30:40.678Z</time></trkpt><trkpt lat="43.4980966" lon="11.2459199"><ele>481.2</ele><time>2026-03-22T10:30:41.666Z</time></trkpt><trkpt lat="43.4981235" lon="11.2460608"><ele>483.4</ele><time>2026-03-22T10:30:42.664Z</time></trkpt><trkpt lat="43.4981574" lon="11.2461971"><ele>485.6</ele><time>2026-03-22T10:30:43.663Z</time></trkpt><trkpt lat="43.4981961" lon="11.246325"><ele>487.8</ele><time>2026-03-22T10:30:44.664Z</time></trkpt><trkpt lat="43.4982303" lon="11.2464179"><ele>490.0</ele><time>2026-03-22T10:30:45.686Z</time></trkpt><trkpt lat="43.4982729" lon="11.2465032"><ele>490.00000000000006</ele><time>2026-03-22T10:30:46.662Z</time></trkpt><trkpt lat="43.498378" lon="11.2465412"><ele>490.0</ele><time>2026-03-22T10:30:48.695Z</time></trkpt><trkpt lat="43.4984377" lon="11.2465058"><ele>490.0</ele><time>2026-03-22T10:30:49.659Z</time></trkpt><trkpt lat="43.498494" lon="11.2464439"><ele>490.0</ele><time>2026-03-22T10:30:50.671Z</time></trkpt><trkpt lat="43.498567" lon="11.2463588"><ele>490.00000000000006</ele><time>2026-03-22T10:30:51.659Z</time></trkpt><trkpt lat="43.498646" lon="11.2462583"><ele>490.0</ele><time>2026-03-22T10:30:52.662Z</time></trkpt><trkpt lat="43.4987246" lon="11.2461723"><ele>493.6</ele><time>2026-03-22T10:30:53.662Z</time></trkpt><trkpt lat="43.4988128" lon="11.2460821"><ele>497.2</ele><time>2026-03-22T10:30:54.67Z</time></trkpt><trkpt lat="43.4988969" lon="11.246008"><ele>500.79999999999995</ele><time>2026-03-22T10:30:55.662Z</time></trkpt><trkpt lat="43.4989812" lon="11.2459209"><ele>504.4</ele><time>2026-03-22T10:30:56.658Z</time></trkpt><trkpt lat="43.4990635" lon="11.2458183"><ele>508.0</ele><time>2026-03-22T10:30:57.661Z</time></trkpt><trkpt lat="43.4991506" lon="11.2457289"><ele>508.0</ele><time>2026-03-22T10:30:58.661Z</time></trkpt><trkpt lat="43.4992374" lon="11.245639"><ele>508.0</ele><time>2026-03-22T10:30:59.656Z</time></trkpt><trkpt lat="43.4993313" lon="11.2455345"><ele>508.0</ele><time>2026-03-22T10:31:00.66Z</time></trkpt><trkpt lat="43.4994353" lon="11.2454287"><ele>508.0</ele><time>2026-03-22T10:31:01.659Z</time></trkpt><trkpt lat="43.499539" lon="11.2453321"><ele>508.59999999999997</ele><time>2026-03-22T10:31:02.66Z</time></trkpt><trkpt lat="43.4996323" lon="11.2452486"><ele>509.19999999999993</ele><time>2026-03-22T10:31:03.663Z</time></trkpt><trkpt lat="43.4997085" lon="11.2451836"><ele>509.8</ele><time>2026-03-22T10:31:04.664Z</time></trkpt><trkpt lat="43.4997825" lon="11.2451413"><ele>510.4</ele><time>2026-03-22T10:31:05.658Z</time></trkpt><trkpt lat="43.4998514" lon="11.2451113"><ele>511.0</ele><time>2026-03-22T10:31:06.674Z</time></trkpt><trkpt lat="43.4999484" lon="11.2451506"><ele>511.0</ele><time>2026-03-22T10:31:08.666Z</time></trkpt><trkpt lat="43.4999724" lon="11.2452711"><ele>511.0</ele><time>2026-03-22T10:31:10.661Z</time></trkpt><trkpt lat="43.4999834" lon="11.2453572"><ele>511.0</ele><time>2026-03-22T10:31:11.679Z</time></trkpt><trkpt lat="43.5000045" lon="11.2454686"><ele>511.0</ele><time>2026-03-22T10:31:12.667Z</time></trkpt><trkpt lat="43.5000323" lon="11.245609"><ele>511.0</ele><time>2026-03-22T10:31:13.664Z</time></trkpt><trkpt lat="43.5000687" lon="11.2457816"><ele>513.75</ele><time>2026-03-22T10:31:14.662Z</time></trkpt><trkpt lat="43.5001101" lon="11.245945"><ele>516.5</ele><time>2026-03-22T10:31:15.665Z</time></trkpt><trkpt lat="43.5001655" lon="11.2461007"><ele>519.25</ele><time>2026-03-22T10:31:16.669Z</time></trkpt><trkpt lat="43.500235" lon="11.2462421"><ele>522.0</ele><time>2026-03-22T10:31:17.666Z</time></trkpt><trkpt lat="43.5003103" lon="11.2463706"><ele>521.1666666666666</ele><time>2026-03-22T10:31:18.664Z</time></trkpt><trkpt lat="43.500385" lon="11.2464762"><ele>520.3333333333334</ele><time>2026-03-22T10:31:19.671Z</time></trkpt><trkpt lat="43.5004542" lon="11.246559"><ele>519.5</ele><time>2026-03-22T10:31:20.685Z</time></trkpt><trkpt lat="43.5004976" lon="11.246656"><ele>518.6666666666667</ele><time>2026-03-22T10:31:21.662Z</time></trkpt><trkpt lat="43.5005285" lon="11.246748"><ele>517.8333333333334</ele><time>2026-03-22T10:31:22.666Z</time></trkpt><trkpt lat="43.5005471" lon="11.2468519"><ele>517.0</ele><time>2026-03-22T10:31:23.659Z</time></trkpt><trkpt lat="43.5005658" lon="11.2469762"><ele>517.0</ele><time>2026-03-22T10:31:24.666Z</time></trkpt><trkpt lat="43.5005939" lon="11.2471023"><ele>517.0</ele><time>2026-03-22T10:31:25.665Z</time></trkpt><trkpt lat="43.5006371" lon="11.2472211"><ele>517.0</ele><time>2026-03-22T10:31:26.661Z</time></trkpt><trkpt lat="43.5007139" lon="11.2472994"><ele>517.0</ele><time>2026-03-22T10:31:27.663Z</time></trkpt><trkpt lat="43.5008107" lon="11.2473518"><ele>517.0</ele><time>2026-03-22T10:31:28.661Z</time></trkpt><trkpt lat="43.5009258" lon="11.2473721"><ele>517.2</ele><time>2026-03-22T10:31:29.663Z</time></trkpt><trkpt lat="43.5010387" lon="11.2473786"><ele>517.4000000000001</ele><time>2026-03-22T10:31:30.667Z</time></trkpt><trkpt lat="43.5011565" lon="11.2473894"><ele>517.5999999999999</ele><time>2026-03-22T10:31:31.663Z</time></trkpt><trkpt lat="43.5012611" lon="11.2473727"><ele>517.8</ele><time>2026-03-22T10:31:32.659Z</time></trkpt><trkpt lat="43.5013335" lon="11.2473373"><ele>518.0</ele><time>2026-03-22T10:31:33.678Z</time></trkpt><trkpt lat="43.501393" lon="11.2472884"><ele>518.0</ele><time>2026-03-22T10:31:34.659Z</time></trkpt><trkpt lat="43.5014565" lon="11.2472205"><ele>518.0</ele><time>2026-03-22T10:31:35.663Z</time></trkpt><trkpt lat="43.5015335" lon="11.2471385"><ele>518.0</ele><time>2026-03-22T10:31:36.664Z</time></trkpt><trkpt lat="43.5016179" lon="11.2470683"><ele>518.0</ele><time>2026-03-22T10:31:37.66Z</time></trkpt><trkpt lat="43.5016986" lon="11.2470106"><ele>518.0</ele><time>2026-03-22T10:31:38.669Z</time></trkpt><trkpt lat="43.5017753" lon="11.2469468"><ele>518.0</ele><time>2026-03-22T10:31:39.663Z</time></trkpt><trkpt lat="43.501842" lon="11.2468979"><ele>518.0</ele><time>2026-03-22T10:31:40.663Z</time></trkpt><trkpt lat="43.5019958" lon="11.2469077"><ele>518.0</ele><time>2026-03-22T10:31:42.662Z</time></trkpt><trkpt lat="43.5020938" lon="11.2469626"><ele>518.0</ele><time>2026-03-22T10:31:43.667Z</time></trkpt><trkpt lat="43.5021876" lon="11.246988"><ele>518.0</ele><time>2026-03-22T10:31:44.661Z</time></trkpt><trkpt lat="43.5022837" lon="11.2469741"><ele>519.1999999999999</ele><time>2026-03-22T10:31:45.675Z</time></trkpt><trkpt lat="43.5023658" lon="11.2469239"><ele>520.4</ele><time>2026-03-22T10:31:46.661Z</time></trkpt><trkpt lat="43.5024246" lon="11.2468453"><ele>521.5999999999999</ele><time>2026-03-22T10:31:47.668Z</time></trkpt><trkpt lat="43.5024956" lon="11.2467605"><ele>522.8</ele><time>2026-03-22T10:31:49.669Z</time></trkpt><trkpt lat="43.5025455" lon="11.2468949"><ele>524.0</ele><time>2026-03-22T10:31:52.665Z</time></trkpt><trkpt lat="43.5025151" lon="11.2470411"><ele>524.0</ele><time>2026-03-22T10:31:53.671Z</time></trkpt><trkpt lat="43.5024522" lon="11.2472272"><ele>524.0</ele><time>2026-03-22T10:31:54.662Z</time></trkpt><trkpt lat="43.5023933" lon="11.2474662"><ele>524.0</ele><time>2026-03-22T10:31:55.657Z</time></trkpt><trkpt lat="43.5023453" lon="11.2477101"><ele>525.3333333333333</ele><time>2026-03-22T10:31:56.664Z</time></trkpt><trkpt lat="43.5022954" lon="11.2479401"><ele>526.6666666666666</ele><time>2026-03-22T10:31:57.662Z</time></trkpt><trkpt lat="43.5022508" lon="11.2481578"><ele>528.0</ele><time>2026-03-22T10:31:58.669Z</time></trkpt><trkpt lat="43.5022182" lon="11.2483694"><ele>528.3333333333334</ele><time>2026-03-22T10:31:59.66Z</time></trkpt><trkpt lat="43.5022031" lon="11.2485822"><ele>528.6666666666667</ele><time>2026-03-22T10:32:00.661Z</time></trkpt><trkpt lat="43.5021987" lon="11.2487973"><ele>529.0</ele><time>2026-03-22T10:32:01.668Z</time></trkpt><trkpt lat="43.5022034" lon="11.2490215"><ele>530.25</ele><time>2026-03-22T10:32:02.664Z</time></trkpt><trkpt lat="43.5022041" lon="11.2492137"><ele>531.5</ele><time>2026-03-22T10:32:03.661Z</time></trkpt><trkpt lat="43.502176" lon="11.2493633"><ele>532.75</ele><time>2026-03-22T10:32:04.689Z</time></trkpt><trkpt lat="43.5021002" lon="11.2495207"><ele>534.0</ele><time>2026-03-22T10:32:05.663Z</time></trkpt><trkpt lat="43.5020113" lon="11.2496283"><ele>538.25</ele><time>2026-03-22T10:32:06.664Z</time></trkpt><trkpt lat="43.5018848" lon="11.2496926"><ele>542.5</ele><time>2026-03-22T10:32:07.666Z</time></trkpt><trkpt lat="43.5017582" lon="11.2497185"><ele>546.75</ele><time>2026-03-22T10:32:08.662Z</time></trkpt><trkpt lat="43.5016274" lon="11.2497259"><ele>551.0</ele><time>2026-03-22T10:32:09.672Z</time></trkpt><trkpt lat="43.5014906" lon="11.2497246"><ele>551.0</ele><time>2026-03-22T10:32:10.669Z</time></trkpt><trkpt lat="43.5013487" lon="11.2497252"><ele>551.0</ele><time>2026-03-22T10:32:11.666Z</time></trkpt><trkpt lat="43.5012135" lon="11.2497337"><ele>551.0</ele><time>2026-03-22T10:32:12.658Z</time></trkpt><trkpt lat="43.5010778" lon="11.2497452"><ele>551.0</ele><time>2026-03-22T10:32:13.664Z</time></trkpt><trkpt lat="43.5009484" lon="11.2497501"><ele>550.0</ele><time>2026-03-22T10:32:14.665Z</time></trkpt><trkpt lat="43.5008371" lon="11.2497557"><ele>549.0</ele><time>2026-03-22T10:32:15.667Z</time></trkpt><trkpt lat="43.5007389" lon="11.2497718"><ele>548.0</ele><time>2026-03-22T10:32:16.663Z</time></trkpt><trkpt lat="43.5006472" lon="11.2498034"><ele>547.0</ele><time>2026-03-22T10:32:17.666Z</time></trkpt><trkpt lat="43.5005579" lon="11.2498393"><ele>546.0</ele><time>2026-03-22T10:32:18.664Z</time></trkpt><trkpt lat="43.5004792" lon="11.2498724"><ele>546.8333333333334</ele><time>2026-03-22T10:32:19.663Z</time></trkpt><trkpt lat="43.5003988" lon="11.2499069"><ele>547.6666666666666</ele><time>2026-03-22T10:32:20.661Z</time></trkpt><trkpt lat="43.500318" lon="11.2499412"><ele>548.5</ele><time>2026-03-22T10:32:21.664Z</time></trkpt><trkpt lat="43.5002365" lon="11.2499724"><ele>549.3333333333333</ele><time>2026-03-22T10:32:22.664Z</time></trkpt><trkpt lat="43.5001526" lon="11.2500141"><ele>550.1666666666666</ele><time>2026-03-22T10:32:23.666Z</time></trkpt><trkpt lat="43.5000506" lon="11.2500531"><ele>551.0</ele><time>2026-03-22T10:32:24.684Z</time></trkpt><trkpt lat="43.4999433" lon="11.2500977"><ele>551.0</ele><time>2026-03-22T10:32:25.662Z</time></trkpt><trkpt lat="43.499835" lon="11.2501453"><ele>551.0</ele><time>2026-03-22T10:32:26.663Z</time></trkpt><trkpt lat="43.4997264" lon="11.2501823"><ele>551.0</ele><time>2026-03-22T10:32:27.665Z</time></trkpt><trkpt lat="43.4996271" lon="11.2502266"><ele>551.0</ele><time>2026-03-22T10:32:28.659Z</time></trkpt><trkpt lat="43.499523" lon="11.2502757"><ele>551.0</ele><time>2026-03-22T10:32:29.666Z</time></trkpt><trkpt lat="43.4994286" lon="11.2503249"><ele>551.1666666666666</ele><time>2026-03-22T10:32:30.659Z</time></trkpt><trkpt lat="43.4993409" lon="11.2503639"><ele>551.3333333333333</ele><time>2026-03-22T10:32:31.661Z</time></trkpt><trkpt lat="43.4992682" lon="11.2504016"><ele>551.5</ele><time>2026-03-22T10:32:32.664Z</time></trkpt><trkpt lat="43.4991956" lon="11.2504292"><ele>551.6666666666666</ele><time>2026-03-22T10:32:33.66Z</time></trkpt><trkpt lat="43.4991379" lon="11.2504742"><ele>551.8333333333334</ele><time>2026-03-22T10:32:34.675Z</time></trkpt><trkpt lat="43.4990436" lon="11.2505848"><ele>552.0</ele><time>2026-03-22T10:32:36.666Z</time></trkpt><trkpt lat="43.4989889" lon="11.2506522"><ele>549.6666666666666</ele><time>2026-03-22T10:32:37.668Z</time></trkpt><trkpt lat="43.4989405" lon="11.2507255"><ele>547.3333333333334</ele><time>2026-03-22T10:32:38.662Z</time></trkpt><trkpt lat="43.4988931" lon="11.2508067"><ele>545.0</ele><time>2026-03-22T10:32:39.66Z</time></trkpt><trkpt lat="43.4988465" lon="11.2508975"><ele>542.6666666666667</ele><time>2026-03-22T10:32:40.663Z</time></trkpt><trkpt lat="43.4988121" lon="11.2509907"><ele>540.3333333333334</ele><time>2026-03-22T10:32:41.662Z</time></trkpt><trkpt lat="43.4987819" lon="11.2510914"><ele>538.0</ele><time>2026-03-22T10:32:42.669Z</time></trkpt><trkpt lat="43.4987539" lon="11.2511951"><ele>537.5</ele><time>2026-03-22T10:32:43.66Z</time></trkpt><trkpt lat="43.4987209" lon="11.2512907"><ele>537.0</ele><time>2026-03-22T10:32:44.663Z</time></trkpt><trkpt lat="43.4986808" lon="11.2513785"><ele>536.5</ele><time>2026-03-22T10:32:45.665Z</time></trkpt><trkpt lat="43.4986414" lon="11.251474"><ele>536.0</ele><time>2026-03-22T10:32:46.667Z</time></trkpt><trkpt lat="43.4986028" lon="11.2515644"><ele>535.5</ele><time>2026-03-22T10:32:47.666Z</time></trkpt><trkpt lat="43.4985582" lon="11.2516519"><ele>535.0</ele><time>2026-03-22T10:32:48.667Z</time></trkpt><trkpt lat="43.498517" lon="11.2517414"><ele>535.0</ele><time>2026-03-22T10:32:49.666Z</time></trkpt><trkpt lat="43.4984698" lon="11.2518318"><ele>535.0</ele><time>2026-03-22T10:32:50.704Z</time></trkpt><trkpt lat="43.4984206" lon="11.2519159"><ele>535.0</ele><time>2026-03-22T10:32:51.662Z</time></trkpt><trkpt lat="43.4983604" lon="11.2519926"><ele>535.0</ele><time>2026-03-22T10:32:52.66Z</time></trkpt><trkpt lat="43.4982976" lon="11.2520544"><ele>535.0</ele><time>2026-03-22T10:32:53.669Z</time></trkpt><trkpt lat="43.4982397" lon="11.2521083"><ele>535.0</ele><time>2026-03-22T10:32:54.662Z</time></trkpt><trkpt lat="43.4981826" lon="11.252163"><ele>535.0</ele><time>2026-03-22T10:32:55.659Z</time></trkpt><trkpt lat="43.4981235" lon="11.2522121"><ele>535.0</ele><time>2026-03-22T10:32:56.665Z</time></trkpt><trkpt lat="43.4980157" lon="11.2523072"><ele>535.0</ele><time>2026-03-22T10:32:58.658Z</time></trkpt><trkpt lat="43.4979723" lon="11.2523741"><ele>535.0</ele><time>2026-03-22T10:32:59.665Z</time></trkpt><trkpt lat="43.4979797" lon="11.2524955"><ele>535.0</ele><time>2026-03-22T10:33:01.657Z</time></trkpt><trkpt lat="43.4980565" lon="11.2525204"><ele>535.0</ele><time>2026-03-22T10:33:04.667Z</time></trkpt><trkpt lat="43.4981329" lon="11.2525577"><ele>532.6</ele><time>2026-03-22T10:33:06.663Z</time></trkpt><trkpt lat="43.4982258" lon="11.2526055"><ele>530.2</ele><time>2026-03-22T10:33:08.662Z</time></trkpt><trkpt lat="43.4983437" lon="11.2526419"><ele>527.8</ele><time>2026-03-22T10:33:10.679Z</time></trkpt><trkpt lat="43.4984271" lon="11.2526444"><ele>525.4</ele><time>2026-03-22T10:33:11.664Z</time></trkpt><trkpt lat="43.4985158" lon="11.2526443"><ele>523.0</ele><time>2026-03-22T10:33:12.665Z</time></trkpt><trkpt lat="43.4986024" lon="11.2526417"><ele>523.0</ele><time>2026-03-22T10:33:13.665Z</time></trkpt><trkpt lat="43.4986858" lon="11.2526383"><ele>523.0</ele><time>2026-03-22T10:33:14.664Z</time></trkpt><trkpt lat="43.4987682" lon="11.2526477"><ele>523.0</ele><time>2026-03-22T10:33:15.659Z</time></trkpt><trkpt lat="43.498848" lon="11.2526591"><ele>523.0</ele><time>2026-03-22T10:33:16.685Z</time></trkpt><trkpt lat="43.4989324" lon="11.2526683"><ele>523.0</ele><time>2026-03-22T10:33:17.663Z</time></trkpt><trkpt lat="43.4990156" lon="11.2526616"><ele>523.0</ele><time>2026-03-22T10:33:18.666Z</time></trkpt><trkpt lat="43.4990984" lon="11.2526545"><ele>521.8571428571428</ele><time>2026-03-22T10:33:19.662Z</time></trkpt><trkpt lat="43.4991737" lon="11.2526483"><ele>520.7142857142857</ele><time>2026-03-22T10:33:20.663Z</time></trkpt><trkpt lat="43.4992444" lon="11.2526449"><ele>519.5714285714286</ele><time>2026-03-22T10:33:21.665Z</time></trkpt><trkpt lat="43.499315" lon="11.2526359"><ele>518.4285714285713</ele><time>2026-03-22T10:33:22.662Z</time></trkpt><trkpt lat="43.4993797" lon="11.2526083"><ele>517.2857142857142</ele><time>2026-03-22T10:33:23.67Z</time></trkpt><trkpt lat="43.4994483" lon="11.2525858"><ele>516.1428571428571</ele><time>2026-03-22T10:33:24.661Z</time></trkpt><trkpt lat="43.4995165" lon="11.2525525"><ele>515.0</ele><time>2026-03-22T10:33:25.693Z</time></trkpt><trkpt lat="43.4995885" lon="11.2525175"><ele>514.0</ele><time>2026-03-22T10:33:26.665Z</time></trkpt><trkpt lat="43.4996647" lon="11.2524893"><ele>513.0</ele><time>2026-03-22T10:33:27.663Z</time></trkpt><trkpt lat="43.4997398" lon="11.2524557"><ele>512.0</ele><time>2026-03-22T10:33:28.656Z</time></trkpt><trkpt lat="43.4998203" lon="11.2524168"><ele>511.0</ele><time>2026-03-22T10:33:29.658Z</time></trkpt><trkpt lat="43.4998985" lon="11.252381"><ele>509.99999999999994</ele><time>2026-03-22T10:33:30.661Z</time></trkpt><trkpt lat="43.4999842" lon="11.2523507"><ele>509.0</ele><time>2026-03-22T10:33:31.665Z</time></trkpt><trkpt lat="43.5000718" lon="11.2523288"><ele>508.99999999999994</ele><time>2026-03-22T10:33:32.657Z</time></trkpt><trkpt lat="43.5001549" lon="11.2523072"><ele>509.0</ele><time>2026-03-22T10:33:33.661Z</time></trkpt><trkpt lat="43.5002397" lon="11.2522961"><ele>509.0</ele><time>2026-03-22T10:33:34.658Z</time></trkpt><trkpt lat="43.5003242" lon="11.2522859"><ele>509.0</ele><time>2026-03-22T10:33:35.669Z</time></trkpt><trkpt lat="43.5004072" lon="11.2522762"><ele>508.99999999999994</ele><time>2026-03-22T10:33:36.664Z</time></trkpt><trkpt lat="43.5004934" lon="11.2522674"><ele>509.0</ele><time>2026-03-22T10:33:37.689Z</time></trkpt><trkpt lat="43.5005914" lon="11.2522758"><ele>505.4</ele><time>2026-03-22T10:33:38.659Z</time></trkpt><trkpt lat="43.5007037" lon="11.2523045"><ele>501.79999999999995</ele><time>2026-03-22T10:33:39.661Z</time></trkpt><trkpt lat="43.5008097" lon="11.2523431"><ele>498.20000000000005</ele><time>2026-03-22T10:33:40.655Z</time></trkpt><trkpt lat="43.5009074" lon="11.2524027"><ele>494.6</ele><time>2026-03-22T10:33:41.665Z</time></trkpt><trkpt lat="43.5010037" lon="11.2524834"><ele>491.0</ele><time>2026-03-22T10:33:42.658Z</time></trkpt><trkpt lat="43.501097" lon="11.2525639"><ele>491.0</ele><time>2026-03-22T10:33:43.661Z</time></trkpt><trkpt lat="43.501182" lon="11.2526443"><ele>491.0</ele><time>2026-03-22T10:33:44.681Z</time></trkpt><trkpt lat="43.5012557" lon="11.2527278"><ele>491.0</ele><time>2026-03-22T10:33:45.661Z</time></trkpt><trkpt lat="43.5013103" lon="11.2528259"><ele>491.0</ele><time>2026-03-22T10:33:46.657Z</time></trkpt><trkpt lat="43.5013474" lon="11.2529325"><ele>491.0</ele><time>2026-03-22T10:33:47.664Z</time></trkpt><trkpt lat="43.5013742" lon="11.2530487"><ele>489.0</ele><time>2026-03-22T10:33:48.663Z</time></trkpt><trkpt lat="43.5014002" lon="11.2531635"><ele>487.0</ele><time>2026-03-22T10:33:49.67Z</time></trkpt><trkpt lat="43.501425" lon="11.2532718"><ele>485.0</ele><time>2026-03-22T10:33:50.669Z</time></trkpt><trkpt lat="43.5014397" lon="11.2533813"><ele>483.0</ele><time>2026-03-22T10:33:51.664Z</time></trkpt><trkpt lat="43.5014813" lon="11.253532"><ele>481.0</ele><time>2026-03-22T10:33:53.66Z</time></trkpt><trkpt lat="43.5015485" lon="11.2536056"><ele>481.0</ele><time>2026-03-22T10:33:55.692Z</time></trkpt><trkpt lat="43.5016389" lon="11.2536525"><ele>481.0</ele><time>2026-03-22T10:33:58.665Z</time></trkpt><trkpt lat="43.5016867" lon="11.2537412"><ele>481.0</ele><time>2026-03-22T10:34:00.661Z</time></trkpt><trkpt lat="43.5017922" lon="11.2537719"><ele>481.0</ele><time>2026-03-22T10:34:02.676Z</time></trkpt><trkpt lat="43.5018768" lon="11.2537487"><ele>481.0</ele><time>2026-03-22T10:34:03.662Z</time></trkpt><trkpt lat="43.5019648" lon="11.253712"><ele>481.0</ele><time>2026-03-22T10:34:04.66Z</time></trkpt><trkpt lat="43.5020275" lon="11.2536718"><ele>481.0</ele><time>2026-03-22T10:34:05.663Z</time></trkpt><trkpt lat="43.5021188" lon="11.2536003"><ele>481.0</ele><time>2026-03-22T10:34:07.675Z</time></trkpt><trkpt lat="43.5022232" lon="11.2535424"><ele>481.0</ele><time>2026-03-22T10:34:09.659Z</time></trkpt><trkpt lat="43.5023372" lon="11.253512"><ele>481.0</ele><time>2026-03-22T10:34:11.668Z</time></trkpt><trkpt lat="43.5024517" lon="11.2535298"><ele>482.4</ele><time>2026-03-22T10:34:13.662Z</time></trkpt><trkpt lat="43.5025781" lon="11.2535662"><ele>483.8</ele><time>2026-03-22T10:34:15.664Z</time></trkpt><trkpt lat="43.5026537" lon="11.2535714"><ele>485.19999999999993</ele><time>2026-03-22T10:34:16.675Z</time></trkpt><trkpt lat="43.5027405" lon="11.2535532"><ele>486.59999999999997</ele><time>2026-03-22T10:34:17.666Z</time></trkpt><trkpt lat="43.5028365" lon="11.2535139"><ele>488.0</ele><time>2026-03-22T10:34:18.666Z</time></trkpt><trkpt lat="43.5029444" lon="11.2534556"><ele>489.3333333333333</ele><time>2026-03-22T10:34:19.669Z</time></trkpt><trkpt lat="43.5030298" lon="11.2534199"><ele>490.66666666666663</ele><time>2026-03-22T10:34:20.659Z</time></trkpt><trkpt lat="43.503103" lon="11.2533863"><ele>492.0</ele><time>2026-03-22T10:34:21.694Z</time></trkpt><trkpt lat="43.5031866" lon="11.2533497"><ele>493.33333333333337</ele><time>2026-03-22T10:34:22.662Z</time></trkpt><trkpt lat="43.5032728" lon="11.2533376"><ele>494.6666666666667</ele><time>2026-03-22T10:34:23.66Z</time></trkpt><trkpt lat="43.50335" lon="11.2533442"><ele>496.0</ele><time>2026-03-22T10:34:24.661Z</time></trkpt><trkpt lat="43.5034277" lon="11.253373"><ele>496.0</ele><time>2026-03-22T10:34:25.665Z</time></trkpt><trkpt lat="43.5034987" lon="11.2534151"><ele>496.0</ele><time>2026-03-22T10:34:26.661Z</time></trkpt><trkpt lat="43.5035959" lon="11.253507"><ele>496.0</ele><time>2026-03-22T10:34:28.666Z</time></trkpt><trkpt lat="43.5036952" lon="11.2536075"><ele>496.0</ele><time>2026-03-22T10:34:30.662Z</time></trkpt><trkpt lat="43.503754" lon="11.2536622"><ele>496.0</ele><time>2026-03-22T10:34:31.66Z</time></trkpt><trkpt lat="43.5038359" lon="11.2537143"><ele>496.6</ele><time>2026-03-22T10:34:32.664Z</time></trkpt><trkpt lat="43.5039341" lon="11.2537759"><ele>497.20000000000005</ele><time>2026-03-22T10:34:33.666Z</time></trkpt><trkpt lat="43.5040285" lon="11.2538465"><ele>497.79999999999995</ele><time>2026-03-22T10:34:34.691Z</time></trkpt><trkpt lat="43.5041032" lon="11.2539155"><ele>498.4</ele><time>2026-03-22T10:34:35.663Z</time></trkpt><trkpt lat="43.5041653" lon="11.2539866"><ele>499.0</ele><time>2026-03-22T10:34:36.665Z</time></trkpt><trkpt lat="43.5042416" lon="11.2540044"><ele>499.0</ele><time>2026-03-22T10:34:38.663Z</time></trkpt><trkpt lat="43.5043322" lon="11.2539959"><ele>499.0</ele><time>2026-03-22T10:34:40.659Z</time></trkpt><trkpt lat="43.5044352" lon="11.2539572"><ele>499.0</ele><time>2026-03-22T10:34:42.667Z</time></trkpt><trkpt lat="43.5045334" lon="11.2538775"><ele>499.0</ele><time>2026-03-22T10:34:44.663Z</time></trkpt><trkpt lat="43.5046628" lon="11.2538426"><ele>499.0</ele><time>2026-03-22T10:34:46.661Z</time></trkpt><trkpt lat="43.5047253" lon="11.2538562"><ele>500.00000000000006</ele><time>2026-03-22T10:34:47.66Z</time></trkpt><trkpt lat="43.504787" lon="11.2538956"><ele>501.0</ele><time>2026-03-22T10:34:48.667Z</time></trkpt><trkpt lat="43.5048422" lon="11.2539419"><ele>502.0</ele><time>2026-03-22T10:34:49.66Z</time></trkpt><trkpt lat="43.504898" lon="11.25399"><ele>503.0</ele><time>2026-03-22T10:34:50.663Z</time></trkpt><trkpt lat="43.5050066" lon="11.2540758"><ele>504.00000000000006</ele><time>2026-03-22T10:34:52.665Z</time></trkpt><trkpt lat="43.5050596" lon="11.2541463"><ele>505.0</ele><time>2026-03-22T10:34:53.652Z</time></trkpt><trkpt lat="43.5051061" lon="11.2542484"><ele>505.6</ele><time>2026-03-22T10:34:54.667Z</time></trkpt><trkpt lat="43.5051567" lon="11.2543648"><ele>506.2</ele><time>2026-03-22T10:34:55.667Z</time></trkpt><trkpt lat="43.5052165" lon="11.2544536"><ele>506.79999999999995</ele><time>2026-03-22T10:34:56.664Z</time></trkpt><trkpt lat="43.5052854" lon="11.2545263"><ele>507.4</ele><time>2026-03-22T10:34:57.685Z</time></trkpt><trkpt lat="43.5053474" lon="11.2545971"><ele>508.0</ele><time>2026-03-22T10:34:58.657Z</time></trkpt><trkpt lat="43.5054228" lon="11.2546979"><ele>508.0</ele><time>2026-03-22T10:35:00.662Z</time></trkpt></trkseg></trk></gpx>